ftp/pub/mcmurdo/arrivalheights/2019/10272019.txt

Download

		Temp	Hi	Low	Wind	Wind	Wind	Hi	Wind		Heat	Cool	In 	In	Arc.
Date	Time	Out	Temp	Temp	Speed	Dir	Run	Speed	Chill	Bar  	D-D 	D-D 	Temp	Hum	Int.
10/26/19	12:01 a	-12.4	-12.3	-12.5	0.0	---	0.00	0.0	-12.4	726.1	0.021	0.000	21.0	7	1
10/26/19	12:02 a	-12.6	-12.5	-12.6	0.0	---	0.00	0.0	-12.6	726.0	0.021	0.000	21.0	7	1
10/26/19	12:03 a	-12.5	-12.4	-12.6	0.0	---	0.00	0.0	-12.5	726.0	0.021	0.000	20.9	7	1
10/26/19	12:04 a	-12.4	-12.3	-12.4	0.0	---	0.00	0.0	-12.4	726.0	0.021	0.000	20.9	7	1
10/26/19	12:05 a	-12.3	-12.2	-12.3	0.0	---	0.00	0.0	-12.3	726.0	0.021	0.000	20.9	7	1
10/26/19	12:06 a	-12.2	-12.1	-12.2	0.0	---	0.00	0.0	-12.2	726.0	0.021	0.000	20.9	7	1
10/26/19	12:07 a	-12.1	-12.0	-12.1	0.0	---	0.00	0.0	-12.1	726.0	0.021	0.000	20.9	7	1
10/26/19	12:08 a	-11.9	-11.9	-12.0	0.0	---	0.00	0.0	-11.9	726.0	0.021	0.000	20.8	7	1
10/26/19	12:09 a	-12.1	-11.9	-12.1	0.0	---	0.00	0.0	-12.1	726.0	0.021	0.000	20.8	7	1
10/26/19	12:10 a	-12.2	-12.1	-12.3	0.0	---	0.00	0.0	-12.2	726.0	0.021	0.000	20.8	7	1
10/26/19	12:11 a	-12.4	-12.4	-12.5	0.0	---	0.00	0.0	-12.4	726.0	0.021	0.000	20.8	7	1
10/26/19	12:12 a	-12.6	-12.6	-12.7	0.0	---	0.00	0.0	-12.6	726.0	0.021	0.000	20.8	7	1
10/26/19	12:13 a	-12.7	-12.7	-12.8	0.0	---	0.00	0.0	-12.7	725.9	0.022	0.000	20.8	7	1
10/26/19	12:14 a	-12.9	-12.8	-12.9	0.0	---	0.00	0.0	-12.9	726.0	0.022	0.000	20.8	7	1
10/26/19	12:15 a	-13.0	-12.9	-13.1	0.0	---	0.00	0.0	-13.0	725.9	0.022	0.000	20.8	7	1
10/26/19	12:16 a	-13.1	-13.1	-13.1	0.0	---	0.00	0.0	-13.1	725.9	0.022	0.000	20.8	7	1
10/26/19	12:17 a	-13.2	-13.2	-13.2	0.0	---	0.00	0.0	-13.2	726.0	0.022	0.000	20.8	7	1
10/26/19	12:18 a	-13.3	-13.3	-13.3	0.0	---	0.00	0.0	-13.3	726.0	0.022	0.000	20.8	7	1
10/26/19	12:19 a	-13.4	-13.3	-13.4	0.0	---	0.00	0.0	-13.4	725.9	0.022	0.000	20.8	7	1
10/26/19	12:20 a	-13.3	-13.3	-13.4	0.0	---	0.00	0.0	-13.3	725.9	0.022	0.000	20.9	7	1
10/26/19	12:21 a	-13.4	-13.3	-13.4	0.0	---	0.00	0.0	-13.4	726.0	0.022	0.000	20.9	7	1
10/26/19	12:22 a	-13.3	-13.3	-13.3	0.0	---	0.00	0.0	-13.3	725.9	0.022	0.000	20.9	7	1
10/26/19	12:23 a	-13.3	-13.3	-13.3	0.0	---	0.00	0.0	-13.3	725.9	0.022	0.000	20.9	7	1
10/26/19	12:24 a	-13.3	-13.3	-13.3	0.0	---	0.00	0.0	-13.3	725.9	0.022	0.000	20.9	7	1
10/26/19	12:25 a	-13.3	-13.3	-13.3	0.0	---	0.00	0.0	-13.3	725.9	0.022	0.000	20.8	7	1
10/26/19	12:26 a	-13.3	-13.3	-13.3	0.0	---	0.00	0.0	-13.3	725.8	0.022	0.000	20.8	7	1
10/26/19	12:27 a	-13.3	-13.3	-13.3	0.0	---	0.00	0.0	-13.3	725.9	0.022	0.000	20.8	7	1
10/26/19	12:28 a	-13.3	-13.3	-13.3	0.0	---	0.00	0.0	-13.3	725.9	0.022	0.000	20.8	6	1
10/26/19	12:29 a	-13.3	-13.3	-13.3	0.0	---	0.00	0.0	-13.3	725.8	0.022	0.000	20.8	7	1
10/26/19	12:30 a	-13.3	-13.3	-13.3	0.0	---	0.00	0.0	-13.3	725.9	0.022	0.000	20.8	7	1
10/26/19	12:31 a	-13.3	-13.2	-13.3	0.0	---	0.00	0.0	-13.3	726.0	0.022	0.000	20.8	7	1
10/26/19	12:32 a	-13.2	-13.2	-13.3	0.0	---	0.00	0.0	-13.2	726.0	0.022	0.000	20.8	7	1
10/26/19	12:33 a	-13.3	-13.3	-13.3	0.0	---	0.00	0.0	-13.3	726.0	0.022	0.000	20.8	7	1
10/26/19	12:34 a	-13.3	-13.3	-13.3	0.0	---	0.00	0.0	-13.3	725.9	0.022	0.000	20.7	7	1
10/26/19	12:35 a	-13.3	-13.3	-13.3	0.0	---	0.00	0.0	-13.3	725.9	0.022	0.000	20.7	7	1
10/26/19	12:36 a	-13.3	-13.3	-13.3	0.0	---	0.00	0.0	-13.3	725.9	0.022	0.000	20.7	7	1
10/26/19	12:37 a	-13.2	-13.2	-13.3	0.0	---	0.00	0.0	-13.2	726.0	0.022	0.000	20.7	7	1
10/26/19	12:38 a	-13.2	-13.2	-13.2	0.0	---	0.00	0.0	-13.2	725.9	0.022	0.000	20.7	7	1
10/26/19	12:39 a	-13.2	-13.2	-13.2	0.0	---	0.00	0.0	-13.2	725.9	0.022	0.000	20.7	7	1
10/26/19	12:40 a	-13.2	-13.2	-13.2	0.0	---	0.00	0.0	-13.2	726.0	0.022	0.000	20.6	7	1
10/26/19	12:41 a	-13.2	-13.2	-13.2	0.0	---	0.00	0.0	-13.2	725.9	0.022	0.000	20.6	6	1
10/26/19	12:42 a	-13.1	-13.1	-13.2	0.0	---	0.00	0.0	-13.1	725.9	0.022	0.000	20.6	7	1
10/26/19	12:43 a	-13.1	-13.1	-13.1	0.0	---	0.00	0.0	-13.1	726.0	0.022	0.000	20.6	6	1
10/26/19	12:44 a	-13.1	-13.1	-13.1	0.0	---	0.00	0.0	-13.1	726.0	0.022	0.000	20.6	6	1
10/26/19	12:45 a	-13.1	-13.0	-13.1	0.0	---	0.00	0.0	-13.1	725.9	0.022	0.000	20.6	6	1
10/26/19	12:46 a	-13.0	-13.0	-13.0	0.0	---	0.00	0.0	-13.0	725.9	0.022	0.000	20.5	6	1
10/26/19	12:47 a	-12.9	-12.9	-13.0	0.0	---	0.00	0.0	-12.9	725.9	0.022	0.000	20.5	7	1
10/26/19	12:48 a	-12.9	-12.9	-12.9	0.0	---	0.00	0.0	-12.9	725.9	0.022	0.000	20.5	6	1
10/26/19	12:49 a	-12.9	-12.9	-12.9	0.0	---	0.00	0.0	-12.9	725.9	0.022	0.000	20.5	6	1
10/26/19	12:50 a	-12.9	-12.9	-12.9	0.0	---	0.00	0.0	-12.9	725.9	0.022	0.000	20.6	6	1
10/26/19	12:51 a	-12.9	-12.9	-12.9	0.0	---	0.00	0.0	-12.9	725.9	0.022	0.000	20.6	6	1
10/26/19	12:52 a	-12.9	-12.9	-12.9	0.0	---	0.00	0.0	-12.9	725.8	0.022	0.000	20.6	6	1
10/26/19	12:53 a	-12.9	-12.9	-12.9	0.0	---	0.00	0.0	-12.9	725.8	0.022	0.000	20.6	6	1
10/26/19	12:54 a	-12.9	-12.9	-12.9	0.0	---	0.00	0.0	-12.9	725.8	0.022	0.000	20.6	6	1
10/26/19	12:55 a	-12.9	-12.9	-12.9	0.0	---	0.00	0.0	-12.9	725.8	0.022	0.000	20.6	6	1
10/26/19	12:56 a	-12.9	-12.8	-12.9	0.0	---	0.00	0.0	-12.9	725.8	0.022	0.000	20.6	6	1
10/26/19	12:57 a	-12.9	-12.8	-12.9	0.0	---	0.00	0.0	-12.9	725.8	0.022	0.000	20.6	6	1
10/26/19	12:58 a	-12.8	-12.8	-12.8	0.0	---	0.00	0.0	-12.8	725.8	0.022	0.000	20.6	6	1
10/26/19	12:59 a	-12.8	-12.8	-12.8	0.0	---	0.00	0.0	-12.8	725.8	0.022	0.000	20.6	6	1
10/26/19	1:00 a	-12.8	-12.8	-12.8	0.0	---	0.00	0.0	-12.8	725.8	0.022	0.000	20.6	6	1
10/26/19	1:01 a	-12.7	-12.7	-12.7	0.0	---	0.00	0.0	-12.7	725.7	0.022	0.000	20.6	6	1
10/26/19	1:02 a	-12.7	-12.7	-12.7	0.0	---	0.00	0.0	-12.7	725.8	0.022	0.000	20.6	6	1
10/26/19	1:03 a	-12.7	-12.7	-12.7	0.0	---	0.00	0.0	-12.7	725.7	0.022	0.000	20.6	6	1
10/26/19	1:04 a	-12.7	-12.7	-12.7	0.0	---	0.00	0.0	-12.7	725.8	0.022	0.000	20.6	6	1
10/26/19	1:05 a	-12.7	-12.7	-12.7	0.0	---	0.00	0.0	-12.7	725.7	0.022	0.000	20.6	6	1
10/26/19	1:06 a	-12.7	-12.7	-12.7	0.0	---	0.00	0.0	-12.7	725.8	0.022	0.000	20.6	6	1
10/26/19	1:07 a	-12.7	-12.7	-12.7	0.0	---	0.00	0.0	-12.7	725.7	0.022	0.000	20.7	6	1
10/26/19	1:08 a	-12.7	-12.6	-12.7	0.0	---	0.00	0.0	-12.7	725.7	0.022	0.000	20.7	6	1
10/26/19	1:09 a	-12.6	-12.6	-12.6	0.0	---	0.00	0.0	-12.6	725.7	0.021	0.000	20.7	6	1
10/26/19	1:10 a	-12.6	-12.6	-12.6	0.0	---	0.00	0.0	-12.6	725.8	0.021	0.000	20.7	7	1
10/26/19	1:11 a	-12.6	-12.6	-12.6	0.0	---	0.00	0.0	-12.6	725.7	0.021	0.000	20.7	7	1
10/26/19	1:12 a	-12.5	-12.5	-12.6	0.0	---	0.00	0.0	-12.5	725.7	0.021	0.000	20.7	7	1
10/26/19	1:13 a	-12.5	-12.4	-12.5	0.0	---	0.00	0.0	-12.5	725.8	0.021	0.000	20.7	7	1
10/26/19	1:14 a	-12.4	-12.4	-12.4	0.0	---	0.00	0.0	-12.4	725.8	0.021	0.000	20.7	6	1
10/26/19	1:15 a	-12.4	-12.4	-12.4	0.0	---	0.00	0.0	-12.4	725.7	0.021	0.000	20.7	7	1
10/26/19	1:16 a	-12.4	-12.4	-12.4	0.0	---	0.00	0.0	-12.4	725.7	0.021	0.000	20.7	7	1
10/26/19	1:17 a	-12.4	-12.4	-12.4	0.0	---	0.00	0.0	-12.4	725.7	0.021	0.000	20.7	7	1
10/26/19	1:18 a	-12.4	-12.4	-12.4	0.0	---	0.00	0.0	-12.4	725.7	0.021	0.000	20.7	7	1
10/26/19	1:19 a	-12.4	-12.4	-12.4	0.0	---	0.00	0.0	-12.4	725.8	0.021	0.000	20.7	7	1
10/26/19	1:20 a	-12.4	-12.4	-12.4	0.0	---	0.00	0.0	-12.4	725.7	0.021	0.000	20.7	7	1
10/26/19	1:21 a	-12.4	-12.4	-12.4	0.0	---	0.00	0.0	-12.4	725.7	0.021	0.000	20.7	7	1
10/26/19	1:22 a	-12.4	-12.4	-12.4	0.0	---	0.00	0.0	-12.4	725.7	0.021	0.000	20.7	7	1
10/26/19	1:23 a	-12.4	-12.4	-12.4	0.0	---	0.00	0.0	-12.4	725.7	0.021	0.000	20.7	7	1
10/26/19	1:24 a	-12.3	-12.3	-12.4	0.0	---	0.00	0.0	-12.3	725.6	0.021	0.000	20.7	7	1
10/26/19	1:25 a	-12.3	-12.3	-12.3	0.0	---	0.00	0.0	-12.3	725.6	0.021	0.000	20.7	7	1
10/26/19	1:26 a	-12.3	-12.3	-12.3	0.0	---	0.00	0.0	-12.3	725.6	0.021	0.000	20.7	7	1
10/26/19	1:27 a	-12.3	-12.3	-12.3	0.0	---	0.00	0.0	-12.3	725.6	0.021	0.000	20.7	7	1
10/26/19	1:28 a	-12.3	-12.3	-12.3	0.0	---	0.00	0.0	-12.3	725.6	0.021	0.000	20.7	7	1
10/26/19	1:29 a	-12.3	-12.3	-12.3	0.0	---	0.00	0.0	-12.3	725.6	0.021	0.000	20.7	7	1
10/26/19	1:30 a	-12.3	-12.2	-12.3	0.0	---	0.00	0.0	-12.3	725.6	0.021	0.000	20.7	7	1
10/26/19	1:31 a	-12.2	-12.2	-12.2	0.0	---	0.00	0.0	-12.2	725.7	0.021	0.000	20.8	7	1
10/26/19	1:32 a	-12.2	-12.2	-12.2	0.0	---	0.00	0.0	-12.2	725.6	0.021	0.000	20.8	7	1
10/26/19	1:33 a	-12.2	-12.2	-12.2	0.0	---	0.00	0.0	-12.2	725.6	0.021	0.000	20.8	7	1
10/26/19	1:34 a	-12.2	-12.1	-12.2	0.0	---	0.00	0.0	-12.2	725.6	0.021	0.000	20.9	7	1
10/26/19	1:35 a	-12.1	-12.1	-12.1	0.0	---	0.00	0.0	-12.1	725.5	0.021	0.000	20.9	7	1
10/26/19	1:36 a	-12.1	-12.1	-12.1	0.0	---	0.00	0.0	-12.1	725.5	0.021	0.000	20.9	7	1
10/26/19	1:37 a	-12.1	-12.1	-12.1	0.0	---	0.00	0.0	-12.1	725.4	0.021	0.000	20.8	7	1
10/26/19	1:38 a	-12.1	-12.1	-12.1	0.0	---	0.00	0.0	-12.1	725.5	0.021	0.000	20.8	7	1
10/26/19	1:39 a	-12.1	-12.1	-12.1	0.0	---	0.00	0.0	-12.1	725.6	0.021	0.000	20.8	7	1
10/26/19	1:40 a	-12.1	-12.1	-12.1	0.0	---	0.00	0.0	-12.1	725.5	0.021	0.000	20.8	7	1
10/26/19	1:41 a	-12.1	-12.1	-12.1	0.0	---	0.00	0.0	-12.1	725.5	0.021	0.000	20.8	7	1
10/26/19	1:42 a	-12.1	-12.1	-12.1	0.0	---	0.00	0.0	-12.1	725.6	0.021	0.000	20.8	7	1
10/26/19	1:43 a	-12.1	-12.1	-12.1	0.0	---	0.00	0.0	-12.1	725.4	0.021	0.000	20.8	7	1
10/26/19	1:44 a	-12.1	-12.1	-12.1	0.0	---	0.00	0.0	-12.1	725.5	0.021	0.000	20.8	7	1
10/26/19	1:45 a	-12.1	-12.1	-12.1	0.0	---	0.00	0.0	-12.1	725.4	0.021	0.000	20.8	7	1
10/26/19	1:46 a	-12.1	-12.1	-12.1	0.0	---	0.00	0.0	-12.1	725.4	0.021	0.000	20.8	7	1
10/26/19	1:47 a	-12.1	-12.1	-12.1	0.0	---	0.00	0.0	-12.1	725.4	0.021	0.000	20.8	7	1
10/26/19	1:48 a	-12.1	-12.0	-12.1	0.0	---	0.00	0.0	-12.1	725.4	0.021	0.000	20.8	7	1
10/26/19	1:49 a	-12.1	-12.0	-12.1	0.0	---	0.00	0.0	-12.1	725.4	0.021	0.000	20.8	7	1
10/26/19	1:50 a	-12.0	-12.0	-12.0	0.0	---	0.00	0.0	-12.0	725.4	0.021	0.000	20.8	7	1
10/26/19	1:51 a	-12.0	-12.0	-12.0	0.0	---	0.00	0.0	-12.0	725.4	0.021	0.000	20.7	7	1
10/26/19	1:52 a	-12.0	-12.0	-12.0	0.0	---	0.00	0.0	-12.0	725.3	0.021	0.000	20.7	7	1
10/26/19	1:53 a	-11.9	-11.9	-12.0	0.0	---	0.00	0.0	-11.9	725.3	0.021	0.000	20.7	7	1
10/26/19	1:54 a	-11.9	-11.9	-11.9	0.0	---	0.00	0.0	-11.9	725.4	0.021	0.000	20.7	7	1
10/26/19	1:55 a	-11.9	-11.9	-11.9	0.0	---	0.00	0.0	-11.9	725.3	0.021	0.000	20.7	8	1
10/26/19	1:56 a	-11.9	-11.9	-12.0	0.0	---	0.00	0.0	-11.9	725.4	0.021	0.000	20.7	8	1
10/26/19	1:57 a	-12.0	-12.0	-12.0	0.0	---	0.00	0.0	-12.0	725.4	0.021	0.000	20.7	8	1
10/26/19	1:58 a	-12.0	-12.0	-12.0	0.0	---	0.00	0.0	-12.0	725.3	0.021	0.000	20.7	8	1
10/26/19	1:59 a	-12.0	-12.0	-12.0	0.0	---	0.00	0.0	-12.0	725.4	0.021	0.000	20.6	8	1
10/26/19	2:00 a	-12.0	-12.0	-12.0	0.0	---	0.00	0.0	-12.0	725.4	0.021	0.000	20.6	8	1
10/26/19	2:01 a	-12.0	-12.0	-12.1	0.0	---	0.00	0.0	-12.0	725.4	0.021	0.000	20.6	8	1
10/26/19	2:02 a	-12.0	-12.0	-12.1	0.0	---	0.00	0.0	-12.0	725.3	0.021	0.000	20.6	8	1
10/26/19	2:03 a	-12.0	-12.0	-12.0	0.0	---	0.00	0.0	-12.0	725.3	0.021	0.000	20.6	8	1
10/26/19	2:04 a	-12.0	-12.0	-12.0	0.0	---	0.00	0.0	-12.0	725.2	0.021	0.000	20.6	8	1
10/26/19	2:05 a	-12.0	-12.0	-12.0	0.0	---	0.00	0.0	-12.0	725.2	0.021	0.000	20.6	8	1
10/26/19	2:06 a	-12.0	-11.9	-12.0	0.0	---	0.00	0.0	-12.0	725.2	0.021	0.000	20.6	8	1
10/26/19	2:07 a	-11.9	-11.9	-11.9	0.0	---	0.00	0.0	-11.9	725.2	0.021	0.000	20.6	8	1
10/26/19	2:08 a	-11.9	-11.8	-11.9	0.0	---	0.00	0.0	-11.9	725.2	0.021	0.000	20.6	8	1
10/26/19	2:09 a	-11.8	-11.8	-11.8	0.0	---	0.00	0.0	-11.8	725.2	0.021	0.000	20.6	8	1
10/26/19	2:10 a	-11.8	-11.8	-11.8	0.0	---	0.00	0.0	-11.8	725.2	0.021	0.000	20.6	8	1
10/26/19	2:11 a	-11.8	-11.8	-11.9	0.0	---	0.00	0.0	-11.8	725.1	0.021	0.000	20.7	8	1
10/26/19	2:12 a	-11.9	-11.8	-11.9	0.0	---	0.00	0.0	-11.9	725.1	0.021	0.000	20.7	8	1
10/26/19	2:13 a	-11.9	-11.9	-11.9	0.0	---	0.00	0.0	-11.9	725.3	0.021	0.000	20.7	8	1
10/26/19	2:14 a	-11.9	-11.9	-12.0	0.0	---	0.00	0.0	-11.9	725.1	0.021	0.000	20.7	8	1
10/26/19	2:15 a	-12.0	-12.0	-12.0	0.0	---	0.00	0.0	-12.0	725.1	0.021	0.000	20.7	8	1
10/26/19	2:16 a	-11.9	-11.9	-12.0	0.0	---	0.00	0.0	-11.9	725.1	0.021	0.000	20.6	8	1
10/26/19	2:17 a	-12.0	-12.0	-12.1	0.0	---	0.00	0.0	-12.0	725.1	0.021	0.000	20.6	8	1
10/26/19	2:18 a	-12.1	-12.1	-12.1	0.0	---	0.00	0.0	-12.1	725.1	0.021	0.000	20.6	8	1
10/26/19	2:19 a	-12.1	-12.1	-12.1	0.0	---	0.00	0.0	-12.1	725.1	0.021	0.000	20.6	8	1
10/26/19	2:20 a	-12.0	-12.0	-12.1	0.0	---	0.00	0.0	-12.0	725.1	0.021	0.000	20.5	8	1
10/26/19	2:21 a	-12.0	-12.0	-12.0	0.0	---	0.00	0.0	-12.0	725.1	0.021	0.000	20.4	8	1
10/26/19	2:22 a	-12.1	-12.1	-12.1	0.0	---	0.00	0.0	-12.1	725.0	0.021	0.000	20.4	8	1
10/26/19	2:23 a	-12.1	-12.1	-12.1	0.0	---	0.00	0.0	-12.1	725.1	0.021	0.000	20.4	8	1
10/26/19	2:24 a	-12.0	-12.0	-12.1	0.0	---	0.00	0.0	-12.0	725.1	0.021	0.000	20.4	8	1
10/26/19	2:25 a	-11.9	-11.9	-11.9	0.0	---	0.00	0.0	-11.9	725.1	0.021	0.000	20.3	8	1
10/26/19	2:26 a	-11.7	-11.5	-11.9	0.0	---	0.00	0.0	-11.7	725.1	0.021	0.000	20.3	8	1
10/26/19	2:27 a	-11.4	-11.3	-11.5	0.0	---	0.00	0.0	-11.4	725.0	0.021	0.000	20.3	8	1
10/26/19	2:28 a	-11.2	-11.2	-11.3	0.0	---	0.00	0.0	-11.2	725.0	0.021	0.000	20.3	8	1
10/26/19	2:29 a	-11.3	-11.3	-11.4	0.0	---	0.00	0.0	-11.3	725.0	0.021	0.000	20.3	8	1
10/26/19	2:30 a	-11.5	-11.4	-11.6	0.0	---	0.00	0.0	-11.5	725.0	0.021	0.000	20.2	8	1
10/26/19	2:31 a	-11.6	-11.6	-11.7	0.0	---	0.00	0.0	-11.6	725.0	0.021	0.000	20.2	8	1
10/26/19	2:32 a	-11.7	-11.7	-11.7	0.0	---	0.00	0.0	-11.7	725.0	0.021	0.000	20.2	8	1
10/26/19	2:33 a	-11.7	-11.7	-11.8	0.0	---	0.00	0.0	-11.7	725.0	0.021	0.000	20.2	7	1
10/26/19	2:34 a	-11.8	-11.8	-11.8	0.0	---	0.00	0.0	-11.8	725.0	0.021	0.000	20.2	8	1
10/26/19	2:35 a	-11.8	-11.8	-11.8	0.0	---	0.00	0.0	-11.8	725.0	0.021	0.000	20.2	8	1
10/26/19	2:36 a	-11.8	-11.8	-11.9	0.0	---	0.00	0.0	-11.8	725.0	0.021	0.000	20.1	8	1
10/26/19	2:37 a	-11.9	-11.9	-11.9	0.0	---	0.00	0.0	-11.9	725.0	0.021	0.000	20.1	7	1
10/26/19	2:38 a	-11.9	-11.9	-11.9	0.0	---	0.00	0.0	-11.9	725.0	0.021	0.000	20.1	7	1
10/26/19	2:39 a	-12.0	-11.9	-12.0	0.0	---	0.00	0.0	-12.0	725.0	0.021	0.000	20.1	7	1
10/26/19	2:40 a	-12.0	-12.0	-12.1	0.0	---	0.00	0.0	-12.0	725.0	0.021	0.000	20.1	7	1
10/26/19	2:41 a	-12.0	-12.0	-12.1	0.0	---	0.00	0.0	-12.0	724.9	0.021	0.000	20.1	7	1
10/26/19	2:42 a	-12.1	-12.1	-12.1	0.0	---	0.00	0.0	-12.1	724.9	0.021	0.000	20.1	7	1
10/26/19	2:43 a	-12.1	-12.1	-12.1	0.0	---	0.00	0.0	-12.1	725.0	0.021	0.000	20.1	7	1
10/26/19	2:44 a	-12.1	-12.1	-12.1	0.0	---	0.00	0.0	-12.1	725.0	0.021	0.000	20.1	7	1
10/26/19	2:45 a	-12.1	-12.1	-12.1	0.0	---	0.00	0.0	-12.1	725.0	0.021	0.000	20.1	7	1
10/26/19	2:46 a	-12.1	-12.1	-12.1	0.0	---	0.00	0.0	-12.1	724.9	0.021	0.000	20.1	7	1
10/26/19	2:47 a	-12.1	-12.1	-12.1	0.0	---	0.00	0.0	-12.1	724.9	0.021	0.000	20.1	7	1
10/26/19	2:48 a	-12.1	-12.1	-12.1	0.0	---	0.00	0.0	-12.1	725.0	0.021	0.000	20.1	7	1
10/26/19	2:49 a	-12.1	-12.1	-12.1	0.0	---	0.00	0.0	-12.1	724.8	0.021	0.000	20.1	7	1
10/26/19	2:50 a	-12.0	-11.9	-12.1	0.0	---	0.00	0.0	-12.0	725.0	0.021	0.000	20.1	7	1
10/26/19	2:51 a	-12.0	-11.9	-12.0	0.0	---	0.00	0.0	-12.0	724.9	0.021	0.000	20.1	7	1
10/26/19	2:52 a	-12.0	-11.9	-12.0	0.0	---	0.00	0.0	-12.0	724.9	0.021	0.000	20.0	7	1
10/26/19	2:53 a	-11.9	-11.9	-12.0	0.0	---	0.00	0.0	-11.9	725.0	0.021	0.000	20.0	7	1
10/26/19	2:54 a	-11.9	-11.9	-11.9	0.0	---	0.00	0.0	-11.9	724.9	0.021	0.000	19.9	7	1
10/26/19	2:55 a	-11.9	-11.9	-11.9	0.0	---	0.00	0.0	-11.9	724.9	0.021	0.000	19.9	7	1
10/26/19	2:56 a	-11.8	-11.7	-11.9	0.0	---	0.00	0.0	-11.8	724.9	0.021	0.000	19.9	6	1
10/26/19	2:57 a	-11.7	-11.6	-11.7	0.0	---	0.00	0.0	-11.7	724.9	0.021	0.000	19.9	6	1
10/26/19	2:58 a	-11.7	-11.7	-11.8	0.0	---	0.00	0.0	-11.7	725.0	0.021	0.000	19.9	6	1
10/26/19	2:59 a	-11.8	-11.8	-11.8	0.0	---	0.00	0.0	-11.8	724.9	0.021	0.000	19.9	6	1
10/26/19	3:00 a	-11.8	-11.8	-11.8	0.0	---	0.00	0.0	-11.8	724.8	0.021	0.000	19.8	6	1
10/26/19	3:01 a	-11.8	-11.8	-11.8	0.0	---	0.00	0.0	-11.8	724.8	0.021	0.000	19.8	5	1
10/26/19	3:02 a	-11.8	-11.8	-11.8	0.0	---	0.00	0.0	-11.8	724.8	0.021	0.000	19.8	6	1
10/26/19	3:03 a	-11.8	-11.8	-11.8	0.0	---	0.00	0.0	-11.8	724.8	0.021	0.000	19.8	6	1
10/26/19	3:04 a	-11.8	-11.8	-11.8	0.0	---	0.00	0.0	-11.8	724.8	0.021	0.000	19.8	6	1
10/26/19	3:05 a	-11.8	-11.8	-11.8	0.0	---	0.00	0.0	-11.8	724.9	0.021	0.000	19.8	5	1
10/26/19	3:06 a	-11.7	-11.6	-11.8	0.0	---	0.00	0.0	-11.7	724.9	0.021	0.000	19.9	5	1
10/26/19	3:07 a	-11.5	-11.4	-11.6	0.0	---	0.00	0.0	-11.5	724.9	0.021	0.000	19.9	5	1
10/26/19	3:08 a	-11.4	-11.4	-11.5	0.0	---	0.00	0.0	-11.4	724.8	0.021	0.000	19.9	5	1
10/26/19	3:09 a	-11.4	-11.4	-11.4	0.0	---	0.00	0.0	-11.4	724.8	0.021	0.000	19.9	5	1
10/26/19	3:10 a	-11.5	-11.5	-11.5	0.0	---	0.00	0.0	-11.5	724.8	0.021	0.000	19.9	6	1
10/26/19	3:11 a	-11.6	-11.5	-11.6	0.0	---	0.00	0.0	-11.6	724.8	0.021	0.000	19.9	6	1
10/26/19	3:12 a	-11.6	-11.6	-11.6	0.0	---	0.00	0.0	-11.6	724.9	0.021	0.000	19.9	6	1
10/26/19	3:13 a	-11.7	-11.7	-11.7	0.0	---	0.00	0.0	-11.7	724.9	0.021	0.000	19.9	6	1
10/26/19	3:14 a	-11.7	-11.7	-11.7	0.0	---	0.00	0.0	-11.7	724.8	0.021	0.000	19.9	6	1
10/26/19	3:15 a	-11.7	-11.7	-11.7	0.0	---	0.00	0.0	-11.7	724.8	0.021	0.000	19.9	6	1
10/26/19	3:16 a	-11.7	-11.6	-11.7	0.0	---	0.00	0.0	-11.7	724.8	0.021	0.000	19.9	6	1
10/26/19	3:17 a	-11.6	-11.6	-11.6	0.0	---	0.00	0.0	-11.6	724.8	0.021	0.000	19.8	6	1
10/26/19	3:18 a	-11.6	-11.6	-11.6	0.0	---	0.00	0.0	-11.6	724.8	0.021	0.000	19.8	6	1
10/26/19	3:19 a	-11.4	-11.3	-11.4	0.0	---	0.00	0.0	-11.4	724.8	0.021	0.000	19.8	6	1
10/26/19	3:20 a	-11.2	-11.0	-11.3	0.0	---	0.00	0.0	-11.2	724.8	0.021	0.000	19.8	6	1
10/26/19	3:21 a	-10.9	-10.8	-11.0	0.0	---	0.00	0.0	-10.9	724.8	0.020	0.000	19.8	6	1
10/26/19	3:22 a	-10.8	-10.8	-10.8	0.0	---	0.00	0.0	-10.8	724.8	0.020	0.000	19.7	6	1
10/26/19	3:23 a	-10.8	-10.8	-10.9	0.0	---	0.00	0.0	-10.8	724.8	0.020	0.000	19.7	6	1
10/26/19	3:24 a	-10.9	-10.9	-10.9	0.0	---	0.00	0.0	-10.9	724.8	0.020	0.000	19.7	6	1
10/26/19	3:25 a	-10.9	-10.9	-10.9	0.0	---	0.00	0.0	-10.9	724.8	0.020	0.000	19.7	6	1
10/26/19	3:26 a	-11.0	-11.0	-11.1	0.0	---	0.00	0.0	-11.0	724.8	0.020	0.000	19.7	6	1
10/26/19	3:27 a	-11.1	-11.1	-11.1	0.0	---	0.00	0.0	-11.1	724.7	0.020	0.000	19.6	6	1
10/26/19	3:28 a	-11.1	-11.1	-11.2	0.0	---	0.00	0.0	-11.1	724.7	0.020	0.000	19.6	6	1
10/26/19	3:29 a	-11.1	-11.1	-11.2	0.0	---	0.00	0.0	-11.1	724.7	0.020	0.000	19.6	6	1
10/26/19	3:30 a	-11.2	-11.1	-11.2	0.0	---	0.00	0.0	-11.2	724.8	0.020	0.000	19.6	6	1
10/26/19	3:31 a	-11.1	-11.1	-11.1	0.0	---	0.00	0.0	-11.1	724.7	0.020	0.000	19.6	5	1
10/26/19	3:32 a	-11.1	-11.1	-11.1	0.0	---	0.00	0.0	-11.1	724.7	0.020	0.000	19.6	5	1
10/26/19	3:33 a	-11.0	-10.9	-11.1	0.0	---	0.00	0.0	-11.0	724.7	0.020	0.000	19.6	5	1
10/26/19	3:34 a	-10.9	-10.8	-10.9	0.0	---	0.00	0.0	-10.9	724.8	0.020	0.000	19.6	5	1
10/26/19	3:35 a	-10.6	-10.6	-10.7	0.0	---	0.00	0.0	-10.6	724.7	0.020	0.000	19.6	5	1
10/26/19	3:36 a	-10.6	-10.6	-10.6	0.0	---	0.00	0.0	-10.6	724.7	0.020	0.000	19.6	5	1
10/26/19	3:37 a	-10.6	-10.5	-10.6	0.0	---	0.00	0.0	-10.6	724.7	0.020	0.000	19.6	5	1
10/26/19	3:38 a	-10.6	-10.6	-10.6	0.0	---	0.00	0.0	-10.6	724.6	0.020	0.000	19.6	5	1
10/26/19	3:39 a	-10.6	-10.4	-10.6	0.0	---	0.00	0.0	-10.6	724.7	0.020	0.000	19.6	5	1
10/26/19	3:40 a	-10.4	-10.4	-10.4	0.0	---	0.00	0.0	-10.4	724.6	0.020	0.000	19.7	5	1
10/26/19	3:41 a	-10.4	-10.4	-10.4	0.0	---	0.00	0.0	-10.4	724.7	0.020	0.000	19.7	5	1
10/26/19	3:42 a	-10.3	-10.3	-10.3	0.0	---	0.00	0.0	-10.3	724.7	0.020	0.000	19.6	5	1
10/26/19	3:43 a	-10.3	-10.3	-10.3	0.0	---	0.00	0.0	-10.3	724.6	0.020	0.000	19.6	5	1
10/26/19	3:44 a	-10.3	-10.3	-10.3	0.0	---	0.00	0.0	-10.3	724.6	0.020	0.000	19.6	5	1
10/26/19	3:45 a	-10.4	-10.4	-10.4	0.0	---	0.00	0.0	-10.4	724.7	0.020	0.000	19.6	5	1
10/26/19	3:46 a	-10.4	-10.4	-10.4	0.0	---	0.00	0.0	-10.4	724.6	0.020	0.000	19.6	5	1
10/26/19	3:47 a	-10.4	-10.4	-10.4	0.0	---	0.00	0.0	-10.4	724.6	0.020	0.000	19.6	5	1
10/26/19	3:48 a	-10.4	-10.4	-10.4	0.0	---	0.00	0.0	-10.4	724.6	0.020	0.000	19.6	4	1
10/26/19	3:49 a	-10.4	-10.4	-10.4	0.0	---	0.00	0.0	-10.4	724.6	0.020	0.000	19.6	5	1
10/26/19	3:50 a	-10.4	-10.4	-10.4	0.0	---	0.00	0.0	-10.4	724.6	0.020	0.000	19.6	5	1
10/26/19	3:51 a	-10.5	-10.4	-10.5	0.0	---	0.00	0.0	-10.5	724.6	0.020	0.000	19.6	5	1
10/26/19	3:52 a	-10.4	-10.4	-10.4	0.0	---	0.00	0.0	-10.4	724.5	0.020	0.000	19.5	5	1
10/26/19	3:53 a	-10.4	-10.4	-10.4	0.0	---	0.00	0.0	-10.4	724.6	0.020	0.000	19.5	5	1
10/26/19	3:54 a	-10.4	-10.4	-10.5	0.0	---	0.00	0.0	-10.4	724.5	0.020	0.000	19.5	4	1
10/26/19	3:55 a	-10.5	-10.4	-10.6	0.0	---	0.00	0.0	-10.5	724.6	0.020	0.000	19.4	5	1
10/26/19	3:56 a	-10.6	-10.6	-10.6	0.0	---	0.00	0.0	-10.6	724.6	0.020	0.000	19.4	4	1
10/26/19	3:57 a	-10.5	-10.5	-10.6	0.0	---	0.00	0.0	-10.5	724.6	0.020	0.000	19.4	4	1
10/26/19	3:58 a	-10.4	-10.4	-10.4	0.0	---	0.00	0.0	-10.4	724.6	0.020	0.000	19.4	5	1
10/26/19	3:59 a	-10.4	-10.4	-10.4	0.0	---	0.00	0.0	-10.4	724.6	0.020	0.000	19.4	4	1
10/26/19	4:00 a	-10.4	-10.4	-10.4	0.0	---	0.00	0.0	-10.4	724.6	0.020	0.000	19.4	5	1
10/26/19	4:01 a	-10.4	-10.4	-10.4	0.0	---	0.00	0.0	-10.4	724.6	0.020	0.000	19.4	5	1
10/26/19	4:02 a	-10.4	-10.4	-10.4	0.0	---	0.00	0.0	-10.4	724.5	0.020	0.000	19.5	5	1
10/26/19	4:03 a	-10.4	-10.4	-10.5	0.0	---	0.00	0.0	-10.4	724.6	0.020	0.000	19.5	5	1
10/26/19	4:04 a	-10.5	-10.5	-10.6	0.0	---	0.00	0.0	-10.5	724.6	0.020	0.000	19.5	5	1
10/26/19	4:05 a	-10.6	-10.6	-10.6	0.0	---	0.00	0.0	-10.6	724.6	0.020	0.000	19.5	4	1
10/26/19	4:06 a	-10.7	-10.6	-10.7	0.0	---	0.00	0.0	-10.7	724.5	0.020	0.000	19.6	5	1
10/26/19	4:07 a	-10.7	-10.7	-10.7	0.0	---	0.00	0.0	-10.7	724.5	0.020	0.000	19.6	5	1
10/26/19	4:08 a	-10.7	-10.7	-10.7	0.0	---	0.00	0.0	-10.7	724.5	0.020	0.000	19.6	5	1
10/26/19	4:09 a	-10.7	-10.7	-10.7	0.0	---	0.00	0.0	-10.7	724.6	0.020	0.000	19.6	5	1
10/26/19	4:10 a	-10.7	-10.7	-10.7	0.0	---	0.00	0.0	-10.7	724.5	0.020	0.000	19.6	5	1
10/26/19	4:11 a	-10.8	-10.7	-10.8	0.0	---	0.00	0.0	-10.8	724.5	0.020	0.000	19.6	5	1
10/26/19	4:12 a	-10.7	-10.7	-10.8	0.0	---	0.00	0.0	-10.7	724.5	0.020	0.000	19.6	5	1
10/26/19	4:13 a	-10.7	-10.6	-10.7	0.0	---	0.00	0.0	-10.7	724.6	0.020	0.000	19.6	5	1
10/26/19	4:14 a	-10.6	-10.6	-10.6	0.0	---	0.00	0.0	-10.6	724.5	0.020	0.000	19.6	5	1
10/26/19	4:15 a	-10.6	-10.6	-10.6	0.0	---	0.00	0.0	-10.6	724.5	0.020	0.000	19.5	5	1
10/26/19	4:16 a	-10.6	-10.6	-10.6	0.0	---	0.00	0.0	-10.6	724.6	0.020	0.000	19.5	5	1
10/26/19	4:17 a	-10.6	-10.6	-10.6	0.0	---	0.00	0.0	-10.6	724.5	0.020	0.000	19.5	5	1
10/26/19	4:18 a	-10.5	-10.5	-10.6	0.0	---	0.00	0.0	-10.5	724.6	0.020	0.000	19.5	5	1
10/26/19	4:19 a	-10.5	-10.5	-10.5	0.0	---	0.00	0.0	-10.5	724.5	0.020	0.000	19.4	5	1
10/26/19	4:20 a	-10.5	-10.5	-10.6	0.0	---	0.00	0.0	-10.5	724.5	0.020	0.000	19.4	5	1
10/26/19	4:21 a	-10.5	-10.5	-10.6	0.0	---	0.00	0.0	-10.5	724.5	0.020	0.000	19.4	5	1
10/26/19	4:22 a	-10.6	-10.5	-10.6	0.0	---	0.00	0.0	-10.6	724.5	0.020	0.000	19.4	5	1
10/26/19	4:23 a	-10.5	-10.5	-10.6	0.0	---	0.00	0.0	-10.5	724.5	0.020	0.000	19.4	5	1
10/26/19	4:24 a	-10.5	-10.5	-10.6	0.0	---	0.00	0.0	-10.5	724.5	0.020	0.000	19.4	5	1
10/26/19	4:25 a	-10.5	-10.5	-10.6	0.0	---	0.00	0.0	-10.5	724.6	0.020	0.000	19.4	5	1
10/26/19	4:26 a	-10.5	-10.5	-10.6	0.0	---	0.00	0.0	-10.5	724.5	0.020	0.000	19.4	5	1
10/26/19	4:27 a	-10.5	-10.5	-10.5	0.0	---	0.00	0.0	-10.5	724.5	0.020	0.000	19.4	5	1
10/26/19	4:28 a	-10.5	-10.5	-10.5	0.0	---	0.00	0.0	-10.5	724.5	0.020	0.000	19.4	5	1
10/26/19	4:29 a	-10.5	-10.5	-10.5	0.0	---	0.00	0.0	-10.5	724.5	0.020	0.000	19.4	5	1
10/26/19	4:30 a	-10.5	-10.5	-10.5	0.0	---	0.00	0.0	-10.5	724.4	0.020	0.000	19.4	5	1
10/26/19	4:31 a	-10.4	-10.4	-10.5	0.0	---	0.00	0.0	-10.4	724.5	0.020	0.000	19.5	5	1
10/26/19	4:32 a	-10.5	-10.4	-10.6	0.0	---	0.00	0.0	-10.5	724.4	0.020	0.000	19.5	5	1
10/26/19	4:33 a	-10.5	-10.5	-10.6	0.0	---	0.00	0.0	-10.5	724.4	0.020	0.000	19.5	5	1
10/26/19	4:34 a	-10.5	-10.4	-10.5	0.0	---	0.00	0.0	-10.5	724.4	0.020	0.000	19.5	5	1
10/26/19	4:35 a	-10.5	-10.5	-10.5	0.0	---	0.00	0.0	-10.5	724.4	0.020	0.000	19.5	5	1
10/26/19	4:36 a	-10.4	-10.4	-10.5	0.0	---	0.00	0.0	-10.4	724.4	0.020	0.000	19.6	5	1
10/26/19	4:37 a	-10.4	-10.4	-10.5	0.0	---	0.00	0.0	-10.4	724.4	0.020	0.000	19.6	5	1
10/26/19	4:38 a	-10.5	-10.4	-10.5	0.0	---	0.00	0.0	-10.5	724.4	0.020	0.000	19.5	5	1
10/26/19	4:39 a	-10.5	-10.4	-10.5	0.0	---	0.00	0.0	-10.5	724.4	0.020	0.000	19.5	5	1
10/26/19	4:40 a	-10.5	-10.5	-10.5	0.0	---	0.00	0.0	-10.5	724.4	0.020	0.000	19.5	5	1
10/26/19	4:41 a	-10.6	-10.5	-10.6	0.0	---	0.00	0.0	-10.6	724.4	0.020	0.000	19.5	5	1
10/26/19	4:42 a	-10.6	-10.6	-10.6	0.0	---	0.00	0.0	-10.6	724.4	0.020	0.000	19.5	5	1
10/26/19	4:43 a	-10.6	-10.6	-10.6	0.0	---	0.00	0.0	-10.6	724.4	0.020	0.000	19.5	5	1
10/26/19	4:44 a	-10.5	-10.5	-10.6	0.0	---	0.00	0.0	-10.5	724.4	0.020	0.000	19.5	5	1
10/26/19	4:45 a	-10.6	-10.6	-10.6	0.0	---	0.00	0.0	-10.6	724.4	0.020	0.000	19.5	6	1
10/26/19	4:46 a	-10.6	-10.6	-10.6	0.0	---	0.00	0.0	-10.6	724.3	0.020	0.000	19.5	5	1
10/26/19	4:47 a	-10.6	-10.6	-10.6	0.0	---	0.00	0.0	-10.6	724.3	0.020	0.000	19.4	5	1
10/26/19	4:48 a	-10.6	-10.5	-10.6	0.0	---	0.00	0.0	-10.6	724.4	0.020	0.000	19.4	5	1
10/26/19	4:49 a	-10.5	-10.5	-10.5	0.0	---	0.00	0.0	-10.5	724.4	0.020	0.000	19.4	5	1
10/26/19	4:50 a	-10.5	-10.5	-10.5	0.0	---	0.00	0.0	-10.5	724.3	0.020	0.000	19.4	5	1
10/26/19	4:51 a	-10.4	-10.4	-10.5	0.0	---	0.00	0.0	-10.4	724.4	0.020	0.000	19.4	5	1
10/26/19	4:52 a	-10.6	-10.4	-10.7	0.0	---	0.00	0.0	-10.6	724.3	0.020	0.000	19.4	5	1
10/26/19	4:53 a	-10.7	-10.7	-10.7	0.0	---	0.00	0.0	-10.7	724.4	0.020	0.000	19.4	5	1
10/26/19	4:54 a	-10.8	-10.7	-10.8	0.0	---	0.00	0.0	-10.8	724.3	0.020	0.000	19.4	5	1
10/26/19	4:55 a	-10.8	-10.8	-10.8	0.0	---	0.00	0.0	-10.8	724.3	0.020	0.000	19.4	5	1
10/26/19	4:56 a	-10.8	-10.8	-10.9	0.0	---	0.00	0.0	-10.8	724.2	0.020	0.000	19.4	5	1
10/26/19	4:57 a	-10.8	-10.8	-10.8	0.0	---	0.00	0.0	-10.8	724.4	0.020	0.000	19.4	5	1
10/26/19	4:58 a	-10.8	-10.7	-10.8	0.0	---	0.00	0.0	-10.8	724.3	0.020	0.000	19.4	5	1
10/26/19	4:59 a	-10.8	-10.7	-10.8	0.0	---	0.00	0.0	-10.8	724.3	0.020	0.000	19.4	5	1
10/26/19	5:00 a	-10.8	-10.7	-10.8	0.0	---	0.00	0.0	-10.8	724.3	0.020	0.000	19.4	5	1
10/26/19	5:01 a	-10.9	-10.8	-10.9	0.0	---	0.00	0.0	-10.9	724.3	0.020	0.000	19.5	5	1
10/26/19	5:02 a	-10.9	-10.9	-10.9	0.0	---	0.00	0.0	-10.9	724.3	0.020	0.000	19.5	5	1
10/26/19	5:03 a	-10.9	-10.9	-10.9	0.0	---	0.00	0.0	-10.9	724.3	0.020	0.000	19.5	5	1
10/26/19	5:04 a	-10.9	-10.9	-10.9	0.0	---	0.00	0.0	-10.9	724.3	0.020	0.000	19.5	5	1
10/26/19	5:05 a	-10.9	-10.9	-10.9	0.0	---	0.00	0.0	-10.9	724.3	0.020	0.000	19.5	5	1
10/26/19	5:06 a	-10.9	-10.8	-10.9	0.0	---	0.00	0.0	-10.9	724.3	0.020	0.000	19.5	5	1
10/26/19	5:07 a	-10.8	-10.8	-10.8	0.0	---	0.00	0.0	-10.8	724.3	0.020	0.000	19.5	5	1
10/26/19	5:08 a	-10.8	-10.8	-10.8	0.0	---	0.00	0.0	-10.8	724.3	0.020	0.000	19.5	5	1
10/26/19	5:09 a	-10.8	-10.8	-10.8	0.0	---	0.00	0.0	-10.8	724.3	0.020	0.000	19.5	5	1
10/26/19	5:10 a	-10.8	-10.8	-10.8	0.0	---	0.00	0.0	-10.8	724.3	0.020	0.000	19.5	5	1
10/26/19	5:11 a	-10.8	-10.8	-10.9	0.0	---	0.00	0.0	-10.8	724.3	0.020	0.000	19.4	5	1
10/26/19	5:12 a	-10.9	-10.9	-10.9	0.0	---	0.00	0.0	-10.9	724.2	0.020	0.000	19.4	5	1
10/26/19	5:13 a	-10.8	-10.8	-10.9	0.0	---	0.00	0.0	-10.8	724.2	0.020	0.000	19.4	5	1
10/26/19	5:14 a	-10.8	-10.8	-10.8	0.0	---	0.00	0.0	-10.8	724.2	0.020	0.000	19.4	5	1
10/26/19	5:15 a	-10.8	-10.8	-10.8	0.0	---	0.00	0.0	-10.8	724.3	0.020	0.000	19.4	5	1
10/26/19	5:16 a	-10.7	-10.7	-10.8	0.0	---	0.00	0.0	-10.7	724.2	0.020	0.000	19.4	5	1
10/26/19	5:17 a	-10.8	-10.8	-10.8	0.0	---	0.00	0.0	-10.8	724.3	0.020	0.000	19.4	5	1
10/26/19	5:18 a	-10.8	-10.8	-10.9	0.0	---	0.00	0.0	-10.8	724.3	0.020	0.000	19.3	5	1
10/26/19	5:19 a	-10.8	-10.8	-10.8	0.0	---	0.00	0.0	-10.8	724.3	0.020	0.000	19.3	5	1
10/26/19	5:20 a	-10.8	-10.8	-10.9	0.0	---	0.00	0.0	-10.8	724.3	0.020	0.000	19.3	6	1
10/26/19	5:21 a	-10.9	-10.8	-10.9	0.0	---	0.00	0.0	-10.9	724.3	0.020	0.000	19.3	6	1
10/26/19	5:22 a	-10.8	-10.8	-10.8	0.0	---	0.00	0.0	-10.8	724.3	0.020	0.000	19.3	6	1
10/26/19	5:23 a	-10.7	-10.7	-10.8	0.0	---	0.00	0.0	-10.7	724.3	0.020	0.000	19.3	6	1
10/26/19	5:24 a	-10.6	-10.6	-10.7	0.0	---	0.00	0.0	-10.6	724.3	0.020	0.000	19.3	6	1
10/26/19	5:25 a	-10.7	-10.7	-10.7	0.0	---	0.00	0.0	-10.7	724.2	0.020	0.000	19.3	5	1
10/26/19	5:26 a	-10.8	-10.8	-10.8	0.0	---	0.00	0.0	-10.8	724.3	0.020	0.000	19.3	5	1
10/26/19	5:27 a	-10.8	-10.8	-10.8	0.0	---	0.00	0.0	-10.8	724.3	0.020	0.000	19.4	5	1
10/26/19	5:28 a	-10.8	-10.8	-10.8	0.0	---	0.00	0.0	-10.8	724.2	0.020	0.000	19.4	5	1
10/26/19	5:29 a	-10.8	-10.8	-10.8	0.0	---	0.00	0.0	-10.8	724.3	0.020	0.000	19.4	5	1
10/26/19	5:30 a	-10.8	-10.8	-10.8	0.0	---	0.00	0.0	-10.8	724.2	0.020	0.000	19.4	5	1
10/26/19	5:31 a	-10.8	-10.8	-10.8	0.0	---	0.00	0.0	-10.8	724.2	0.020	0.000	19.4	5	1
10/26/19	5:32 a	-10.8	-10.8	-10.9	0.0	---	0.00	0.0	-10.8	724.2	0.020	0.000	19.4	5	1
10/26/19	5:33 a	-10.9	-10.8	-11.0	0.0	---	0.00	0.0	-10.9	724.2	0.020	0.000	19.4	5	1
10/26/19	5:34 a	-11.0	-11.0	-11.0	0.0	---	0.00	0.0	-11.0	724.2	0.020	0.000	19.4	5	1
10/26/19	5:35 a	-10.9	-10.9	-10.9	0.0	---	0.00	0.0	-10.9	724.1	0.020	0.000	19.4	5	1
10/26/19	5:36 a	-10.8	-10.8	-10.8	0.0	---	0.00	0.0	-10.8	724.2	0.020	0.000	19.4	5	1
10/26/19	5:37 a	-10.7	-10.7	-10.8	0.0	---	0.00	0.0	-10.7	724.2	0.020	0.000	19.4	5	1
10/26/19	5:38 a	-10.8	-10.7	-10.8	0.0	---	0.00	0.0	-10.8	724.1	0.020	0.000	19.4	5	1
10/26/19	5:39 a	-10.8	-10.8	-10.8	0.0	---	0.00	0.0	-10.8	724.2	0.020	0.000	19.3	5	1
10/26/19	5:40 a	-10.8	-10.8	-10.8	0.0	---	0.00	0.0	-10.8	724.2	0.020	0.000	19.3	5	1
10/26/19	5:41 a	-10.8	-10.8	-10.8	0.0	---	0.00	0.0	-10.8	724.2	0.020	0.000	19.3	5	1
10/26/19	5:42 a	-10.8	-10.7	-10.8	0.0	---	0.00	0.0	-10.8	724.2	0.020	0.000	19.3	5	1
10/26/19	5:43 a	-10.8	-10.8	-10.8	0.0	---	0.00	0.0	-10.8	724.1	0.020	0.000	19.3	6	1
10/26/19	5:44 a	-10.8	-10.8	-10.8	0.0	---	0.00	0.0	-10.8	724.2	0.020	0.000	19.3	6	1
10/26/19	5:45 a	-10.9	-10.8	-10.9	0.0	---	0.00	0.0	-10.9	724.2	0.020	0.000	19.2	6	1
10/26/19	5:46 a	-10.9	-10.9	-11.0	0.0	---	0.00	0.0	-10.9	724.2	0.020	0.000	19.2	6	1
10/26/19	5:47 a	-11.0	-11.0	-11.0	0.0	---	0.00	0.0	-11.0	724.2	0.020	0.000	19.2	5	1
10/26/19	5:48 a	-11.0	-11.0	-11.0	0.0	---	0.00	0.0	-11.0	724.2	0.020	0.000	19.2	5	1
10/26/19	5:49 a	-11.0	-10.9	-11.0	0.0	---	0.00	0.0	-11.0	724.2	0.020	0.000	19.2	5	1
10/26/19	5:50 a	-10.9	-10.9	-11.0	0.0	---	0.00	0.0	-10.9	724.2	0.020	0.000	19.2	5	1
10/26/19	5:51 a	-10.9	-10.8	-10.9	0.0	---	0.00	0.0	-10.9	724.2	0.020	0.000	19.2	5	1
10/26/19	5:52 a	-10.8	-10.8	-10.8	0.0	---	0.00	0.0	-10.8	724.1	0.020	0.000	19.2	6	1
10/26/19	5:53 a	-10.9	-10.8	-10.9	0.0	---	0.00	0.0	-10.9	724.1	0.020	0.000	19.3	6	1
10/26/19	5:54 a	-10.9	-10.9	-10.9	0.0	---	0.00	0.0	-10.9	724.2	0.020	0.000	19.3	6	1
10/26/19	5:55 a	-10.9	-10.9	-10.9	0.0	---	0.00	0.0	-10.9	724.1	0.020	0.000	19.3	6	1
10/26/19	5:56 a	-10.9	-10.9	-10.9	0.0	---	0.00	0.0	-10.9	724.2	0.020	0.000	19.3	6	1
10/26/19	5:57 a	-10.8	-10.8	-10.9	0.0	---	0.00	0.0	-10.8	724.1	0.020	0.000	19.3	7	1
10/26/19	5:58 a	-10.8	-10.8	-10.9	0.0	---	0.00	0.0	-10.8	724.2	0.020	0.000	19.3	6	1
10/26/19	5:59 a	-10.8	-10.8	-10.9	0.0	---	0.00	0.0	-10.8	724.2	0.020	0.000	19.3	6	1
10/26/19	6:00 a	-10.9	-10.8	-10.9	0.0	---	0.00	0.0	-10.9	724.1	0.020	0.000	19.3	6	1
10/26/19	6:01 a	-10.9	-10.9	-10.9	0.0	---	0.00	0.0	-10.9	724.1	0.020	0.000	19.3	7	1
10/26/19	6:02 a	-10.9	-10.8	-10.9	0.0	---	0.00	0.0	-10.9	724.2	0.020	0.000	19.3	6	1
10/26/19	6:03 a	-10.8	-10.8	-10.9	0.0	---	0.00	0.0	-10.8	724.2	0.020	0.000	19.3	7	1
10/26/19	6:04 a	-10.9	-10.9	-10.9	0.0	---	0.00	0.0	-10.9	724.0	0.020	0.000	19.3	7	1
10/26/19	6:05 a	-10.9	-10.9	-10.9	0.0	---	0.00	0.0	-10.9	724.1	0.020	0.000	19.3	7	1
10/26/19	6:06 a	-10.9	-10.9	-10.9	0.0	---	0.00	0.0	-10.9	724.2	0.020	0.000	19.3	7	1
10/26/19	6:07 a	-10.8	-10.8	-10.9	0.0	---	0.00	0.0	-10.8	724.1	0.020	0.000	19.3	7	1
10/26/19	6:08 a	-10.9	-10.9	-10.9	0.0	---	0.00	0.0	-10.9	724.1	0.020	0.000	19.3	7	1
10/26/19	6:09 a	-11.0	-10.9	-11.0	0.0	---	0.00	0.0	-11.0	724.1	0.020	0.000	19.2	7	1
10/26/19	6:10 a	-10.9	-10.9	-10.9	0.0	---	0.00	0.0	-10.9	724.1	0.020	0.000	19.2	8	1
10/26/19	6:11 a	-10.8	-10.8	-10.9	0.0	---	0.00	0.0	-10.8	724.1	0.020	0.000	19.2	7	1
10/26/19	6:12 a	-10.8	-10.8	-10.9	0.0	---	0.00	0.0	-10.8	724.1	0.020	0.000	19.2	8	1
10/26/19	6:13 a	-10.8	-10.8	-10.8	0.0	---	0.00	0.0	-10.8	724.1	0.020	0.000	19.2	7	1
10/26/19	6:14 a	-10.8	-10.8	-10.8	0.0	---	0.00	0.0	-10.8	724.1	0.020	0.000	19.1	9	1
10/26/19	6:15 a	-10.8	-10.8	-10.8	0.0	---	0.00	0.0	-10.8	724.1	0.020	0.000	19.1	11	1
10/26/19	6:16 a	-10.8	-10.8	-10.8	0.0	---	0.00	0.0	-10.8	724.1	0.020	0.000	19.1	12	1
10/26/19	6:17 a	-10.9	-10.9	-10.9	0.0	---	0.00	0.0	-10.9	724.1	0.020	0.000	19.1	11	1
10/26/19	6:18 a	-10.9	-10.8	-10.9	0.0	---	0.00	0.0	-10.9	724.2	0.020	0.000	19.1	12	1
10/26/19	6:19 a	-10.8	-10.8	-10.8	0.0	---	0.00	0.0	-10.8	724.2	0.020	0.000	19.1	13	1
10/26/19	6:20 a	-10.8	-10.7	-10.8	0.0	---	0.00	0.0	-10.8	724.1	0.020	0.000	19.2	12	1
10/26/19	6:21 a	-10.8	-10.7	-10.8	0.0	---	0.00	0.0	-10.8	724.2	0.020	0.000	19.1	13	1
10/26/19	6:22 a	-10.8	-10.7	-10.8	0.0	---	0.00	0.0	-10.8	724.1	0.020	0.000	19.2	13	1
10/26/19	6:23 a	-10.8	-10.8	-10.8	0.0	---	0.00	0.0	-10.8	724.2	0.020	0.000	19.2	11	1
10/26/19	6:24 a	-10.8	-10.8	-10.8	0.0	---	0.00	0.0	-10.8	724.1	0.020	0.000	19.2	13	1
10/26/19	6:25 a	-10.9	-10.9	-10.9	0.0	---	0.00	0.0	-10.9	724.1	0.020	0.000	19.2	12	1
10/26/19	6:26 a	-10.9	-10.9	-11.0	0.0	---	0.00	0.0	-10.9	724.1	0.020	0.000	19.2	13	1
10/26/19	6:27 a	-11.0	-10.9	-11.0	0.0	---	0.00	0.0	-11.0	724.2	0.020	0.000	19.2	13	1
10/26/19	6:28 a	-10.9	-10.9	-11.1	0.0	---	0.00	0.0	-10.9	724.1	0.020	0.000	19.2	12	1
10/26/19	6:29 a	-11.1	-11.1	-11.1	0.0	---	0.00	0.0	-11.1	724.2	0.020	0.000	19.2	12	1
10/26/19	6:30 a	-11.1	-11.0	-11.1	0.0	---	0.00	0.0	-11.1	724.1	0.020	0.000	19.2	14	1
10/26/19	6:31 a	-11.1	-11.0	-11.1	0.0	---	0.00	0.0	-11.1	724.0	0.020	0.000	19.2	13	1
10/26/19	6:32 a	-11.1	-11.0	-11.1	0.0	---	0.00	0.0	-11.1	724.1	0.020	0.000	19.2	13	1
10/26/19	6:33 a	-11.1	-11.0	-11.1	0.0	---	0.00	0.0	-11.1	724.0	0.020	0.000	19.2	14	1
10/26/19	6:34 a	-11.2	-11.1	-11.2	0.0	---	0.00	0.0	-11.2	724.2	0.020	0.000	19.2	13	1
10/26/19	6:35 a	-11.1	-11.1	-11.2	0.0	---	0.00	0.0	-11.1	724.0	0.020	0.000	19.1	13	1
10/26/19	6:36 a	-11.2	-11.1	-11.2	0.0	---	0.00	0.0	-11.2	724.0	0.020	0.000	19.1	12	1
10/26/19	6:37 a	-11.1	-11.1	-11.1	0.0	---	0.00	0.0	-11.1	724.0	0.020	0.000	19.1	14	1
10/26/19	6:38 a	-11.2	-11.2	-11.2	0.0	---	0.00	0.0	-11.2	724.1	0.020	0.000	19.1	12	1
10/26/19	6:39 a	-11.1	-11.1	-11.2	0.0	---	0.00	0.0	-11.1	724.0	0.020	0.000	19.1	14	1
10/26/19	6:40 a	-11.1	-11.1	-11.1	0.0	---	0.00	0.0	-11.1	724.1	0.020	0.000	19.1	12	1
10/26/19	6:41 a	-11.1	-11.1	-11.1	0.0	---	0.00	0.0	-11.1	724.1	0.020	0.000	19.0	13	1
10/26/19	6:42 a	-11.1	-11.1	-11.1	0.0	---	0.00	0.0	-11.1	724.1	0.020	0.000	19.0	14	1
10/26/19	6:43 a	-11.1	-11.1	-11.1	0.0	---	0.00	0.0	-11.1	724.1	0.020	0.000	19.0	13	1
10/26/19	6:44 a	-11.2	-11.1	-11.2	0.0	---	0.00	0.0	-11.2	724.1	0.020	0.000	19.0	13	1
10/26/19	6:45 a	-11.1	-11.1	-11.2	0.0	---	0.00	0.0	-11.1	724.0	0.020	0.000	19.0	14	1
10/26/19	6:46 a	-11.1	-11.1	-11.2	0.0	---	0.00	0.0	-11.1	724.1	0.020	0.000	19.0	11	1
10/26/19	6:47 a	-11.1	-11.1	-11.1	0.0	---	0.00	0.0	-11.1	724.0	0.020	0.000	19.0	11	1
10/26/19	6:48 a	-11.1	-11.1	-11.1	0.0	---	0.00	0.0	-11.1	724.1	0.020	0.000	19.0	13	1
10/26/19	6:49 a	-11.1	-11.1	-11.1	0.0	---	0.00	0.0	-11.1	724.0	0.020	0.000	19.1	14	1
10/26/19	6:50 a	-11.1	-11.1	-11.1	0.0	---	0.00	0.0	-11.1	724.0	0.020	0.000	19.1	16	1
10/26/19	6:51 a	-11.1	-11.1	-11.1	0.0	---	0.00	0.0	-11.1	723.9	0.020	0.000	19.1	13	1
10/26/19	6:52 a	-11.1	-11.1	-11.2	0.0	---	0.00	0.0	-11.1	724.1	0.020	0.000	19.1	15	1
10/26/19	6:53 a	-11.2	-11.2	-11.2	0.0	---	0.00	0.0	-11.2	724.0	0.020	0.000	19.1	16	1
10/26/19	6:54 a	-11.2	-11.2	-11.2	0.0	---	0.00	0.0	-11.2	724.0	0.020	0.000	19.1	15	1
10/26/19	6:55 a	-11.2	-11.2	-11.2	0.0	---	0.00	0.0	-11.2	724.0	0.021	0.000	19.1	16	1
10/26/19	6:56 a	-11.2	-11.2	-11.2	0.0	---	0.00	0.0	-11.2	724.0	0.021	0.000	19.1	15	1
10/26/19	6:57 a	-11.2	-11.2	-11.2	0.0	---	0.00	0.0	-11.2	724.0	0.021	0.000	19.1	15	1
10/26/19	6:58 a	-11.2	-11.2	-11.2	0.0	---	0.00	0.0	-11.2	724.0	0.020	0.000	19.1	15	1
10/26/19	6:59 a	-11.3	-11.3	-11.3	0.0	---	0.00	0.0	-11.3	724.0	0.021	0.000	19.1	15	1
10/26/19	7:00 a	-11.3	-11.3	-11.3	0.0	---	0.00	0.0	-11.3	724.0	0.021	0.000	19.0	14	1
10/26/19	7:01 a	-11.3	-11.3	-11.3	0.0	---	0.00	0.0	-11.3	723.9	0.021	0.000	19.0	13	1
10/26/19	7:02 a	-11.3	-11.3	-11.3	0.0	---	0.00	0.0	-11.3	723.9	0.021	0.000	19.0	14	1
10/26/19	7:03 a	-11.2	-11.2	-11.3	0.0	---	0.00	0.0	-11.2	724.0	0.021	0.000	18.9	14	1
10/26/19	7:04 a	-11.2	-11.2	-11.2	0.0	---	0.00	0.0	-11.2	724.0	0.020	0.000	18.9	14	1
10/26/19	7:05 a	-11.2	-11.2	-11.2	0.0	---	0.00	0.0	-11.2	724.0	0.021	0.000	18.9	13	1
10/26/19	7:06 a	-11.2	-11.2	-11.2	0.0	---	0.00	0.0	-11.2	724.0	0.021	0.000	18.9	14	1
10/26/19	7:07 a	-11.3	-11.2	-11.3	0.0	---	0.00	0.0	-11.3	724.1	0.021	0.000	18.9	14	1
10/26/19	7:08 a	-11.2	-11.2	-11.3	0.0	---	0.00	0.0	-11.2	724.0	0.021	0.000	18.8	13	1
10/26/19	7:09 a	-11.3	-11.2	-11.3	0.0	---	0.00	0.0	-11.3	724.0	0.021	0.000	18.8	13	1
10/26/19	7:10 a	-11.4	-11.3	-11.4	0.0	---	0.00	0.0	-11.4	724.1	0.021	0.000	18.8	12	1
10/26/19	7:11 a	-11.4	-11.3	-11.4	0.0	---	0.00	0.0	-11.4	724.0	0.021	0.000	18.8	12	1
10/26/19	7:12 a	-11.3	-11.3	-11.3	0.0	---	0.00	0.0	-11.3	724.0	0.021	0.000	18.8	12	1
10/26/19	7:13 a	-11.3	-11.3	-11.3	0.0	---	0.00	0.0	-11.3	723.8	0.021	0.000	18.8	12	1
10/26/19	7:14 a	-11.3	-11.3	-11.3	0.0	---	0.00	0.0	-11.3	724.0	0.021	0.000	18.9	12	1
10/26/19	7:15 a	-11.3	-11.3	-11.3	0.0	---	0.00	0.0	-11.3	724.0	0.021	0.000	18.9	12	1
10/26/19	7:16 a	-11.3	-11.3	-11.3	0.0	---	0.00	0.0	-11.3	724.0	0.021	0.000	18.9	15	1
10/26/19	7:17 a	-11.3	-11.3	-11.3	0.0	---	0.00	0.0	-11.3	724.0	0.021	0.000	18.9	15	1
10/26/19	7:18 a	-11.2	-11.2	-11.3	0.0	---	0.00	0.0	-11.2	724.0	0.021	0.000	18.9	13	1
10/26/19	7:19 a	-11.3	-11.2	-11.3	0.0	---	0.00	0.0	-11.3	724.0	0.021	0.000	18.9	15	1
10/26/19	7:20 a	-11.3	-11.3	-11.3	0.0	---	0.00	0.0	-11.3	724.0	0.021	0.000	18.9	15	1
10/26/19	7:21 a	-11.2	-11.2	-11.3	0.0	---	0.00	0.0	-11.2	724.0	0.021	0.000	18.9	15	1
10/26/19	7:22 a	-11.3	-11.2	-11.4	0.0	---	0.00	0.0	-11.3	724.0	0.021	0.000	18.9	15	1
10/26/19	7:23 a	-11.4	-11.4	-11.4	0.0	---	0.00	0.0	-11.4	724.0	0.021	0.000	18.9	16	1
10/26/19	7:24 a	-11.3	-11.3	-11.4	0.0	---	0.00	0.0	-11.3	724.1	0.021	0.000	18.9	17	1
10/26/19	7:25 a	-11.3	-11.3	-11.3	0.0	---	0.00	0.0	-11.3	724.0	0.021	0.000	18.9	14	1
10/26/19	7:26 a	-11.3	-11.3	-11.3	0.0	---	0.00	0.0	-11.3	724.1	0.021	0.000	18.9	13	1
10/26/19	7:27 a	-11.3	-11.2	-11.3	0.0	---	0.00	0.0	-11.3	724.1	0.021	0.000	18.9	15	1
10/26/19	7:28 a	-11.3	-11.2	-11.3	0.0	---	0.00	0.0	-11.3	724.0	0.021	0.000	18.9	14	1
10/26/19	7:29 a	-11.2	-11.2	-11.3	0.0	---	0.00	0.0	-11.2	724.1	0.021	0.000	18.9	15	1
10/26/19	7:30 a	-11.3	-11.2	-11.3	0.0	---	0.00	0.0	-11.3	724.0	0.021	0.000	18.8	15	1
10/26/19	7:31 a	-11.3	-11.3	-11.4	0.0	---	0.00	0.0	-11.3	724.0	0.021	0.000	18.8	13	1
10/26/19	7:32 a	-11.3	-11.3	-11.4	0.0	---	0.00	0.0	-11.3	724.1	0.021	0.000	18.8	11	1
10/26/19	7:33 a	-11.4	-11.4	-11.4	0.0	---	0.00	0.0	-11.4	724.0	0.021	0.000	18.8	13	1
10/26/19	7:34 a	-11.3	-11.3	-11.4	0.0	---	0.00	0.0	-11.3	724.1	0.021	0.000	18.8	11	1
10/26/19	7:35 a	-11.3	-11.3	-11.4	0.0	---	0.00	0.0	-11.3	724.1	0.021	0.000	18.8	10	1
10/26/19	7:36 a	-11.4	-11.4	-11.4	0.0	---	0.00	0.0	-11.4	724.1	0.021	0.000	18.8	12	1
10/26/19	7:37 a	-11.4	-11.4	-11.4	0.0	---	0.00	0.0	-11.4	724.1	0.021	0.000	18.8	12	1
10/26/19	7:38 a	-11.4	-11.4	-11.4	0.0	---	0.00	0.0	-11.4	724.1	0.021	0.000	18.8	11	1
10/26/19	7:39 a	-11.4	-11.4	-11.5	0.0	---	0.00	0.0	-11.4	724.1	0.021	0.000	18.9	13	1
10/26/19	7:40 a	-11.4	-11.4	-11.5	0.0	---	0.00	0.0	-11.4	724.1	0.021	0.000	18.9	13	1
10/26/19	7:41 a	-11.4	-11.4	-11.4	0.0	---	0.00	0.0	-11.4	724.1	0.021	0.000	18.9	12	1
10/26/19	7:42 a	-11.4	-11.4	-11.4	0.0	---	0.00	0.0	-11.4	724.1	0.021	0.000	18.9	13	1
10/26/19	7:43 a	-11.3	-11.3	-11.3	0.0	---	0.00	0.0	-11.3	724.1	0.021	0.000	18.9	13	1
10/26/19	7:44 a	-11.4	-11.3	-11.4	0.0	---	0.00	0.0	-11.4	724.1	0.021	0.000	18.9	14	1
10/26/19	7:45 a	-11.4	-11.4	-11.4	0.0	---	0.00	0.0	-11.4	724.1	0.021	0.000	18.9	16	1
10/26/19	7:46 a	-11.5	-11.5	-11.6	0.0	---	0.00	0.0	-11.5	724.1	0.021	0.000	18.9	20	1
10/26/19	7:47 a	-11.5	-11.5	-11.6	0.0	---	0.00	0.0	-11.5	724.1	0.021	0.000	19.0	16	1
10/26/19	7:48 a	-11.4	-11.4	-11.5	0.0	---	0.00	0.0	-11.4	724.1	0.021	0.000	19.0	19	1
10/26/19	7:49 a	-11.4	-11.4	-11.4	0.0	---	0.00	0.0	-11.4	724.1	0.021	0.000	19.0	17	1
10/26/19	7:50 a	-11.4	-11.4	-11.4	0.0	---	0.00	0.0	-11.4	724.2	0.021	0.000	19.0	17	1
10/26/19	7:51 a	-11.4	-11.4	-11.5	0.0	---	0.00	0.0	-11.4	724.1	0.021	0.000	19.0	17	1
10/26/19	7:52 a	-11.5	-11.5	-11.5	0.0	---	0.00	0.0	-11.5	724.1	0.021	0.000	19.0	14	1
10/26/19	7:53 a	-11.6	-11.5	-11.6	0.0	---	0.00	0.0	-11.6	724.2	0.021	0.000	19.0	15	1
10/26/19	7:54 a	-11.6	-11.6	-11.6	0.0	---	0.00	0.0	-11.6	724.1	0.021	0.000	18.9	15	1
10/26/19	7:55 a	-11.6	-11.6	-11.6	0.0	---	0.00	0.0	-11.6	724.2	0.021	0.000	18.9	14	1
10/26/19	7:56 a	-11.7	-11.7	-11.7	0.0	---	0.00	0.0	-11.7	724.2	0.021	0.000	18.9	14	1
10/26/19	7:57 a	-11.7	-11.7	-11.7	0.0	---	0.00	0.0	-11.7	724.2	0.021	0.000	18.9	14	1
10/26/19	7:58 a	-11.8	-11.8	-11.8	0.0	---	0.00	0.0	-11.8	724.2	0.021	0.000	18.9	15	1
10/26/19	7:59 a	-11.8	-11.8	-11.8	0.0	---	0.00	0.0	-11.8	724.1	0.021	0.000	18.9	14	1
10/26/19	8:00 a	-11.8	-11.8	-11.8	0.0	---	0.00	0.0	-11.8	724.3	0.021	0.000	18.9	16	1
10/26/19	8:01 a	-11.9	-11.8	-11.9	0.0	---	0.00	0.0	-11.9	724.2	0.021	0.000	18.9	13	1
10/26/19	8:02 a	-11.9	-11.8	-11.9	0.0	---	0.00	0.0	-11.9	724.2	0.021	0.000	18.9	13	1
10/26/19	8:03 a	-11.8	-11.8	-11.8	0.0	---	0.00	0.0	-11.8	724.1	0.021	0.000	18.9	13	1
10/26/19	8:04 a	-11.8	-11.8	-11.8	0.0	---	0.00	0.0	-11.8	724.2	0.021	0.000	18.9	14	1
10/26/19	8:05 a	-11.8	-11.8	-11.8	0.0	---	0.00	0.0	-11.8	724.2	0.021	0.000	19.0	15	1
10/26/19	8:06 a	-11.8	-11.7	-11.8	0.0	---	0.00	0.0	-11.8	724.2	0.021	0.000	19.0	13	1
10/26/19	8:07 a	-11.8	-11.8	-11.8	0.0	---	0.00	0.0	-11.8	724.2	0.021	0.000	19.0	14	1
10/26/19	8:08 a	-11.8	-11.8	-11.8	0.0	---	0.00	0.0	-11.8	724.2	0.021	0.000	19.0	16	1
10/26/19	8:09 a	-11.8	-11.8	-11.8	0.0	---	0.00	0.0	-11.8	724.2	0.021	0.000	19.1	16	1
10/26/19	8:10 a	-11.8	-11.8	-11.8	0.0	---	0.00	0.0	-11.8	724.2	0.021	0.000	19.1	15	1
10/26/19	8:11 a	-11.8	-11.8	-11.8	0.0	---	0.00	0.0	-11.8	724.2	0.021	0.000	19.1	16	1
10/26/19	8:12 a	-11.8	-11.8	-11.8	0.0	---	0.00	0.0	-11.8	724.2	0.021	0.000	19.1	15	1
10/26/19	8:13 a	-11.8	-11.8	-11.9	0.0	---	0.00	0.0	-11.8	724.2	0.021	0.000	19.1	15	1
10/26/19	8:14 a	-11.8	-11.8	-11.9	0.0	---	0.00	0.0	-11.8	724.2	0.021	0.000	19.1	16	1
10/26/19	8:15 a	-11.9	-11.9	-11.9	0.0	---	0.00	0.0	-11.9	724.2	0.021	0.000	19.1	16	1
10/26/19	8:16 a	-11.9	-11.8	-11.9	0.0	---	0.00	0.0	-11.9	724.1	0.021	0.000	19.1	14	1
10/26/19	8:17 a	-11.8	-11.8	-11.8	0.0	---	0.00	0.0	-11.8	724.2	0.021	0.000	19.2	15	1
10/26/19	8:18 a	-11.9	-11.9	-11.9	0.0	---	0.00	0.0	-11.9	724.2	0.021	0.000	19.2	15	1
10/26/19	8:19 a	-11.9	-11.9	-12.0	0.0	---	0.00	0.0	-11.9	724.1	0.021	0.000	19.2	15	1
10/26/19	8:20 a	-12.0	-12.0	-12.1	0.0	---	0.00	0.0	-12.0	724.2	0.021	0.000	19.2	18	1
10/26/19	8:21 a	-12.0	-12.0	-12.0	0.0	---	0.00	0.0	-12.0	724.2	0.021	0.000	19.2	18	1
10/26/19	8:22 a	-12.1	-12.0	-12.1	0.0	---	0.00	0.0	-12.1	724.2	0.021	0.000	19.2	15	1
10/26/19	8:23 a	-12.1	-12.1	-12.1	0.0	---	0.00	0.0	-12.1	724.2	0.021	0.000	19.2	17	1
10/26/19	8:24 a	-12.1	-12.1	-12.1	0.0	---	0.00	0.0	-12.1	724.2	0.021	0.000	19.2	17	1
10/26/19	8:25 a	-12.1	-12.1	-12.1	0.0	---	0.00	0.0	-12.1	724.1	0.021	0.000	19.2	16	1
10/26/19	8:26 a	-12.1	-12.1	-12.1	0.0	---	0.00	0.0	-12.1	724.2	0.021	0.000	19.2	17	1
10/26/19	8:27 a	-12.1	-12.1	-12.1	0.0	---	0.00	0.0	-12.1	724.2	0.021	0.000	19.1	15	1
10/26/19	8:28 a	-12.1	-12.1	-12.1	0.0	---	0.00	0.0	-12.1	724.2	0.021	0.000	19.1	15	1
10/26/19	8:29 a	-12.1	-12.1	-12.1	0.0	---	0.00	0.0	-12.1	724.2	0.021	0.000	19.1	16	1
10/26/19	8:30 a	-12.1	-12.1	-12.1	0.0	---	0.00	0.0	-12.1	724.2	0.021	0.000	19.1	18	1
10/26/19	8:31 a	-12.1	-12.1	-12.1	0.0	---	0.00	0.0	-12.1	724.2	0.021	0.000	19.1	16	1
10/26/19	8:32 a	-12.1	-12.0	-12.1	0.0	---	0.00	0.0	-12.1	724.2	0.021	0.000	19.1	16	1
10/26/19	8:33 a	-12.0	-12.0	-12.0	0.0	---	0.00	0.0	-12.0	724.2	0.021	0.000	19.1	17	1
10/26/19	8:34 a	-12.0	-12.0	-12.1	0.0	---	0.00	0.0	-12.0	724.2	0.021	0.000	19.1	17	1
10/26/19	8:35 a	-12.1	-12.1	-12.1	0.0	---	0.00	0.0	-12.1	724.2	0.021	0.000	19.1	17	1
10/26/19	8:36 a	-12.1	-12.1	-12.1	0.0	---	0.00	0.0	-12.1	724.2	0.021	0.000	19.1	17	1
10/26/19	8:37 a	-12.1	-12.1	-12.1	0.0	---	0.00	0.0	-12.1	724.2	0.021	0.000	19.1	19	1
10/26/19	8:38 a	-12.1	-12.0	-12.1	0.0	---	0.00	0.0	-12.1	724.3	0.021	0.000	19.1	18	1
10/26/19	8:39 a	-12.0	-12.0	-12.1	0.0	---	0.00	0.0	-12.0	724.1	0.021	0.000	19.2	18	1
10/26/19	8:40 a	-12.1	-12.0	-12.1	0.0	---	0.00	0.0	-12.1	724.2	0.021	0.000	19.2	19	1
10/26/19	8:41 a	-12.0	-12.0	-12.0	0.0	---	0.00	0.0	-12.0	724.2	0.021	0.000	19.2	19	1
10/26/19	8:42 a	-12.0	-12.0	-12.1	0.0	---	0.00	0.0	-12.0	724.2	0.021	0.000	19.2	19	1
10/26/19	8:43 a	-12.1	-12.1	-12.1	0.0	---	0.00	0.0	-12.1	724.2	0.021	0.000	19.2	19	1
10/26/19	8:44 a	-12.1	-12.1	-12.1	0.0	---	0.00	0.0	-12.1	724.2	0.021	0.000	19.2	18	1
10/26/19	8:45 a	-12.1	-12.1	-12.1	0.0	---	0.00	0.0	-12.1	724.2	0.021	0.000	19.2	17	1
10/26/19	8:46 a	-12.1	-12.1	-12.1	0.0	---	0.00	0.0	-12.1	724.3	0.021	0.000	19.2	18	1
10/26/19	8:47 a	-12.1	-12.1	-12.1	0.0	---	0.00	0.0	-12.1	724.2	0.021	0.000	19.2	18	1
10/26/19	8:48 a	-12.0	-12.0	-12.1	0.0	---	0.00	0.0	-12.0	724.1	0.021	0.000	19.3	18	1
10/26/19	8:49 a	-12.0	-12.0	-12.0	0.0	---	0.00	0.0	-12.0	724.2	0.021	0.000	19.2	17	1
10/26/19	8:50 a	-12.0	-12.0	-12.0	0.0	---	0.00	0.0	-12.0	724.2	0.021	0.000	19.2	18	1
10/26/19	8:51 a	-11.9	-11.9	-12.0	0.0	---	0.00	0.0	-11.9	724.2	0.021	0.000	19.2	18	1
10/26/19	8:52 a	-11.9	-11.9	-11.9	0.0	---	0.00	0.0	-11.9	724.2	0.021	0.000	19.2	18	1
10/26/19	8:53 a	-12.0	-11.9	-12.0	0.0	---	0.00	0.0	-12.0	724.2	0.021	0.000	19.2	18	1
10/26/19	8:54 a	-12.0	-11.9	-12.0	0.0	---	0.00	0.0	-12.0	724.1	0.021	0.000	19.2	18	1
10/26/19	8:55 a	-12.0	-12.0	-12.1	0.0	---	0.00	0.0	-12.0	724.1	0.021	0.000	19.2	18	1
10/26/19	8:56 a	-12.0	-12.0	-12.1	0.0	---	0.00	0.0	-12.0	724.2	0.021	0.000	19.2	18	1
10/26/19	8:57 a	-12.0	-11.9	-12.1	0.0	---	0.00	0.0	-12.0	724.2	0.021	0.000	19.1	17	1
10/26/19	8:58 a	-12.0	-11.9	-12.0	0.0	---	0.00	0.0	-12.0	724.2	0.021	0.000	19.1	18	1
10/26/19	8:59 a	-11.9	-11.9	-12.0	0.0	---	0.00	0.0	-11.9	724.2	0.021	0.000	19.1	18	1
10/26/19	9:00 a	-12.0	-12.0	-12.1	0.0	---	0.00	0.0	-12.0	724.2	0.021	0.000	19.1	18	1
10/26/19	9:01 a	-12.0	-12.0	-12.0	0.0	---	0.00	0.0	-12.0	724.2	0.021	0.000	19.1	18	1
10/26/19	9:02 a	-12.0	-12.0	-12.1	0.0	---	0.00	0.0	-12.0	724.2	0.021	0.000	19.1	18	1
10/26/19	9:03 a	-12.0	-12.0	-12.1	0.0	---	0.00	0.0	-12.0	724.2	0.021	0.000	19.1	18	1
10/26/19	9:04 a	-12.1	-12.1	-12.1	0.0	---	0.00	0.0	-12.1	724.1	0.021	0.000	19.1	17	1
10/26/19	9:05 a	-12.1	-12.1	-12.1	0.0	---	0.00	0.0	-12.1	724.2	0.021	0.000	19.1	17	1
10/26/19	9:06 a	-12.1	-12.1	-12.1	0.0	---	0.00	0.0	-12.1	724.1	0.021	0.000	19.1	18	1
10/26/19	9:08 a	-12.1	-12.1	-12.1	0.0	---	0.00	0.0	-12.1	724.2	0.021	0.000	19.1	18	1
10/26/19	9:09 a	-12.1	-12.1	-12.1	0.0	---	0.00	0.0	-12.1	724.3	0.021	0.000	19.1	18	1
10/26/19	9:10 a	-12.1	-12.1	-12.1	0.0	---	0.00	0.0	-12.1	724.2	0.021	0.000	19.1	18	1
10/26/19	9:11 a	-12.1	-12.1	-12.1	0.0	---	0.00	0.0	-12.1	724.2	0.021	0.000	19.1	19	1
10/26/19	9:12 a	-12.1	-12.1	-12.1	0.0	---	0.00	0.0	-12.1	724.3	0.021	0.000	19.1	19	1
10/26/19	9:13 a	-12.1	-12.1	-12.1	0.0	---	0.00	0.0	-12.1	724.3	0.021	0.000	19.1	19	1
10/26/19	9:14 a	-12.1	-12.0	-12.1	0.0	---	0.00	0.0	-12.1	724.3	0.021	0.000	19.1	20	1
10/26/19	9:15 a	-12.1	-12.1	-12.1	0.0	---	0.00	0.0	-12.1	724.2	0.021	0.000	19.2	20	1
10/26/19	9:16 a	-12.1	-12.1	-12.1	0.0	---	0.00	0.0	-12.1	724.3	0.021	0.000	19.2	20	1
10/26/19	9:17 a	-12.1	-12.1	-12.1	0.0	---	0.00	0.0	-12.1	724.2	0.021	0.000	19.2	20	1
10/26/19	9:18 a	-12.1	-12.1	-12.1	0.0	---	0.00	0.0	-12.1	724.2	0.021	0.000	19.2	20	1
10/26/19	9:19 a	-12.1	-12.1	-12.2	0.0	---	0.00	0.0	-12.1	724.2	0.021	0.000	19.2	20	1
10/26/19	9:20 a	-12.1	-12.1	-12.1	0.0	---	0.00	0.0	-12.1	724.2	0.021	0.000	19.2	20	1
10/26/19	9:21 a	-12.1	-12.1	-12.2	0.0	---	0.00	0.0	-12.1	724.2	0.021	0.000	19.2	19	1
10/26/19	9:22 a	-12.1	-12.1	-12.1	0.0	---	0.00	0.0	-12.1	724.3	0.021	0.000	19.2	19	1
10/26/19	9:23 a	-12.1	-12.1	-12.1	0.0	---	0.00	0.0	-12.1	724.2	0.021	0.000	19.2	17	1
10/26/19	9:24 a	-12.1	-12.1	-12.1	0.0	---	0.00	0.0	-12.1	724.2	0.021	0.000	19.2	20	1
10/26/19	9:25 a	-12.1	-12.1	-12.1	0.0	---	0.00	0.0	-12.1	724.2	0.021	0.000	19.2	20	1
10/26/19	9:26 a	-12.1	-12.1	-12.1	0.0	---	0.00	0.0	-12.1	724.2	0.021	0.000	19.1	20	1
10/26/19	9:27 a	-12.1	-12.1	-12.1	0.0	---	0.00	0.0	-12.1	724.2	0.021	0.000	19.1	20	1
10/26/19	9:28 a	-12.2	-12.2	-12.2	0.0	---	0.00	0.0	-12.2	724.2	0.021	0.000	19.1	19	1
10/26/19	9:29 a	-12.3	-12.3	-12.3	0.0	---	0.00	0.0	-12.3	724.2	0.021	0.000	19.1	20	1
10/26/19	9:30 a	-12.4	-12.4	-12.4	0.0	---	0.00	0.0	-12.4	724.2	0.021	0.000	19.1	20	1
10/26/19	9:31 a	-12.4	-12.4	-12.4	0.0	---	0.00	0.0	-12.4	724.2	0.021	0.000	19.1	20	1
10/26/19	9:32 a	-12.5	-12.5	-12.5	0.0	---	0.00	0.0	-12.5	724.2	0.021	0.000	19.0	19	1
10/26/19	9:33 a	-12.5	-12.5	-12.5	0.0	---	0.00	0.0	-12.5	724.3	0.021	0.000	19.0	18	1
10/26/19	9:34 a	-12.6	-12.6	-12.6	0.0	---	0.00	0.0	-12.6	724.2	0.021	0.000	19.0	19	1
10/26/19	9:35 a	-12.6	-12.6	-12.6	0.0	---	0.00	0.0	-12.6	724.2	0.021	0.000	19.0	19	1
10/26/19	9:36 a	-12.6	-12.6	-12.7	0.0	---	0.00	0.0	-12.6	724.2	0.021	0.000	19.0	19	1
10/26/19	9:37 a	-12.7	-12.7	-12.7	0.0	---	0.00	0.0	-12.7	724.2	0.022	0.000	19.0	18	1
10/26/19	9:38 a	-12.7	-12.7	-12.7	0.0	---	0.00	0.0	-12.7	724.2	0.022	0.000	19.0	18	1
10/26/19	9:39 a	-12.7	-12.7	-12.8	0.0	---	0.00	0.0	-12.7	724.2	0.022	0.000	19.0	18	1
10/26/19	9:40 a	-12.8	-12.8	-12.8	0.0	---	0.00	0.0	-12.8	724.3	0.022	0.000	19.1	18	1
10/26/19	9:41 a	-12.8	-12.8	-12.8	0.0	---	0.00	0.0	-12.8	724.3	0.022	0.000	19.1	18	1
10/26/19	9:42 a	-12.8	-12.8	-12.8	0.0	---	0.00	0.0	-12.8	724.2	0.022	0.000	19.1	18	1
10/26/19	9:43 a	-12.9	-12.8	-12.9	0.0	---	0.00	0.0	-12.9	724.3	0.022	0.000	19.1	19	1
10/26/19	9:44 a	-12.9	-12.9	-12.9	0.0	---	0.00	0.0	-12.9	724.3	0.022	0.000	19.1	18	1
10/26/19	9:45 a	-12.9	-12.9	-12.9	0.0	---	0.00	0.0	-12.9	724.3	0.022	0.000	19.1	18	1
10/26/19	9:46 a	-12.9	-12.9	-12.9	0.0	---	0.00	0.0	-12.9	724.3	0.022	0.000	19.1	18	1
10/26/19	9:47 a	-12.9	-12.9	-12.9	0.0	---	0.00	0.0	-12.9	724.3	0.022	0.000	19.1	19	1
10/26/19	9:48 a	-12.9	-12.9	-12.9	0.0	---	0.00	0.0	-12.9	724.3	0.022	0.000	19.1	18	1
10/26/19	9:49 a	-12.9	-12.9	-12.9	0.0	---	0.00	0.0	-12.9	724.3	0.022	0.000	19.1	19	1
10/26/19	9:50 a	-12.9	-12.9	-12.9	0.0	---	0.00	0.0	-12.9	724.2	0.022	0.000	19.1	19	1
10/26/19	9:51 a	-12.9	-12.9	-12.9	0.0	---	0.00	0.0	-12.9	724.3	0.022	0.000	19.1	18	1
10/26/19	9:52 a	-12.9	-12.9	-12.9	0.0	---	0.00	0.0	-12.9	724.3	0.022	0.000	19.1	19	1
10/26/19	9:53 a	-12.9	-12.9	-12.9	0.0	---	0.00	0.0	-12.9	724.3	0.022	0.000	19.1	18	1
10/26/19	9:54 a	-13.0	-12.9	-13.0	0.0	---	0.00	0.0	-13.0	724.3	0.022	0.000	19.1	18	1
10/26/19	9:55 a	-12.9	-12.9	-13.0	0.0	---	0.00	0.0	-12.9	724.3	0.022	0.000	19.1	18	1
10/26/19	9:56 a	-13.0	-12.9	-13.0	0.0	---	0.00	0.0	-13.0	724.3	0.022	0.000	19.0	17	1
10/26/19	9:57 a	-13.0	-12.9	-13.0	0.0	---	0.00	0.0	-13.0	724.3	0.022	0.000	19.0	17	1
10/26/19	9:58 a	-13.1	-13.0	-13.1	0.0	---	0.00	0.0	-13.1	724.4	0.022	0.000	18.9	18	1
10/26/19	9:59 a	-13.1	-13.1	-13.1	0.0	---	0.00	0.0	-13.1	724.4	0.022	0.000	18.9	18	1
10/26/19	10:00 a	-13.1	-13.1	-13.1	0.0	---	0.00	0.0	-13.1	724.4	0.022	0.000	18.9	18	1
10/26/19	10:01 a	-13.1	-13.1	-13.1	0.0	---	0.00	0.0	-13.1	724.3	0.022	0.000	18.9	19	1
10/26/19	10:02 a	-13.1	-13.1	-13.1	0.0	---	0.00	0.0	-13.1	724.4	0.022	0.000	18.9	18	1
10/26/19	10:03 a	-13.1	-13.0	-13.1	0.0	---	0.00	0.0	-13.1	724.4	0.022	0.000	18.9	17	1
10/26/19	10:04 a	-13.0	-13.0	-13.0	0.0	---	0.00	0.0	-13.0	724.4	0.022	0.000	18.9	18	1
10/26/19	10:05 a	-13.0	-13.0	-13.0	0.0	---	0.00	0.0	-13.0	724.4	0.022	0.000	18.9	18	1
10/26/19	10:06 a	-13.0	-13.0	-13.0	0.0	---	0.00	0.0	-13.0	724.4	0.022	0.000	18.9	18	1
10/26/19	10:07 a	-13.0	-13.0	-13.0	0.0	---	0.00	0.0	-13.0	724.4	0.022	0.000	18.9	19	1
10/26/19	10:08 a	-13.0	-13.0	-13.1	0.0	---	0.00	0.0	-13.0	724.3	0.022	0.000	19.0	20	1
10/26/19	10:09 a	-13.1	-13.1	-13.1	0.0	---	0.00	0.0	-13.1	724.4	0.022	0.000	19.0	19	1
10/26/19	10:10 a	-13.1	-13.1	-13.1	0.0	---	0.00	0.0	-13.1	724.4	0.022	0.000	19.0	19	1
10/26/19	10:11 a	-13.1	-13.1	-13.1	0.0	---	0.00	0.0	-13.1	724.4	0.022	0.000	19.0	18	1
10/26/19	10:12 a	-13.1	-13.1	-13.1	0.0	---	0.00	0.0	-13.1	724.4	0.022	0.000	19.0	15	1
10/26/19	10:13 a	-13.1	-13.1	-13.1	0.0	---	0.00	0.0	-13.1	724.4	0.022	0.000	19.1	15	1
10/26/19	10:14 a	-13.1	-13.1	-13.1	0.0	---	0.00	0.0	-13.1	724.4	0.022	0.000	19.1	15	1
10/26/19	10:15 a	-13.1	-13.1	-13.1	0.0	---	0.00	0.0	-13.1	724.4	0.022	0.000	19.1	15	1
10/26/19	10:16 a	-13.1	-13.1	-13.2	0.0	---	0.00	0.0	-13.1	724.4	0.022	0.000	19.1	17	1
10/26/19	10:17 a	-13.2	-13.2	-13.2	0.0	---	0.00	0.0	-13.2	724.4	0.022	0.000	19.1	16	1
10/26/19	10:18 a	-13.2	-13.2	-13.2	0.0	---	0.00	0.0	-13.2	724.4	0.022	0.000	19.1	15	1
10/26/19	10:19 a	-13.3	-13.2	-13.3	0.0	---	0.00	0.0	-13.3	724.4	0.022	0.000	19.1	15	1
10/26/19	10:20 a	-13.3	-13.3	-13.3	0.0	---	0.00	0.0	-13.3	724.4	0.022	0.000	19.1	16	1
10/26/19	10:21 a	-13.3	-13.3	-13.3	0.0	---	0.00	0.0	-13.3	724.4	0.022	0.000	19.1	16	1
10/26/19	10:22 a	-13.3	-13.3	-13.4	0.0	---	0.00	0.0	-13.3	724.4	0.022	0.000	19.1	16	1
10/26/19	10:23 a	-13.3	-13.3	-13.4	0.0	---	0.00	0.0	-13.3	724.4	0.022	0.000	19.1	16	1
10/26/19	10:24 a	-13.3	-13.3	-13.3	0.0	---	0.00	0.0	-13.3	724.3	0.022	0.000	19.1	16	1
10/26/19	10:25 a	-13.3	-13.3	-13.3	0.0	---	0.00	0.0	-13.3	724.4	0.022	0.000	19.1	16	1
10/26/19	10:26 a	-13.3	-13.3	-13.4	0.0	---	0.00	0.0	-13.3	724.4	0.022	0.000	19.1	16	1
10/26/19	10:27 a	-13.4	-13.4	-13.4	0.0	---	0.00	0.0	-13.4	724.4	0.022	0.000	19.1	16	1
10/26/19	10:28 a	-13.4	-13.4	-13.4	0.0	---	0.00	0.0	-13.4	724.4	0.022	0.000	19.1	18	1
10/26/19	10:29 a	-13.4	-13.4	-13.4	0.0	---	0.00	0.0	-13.4	724.4	0.022	0.000	19.1	17	1
10/26/19	10:30 a	-13.4	-13.4	-13.5	0.0	---	0.00	0.0	-13.4	724.4	0.022	0.000	19.1	16	1
10/26/19	10:31 a	-13.5	-13.5	-13.6	0.0	---	0.00	0.0	-13.5	724.5	0.022	0.000	19.1	16	1
10/26/19	10:32 a	-13.6	-13.6	-13.6	0.0	---	0.00	0.0	-13.6	724.4	0.022	0.000	19.1	17	1
10/26/19	10:33 a	-13.6	-13.6	-13.6	0.0	---	0.00	0.0	-13.6	724.4	0.022	0.000	19.1	18	1
10/26/19	10:34 a	-13.6	-13.6	-13.6	0.0	---	0.00	0.0	-13.6	724.4	0.022	0.000	19.1	18	1
10/26/19	10:35 a	-13.6	-13.6	-13.6	0.0	---	0.00	0.0	-13.6	724.4	0.022	0.000	19.1	18	1
10/26/19	10:36 a	-13.6	-13.6	-13.6	0.0	---	0.00	0.0	-13.6	724.5	0.022	0.000	19.1	18	1
10/26/19	10:37 a	-13.7	-13.6	-13.7	0.0	---	0.00	0.0	-13.7	724.4	0.022	0.000	19.1	18	1
10/26/19	10:38 a	-13.7	-13.6	-13.7	0.0	---	0.00	0.0	-13.7	724.4	0.022	0.000	19.1	17	1
10/26/19	10:39 a	-13.7	-13.7	-13.7	0.0	---	0.00	0.0	-13.7	724.4	0.022	0.000	19.1	17	1
10/26/19	10:40 a	-13.7	-13.7	-13.7	0.0	---	0.00	0.0	-13.7	724.4	0.022	0.000	19.1	19	1
10/26/19	10:41 a	-13.7	-13.7	-13.7	0.0	---	0.00	0.0	-13.7	724.4	0.022	0.000	19.1	20	1
10/26/19	10:42 a	-13.7	-13.7	-13.7	0.0	---	0.00	0.0	-13.7	724.4	0.022	0.000	19.1	17	1
10/26/19	10:43 a	-13.7	-13.7	-13.7	0.0	---	0.00	0.0	-13.7	724.4	0.022	0.000	19.1	17	1
10/26/19	10:44 a	-13.7	-13.7	-13.7	0.0	---	0.00	0.0	-13.7	724.3	0.022	0.000	19.1	20	1
10/26/19	10:45 a	-13.7	-13.7	-13.7	0.0	---	0.00	0.0	-13.7	724.4	0.022	0.000	19.1	20	1
10/26/19	10:46 a	-13.7	-13.7	-13.7	0.0	---	0.00	0.0	-13.7	724.4	0.022	0.000	19.2	20	1
10/26/19	10:47 a	-13.7	-13.7	-13.7	0.0	---	0.00	0.0	-13.7	724.5	0.022	0.000	19.2	20	1
10/26/19	10:48 a	-13.7	-13.7	-13.7	0.0	---	0.00	0.0	-13.7	724.4	0.022	0.000	19.2	20	1
10/26/19	10:49 a	-13.7	-13.7	-13.7	0.0	---	0.00	0.0	-13.7	724.4	0.022	0.000	19.2	20	1
10/26/19	10:50 a	-13.7	-13.7	-13.7	0.0	---	0.00	0.0	-13.7	724.5	0.022	0.000	19.2	20	1
10/26/19	10:51 a	-13.7	-13.7	-13.7	0.0	---	0.00	0.0	-13.7	724.5	0.022	0.000	19.2	20	1
10/26/19	10:52 a	-13.7	-13.7	-13.7	0.0	---	0.00	0.0	-13.7	724.4	0.022	0.000	19.2	19	1
10/26/19	10:53 a	-13.7	-13.7	-13.8	0.0	---	0.00	0.0	-13.7	724.4	0.022	0.000	19.2	18	1
10/26/19	10:54 a	-13.8	-13.8	-13.8	0.0	---	0.00	0.0	-13.8	724.5	0.022	0.000	19.2	18	1
10/26/19	10:55 a	-13.8	-13.8	-13.8	0.0	---	0.00	0.0	-13.8	724.4	0.022	0.000	19.2	18	1
10/26/19	10:56 a	-13.8	-13.8	-13.8	0.0	---	0.00	0.0	-13.8	724.4	0.022	0.000	19.3	19	1
10/26/19	10:57 a	-13.9	-13.9	-13.9	0.0	---	0.00	0.0	-13.9	724.4	0.022	0.000	19.3	18	1
10/26/19	10:58 a	-13.9	-13.9	-13.9	0.0	---	0.00	0.0	-13.9	724.4	0.022	0.000	19.3	18	1
10/26/19	10:59 a	-13.9	-13.9	-13.9	0.0	---	0.00	0.0	-13.9	724.4	0.022	0.000	19.3	18	1
10/26/19	11:00 a	-13.9	-13.9	-13.9	0.0	---	0.00	0.0	-13.9	724.4	0.022	0.000	19.3	18	1
10/26/19	11:01 a	-13.9	-13.8	-13.9	0.0	---	0.00	0.0	-13.9	724.4	0.022	0.000	19.3	18	1
10/26/19	11:02 a	-13.8	-13.8	-13.8	0.0	---	0.00	0.0	-13.8	724.5	0.022	0.000	19.2	21	1
10/26/19	11:03 a	-13.8	-13.7	-13.8	0.0	---	0.00	0.0	-13.8	724.5	0.022	0.000	19.2	20	1
10/26/19	11:04 a	-13.7	-13.7	-13.7	0.0	---	0.00	0.0	-13.7	724.5	0.022	0.000	19.2	18	1
10/26/19	11:05 a	-13.7	-13.7	-13.7	0.0	---	0.00	0.0	-13.7	724.5	0.022	0.000	19.2	18	1
10/26/19	11:06 a	-13.7	-13.7	-13.7	0.0	---	0.00	0.0	-13.7	724.6	0.022	0.000	19.2	18	1
10/26/19	11:07 a	-13.7	-13.7	-13.7	0.0	---	0.00	0.0	-13.7	724.5	0.022	0.000	19.3	18	1
10/26/19	11:08 a	-13.7	-13.7	-13.7	0.0	---	0.00	0.0	-13.7	724.5	0.022	0.000	19.3	18	1
10/26/19	11:09 a	-13.7	-13.7	-13.7	0.0	---	0.00	0.0	-13.7	724.5	0.022	0.000	19.3	18	1
10/26/19	11:10 a	-13.7	-13.7	-13.7	0.0	---	0.00	0.0	-13.7	724.5	0.022	0.000	19.3	18	1
10/26/19	11:11 a	-13.7	-13.7	-13.7	0.0	---	0.00	0.0	-13.7	724.6	0.022	0.000	19.3	18	1
10/26/19	11:12 a	-13.7	-13.7	-13.8	0.0	---	0.00	0.0	-13.7	724.5	0.022	0.000	19.3	17	1
10/26/19	11:13 a	-13.8	-13.8	-13.8	0.0	---	0.00	0.0	-13.8	724.5	0.022	0.000	19.4	18	1
10/26/19	11:14 a	-13.8	-13.8	-13.8	0.0	---	0.00	0.0	-13.8	724.5	0.022	0.000	19.4	18	1
10/26/19	11:15 a	-13.8	-13.8	-13.8	0.0	---	0.00	0.0	-13.8	724.4	0.022	0.000	19.4	19	1
10/26/19	11:16 a	-13.8	-13.8	-13.8	0.0	---	0.00	0.0	-13.8	724.5	0.022	0.000	19.4	18	1
10/26/19	11:17 a	-13.8	-13.8	-13.8	0.0	---	0.00	0.0	-13.8	724.5	0.022	0.000	19.4	19	1
10/26/19	11:18 a	-13.8	-13.8	-13.9	0.0	---	0.00	0.0	-13.8	724.5	0.022	0.000	19.4	18	1
10/26/19	11:19 a	-13.9	-13.9	-13.9	0.0	---	0.00	0.0	-13.9	724.5	0.022	0.000	19.5	18	1
10/26/19	11:20 a	-14.0	-13.9	-14.1	0.0	---	0.00	0.0	-14.0	724.5	0.022	0.000	19.5	18	1
10/26/19	11:21 a	-14.1	-14.1	-14.1	0.0	---	0.00	0.0	-14.1	724.5	0.023	0.000	19.5	19	1
10/26/19	11:22 a	-14.2	-14.1	-14.2	0.0	---	0.00	0.0	-14.2	724.5	0.023	0.000	19.6	19	1
10/26/19	11:23 a	-14.2	-14.2	-14.2	0.0	---	0.00	0.0	-14.2	724.4	0.023	0.000	19.6	19	1
10/26/19	11:24 a	-14.3	-14.2	-14.3	0.0	---	0.00	0.0	-14.3	724.4	0.023	0.000	19.6	19	1
10/26/19	11:25 a	-14.2	-14.2	-14.3	0.0	---	0.00	0.0	-14.2	724.4	0.023	0.000	19.6	19	1
10/26/19	11:26 a	-14.3	-14.2	-14.3	0.0	---	0.00	0.0	-14.3	724.4	0.023	0.000	19.6	19	1
10/26/19	11:27 a	-14.2	-14.2	-14.2	0.0	---	0.00	0.0	-14.2	724.4	0.023	0.000	19.7	19	1
10/26/19	11:28 a	-14.2	-14.2	-14.2	0.0	---	0.00	0.0	-14.2	724.4	0.023	0.000	19.7	19	1
10/26/19	11:29 a	-14.2	-14.2	-14.2	0.0	---	0.00	0.0	-14.2	724.4	0.023	0.000	19.7	18	1
10/26/19	11:30 a	-14.2	-14.2	-14.2	0.0	---	0.00	0.0	-14.2	724.4	0.023	0.000	19.7	18	1
10/26/19	11:31 a	-14.2	-14.2	-14.2	0.0	---	0.00	0.0	-14.2	724.4	0.023	0.000	19.7	18	1
10/26/19	11:32 a	-14.2	-14.2	-14.3	0.0	---	0.00	0.0	-14.2	724.4	0.023	0.000	19.7	18	1
10/26/19	11:33 a	-14.3	-14.3	-14.3	0.0	---	0.00	0.0	-14.3	724.4	0.023	0.000	19.7	18	1
10/26/19	11:34 a	-14.3	-14.3	-14.3	0.0	---	0.00	0.0	-14.3	724.4	0.023	0.000	19.8	17	1
10/26/19	11:35 a	-14.3	-14.3	-14.3	0.0	---	0.00	0.0	-14.3	724.4	0.023	0.000	19.8	17	1
10/26/19	11:36 a	-14.3	-14.3	-14.4	0.0	---	0.00	0.0	-14.3	724.4	0.023	0.000	19.8	17	1
10/26/19	11:37 a	-14.4	-14.4	-14.4	0.0	---	0.00	0.0	-14.4	724.4	0.023	0.000	19.8	16	1
10/26/19	11:38 a	-14.4	-14.4	-14.4	0.0	---	0.00	0.0	-14.4	724.3	0.023	0.000	19.7	16	1
10/26/19	11:39 a	-14.4	-14.4	-14.4	0.0	---	0.00	0.0	-14.4	724.4	0.023	0.000	19.7	16	1
10/26/19	11:40 a	-14.5	-14.4	-14.5	0.0	---	0.00	0.0	-14.5	724.4	0.023	0.000	19.7	16	1
10/26/19	11:41 a	-14.5	-14.5	-14.6	0.0	---	0.00	0.0	-14.5	724.4	0.023	0.000	19.7	16	1
10/26/19	11:42 a	-14.6	-14.6	-14.6	0.0	---	0.00	0.0	-14.6	724.4	0.023	0.000	19.7	16	1
10/26/19	11:43 a	-14.6	-14.6	-14.6	0.0	---	0.00	0.0	-14.6	724.4	0.023	0.000	19.7	16	1
10/26/19	11:44 a	-14.6	-14.6	-14.6	0.0	---	0.00	0.0	-14.6	724.4	0.023	0.000	19.7	16	1
10/26/19	11:45 a	-14.6	-14.6	-14.7	0.0	---	0.00	0.0	-14.6	724.4	0.023	0.000	19.7	16	1
10/26/19	11:46 a	-14.6	-14.6	-14.6	0.0	---	0.00	0.0	-14.6	724.3	0.023	0.000	19.7	17	1
10/26/19	11:47 a	-14.6	-14.6	-14.7	0.0	---	0.00	0.0	-14.6	724.4	0.023	0.000	19.7	17	1
10/26/19	11:48 a	-14.6	-14.6	-14.7	0.0	---	0.00	0.0	-14.6	724.4	0.023	0.000	19.7	18	1
10/26/19	11:49 a	-14.6	-14.6	-14.6	0.0	---	0.00	0.0	-14.6	724.4	0.023	0.000	19.8	18	1
10/26/19	11:50 a	-14.5	-14.5	-14.5	0.0	---	0.00	0.0	-14.5	724.4	0.023	0.000	19.8	18	1
10/26/19	11:51 a	-14.5	-14.4	-14.5	0.0	---	0.00	0.0	-14.5	724.3	0.023	0.000	19.8	17	1
10/26/19	11:52 a	-14.4	-14.4	-14.4	0.0	---	0.00	0.0	-14.4	724.3	0.023	0.000	19.8	17	1
10/26/19	11:53 a	-14.4	-14.3	-14.4	0.0	---	0.00	0.0	-14.4	724.4	0.023	0.000	19.8	17	1
10/26/19	11:54 a	-14.3	-14.3	-14.3	0.0	---	0.00	0.0	-14.3	724.4	0.023	0.000	19.8	17	1
10/26/19	11:55 a	-14.3	-14.2	-14.3	0.0	---	0.00	0.0	-14.3	724.4	0.023	0.000	19.8	17	1
10/26/19	11:56 a	-14.2	-14.2	-14.2	0.0	---	0.00	0.0	-14.2	724.4	0.023	0.000	19.8	17	1
10/26/19	11:57 a	-14.2	-14.2	-14.2	0.0	---	0.00	0.0	-14.2	724.4	0.023	0.000	19.8	17	1
10/26/19	11:58 a	-14.2	-14.2	-14.2	0.0	---	0.00	0.0	-14.2	724.4	0.023	0.000	19.8	17	1
10/26/19	11:59 a	-14.1	-14.1	-14.1	0.0	---	0.00	0.0	-14.1	724.4	0.023	0.000	19.8	17	1
10/26/19	12:00 p	-14.1	-14.1	-14.1	0.0	---	0.00	0.0	-14.1	724.4	0.023	0.000	19.9	17	1
10/26/19	12:01 p	-14.1	-14.1	-14.1	0.0	---	0.00	0.0	-14.1	724.4	0.022	0.000	19.9	17	1
10/26/19	12:02 p	-14.1	-14.1	-14.1	0.0	---	0.00	0.0	-14.1	724.4	0.022	0.000	19.9	17	1
10/26/19	12:03 p	-14.1	-14.1	-14.1	0.0	---	0.00	0.0	-14.1	724.4	0.022	0.000	19.9	17	1
10/26/19	12:04 p	-14.1	-14.1	-14.1	0.0	---	0.00	0.0	-14.1	724.4	0.022	0.000	19.9	17	1
10/26/19	12:05 p	-14.1	-14.1	-14.1	0.0	---	0.00	0.0	-14.1	724.3	0.022	0.000	19.9	17	1
10/26/19	12:06 p	-14.1	-14.1	-14.1	0.0	---	0.00	0.0	-14.1	724.3	0.023	0.000	19.9	17	1
10/26/19	12:07 p	-14.1	-14.1	-14.1	0.0	---	0.00	0.0	-14.1	724.4	0.023	0.000	19.9	17	1
10/26/19	12:08 p	-14.1	-14.1	-14.1	0.0	---	0.00	0.0	-14.1	724.3	0.023	0.000	19.9	17	1
10/26/19	12:09 p	-14.1	-14.1	-14.2	0.0	---	0.00	0.0	-14.1	724.4	0.023	0.000	19.9	17	1
10/26/19	12:10 p	-14.1	-14.1	-14.1	0.0	---	0.00	0.0	-14.1	724.3	0.023	0.000	20.0	18	1
10/26/19	12:11 p	-14.1	-14.1	-14.1	0.0	---	0.00	0.0	-14.1	724.3	0.022	0.000	20.0	18	1
10/26/19	12:12 p	-14.1	-14.1	-14.1	0.0	---	0.00	0.0	-14.1	724.3	0.022	0.000	20.0	18	1
10/26/19	12:13 p	-14.0	-13.9	-14.0	0.0	---	0.00	0.0	-14.0	724.4	0.022	0.000	20.0	18	1
10/26/19	12:14 p	-13.9	-13.9	-13.9	0.0	---	0.00	0.0	-13.9	724.3	0.022	0.000	19.9	17	1
10/26/19	12:15 p	-13.9	-13.9	-13.9	0.0	---	0.00	0.0	-13.9	724.3	0.022	0.000	19.9	17	1
10/26/19	12:16 p	-13.9	-13.9	-13.9	0.0	---	0.00	0.0	-13.9	724.3	0.022	0.000	19.9	17	1
10/26/19	12:17 p	-13.9	-13.9	-13.9	0.0	---	0.00	0.0	-13.9	724.3	0.022	0.000	19.9	18	1
10/26/19	12:18 p	-13.9	-13.9	-13.9	0.0	---	0.00	0.0	-13.9	724.4	0.022	0.000	19.9	18	1
10/26/19	12:19 p	-13.9	-13.9	-13.9	0.0	---	0.00	0.0	-13.9	724.3	0.022	0.000	19.9	17	1
10/26/19	12:20 p	-13.9	-13.9	-13.9	0.0	---	0.00	0.0	-13.9	724.4	0.022	0.000	19.9	18	1
10/26/19	12:21 p	-13.9	-13.9	-13.9	0.0	---	0.00	0.0	-13.9	724.4	0.022	0.000	19.9	18	1
10/26/19	12:22 p	-13.9	-13.9	-13.9	0.0	---	0.00	0.0	-13.9	724.4	0.022	0.000	19.9	17	1
10/26/19	12:23 p	-13.9	-13.9	-13.9	0.0	---	0.00	0.0	-13.9	724.3	0.022	0.000	19.9	17	1
10/26/19	12:24 p	-13.9	-13.9	-14.0	0.0	---	0.00	0.0	-13.9	724.3	0.022	0.000	19.9	17	1
10/26/19	12:25 p	-14.1	-14.0	-14.1	0.0	---	0.00	0.0	-14.1	724.3	0.022	0.000	19.9	18	1
10/26/19	12:26 p	-14.1	-14.1	-14.1	0.0	---	0.00	0.0	-14.1	724.3	0.022	0.000	20.0	18	1
10/26/19	12:27 p	-14.1	-14.1	-14.2	0.0	---	0.00	0.0	-14.1	724.3	0.023	0.000	20.0	18	1
10/26/19	12:28 p	-14.2	-14.2	-14.2	0.0	---	0.00	0.0	-14.2	724.3	0.023	0.000	20.0	17	1
10/26/19	12:29 p	-14.2	-14.2	-14.2	0.0	---	0.00	0.0	-14.2	724.3	0.023	0.000	20.1	17	1
10/26/19	12:30 p	-14.2	-14.2	-14.2	0.0	---	0.00	0.0	-14.2	724.3	0.023	0.000	20.1	17	1
10/26/19	12:31 p	-14.2	-14.2	-14.3	0.0	---	0.00	0.0	-14.2	724.4	0.023	0.000	20.1	17	1
10/26/19	12:32 p	-14.2	-14.2	-14.3	0.0	---	0.00	0.0	-14.2	724.3	0.023	0.000	20.1	17	1
10/26/19	12:33 p	-14.3	-14.3	-14.3	0.0	---	0.00	0.0	-14.3	724.3	0.023	0.000	20.1	18	1
10/26/19	12:34 p	-14.3	-14.3	-14.3	0.0	---	0.00	0.0	-14.3	724.3	0.023	0.000	20.1	17	1
10/26/19	12:35 p	-14.3	-14.2	-14.3	0.0	---	0.00	0.0	-14.3	724.3	0.023	0.000	20.1	18	1
10/26/19	12:36 p	-14.2	-14.2	-14.2	0.0	---	0.00	0.0	-14.2	724.2	0.023	0.000	20.1	17	1
10/26/19	12:37 p	-14.2	-14.2	-14.2	0.0	---	0.00	0.0	-14.2	724.3	0.023	0.000	20.2	18	1
10/26/19	12:38 p	-14.1	-14.1	-14.2	0.0	---	0.00	0.0	-14.1	724.3	0.023	0.000	20.2	18	1
10/26/19	12:39 p	-14.1	-14.1	-14.1	0.0	---	0.00	0.0	-14.1	724.3	0.022	0.000	20.2	18	1
10/26/19	12:40 p	-14.1	-14.1	-14.1	0.0	---	0.00	0.0	-14.1	724.2	0.022	0.000	20.2	17	1
10/26/19	12:41 p	-14.0	-14.0	-14.1	0.0	---	0.00	0.0	-14.0	724.4	0.022	0.000	20.2	18	1
10/26/19	12:42 p	-14.0	-14.0	-14.0	0.0	---	0.00	0.0	-14.0	724.3	0.022	0.000	20.2	17	1
10/26/19	12:43 p	-14.0	-14.0	-14.1	0.0	---	0.00	0.0	-14.0	724.3	0.022	0.000	20.2	18	1
10/26/19	12:44 p	-14.1	-14.1	-14.1	0.0	---	0.00	0.0	-14.1	724.3	0.022	0.000	20.3	17	1
10/26/19	12:45 p	-14.1	-14.1	-14.1	0.0	---	0.00	0.0	-14.1	724.3	0.022	0.000	20.3	17	1
10/26/19	12:46 p	-14.1	-14.1	-14.2	0.0	---	0.00	0.0	-14.1	724.3	0.023	0.000	20.3	17	1
10/26/19	12:47 p	-14.2	-14.2	-14.2	0.0	---	0.00	0.0	-14.2	724.3	0.023	0.000	20.2	18	1
10/26/19	12:48 p	-14.2	-14.2	-14.2	0.0	---	0.00	0.0	-14.2	724.3	0.023	0.000	20.2	18	1
10/26/19	12:49 p	-14.3	-14.2	-14.3	0.0	---	0.00	0.0	-14.3	724.3	0.023	0.000	20.2	17	1
10/26/19	12:50 p	-14.3	-14.3	-14.3	0.0	---	0.00	0.0	-14.3	724.3	0.023	0.000	20.2	18	1
10/26/19	12:51 p	-14.3	-14.3	-14.3	0.0	---	0.00	0.0	-14.3	724.3	0.023	0.000	20.2	17	1
10/26/19	12:52 p	-14.3	-14.3	-14.3	0.0	---	0.00	0.0	-14.3	724.3	0.023	0.000	20.2	17	1
10/26/19	12:53 p	-14.3	-14.3	-14.3	0.0	---	0.00	0.0	-14.3	724.2	0.023	0.000	20.2	18	1
10/26/19	12:54 p	-14.3	-14.3	-14.4	0.0	---	0.00	0.0	-14.3	724.2	0.023	0.000	20.2	18	1
10/26/19	12:55 p	-14.3	-14.3	-14.4	0.0	---	0.00	0.0	-14.3	724.3	0.023	0.000	20.2	18	1
10/26/19	12:56 p	-14.4	-14.3	-14.4	0.0	---	0.00	0.0	-14.4	724.3	0.023	0.000	20.2	17	1
10/26/19	12:57 p	-14.3	-14.3	-14.4	0.0	---	0.00	0.0	-14.3	724.2	0.023	0.000	20.2	17	1
10/26/19	12:58 p	-14.3	-14.3	-14.4	0.0	---	0.00	0.0	-14.3	724.3	0.023	0.000	20.2	18	1
10/26/19	12:59 p	-14.3	-14.3	-14.3	0.0	---	0.00	0.0	-14.3	724.2	0.023	0.000	20.2	18	1
10/26/19	1:00 p	-14.3	-14.3	-14.3	0.0	---	0.00	0.0	-14.3	724.3	0.023	0.000	20.2	18	1
10/26/19	1:01 p	-14.3	-14.3	-14.3	0.0	---	0.00	0.0	-14.3	724.3	0.023	0.000	20.2	17	1
10/26/19	1:02 p	-14.3	-14.3	-14.3	0.0	---	0.00	0.0	-14.3	724.3	0.023	0.000	20.2	18	1
10/26/19	1:03 p	-14.3	-14.3	-14.3	0.0	---	0.00	0.0	-14.3	724.3	0.023	0.000	20.2	18	1
10/26/19	1:04 p	-14.3	-14.2	-14.3	0.0	---	0.00	0.0	-14.3	724.3	0.023	0.000	20.2	18	1
10/26/19	1:05 p	-14.2	-14.1	-14.2	0.0	---	0.00	0.0	-14.2	724.3	0.023	0.000	20.2	18	1
10/26/19	1:06 p	-14.1	-14.0	-14.1	0.0	---	0.00	0.0	-14.1	724.3	0.022	0.000	20.2	17	1
10/26/19	1:07 p	-13.9	-13.9	-13.9	0.0	---	0.00	0.0	-13.9	724.3	0.022	0.000	20.2	18	1
10/26/19	1:08 p	-13.9	-13.8	-13.9	0.0	---	0.00	0.0	-13.9	724.3	0.022	0.000	20.3	17	1
10/26/19	1:09 p	-13.8	-13.7	-13.8	0.0	---	0.00	0.0	-13.8	724.3	0.022	0.000	20.3	17	1
10/26/19	1:10 p	-13.7	-13.7	-13.7	0.0	---	0.00	0.0	-13.7	724.3	0.022	0.000	20.3	17	1
10/26/19	1:11 p	-13.6	-13.6	-13.7	0.0	---	0.00	0.0	-13.6	724.3	0.022	0.000	20.3	17	1
10/26/19	1:12 p	-13.6	-13.6	-13.6	0.0	---	0.00	0.0	-13.6	724.3	0.022	0.000	20.3	17	1
10/26/19	1:13 p	-13.6	-13.6	-13.6	0.0	---	0.00	0.0	-13.6	724.3	0.022	0.000	20.3	17	1
10/26/19	1:14 p	-13.6	-13.6	-13.6	0.0	---	0.00	0.0	-13.6	724.3	0.022	0.000	20.3	17	1
10/26/19	1:15 p	-13.6	-13.6	-13.6	0.0	---	0.00	0.0	-13.6	724.3	0.022	0.000	20.3	18	1
10/26/19	1:16 p	-13.6	-13.6	-13.7	0.0	---	0.00	0.0	-13.6	724.2	0.022	0.000	20.3	18	1
10/26/19	1:17 p	-13.7	-13.6	-13.7	0.0	---	0.00	0.0	-13.7	724.3	0.022	0.000	20.3	17	1
10/26/19	1:18 p	-13.7	-13.6	-13.7	0.0	---	0.00	0.0	-13.7	724.3	0.022	0.000	20.3	17	1
10/26/19	1:19 p	-13.7	-13.7	-13.7	0.0	---	0.00	0.0	-13.7	724.3	0.022	0.000	20.3	17	1
10/26/19	1:20 p	-13.7	-13.7	-13.7	0.0	---	0.00	0.0	-13.7	724.3	0.022	0.000	20.3	17	1
10/26/19	1:21 p	-13.7	-13.7	-13.7	0.0	---	0.00	0.0	-13.7	724.2	0.022	0.000	20.3	17	1
10/26/19	1:22 p	-13.8	-13.7	-13.8	0.0	---	0.00	0.0	-13.8	724.3	0.022	0.000	20.2	17	1
10/26/19	1:23 p	-13.8	-13.8	-13.8	0.0	---	0.00	0.0	-13.8	724.2	0.022	0.000	20.2	17	1
10/26/19	1:24 p	-13.8	-13.8	-13.9	0.0	---	0.00	0.0	-13.8	724.3	0.022	0.000	20.2	18	1
10/26/19	1:25 p	-13.9	-13.9	-13.9	0.0	---	0.00	0.0	-13.9	724.2	0.022	0.000	20.2	18	1
10/26/19	1:26 p	-13.9	-13.9	-13.9	0.0	---	0.00	0.0	-13.9	724.2	0.022	0.000	20.2	19	1
10/26/19	1:27 p	-13.9	-13.9	-13.9	0.0	---	0.00	0.0	-13.9	724.2	0.022	0.000	20.2	18	1
10/26/19	1:28 p	-13.9	-13.9	-13.9	0.0	---	0.00	0.0	-13.9	724.2	0.022	0.000	20.2	18	1
10/26/19	1:29 p	-13.9	-13.9	-13.9	0.0	---	0.00	0.0	-13.9	724.3	0.022	0.000	20.2	18	1
10/26/19	1:30 p	-13.9	-13.9	-14.0	0.0	---	0.00	0.0	-13.9	724.3	0.022	0.000	20.2	18	1
10/26/19	1:31 p	-14.0	-13.9	-14.0	0.0	---	0.00	0.0	-14.0	724.2	0.022	0.000	20.2	18	1
10/26/19	1:32 p	-14.0	-14.0	-14.0	0.0	---	0.00	0.0	-14.0	724.3	0.022	0.000	20.2	18	1
10/26/19	1:33 p	-14.0	-14.0	-14.0	0.0	---	0.00	0.0	-14.0	724.2	0.022	0.000	20.2	18	1
10/26/19	1:34 p	-14.0	-14.0	-14.1	0.0	---	0.00	0.0	-14.0	724.3	0.022	0.000	20.2	18	1
10/26/19	1:35 p	-14.1	-14.1	-14.1	0.0	---	0.00	0.0	-14.1	724.2	0.022	0.000	20.2	18	1
10/26/19	1:36 p	-14.1	-14.1	-14.1	0.0	---	0.00	0.0	-14.1	724.2	0.022	0.000	20.2	18	1
10/26/19	1:37 p	-14.1	-14.1	-14.1	0.0	---	0.00	0.0	-14.1	724.3	0.023	0.000	20.2	19	1
10/26/19	1:38 p	-14.1	-14.1	-14.1	0.0	---	0.00	0.0	-14.1	724.2	0.023	0.000	20.2	18	1
10/26/19	1:39 p	-14.2	-14.2	-14.2	0.0	---	0.00	0.0	-14.2	724.3	0.023	0.000	20.2	18	1
10/26/19	1:40 p	-14.2	-14.2	-14.2	0.0	---	0.00	0.0	-14.2	724.2	0.023	0.000	20.2	18	1
10/26/19	1:41 p	-14.2	-14.2	-14.2	0.0	---	0.00	0.0	-14.2	724.3	0.023	0.000	20.2	17	1
10/26/19	1:42 p	-14.2	-14.2	-14.2	0.0	---	0.00	0.0	-14.2	724.2	0.023	0.000	20.2	17	1
10/26/19	1:43 p	-14.2	-14.2	-14.2	0.0	---	0.00	0.0	-14.2	724.3	0.023	0.000	20.2	18	1
10/26/19	1:44 p	-14.2	-14.2	-14.2	0.0	---	0.00	0.0	-14.2	724.2	0.023	0.000	20.2	18	1
10/26/19	1:45 p	-14.2	-14.2	-14.2	0.0	---	0.00	0.0	-14.2	724.2	0.023	0.000	20.3	18	1
10/26/19	1:46 p	-14.2	-14.2	-14.2	0.0	---	0.00	0.0	-14.2	724.2	0.023	0.000	20.3	18	1
10/26/19	1:47 p	-14.2	-14.2	-14.2	0.0	---	0.00	0.0	-14.2	724.3	0.023	0.000	20.3	18	1
10/26/19	1:48 p	-14.2	-14.2	-14.2	0.0	---	0.00	0.0	-14.2	724.2	0.023	0.000	20.3	18	1
10/26/19	1:49 p	-14.3	-14.3	-14.3	0.0	---	0.00	0.0	-14.3	724.3	0.023	0.000	20.3	18	1
10/26/19	1:50 p	-14.3	-14.3	-14.3	0.0	---	0.00	0.0	-14.3	724.3	0.023	0.000	20.3	18	1
10/26/19	1:51 p	-14.3	-14.3	-14.3	0.0	---	0.00	0.0	-14.3	724.3	0.023	0.000	20.3	18	1
10/26/19	1:52 p	-14.3	-14.3	-14.4	0.0	---	0.00	0.0	-14.3	724.3	0.023	0.000	20.3	18	1
10/26/19	1:53 p	-14.4	-14.3	-14.4	0.0	---	0.00	0.0	-14.4	724.4	0.023	0.000	20.3	18	1
10/26/19	1:54 p	-14.4	-14.4	-14.4	0.0	---	0.00	0.0	-14.4	724.4	0.023	0.000	20.3	18	1
10/26/19	1:55 p	-14.4	-14.4	-14.4	0.0	---	0.00	0.0	-14.4	724.3	0.023	0.000	20.3	18	1
10/26/19	1:56 p	-14.4	-14.4	-14.4	0.0	---	0.00	0.0	-14.4	724.3	0.023	0.000	20.2	18	1
10/26/19	1:57 p	-14.4	-14.4	-14.5	0.0	---	0.00	0.0	-14.4	724.3	0.023	0.000	20.2	18	1
10/26/19	1:58 p	-14.5	-14.5	-14.5	0.0	---	0.00	0.0	-14.5	724.3	0.023	0.000	20.2	18	1
10/26/19	1:59 p	-14.5	-14.5	-14.6	0.0	---	0.00	0.0	-14.5	724.4	0.023	0.000	20.2	18	1
10/26/19	2:00 p	-14.6	-14.6	-14.6	0.0	---	0.00	0.0	-14.6	724.3	0.023	0.000	20.2	18	1
10/26/19	2:01 p	-14.6	-14.6	-14.7	0.0	---	0.00	0.0	-14.6	724.3	0.023	0.000	20.2	18	1
10/26/19	2:02 p	-14.7	-14.7	-14.7	0.0	---	0.00	0.0	-14.7	724.3	0.023	0.000	20.1	18	1
10/26/19	2:03 p	-14.7	-14.7	-14.7	0.0	---	0.00	0.0	-14.7	724.3	0.023	0.000	20.1	18	1
10/26/19	2:04 p	-14.7	-14.7	-14.7	0.0	---	0.00	0.0	-14.7	724.3	0.023	0.000	20.1	18	1
10/26/19	2:05 p	-14.7	-14.7	-14.8	0.0	---	0.00	0.0	-14.7	724.3	0.023	0.000	20.1	18	1
10/26/19	2:06 p	-14.8	-14.8	-14.8	0.0	---	0.00	0.0	-14.8	724.4	0.023	0.000	20.2	18	1
10/26/19	2:07 p	-14.8	-14.8	-14.8	0.0	---	0.00	0.0	-14.8	724.3	0.023	0.000	20.2	18	1
10/26/19	2:08 p	-14.8	-14.8	-14.9	0.0	---	0.00	0.0	-14.8	724.3	0.023	0.000	20.2	18	1
10/26/19	2:09 p	-14.9	-14.9	-14.9	0.0	---	0.00	0.0	-14.9	724.3	0.023	0.000	20.2	18	1
10/26/19	2:10 p	-14.9	-14.9	-14.9	0.0	---	0.00	0.0	-14.9	724.2	0.023	0.000	20.2	18	1
10/26/19	2:11 p	-14.9	-14.9	-14.9	0.0	---	0.00	0.0	-14.9	724.2	0.023	0.000	20.2	18	1
10/26/19	2:12 p	-14.9	-14.9	-14.9	0.0	---	0.00	0.0	-14.9	724.2	0.023	0.000	20.2	18	1
10/26/19	2:13 p	-14.9	-14.9	-14.9	0.0	---	0.00	0.0	-14.9	724.3	0.023	0.000	20.2	18	1
10/26/19	2:14 p	-14.9	-14.9	-14.9	0.0	---	0.00	0.0	-14.9	724.3	0.023	0.000	20.2	18	1
10/26/19	2:15 p	-14.9	-14.9	-14.9	0.0	---	0.00	0.0	-14.9	724.3	0.023	0.000	20.2	18	1
10/26/19	2:16 p	-14.9	-14.9	-14.9	0.0	---	0.00	0.0	-14.9	724.2	0.023	0.000	20.2	18	1
10/26/19	2:17 p	-14.9	-14.9	-14.9	0.0	---	0.00	0.0	-14.9	724.3	0.023	0.000	20.2	18	1
10/26/19	2:18 p	-14.9	-14.9	-14.9	0.0	---	0.00	0.0	-14.9	724.3	0.023	0.000	20.3	18	1
10/26/19	2:19 p	-14.9	-14.9	-14.9	0.0	---	0.00	0.0	-14.9	724.3	0.023	0.000	20.3	18	1
10/26/19	2:20 p	-14.9	-14.9	-14.9	0.0	---	0.00	0.0	-14.9	724.2	0.023	0.000	20.3	18	1
10/26/19	2:21 p	-14.9	-14.9	-14.9	0.0	---	0.00	0.0	-14.9	724.2	0.023	0.000	20.3	18	1
10/26/19	2:22 p	-14.9	-14.8	-14.9	0.0	---	0.00	0.0	-14.9	724.2	0.023	0.000	20.3	18	1
10/26/19	2:23 p	-14.8	-14.8	-14.8	0.0	---	0.00	0.0	-14.8	724.2	0.023	0.000	20.3	18	1
10/26/19	2:24 p	-14.8	-14.8	-14.8	0.0	---	0.00	0.0	-14.8	724.2	0.023	0.000	20.3	19	1
10/26/19	2:25 p	-14.8	-14.8	-14.8	0.0	---	0.00	0.0	-14.8	724.2	0.023	0.000	20.3	18	1
10/26/19	2:26 p	-14.8	-14.7	-14.8	0.0	---	0.00	0.0	-14.8	724.2	0.023	0.000	20.3	18	1
10/26/19	2:27 p	-14.8	-14.7	-14.8	0.0	---	0.00	0.0	-14.8	724.2	0.023	0.000	20.3	17	1
10/26/19	2:28 p	-14.8	-14.7	-14.8	0.0	---	0.00	0.0	-14.8	724.2	0.023	0.000	20.3	16	1
10/26/19	2:29 p	-14.8	-14.8	-14.8	0.0	---	0.00	0.0	-14.8	724.2	0.023	0.000	20.2	16	1
10/26/19	2:30 p	-14.8	-14.8	-14.8	0.0	---	0.00	0.0	-14.8	724.2	0.023	0.000	20.2	16	1
10/26/19	2:31 p	-14.8	-14.8	-14.8	0.0	---	0.00	0.0	-14.8	724.2	0.023	0.000	20.2	16	1
10/26/19	2:32 p	-14.8	-14.8	-14.8	0.0	---	0.00	0.0	-14.8	724.3	0.023	0.000	20.2	16	1
10/26/19	2:33 p	-14.8	-14.8	-14.8	0.0	---	0.00	0.0	-14.8	724.3	0.023	0.000	20.2	16	1
10/26/19	2:34 p	-14.8	-14.8	-14.8	0.0	---	0.00	0.0	-14.8	724.3	0.023	0.000	20.2	16	1
10/26/19	2:35 p	-14.8	-14.8	-14.8	0.0	---	0.00	0.0	-14.8	724.3	0.023	0.000	20.1	16	1
10/26/19	2:36 p	-14.8	-14.8	-14.9	0.0	---	0.00	0.0	-14.8	724.3	0.023	0.000	20.1	16	1
10/26/19	2:37 p	-14.9	-14.9	-14.9	0.0	---	0.00	0.0	-14.9	724.3	0.023	0.000	20.2	16	1
10/26/19	2:38 p	-14.9	-14.9	-14.9	0.0	---	0.00	0.0	-14.9	724.3	0.023	0.000	20.2	16	1
10/26/19	2:39 p	-14.9	-14.9	-14.9	0.0	---	0.00	0.0	-14.9	724.3	0.023	0.000	20.2	16	1
10/26/19	2:40 p	-14.9	-14.9	-14.9	0.0	---	0.00	0.0	-14.9	724.3	0.023	0.000	20.2	16	1
10/26/19	2:41 p	-14.9	-14.9	-14.9	0.0	---	0.00	0.0	-14.9	724.3	0.023	0.000	20.2	16	1
10/26/19	2:42 p	-14.9	-14.9	-14.9	0.0	---	0.00	0.0	-14.9	724.3	0.023	0.000	20.2	16	1
10/26/19	2:43 p	-14.9	-14.9	-14.9	0.0	---	0.00	0.0	-14.9	724.3	0.023	0.000	20.2	16	1
10/26/19	2:44 p	-14.9	-14.9	-15.0	0.0	---	0.00	0.0	-14.9	724.3	0.023	0.000	20.2	16	1
10/26/19	2:45 p	-14.9	-14.9	-15.0	0.0	---	0.00	0.0	-14.9	724.3	0.023	0.000	20.2	16	1
10/26/19	2:46 p	-14.9	-14.9	-15.0	0.0	---	0.00	0.0	-14.9	724.3	0.023	0.000	20.2	16	1
10/26/19	2:47 p	-15.0	-14.9	-15.0	0.0	---	0.00	0.0	-15.0	724.3	0.023	0.000	20.2	16	1
10/26/19	2:48 p	-15.0	-14.9	-15.0	0.0	---	0.00	0.0	-15.0	724.3	0.023	0.000	20.3	16	1
10/26/19	2:49 p	-14.9	-14.9	-14.9	0.0	---	0.00	0.0	-14.9	724.3	0.023	0.000	20.3	16	1
10/26/19	2:50 p	-15.0	-14.9	-15.0	0.0	---	0.00	0.0	-15.0	724.3	0.023	0.000	20.3	16	1
10/26/19	2:51 p	-14.9	-14.9	-14.9	0.0	---	0.00	0.0	-14.9	724.3	0.023	0.000	20.3	16	1
10/26/19	2:52 p	-14.9	-14.9	-15.0	0.0	---	0.00	0.0	-14.9	724.3	0.023	0.000	20.3	16	1
10/26/19	2:53 p	-15.0	-14.9	-15.0	0.0	---	0.00	0.0	-15.0	724.3	0.023	0.000	20.3	16	1
10/26/19	2:54 p	-15.0	-14.9	-15.0	0.0	---	0.00	0.0	-15.0	724.3	0.023	0.000	20.3	16	1
10/26/19	2:55 p	-14.9	-14.9	-14.9	0.0	---	0.00	0.0	-14.9	724.3	0.023	0.000	20.3	16	1
10/26/19	2:56 p	-14.9	-14.9	-14.9	0.0	---	0.00	0.0	-14.9	724.3	0.023	0.000	20.3	16	1
10/26/19	2:57 p	-14.9	-14.9	-14.9	0.0	---	0.00	0.0	-14.9	724.3	0.023	0.000	20.3	16	1
10/26/19	2:58 p	-14.9	-14.9	-14.9	0.0	---	0.00	0.0	-14.9	724.3	0.023	0.000	20.3	16	1
10/26/19	2:59 p	-14.9	-14.9	-14.9	0.0	---	0.00	0.0	-14.9	724.3	0.023	0.000	20.3	16	1
10/26/19	3:00 p	-14.9	-14.9	-14.9	0.0	---	0.00	0.0	-14.9	724.3	0.023	0.000	20.3	16	1
10/26/19	3:01 p	-14.8	-14.8	-14.9	0.0	---	0.00	0.0	-14.8	724.2	0.023	0.000	20.3	16	1
10/26/19	3:02 p	-14.8	-14.8	-14.8	0.0	---	0.00	0.0	-14.8	724.3	0.023	0.000	20.2	16	1
10/26/19	3:03 p	-14.8	-14.8	-14.8	0.0	---	0.00	0.0	-14.8	724.3	0.023	0.000	20.2	16	1
10/26/19	3:04 p	-14.8	-14.8	-14.8	0.0	---	0.00	0.0	-14.8	724.3	0.023	0.000	20.2	17	1
10/26/19	3:05 p	-14.8	-14.8	-14.8	0.0	---	0.00	0.0	-14.8	724.3	0.023	0.000	20.2	16	1
10/26/19	3:06 p	-14.8	-14.8	-14.8	0.0	---	0.00	0.0	-14.8	724.4	0.023	0.000	20.2	16	1
10/26/19	3:07 p	-14.8	-14.8	-14.8	0.0	---	0.00	0.0	-14.8	724.4	0.023	0.000	20.2	16	1
10/26/19	3:08 p	-14.7	-14.7	-14.8	0.0	---	0.00	0.0	-14.7	724.3	0.023	0.000	20.2	16	1
10/26/19	3:09 p	-14.7	-14.7	-14.7	0.0	---	0.00	0.0	-14.7	724.4	0.023	0.000	20.2	16	1
10/26/19	3:10 p	-14.7	-14.7	-14.7	0.0	---	0.00	0.0	-14.7	724.4	0.023	0.000	20.2	16	1
10/26/19	3:11 p	-14.7	-14.7	-14.7	0.0	---	0.00	0.0	-14.7	724.3	0.023	0.000	20.2	16	1
10/26/19	3:12 p	-14.7	-14.6	-14.7	0.0	---	0.00	0.0	-14.7	724.3	0.023	0.000	20.2	16	1
10/26/19	3:13 p	-14.6	-14.6	-14.6	0.0	---	0.00	0.0	-14.6	724.3	0.023	0.000	20.2	16	1
10/26/19	3:14 p	-14.6	-14.5	-14.6	0.0	---	0.00	0.0	-14.6	724.3	0.023	0.000	20.2	16	1
10/26/19	3:15 p	-14.5	-14.4	-14.5	0.0	---	0.00	0.0	-14.5	724.2	0.023	0.000	20.2	16	1
10/26/19	3:16 p	-14.4	-14.3	-14.4	0.0	---	0.00	0.0	-14.4	724.3	0.023	0.000	20.2	17	1
10/26/19	3:17 p	-14.2	-14.1	-14.3	0.0	---	0.00	0.0	-14.2	724.2	0.023	0.000	20.2	16	1
10/26/19	3:18 p	-14.1	-14.0	-14.1	0.0	---	0.00	0.0	-14.1	724.2	0.022	0.000	20.2	16	1
10/26/19	3:19 p	-13.8	-13.8	-13.9	0.0	---	0.00	0.0	-13.8	724.2	0.022	0.000	20.3	16	1
10/26/19	3:20 p	-13.7	-13.7	-13.7	0.0	---	0.00	0.0	-13.7	724.3	0.022	0.000	20.3	16	1
10/26/19	3:21 p	-13.6	-13.6	-13.6	0.0	---	0.00	0.0	-13.6	724.3	0.022	0.000	20.3	16	1
10/26/19	3:22 p	-13.5	-13.5	-13.5	0.0	---	0.00	0.0	-13.5	724.2	0.022	0.000	20.3	16	1
10/26/19	3:23 p	-13.5	-13.4	-13.5	0.0	---	0.00	0.0	-13.5	724.2	0.022	0.000	20.3	16	1
10/26/19	3:24 p	-13.5	-13.5	-13.5	0.0	---	0.00	0.0	-13.5	724.2	0.022	0.000	20.3	16	1
10/26/19	3:25 p	-13.5	-13.5	-13.5	0.0	---	0.00	0.0	-13.5	724.2	0.022	0.000	20.3	16	1
10/26/19	3:26 p	-13.5	-13.5	-13.5	0.0	---	0.00	0.0	-13.5	724.2	0.022	0.000	20.3	16	1
10/26/19	3:27 p	-13.5	-13.5	-13.5	0.0	---	0.00	0.0	-13.5	724.2	0.022	0.000	20.3	16	1
10/26/19	3:28 p	-13.5	-13.4	-13.5	0.0	---	0.00	0.0	-13.5	724.3	0.022	0.000	20.3	16	1
10/26/19	3:29 p	-13.4	-13.4	-13.4	0.0	---	0.00	0.0	-13.4	724.3	0.022	0.000	20.3	16	1
10/26/19	3:30 p	-13.4	-13.4	-13.4	0.0	---	0.00	0.0	-13.4	724.2	0.022	0.000	20.3	16	1
10/26/19	3:31 p	-13.4	-13.4	-13.4	0.0	---	0.00	0.0	-13.4	724.2	0.022	0.000	20.3	16	1
10/26/19	3:32 p	-13.4	-13.4	-13.4	0.0	---	0.00	0.0	-13.4	724.3	0.022	0.000	20.3	16	1
10/26/19	3:33 p	-13.4	-13.4	-13.4	0.0	---	0.00	0.0	-13.4	724.2	0.022	0.000	20.3	16	1
10/26/19	3:34 p	-13.4	-13.4	-13.4	0.0	---	0.00	0.0	-13.4	724.2	0.022	0.000	20.3	16	1
10/26/19	3:35 p	-13.4	-13.4	-13.4	0.0	---	0.00	0.0	-13.4	724.3	0.022	0.000	20.3	16	1
10/26/19	3:36 p	-13.4	-13.4	-13.4	0.0	---	0.00	0.0	-13.4	724.2	0.022	0.000	20.3	16	1
10/26/19	3:37 p	-13.4	-13.4	-13.4	0.0	---	0.00	0.0	-13.4	724.3	0.022	0.000	20.3	16	1
10/26/19	3:38 p	-13.4	-13.4	-13.4	0.0	---	0.00	0.0	-13.4	724.2	0.022	0.000	20.3	16	1
10/26/19	3:39 p	-13.4	-13.4	-13.4	0.0	---	0.00	0.0	-13.4	724.3	0.022	0.000	20.3	16	1
10/26/19	3:40 p	-13.4	-13.4	-13.4	0.0	---	0.00	0.0	-13.4	724.2	0.022	0.000	20.2	17	1
10/26/19	3:41 p	-13.4	-13.4	-13.4	0.0	---	0.00	0.0	-13.4	724.2	0.022	0.000	20.2	17	1
10/26/19	3:42 p	-13.4	-13.4	-13.4	0.0	---	0.00	0.0	-13.4	724.2	0.022	0.000	20.2	17	1
10/26/19	3:43 p	-13.4	-13.4	-13.4	0.0	---	0.00	0.0	-13.4	724.2	0.022	0.000	20.2	16	1
10/26/19	3:44 p	-13.4	-13.4	-13.4	0.0	---	0.00	0.0	-13.4	724.2	0.022	0.000	20.2	16	1
10/26/19	3:45 p	-13.5	-13.4	-13.5	0.0	---	0.00	0.0	-13.5	724.3	0.022	0.000	20.2	16	1
10/26/19	3:46 p	-13.5	-13.5	-13.5	0.0	---	0.00	0.0	-13.5	724.2	0.022	0.000	20.2	16	1
10/26/19	3:47 p	-13.5	-13.5	-13.5	0.0	---	0.00	0.0	-13.5	724.2	0.022	0.000	20.2	16	1
10/26/19	3:48 p	-13.5	-13.5	-13.5	0.0	---	0.00	0.0	-13.5	724.2	0.022	0.000	20.2	16	1
10/26/19	3:49 p	-13.5	-13.5	-13.5	0.0	---	0.00	0.0	-13.5	724.2	0.022	0.000	20.2	16	1
10/26/19	3:50 p	-13.5	-13.4	-13.5	0.0	---	0.00	0.0	-13.5	724.3	0.022	0.000	20.2	16	1
10/26/19	3:51 p	-13.4	-13.4	-13.4	0.0	---	0.00	0.0	-13.4	724.3	0.022	0.000	20.2	16	1
10/26/19	3:52 p	-13.4	-13.4	-13.4	0.0	---	0.00	0.0	-13.4	724.2	0.022	0.000	20.2	16	1
10/26/19	3:53 p	-13.4	-13.4	-13.4	0.0	---	0.00	0.0	-13.4	724.2	0.022	0.000	20.2	16	1
10/26/19	3:54 p	-13.4	-13.4	-13.4	0.0	---	0.00	0.0	-13.4	724.2	0.022	0.000	20.2	16	1
10/26/19	3:55 p	-13.4	-13.4	-13.5	0.0	---	0.00	0.0	-13.4	724.2	0.022	0.000	20.2	16	1
10/26/19	3:56 p	-13.4	-13.4	-13.5	0.0	---	0.00	0.0	-13.4	724.2	0.022	0.000	20.3	17	1
10/26/19	3:57 p	-13.5	-13.5	-13.5	0.0	---	0.00	0.0	-13.5	724.2	0.022	0.000	20.3	16	1
10/26/19	3:58 p	-13.5	-13.5	-13.5	0.0	---	0.00	0.0	-13.5	724.3	0.022	0.000	20.3	16	1
10/26/19	3:59 p	-13.6	-13.6	-13.6	0.0	---	0.00	0.0	-13.6	724.2	0.022	0.000	20.3	16	1
10/26/19	4:00 p	-13.6	-13.6	-13.6	0.0	---	0.00	0.0	-13.6	724.2	0.022	0.000	20.3	16	1
10/26/19	4:01 p	-13.6	-13.6	-13.6	0.0	---	0.00	0.0	-13.6	724.2	0.022	0.000	20.3	16	1
10/26/19	4:02 p	-13.6	-13.6	-13.6	0.0	---	0.00	0.0	-13.6	724.2	0.022	0.000	20.3	16	1
10/26/19	4:03 p	-13.6	-13.6	-13.6	0.0	---	0.00	0.0	-13.6	724.2	0.022	0.000	20.3	16	1
10/26/19	4:04 p	-13.6	-13.6	-13.7	0.0	---	0.00	0.0	-13.6	724.2	0.022	0.000	20.3	16	1
10/26/19	4:05 p	-13.7	-13.7	-13.7	0.0	---	0.00	0.0	-13.7	724.2	0.022	0.000	20.3	16	1
10/26/19	4:06 p	-13.7	-13.7	-13.7	0.0	---	0.00	0.0	-13.7	724.3	0.022	0.000	20.3	16	1
10/26/19	4:07 p	-13.7	-13.7	-13.7	0.0	---	0.00	0.0	-13.7	724.3	0.022	0.000	20.3	17	1
10/26/19	4:08 p	-13.8	-13.7	-13.8	0.0	---	0.00	0.0	-13.8	724.4	0.022	0.000	20.3	17	1
10/26/19	4:09 p	-13.8	-13.8	-13.8	0.0	---	0.00	0.0	-13.8	724.3	0.022	0.000	20.3	16	1
10/26/19	4:10 p	-13.8	-13.8	-13.8	0.0	---	0.00	0.0	-13.8	724.3	0.022	0.000	20.3	17	1
10/26/19	4:11 p	-13.8	-13.8	-13.8	0.0	---	0.00	0.0	-13.8	724.2	0.022	0.000	20.3	17	1
10/26/19	4:12 p	-13.8	-13.8	-13.9	0.0	---	0.00	0.0	-13.8	724.2	0.022	0.000	20.2	16	1
10/26/19	4:13 p	-13.9	-13.9	-13.9	0.0	---	0.00	0.0	-13.9	724.3	0.022	0.000	20.2	16	1
10/26/19	4:14 p	-13.9	-13.9	-13.9	0.0	---	0.00	0.0	-13.9	724.2	0.022	0.000	20.2	16	1
10/26/19	4:15 p	-13.9	-13.9	-13.9	0.0	---	0.00	0.0	-13.9	724.3	0.022	0.000	20.2	16	1
10/26/19	4:16 p	-13.9	-13.9	-13.9	0.0	---	0.00	0.0	-13.9	724.3	0.022	0.000	20.2	16	1
10/26/19	4:17 p	-13.9	-13.9	-13.9	0.0	---	0.00	0.0	-13.9	724.3	0.022	0.000	20.1	17	1
10/26/19	4:18 p	-13.9	-13.9	-13.9	0.0	---	0.00	0.0	-13.9	724.3	0.022	0.000	20.1	17	1
10/26/19	4:19 p	-13.9	-13.9	-13.9	0.0	---	0.00	0.0	-13.9	724.3	0.022	0.000	20.1	17	1
10/26/19	4:20 p	-13.9	-13.9	-13.9	0.0	---	0.00	0.0	-13.9	724.2	0.022	0.000	20.1	17	1
10/26/19	4:21 p	-13.9	-13.9	-13.9	0.0	---	0.00	0.0	-13.9	724.3	0.022	0.000	20.2	17	1
10/26/19	4:22 p	-13.9	-13.9	-13.9	0.0	---	0.00	0.0	-13.9	724.2	0.022	0.000	20.2	17	1
10/26/19	4:23 p	-13.9	-13.9	-13.9	0.0	---	0.00	0.0	-13.9	724.2	0.022	0.000	20.2	17	1
10/26/19	4:24 p	-13.9	-13.9	-13.9	0.0	---	0.00	0.0	-13.9	724.2	0.022	0.000	20.2	17	1
10/26/19	4:25 p	-13.9	-13.9	-13.9	0.0	---	0.00	0.0	-13.9	724.2	0.022	0.000	20.2	17	1
10/26/19	4:26 p	-13.9	-13.9	-13.9	0.0	---	0.00	0.0	-13.9	724.2	0.022	0.000	20.2	17	1
10/26/19	4:27 p	-14.0	-13.9	-14.0	0.0	---	0.00	0.0	-14.0	724.2	0.022	0.000	20.2	17	1
10/26/19	4:28 p	-14.0	-14.0	-14.0	0.0	---	0.00	0.0	-14.0	724.3	0.022	0.000	20.2	17	1
10/26/19	4:29 p	-14.0	-14.0	-14.1	0.0	---	0.00	0.0	-14.0	724.2	0.022	0.000	20.2	17	1
10/26/19	4:30 p	-14.1	-14.1	-14.1	0.0	---	0.00	0.0	-14.1	724.2	0.022	0.000	20.2	17	1
10/26/19	4:31 p	-14.1	-14.1	-14.1	0.0	---	0.00	0.0	-14.1	724.2	0.022	0.000	20.2	17	1
10/26/19	4:32 p	-14.1	-14.1	-14.1	0.0	---	0.00	0.0	-14.1	724.3	0.022	0.000	20.3	17	1
10/26/19	4:33 p	-14.1	-14.1	-14.1	0.0	---	0.00	0.0	-14.1	724.2	0.022	0.000	20.3	17	1
10/26/19	4:34 p	-14.1	-14.1	-14.1	0.0	---	0.00	0.0	-14.1	724.2	0.022	0.000	20.3	17	1
10/26/19	4:35 p	-14.1	-14.1	-14.1	0.0	---	0.00	0.0	-14.1	724.2	0.022	0.000	20.3	17	1
10/26/19	4:36 p	-14.1	-14.1	-14.1	0.0	---	0.00	0.0	-14.1	724.2	0.022	0.000	20.3	16	1
10/26/19	4:37 p	-14.1	-14.1	-14.1	0.0	---	0.00	0.0	-14.1	724.2	0.023	0.000	20.3	17	1
10/26/19	4:38 p	-14.1	-14.1	-14.1	0.0	---	0.00	0.0	-14.1	724.2	0.023	0.000	20.3	17	1
10/26/19	4:39 p	-14.1	-14.1	-14.1	0.0	---	0.00	0.0	-14.1	724.3	0.023	0.000	20.3	17	1
10/26/19	4:40 p	-14.1	-14.1	-14.1	0.0	---	0.00	0.0	-14.1	724.2	0.023	0.000	20.3	17	1
10/26/19	4:41 p	-14.2	-14.1	-14.2	0.0	---	0.00	0.0	-14.2	724.3	0.023	0.000	20.3	17	1
10/26/19	4:42 p	-14.2	-14.2	-14.2	0.0	---	0.00	0.0	-14.2	724.3	0.023	0.000	20.2	17	1
10/26/19	4:43 p	-14.2	-14.2	-14.2	0.0	---	0.00	0.0	-14.2	724.3	0.023	0.000	20.2	18	1
10/26/19	4:44 p	-14.2	-14.2	-14.2	0.0	---	0.00	0.0	-14.2	724.3	0.023	0.000	20.2	17	1
10/26/19	4:45 p	-14.2	-14.2	-14.2	0.0	---	0.00	0.0	-14.2	724.3	0.023	0.000	20.2	17	1
10/26/19	4:46 p	-14.2	-14.2	-14.2	0.0	---	0.00	0.0	-14.2	724.3	0.023	0.000	20.2	18	1
10/26/19	4:47 p	-14.2	-14.2	-14.2	0.0	---	0.00	0.0	-14.2	724.3	0.023	0.000	20.2	18	1
10/26/19	4:48 p	-14.2	-14.2	-14.2	0.0	---	0.00	0.0	-14.2	724.2	0.023	0.000	20.1	18	1
10/26/19	4:49 p	-14.2	-14.2	-14.2	0.0	---	0.00	0.0	-14.2	724.2	0.023	0.000	20.1	17	1
10/26/19	4:50 p	-14.2	-14.2	-14.2	0.0	---	0.00	0.0	-14.2	724.3	0.023	0.000	20.1	17	1
10/26/19	4:51 p	-14.2	-14.2	-14.2	0.0	---	0.00	0.0	-14.2	724.3	0.023	0.000	20.1	17	1
10/26/19	4:52 p	-14.2	-14.2	-14.2	0.0	---	0.00	0.0	-14.2	724.2	0.023	0.000	20.1	17	1
10/26/19	4:53 p	-14.2	-14.2	-14.2	0.0	---	0.00	0.0	-14.2	724.3	0.023	0.000	20.1	17	1
10/26/19	4:54 p	-14.2	-14.2	-14.2	0.0	---	0.00	0.0	-14.2	724.2	0.023	0.000	20.2	17	1
10/26/19	4:55 p	-14.2	-14.2	-14.2	0.0	---	0.00	0.0	-14.2	724.2	0.023	0.000	20.2	17	1
10/26/19	4:56 p	-14.2	-14.2	-14.2	0.0	---	0.00	0.0	-14.2	724.3	0.023	0.000	20.2	17	1
10/26/19	4:57 p	-14.2	-14.2	-14.2	0.0	---	0.00	0.0	-14.2	724.2	0.023	0.000	20.2	17	1
10/26/19	4:58 p	-14.2	-14.2	-14.2	0.0	---	0.00	0.0	-14.2	724.2	0.023	0.000	20.2	17	1
10/26/19	4:59 p	-14.2	-14.2	-14.2	0.0	---	0.00	0.0	-14.2	724.3	0.023	0.000	20.2	18	1
10/26/19	5:00 p	-14.2	-14.2	-14.2	0.0	---	0.00	0.0	-14.2	724.3	0.023	0.000	20.2	17	1
10/26/19	5:01 p	-14.1	-14.1	-14.1	0.0	---	0.00	0.0	-14.1	724.3	0.023	0.000	20.2	17	1
10/26/19	5:02 p	-14.1	-14.1	-14.1	0.0	---	0.00	0.0	-14.1	724.3	0.023	0.000	20.2	17	1
10/26/19	5:03 p	-14.1	-14.1	-14.1	0.0	---	0.00	0.0	-14.1	724.2	0.023	0.000	20.2	17	1
10/26/19	5:04 p	-14.1	-14.1	-14.1	0.0	---	0.00	0.0	-14.1	724.3	0.023	0.000	20.3	17	1
10/26/19	5:05 p	-14.1	-14.1	-14.2	0.0	---	0.00	0.0	-14.1	724.2	0.023	0.000	20.3	17	1
10/26/19	5:06 p	-14.2	-14.1	-14.2	0.0	---	0.00	0.0	-14.2	724.2	0.023	0.000	20.3	17	1
10/26/19	5:07 p	-14.2	-14.2	-14.2	0.0	---	0.00	0.0	-14.2	724.2	0.023	0.000	20.3	17	1
10/26/19	5:08 p	-14.2	-14.2	-14.2	0.0	---	0.00	0.0	-14.2	724.2	0.023	0.000	20.3	17	1
10/26/19	5:09 p	-14.2	-14.2	-14.2	0.0	---	0.00	0.0	-14.2	724.2	0.023	0.000	20.3	17	1
10/26/19	5:10 p	-14.2	-14.2	-14.2	0.0	---	0.00	0.0	-14.2	724.2	0.023	0.000	20.3	17	1
10/26/19	5:11 p	-14.2	-14.2	-14.2	0.0	---	0.00	0.0	-14.2	724.2	0.023	0.000	20.3	17	1
10/26/19	5:12 p	-14.2	-14.2	-14.2	0.0	---	0.00	0.0	-14.2	724.2	0.023	0.000	20.3	17	1
10/26/19	5:13 p	-14.2	-14.2	-14.2	0.0	---	0.00	0.0	-14.2	724.3	0.023	0.000	20.3	17	1
10/26/19	5:14 p	-14.2	-14.2	-14.2	0.0	---	0.00	0.0	-14.2	724.3	0.023	0.000	20.3	17	1
10/26/19	5:15 p	-14.2	-14.2	-14.2	0.0	---	0.00	0.0	-14.2	724.3	0.023	0.000	20.3	16	1
10/26/19	5:16 p	-14.2	-14.2	-14.2	0.0	---	0.00	0.0	-14.2	724.3	0.023	0.000	20.3	16	1
10/26/19	5:17 p	-14.2	-14.2	-14.2	0.0	---	0.00	0.0	-14.2	724.3	0.023	0.000	20.2	16	1
10/26/19	5:18 p	-14.2	-14.2	-14.2	0.0	---	0.00	0.0	-14.2	724.3	0.023	0.000	20.2	16	1
10/26/19	5:19 p	-14.2	-14.2	-14.2	0.0	---	0.00	0.0	-14.2	724.3	0.023	0.000	20.2	17	1
10/26/19	5:20 p	-14.2	-14.1	-14.2	0.0	---	0.00	0.0	-14.2	724.3	0.023	0.000	20.2	16	1
10/26/19	5:21 p	-14.1	-14.1	-14.1	0.0	---	0.00	0.0	-14.1	724.2	0.023	0.000	20.2	16	1
10/26/19	5:22 p	-14.2	-14.1	-14.2	0.0	---	0.00	0.0	-14.2	724.1	0.023	0.000	20.2	17	1
10/26/19	5:23 p	-14.2	-14.2	-14.2	0.0	---	0.00	0.0	-14.2	724.2	0.023	0.000	20.1	17	1
10/26/19	5:24 p	-14.2	-14.2	-14.2	0.0	---	0.00	0.0	-14.2	724.1	0.023	0.000	20.1	17	1
10/26/19	5:25 p	-14.2	-14.2	-14.2	0.0	---	0.00	0.0	-14.2	724.2	0.023	0.000	20.1	17	1
10/26/19	5:26 p	-14.2	-14.2	-14.3	0.0	---	0.00	0.0	-14.2	724.2	0.023	0.000	20.1	17	1
10/26/19	5:27 p	-14.3	-14.3	-14.3	0.0	---	0.00	0.0	-14.3	724.2	0.023	0.000	20.1	17	1
10/26/19	5:28 p	-14.3	-14.3	-14.3	0.0	---	0.00	0.0	-14.3	724.2	0.023	0.000	20.1	17	1
10/26/19	5:29 p	-14.3	-14.3	-14.3	0.0	---	0.00	0.0	-14.3	724.2	0.023	0.000	20.2	17	1
10/26/19	5:30 p	-14.3	-14.2	-14.3	0.0	---	0.00	0.0	-14.3	724.1	0.023	0.000	20.2	17	1
10/26/19	5:31 p	-14.2	-14.2	-14.2	0.0	---	0.00	0.0	-14.2	724.2	0.023	0.000	20.2	17	1
10/26/19	5:32 p	-14.2	-14.2	-14.2	0.0	---	0.00	0.0	-14.2	724.2	0.023	0.000	20.2	17	1
10/26/19	5:33 p	-14.2	-14.2	-14.2	0.0	---	0.00	0.0	-14.2	724.2	0.023	0.000	20.2	16	1
10/26/19	5:34 p	-14.2	-14.2	-14.3	0.0	---	0.00	0.0	-14.2	724.2	0.023	0.000	20.2	16	1
10/26/19	5:35 p	-14.3	-14.3	-14.3	0.0	---	0.00	0.0	-14.3	724.2	0.023	0.000	20.2	16	1
10/26/19	5:36 p	-14.3	-14.3	-14.3	0.0	---	0.00	0.0	-14.3	724.2	0.023	0.000	20.2	16	1
10/26/19	5:37 p	-14.3	-14.3	-14.3	0.0	---	0.00	0.0	-14.3	724.2	0.023	0.000	20.2	16	1
10/26/19	5:38 p	-14.4	-14.3	-14.4	0.0	---	0.00	0.0	-14.4	724.2	0.023	0.000	20.2	17	1
10/26/19	5:39 p	-14.4	-14.4	-14.4	0.0	---	0.00	0.0	-14.4	724.2	0.023	0.000	20.2	17	1
10/26/19	5:40 p	-14.4	-14.4	-14.4	0.0	---	0.00	0.0	-14.4	724.2	0.023	0.000	20.2	15	1
10/26/19	5:41 p	-14.4	-14.4	-14.5	0.0	---	0.00	0.0	-14.4	724.2	0.023	0.000	20.2	15	1
10/26/19	5:42 p	-14.5	-14.5	-14.6	0.0	---	0.00	0.0	-14.5	724.2	0.023	0.000	20.2	15	1
10/26/19	5:43 p	-14.7	-14.7	-14.8	0.0	---	0.00	0.0	-14.7	724.2	0.023	0.000	20.2	16	1
10/26/19	5:44 p	-14.8	-14.8	-14.8	0.0	---	0.00	0.0	-14.8	724.2	0.023	0.000	20.2	16	1
10/26/19	5:45 p	-14.9	-14.9	-14.9	0.0	---	0.00	0.0	-14.9	724.1	0.023	0.000	20.2	16	1
10/26/19	5:46 p	-15.0	-14.9	-15.1	0.0	---	0.00	0.0	-15.0	724.1	0.023	0.000	20.2	15	1
10/26/19	5:47 p	-15.1	-15.1	-15.1	0.0	---	0.00	0.0	-15.1	724.1	0.023	0.000	20.2	15	1
10/26/19	5:48 p	-15.2	-15.1	-15.2	0.0	---	0.00	0.0	-15.2	724.2	0.023	0.000	20.2	16	1
10/26/19	5:49 p	-15.2	-15.2	-15.2	0.0	---	0.00	0.0	-15.2	724.2	0.023	0.000	20.2	16	1
10/26/19	5:50 p	-15.2	-15.2	-15.2	0.0	---	0.00	0.0	-15.2	724.2	0.023	0.000	20.2	16	1
10/26/19	5:51 p	-15.1	-15.1	-15.2	0.0	---	0.00	0.0	-15.1	724.3	0.023	0.000	20.1	16	1
10/26/19	5:52 p	-15.1	-15.1	-15.1	0.0	---	0.00	0.0	-15.1	724.3	0.023	0.000	20.1	16	1
10/26/19	5:53 p	-15.1	-15.1	-15.2	0.0	---	0.00	0.0	-15.1	724.2	0.023	0.000	20.1	17	1
10/26/19	5:54 p	-15.1	-15.1	-15.1	0.0	---	0.00	0.0	-15.1	724.2	0.023	0.000	20.1	17	1
10/26/19	5:55 p	-15.1	-15.1	-15.1	0.0	---	0.00	0.0	-15.1	724.2	0.023	0.000	20.1	16	1
10/26/19	5:56 p	-15.1	-15.1	-15.1	0.0	---	0.00	0.0	-15.1	724.3	0.023	0.000	20.1	16	1
10/26/19	5:57 p	-15.1	-15.1	-15.1	0.0	---	0.00	0.0	-15.1	724.2	0.023	0.000	20.1	16	1
10/26/19	5:58 p	-15.1	-15.1	-15.1	0.0	---	0.00	0.0	-15.1	724.2	0.023	0.000	20.1	17	1
10/26/19	5:59 p	-15.1	-15.1	-15.1	0.0	---	0.00	0.0	-15.1	724.2	0.023	0.000	20.1	16	1
10/26/19	6:00 p	-15.1	-15.1	-15.1	0.0	---	0.00	0.0	-15.1	724.2	0.023	0.000	20.1	17	1
10/26/19	6:01 p	-15.2	-15.1	-15.2	0.0	---	0.00	0.0	-15.2	724.2	0.023	0.000	20.1	15	1
10/26/19	6:02 p	-15.1	-15.1	-15.2	0.0	---	0.00	0.0	-15.1	724.2	0.023	0.000	20.1	15	1
10/26/19	6:03 p	-15.1	-15.1	-15.1	0.0	---	0.00	0.0	-15.1	724.2	0.023	0.000	20.1	15	1
10/26/19	6:04 p	-15.1	-15.1	-15.1	0.0	---	0.00	0.0	-15.1	724.2	0.023	0.000	20.1	15	1
10/26/19	6:05 p	-15.0	-15.0	-15.1	0.0	---	0.00	0.0	-15.0	724.2	0.023	0.000	20.1	15	1
10/26/19	6:06 p	-15.0	-15.0	-15.0	0.0	---	0.00	0.0	-15.0	724.2	0.023	0.000	20.1	15	1
10/26/19	6:07 p	-15.0	-15.0	-15.0	0.0	---	0.00	0.0	-15.0	724.2	0.023	0.000	20.1	15	1
10/26/19	6:08 p	-14.9	-14.9	-15.0	0.0	---	0.00	0.0	-14.9	724.2	0.023	0.000	20.1	15	1
10/26/19	6:09 p	-14.9	-14.9	-15.0	0.0	---	0.00	0.0	-14.9	724.2	0.023	0.000	20.1	15	1
10/26/19	6:10 p	-15.0	-15.0	-15.0	0.0	---	0.00	0.0	-15.0	724.1	0.023	0.000	20.1	15	1
10/26/19	6:11 p	-15.0	-15.0	-15.1	0.0	---	0.00	0.0	-15.0	724.2	0.023	0.000	20.1	15	1
10/26/19	6:12 p	-15.0	-15.0	-15.1	0.0	---	0.00	0.0	-15.0	724.2	0.023	0.000	20.1	15	1
10/26/19	6:13 p	-14.9	-14.9	-14.9	0.0	---	0.00	0.0	-14.9	724.2	0.023	0.000	20.1	15	1
10/26/19	6:14 p	-14.9	-14.9	-14.9	0.0	---	0.00	0.0	-14.9	724.3	0.023	0.000	20.1	15	1
10/26/19	6:15 p	-14.8	-14.7	-14.8	0.0	---	0.00	0.0	-14.8	724.2	0.023	0.000	20.1	15	1
10/26/19	6:16 p	-14.7	-14.7	-14.7	0.0	---	0.00	0.0	-14.7	724.2	0.023	0.000	20.1	16	1
10/26/19	6:17 p	-14.7	-14.7	-14.7	0.0	---	0.00	0.0	-14.7	724.2	0.023	0.000	20.1	16	1
10/26/19	6:18 p	-14.7	-14.7	-14.7	0.0	---	0.00	0.0	-14.7	724.2	0.023	0.000	20.1	16	1
10/26/19	6:19 p	-14.7	-14.7	-14.7	0.0	---	0.00	0.0	-14.7	724.2	0.023	0.000	20.1	16	1
10/26/19	6:20 p	-14.7	-14.7	-14.7	0.0	---	0.00	0.0	-14.7	724.2	0.023	0.000	20.1	16	1
10/26/19	6:21 p	-14.7	-14.7	-14.7	0.0	---	0.00	0.0	-14.7	724.2	0.023	0.000	20.0	15	1
10/26/19	6:22 p	-14.7	-14.7	-14.7	0.0	---	0.00	0.0	-14.7	724.2	0.023	0.000	20.0	15	1
10/26/19	6:23 p	-14.7	-14.7	-14.7	0.0	---	0.00	0.0	-14.7	724.2	0.023	0.000	19.9	16	1
10/26/19	6:24 p	-14.7	-14.7	-14.7	0.0	---	0.00	0.0	-14.7	724.2	0.023	0.000	19.9	16	1
10/26/19	6:25 p	-14.7	-14.7	-14.7	0.0	---	0.00	0.0	-14.7	724.2	0.023	0.000	19.9	15	1
10/26/19	6:26 p	-14.7	-14.7	-14.7	0.0	---	0.00	0.0	-14.7	724.2	0.023	0.000	19.9	15	1
10/26/19	6:27 p	-14.7	-14.7	-14.7	0.0	---	0.00	0.0	-14.7	724.2	0.023	0.000	19.9	15	1
10/26/19	6:28 p	-14.7	-14.7	-14.7	0.0	---	0.00	0.0	-14.7	724.2	0.023	0.000	20.0	15	1
10/26/19	6:29 p	-14.7	-14.7	-14.7	0.0	---	0.00	0.0	-14.7	724.1	0.023	0.000	20.0	15	1
10/26/19	6:30 p	-14.7	-14.7	-14.7	0.0	---	0.00	0.0	-14.7	724.2	0.023	0.000	20.0	15	1
10/26/19	6:31 p	-14.7	-14.7	-14.7	0.0	---	0.00	0.0	-14.7	724.2	0.023	0.000	20.0	15	1
10/26/19	6:32 p	-14.7	-14.7	-14.7	0.0	---	0.00	0.0	-14.7	724.2	0.023	0.000	20.0	15	1
10/26/19	6:33 p	-14.7	-14.7	-14.7	0.0	---	0.00	0.0	-14.7	724.1	0.023	0.000	20.0	15	1
10/26/19	6:34 p	-14.7	-14.7	-14.7	0.0	---	0.00	0.0	-14.7	724.2	0.023	0.000	20.0	15	1
10/26/19	6:35 p	-14.7	-14.7	-14.7	0.0	---	0.00	0.0	-14.7	724.2	0.023	0.000	20.0	15	1
10/26/19	6:36 p	-14.7	-14.7	-14.7	0.0	---	0.00	0.0	-14.7	724.2	0.023	0.000	20.0	15	1
10/26/19	6:37 p	-14.7	-14.7	-14.7	0.0	---	0.00	0.0	-14.7	724.1	0.023	0.000	20.0	15	1
10/26/19	6:38 p	-14.7	-14.7	-14.7	0.0	---	0.00	0.0	-14.7	724.2	0.023	0.000	20.0	15	1
10/26/19	6:39 p	-14.6	-14.6	-14.7	0.0	---	0.00	0.0	-14.6	724.2	0.023	0.000	20.0	15	1
10/26/19	6:40 p	-14.6	-14.6	-14.6	0.0	---	0.00	0.0	-14.6	724.2	0.023	0.000	20.0	15	1
10/26/19	6:41 p	-14.7	-14.6	-14.7	0.0	---	0.00	0.0	-14.7	724.0	0.023	0.000	20.0	15	1
10/26/19	6:42 p	-14.6	-14.6	-14.6	0.0	---	0.00	0.0	-14.6	724.1	0.023	0.000	20.1	15	1
10/26/19	6:43 p	-14.6	-14.6	-14.6	0.0	---	0.00	0.0	-14.6	724.2	0.023	0.000	20.1	15	1
10/26/19	6:44 p	-14.6	-14.6	-14.6	0.0	---	0.00	0.0	-14.6	724.1	0.023	0.000	20.1	15	1
10/26/19	6:45 p	-14.7	-14.6	-14.7	0.0	---	0.00	0.0	-14.7	724.2	0.023	0.000	20.1	15	1
10/26/19	6:46 p	-14.7	-14.7	-14.7	0.0	---	0.00	0.0	-14.7	724.2	0.023	0.000	20.0	16	1
10/26/19	6:47 p	-14.7	-14.7	-14.7	0.0	---	0.00	0.0	-14.7	724.1	0.023	0.000	20.0	16	1
10/26/19	6:48 p	-14.7	-14.7	-14.7	0.0	---	0.00	0.0	-14.7	724.1	0.023	0.000	20.0	16	1
10/26/19	6:49 p	-14.7	-14.7	-14.7	0.0	---	0.00	0.0	-14.7	724.1	0.023	0.000	20.0	16	1
10/26/19	6:50 p	-14.7	-14.6	-14.7	0.0	---	0.00	0.0	-14.7	724.1	0.023	0.000	19.9	16	1
10/26/19	6:51 p	-14.7	-14.6	-14.7	0.0	---	0.00	0.0	-14.7	724.1	0.023	0.000	19.9	15	1
10/26/19	6:52 p	-14.7	-14.6	-14.7	0.0	---	0.00	0.0	-14.7	724.1	0.023	0.000	19.9	15	1
10/26/19	6:53 p	-14.7	-14.6	-14.7	0.0	---	0.00	0.0	-14.7	724.1	0.023	0.000	19.9	15	1
10/26/19	6:54 p	-14.6	-14.6	-14.7	0.0	---	0.00	0.0	-14.6	724.1	0.023	0.000	19.9	14	1
10/26/19	6:55 p	-14.6	-14.6	-14.6	0.0	---	0.00	0.0	-14.6	724.1	0.023	0.000	19.9	15	1
10/26/19	6:56 p	-14.6	-14.6	-14.6	0.0	---	0.00	0.0	-14.6	724.1	0.023	0.000	19.9	15	1
10/26/19	6:57 p	-14.6	-14.6	-14.6	0.0	---	0.00	0.0	-14.6	724.1	0.023	0.000	19.9	14	1
10/26/19	6:58 p	-14.6	-14.6	-14.6	0.0	---	0.00	0.0	-14.6	724.1	0.023	0.000	19.9	15	1
10/26/19	6:59 p	-14.6	-14.6	-14.6	0.0	---	0.00	0.0	-14.6	724.1	0.023	0.000	19.9	15	1
10/26/19	7:00 p	-14.6	-14.6	-14.6	0.0	---	0.00	0.0	-14.6	724.1	0.023	0.000	19.9	15	1
10/26/19	7:01 p	-14.6	-14.5	-14.6	0.0	---	0.00	0.0	-14.6	724.1	0.023	0.000	19.9	16	1
10/26/19	7:02 p	-14.6	-14.6	-14.6	0.0	---	0.00	0.0	-14.6	724.1	0.023	0.000	19.9	16	1
10/26/19	7:03 p	-14.6	-14.6	-14.6	0.0	---	0.00	0.0	-14.6	724.1	0.023	0.000	19.9	15	1
10/26/19	7:04 p	-14.6	-14.6	-14.6	0.0	---	0.00	0.0	-14.6	724.2	0.023	0.000	19.9	16	1
10/26/19	7:05 p	-14.6	-14.6	-14.6	0.0	---	0.00	0.0	-14.6	724.2	0.023	0.000	19.9	16	1
10/26/19	7:06 p	-14.6	-14.6	-14.6	0.0	---	0.00	0.0	-14.6	724.1	0.023	0.000	19.9	16	1
10/26/19	7:07 p	-14.6	-14.6	-14.6	0.0	---	0.00	0.0	-14.6	724.2	0.023	0.000	19.9	15	1
10/26/19	7:08 p	-14.6	-14.6	-14.6	0.0	---	0.00	0.0	-14.6	724.1	0.023	0.000	19.9	16	1
10/26/19	7:09 p	-14.6	-14.6	-14.6	0.0	---	0.00	0.0	-14.6	724.2	0.023	0.000	19.9	16	1
10/26/19	7:10 p	-14.6	-14.6	-14.6	0.0	---	0.00	0.0	-14.6	724.1	0.023	0.000	19.9	16	1
10/26/19	7:11 p	-14.6	-14.6	-14.6	0.0	---	0.00	0.0	-14.6	724.1	0.023	0.000	19.9	15	1
10/26/19	7:12 p	-14.6	-14.6	-14.6	0.0	---	0.00	0.0	-14.6	724.1	0.023	0.000	19.9	16	1
10/26/19	7:13 p	-14.6	-14.6	-14.6	0.0	---	0.00	0.0	-14.6	724.1	0.023	0.000	19.9	16	1
10/26/19	7:14 p	-14.6	-14.6	-14.6	0.0	---	0.00	0.0	-14.6	724.1	0.023	0.000	19.9	16	1
10/26/19	7:15 p	-14.6	-14.5	-14.6	0.0	---	0.00	0.0	-14.6	724.1	0.023	0.000	19.9	15	1
10/26/19	7:16 p	-14.5	-14.5	-14.5	0.0	---	0.00	0.0	-14.5	724.1	0.023	0.000	19.9	16	1
10/26/19	7:17 p	-14.5	-14.5	-14.5	0.0	---	0.00	0.0	-14.5	724.1	0.023	0.000	19.9	15	1
10/26/19	7:18 p	-14.5	-14.5	-14.6	0.0	---	0.00	0.0	-14.5	724.1	0.023	0.000	19.9	15	1
10/26/19	7:19 p	-14.6	-14.6	-14.6	0.0	---	0.00	0.0	-14.6	724.0	0.023	0.000	19.9	16	1
10/26/19	7:20 p	-14.6	-14.5	-14.6	0.0	---	0.00	0.0	-14.6	724.1	0.023	0.000	19.9	15	1
10/26/19	7:21 p	-14.5	-14.5	-14.5	0.0	---	0.00	0.0	-14.5	724.1	0.023	0.000	19.9	16	1
10/26/19	7:22 p	-14.5	-14.5	-14.5	0.0	---	0.00	0.0	-14.5	724.1	0.023	0.000	19.9	15	1
10/26/19	7:23 p	-14.5	-14.4	-14.5	0.0	---	0.00	0.0	-14.5	724.1	0.023	0.000	19.9	15	1
10/26/19	7:24 p	-14.4	-14.4	-14.4	0.0	---	0.00	0.0	-14.4	724.1	0.023	0.000	19.8	16	1
10/26/19	7:25 p	-14.4	-14.4	-14.4	0.0	---	0.00	0.0	-14.4	724.2	0.023	0.000	19.8	15	1
10/26/19	7:26 p	-14.4	-14.4	-14.5	0.0	---	0.00	0.0	-14.4	724.1	0.023	0.000	19.8	15	1
10/26/19	7:27 p	-14.4	-14.4	-14.4	0.0	---	0.00	0.0	-14.4	724.2	0.023	0.000	19.8	15	1
10/26/19	7:28 p	-14.4	-14.4	-14.4	0.0	---	0.00	0.0	-14.4	724.2	0.023	0.000	19.8	16	1
10/26/19	7:29 p	-14.4	-14.4	-14.4	0.0	---	0.00	0.0	-14.4	724.1	0.023	0.000	19.8	16	1
10/26/19	7:30 p	-14.4	-14.4	-14.4	0.0	---	0.00	0.0	-14.4	724.2	0.023	0.000	19.8	17	1
10/26/19	7:31 p	-14.4	-14.4	-14.4	0.0	---	0.00	0.0	-14.4	724.2	0.023	0.000	19.8	16	1
10/26/19	7:32 p	-14.4	-14.4	-14.5	0.0	---	0.00	0.0	-14.4	724.1	0.023	0.000	19.8	16	1
10/26/19	7:33 p	-14.5	-14.5	-14.6	0.0	---	0.00	0.0	-14.5	724.1	0.023	0.000	19.8	16	1
10/26/19	7:34 p	-14.6	-14.6	-14.6	0.0	---	0.00	0.0	-14.6	724.2	0.023	0.000	19.8	16	1
10/26/19	7:35 p	-14.6	-14.5	-14.6	0.0	---	0.00	0.0	-14.6	724.1	0.023	0.000	19.8	16	1
10/26/19	7:36 p	-14.5	-14.5	-14.5	0.0	---	0.00	0.0	-14.5	724.1	0.023	0.000	19.8	16	1
10/26/19	7:37 p	-14.5	-14.5	-14.5	0.0	---	0.00	0.0	-14.5	724.2	0.023	0.000	19.8	17	1
10/26/19	7:38 p	-14.5	-14.4	-14.5	0.0	---	0.00	0.0	-14.5	724.1	0.023	0.000	19.8	16	1
10/26/19	7:39 p	-14.4	-14.4	-14.4	0.0	---	0.00	0.0	-14.4	724.2	0.023	0.000	19.8	17	1
10/26/19	7:40 p	-14.5	-14.4	-14.5	0.0	---	0.00	0.0	-14.5	724.2	0.023	0.000	19.8	16	1
10/26/19	7:41 p	-14.5	-14.5	-14.5	0.0	---	0.00	0.0	-14.5	724.1	0.023	0.000	19.8	15	1
10/26/19	7:42 p	-14.6	-14.6	-14.6	0.0	---	0.00	0.0	-14.6	724.1	0.023	0.000	19.8	15	1
10/26/19	7:43 p	-14.6	-14.5	-14.6	0.0	---	0.00	0.0	-14.6	724.2	0.023	0.000	19.9	15	1
10/26/19	7:44 p	-14.5	-14.5	-14.5	0.0	---	0.00	0.0	-14.5	724.2	0.023	0.000	19.9	15	1
10/26/19	7:45 p	-14.5	-14.5	-14.5	0.0	---	0.00	0.0	-14.5	724.2	0.023	0.000	19.9	15	1
10/26/19	7:46 p	-14.5	-14.5	-14.5	0.0	---	0.00	0.0	-14.5	724.2	0.023	0.000	19.9	15	1
10/26/19	7:47 p	-14.6	-14.6	-14.6	0.0	---	0.00	0.0	-14.6	724.2	0.023	0.000	19.9	15	1
10/26/19	7:48 p	-14.6	-14.6	-14.6	0.0	---	0.00	0.0	-14.6	724.3	0.023	0.000	19.9	15	1
10/26/19	7:49 p	-14.6	-14.6	-14.6	0.0	---	0.00	0.0	-14.6	724.2	0.023	0.000	19.9	15	1
10/26/19	7:50 p	-14.6	-14.6	-14.6	0.0	---	0.00	0.0	-14.6	724.2	0.023	0.000	19.9	15	1
10/26/19	7:51 p	-14.5	-14.5	-14.5	0.0	---	0.00	0.0	-14.5	724.2	0.023	0.000	19.9	15	1
10/26/19	7:52 p	-14.4	-14.4	-14.4	0.0	---	0.00	0.0	-14.4	724.2	0.023	0.000	19.9	16	1
10/26/19	7:53 p	-14.4	-14.4	-14.4	0.0	---	0.00	0.0	-14.4	724.3	0.023	0.000	19.9	15	1
10/26/19	7:54 p	-14.4	-14.4	-14.4	0.0	---	0.00	0.0	-14.4	724.3	0.023	0.000	19.9	15	1
10/26/19	7:55 p	-14.4	-14.4	-14.4	0.0	---	0.00	0.0	-14.4	724.2	0.023	0.000	19.8	15	1
10/26/19	7:56 p	-14.4	-14.4	-14.4	0.0	---	0.00	0.0	-14.4	724.2	0.023	0.000	19.8	15	1
10/26/19	7:57 p	-14.4	-14.4	-14.4	0.0	---	0.00	0.0	-14.4	724.2	0.023	0.000	19.8	15	1
10/26/19	7:58 p	-14.4	-14.4	-14.4	0.0	---	0.00	0.0	-14.4	724.3	0.023	0.000	19.8	15	1
10/26/19	7:59 p	-14.4	-14.4	-14.5	0.0	---	0.00	0.0	-14.4	724.3	0.023	0.000	19.8	15	1
10/26/19	8:00 p	-14.4	-14.4	-14.4	0.0	---	0.00	0.0	-14.4	724.2	0.023	0.000	19.8	15	1
10/26/19	8:01 p	-14.4	-14.4	-14.4	0.0	---	0.00	0.0	-14.4	724.2	0.023	0.000	19.8	15	1
10/26/19	8:02 p	-14.4	-14.4	-14.4	0.0	---	0.00	0.0	-14.4	724.3	0.023	0.000	19.8	15	1
10/26/19	8:03 p	-14.4	-14.4	-14.4	0.0	---	0.00	0.0	-14.4	724.3	0.023	0.000	19.8	15	1
10/26/19	8:04 p	-14.4	-14.4	-14.4	0.0	---	0.00	0.0	-14.4	724.3	0.023	0.000	19.8	15	1
10/26/19	8:05 p	-14.4	-14.4	-14.4	0.0	---	0.00	0.0	-14.4	724.3	0.023	0.000	19.8	15	1
10/26/19	8:06 p	-14.4	-14.4	-14.4	0.0	---	0.00	0.0	-14.4	724.3	0.023	0.000	19.8	15	1
10/26/19	8:07 p	-14.4	-14.4	-14.4	0.0	---	0.00	0.0	-14.4	724.3	0.023	0.000	19.8	15	1
10/26/19	8:08 p	-14.4	-14.4	-14.4	0.0	---	0.00	0.0	-14.4	724.3	0.023	0.000	19.8	15	1
10/26/19	8:09 p	-14.4	-14.4	-14.4	0.0	---	0.00	0.0	-14.4	724.3	0.023	0.000	19.8	15	1
10/26/19	8:10 p	-14.4	-14.4	-14.4	0.0	---	0.00	0.0	-14.4	724.4	0.023	0.000	19.8	15	1
10/26/19	8:11 p	-14.4	-14.4	-14.4	0.0	---	0.00	0.0	-14.4	724.3	0.023	0.000	19.8	15	1
10/26/19	8:12 p	-14.4	-14.4	-14.4	0.0	---	0.00	0.0	-14.4	724.3	0.023	0.000	19.8	15	1
10/26/19	8:13 p	-14.4	-14.4	-14.4	0.0	---	0.00	0.0	-14.4	724.3	0.023	0.000	19.8	15	1
10/26/19	8:14 p	-14.4	-14.4	-14.4	0.0	---	0.00	0.0	-14.4	724.3	0.023	0.000	19.8	15	1
10/26/19	8:15 p	-14.4	-14.4	-14.4	0.0	---	0.00	0.0	-14.4	724.3	0.023	0.000	19.8	15	1
10/26/19	8:16 p	-14.3	-14.3	-14.4	0.0	---	0.00	0.0	-14.3	724.3	0.023	0.000	19.8	15	1
10/26/19	8:17 p	-14.3	-14.3	-14.3	0.0	---	0.00	0.0	-14.3	724.3	0.023	0.000	19.8	15	1
10/26/19	8:18 p	-14.3	-14.3	-14.3	0.0	---	0.00	0.0	-14.3	724.2	0.023	0.000	19.8	15	1
10/26/19	8:19 p	-14.3	-14.3	-14.3	0.0	---	0.00	0.0	-14.3	724.2	0.023	0.000	19.8	15	1
10/26/19	8:20 p	-14.3	-14.3	-14.3	0.0	---	0.00	0.0	-14.3	724.3	0.023	0.000	19.8	15	1
10/26/19	8:21 p	-14.3	-14.3	-14.3	0.0	---	0.00	0.0	-14.3	724.3	0.023	0.000	19.8	15	1
10/26/19	8:22 p	-14.3	-14.3	-14.3	0.0	---	0.00	0.0	-14.3	724.3	0.023	0.000	19.8	16	1
10/26/19	8:23 p	-14.3	-14.3	-14.3	0.0	---	0.00	0.0	-14.3	724.3	0.023	0.000	19.8	15	1
10/26/19	8:24 p	-14.3	-14.3	-14.3	0.0	---	0.00	0.0	-14.3	724.2	0.023	0.000	19.8	16	1
10/26/19	8:25 p	-14.2	-14.2	-14.3	0.0	---	0.00	0.0	-14.2	724.3	0.023	0.000	19.8	15	1
10/26/19	8:26 p	-14.2	-14.2	-14.3	0.0	---	0.00	0.0	-14.2	724.3	0.023	0.000	19.8	16	1
10/26/19	8:27 p	-14.3	-14.3	-14.3	0.0	---	0.00	0.0	-14.3	724.2	0.023	0.000	19.8	15	1
10/26/19	8:28 p	-14.3	-14.2	-14.3	0.0	---	0.00	0.0	-14.3	724.3	0.023	0.000	19.8	15	1
10/26/19	8:29 p	-14.2	-14.2	-14.2	0.0	---	0.00	0.0	-14.2	724.3	0.023	0.000	19.8	15	1
10/26/19	8:30 p	-14.2	-14.2	-14.2	0.0	---	0.00	0.0	-14.2	724.2	0.023	0.000	19.8	15	1
10/26/19	8:31 p	-14.2	-14.2	-14.2	0.0	---	0.00	0.0	-14.2	724.2	0.023	0.000	19.7	15	1
10/26/19	8:32 p	-14.2	-14.2	-14.2	0.0	---	0.00	0.0	-14.2	724.2	0.023	0.000	19.7	15	1
10/26/19	8:33 p	-14.2	-14.2	-14.2	0.0	---	0.00	0.0	-14.2	724.2	0.023	0.000	19.7	16	1
10/26/19	8:34 p	-14.2	-14.2	-14.2	0.0	---	0.00	0.0	-14.2	724.2	0.023	0.000	19.7	16	1
10/26/19	8:35 p	-14.2	-14.2	-14.2	0.0	---	0.00	0.0	-14.2	724.2	0.023	0.000	19.7	15	1
10/26/19	8:36 p	-14.2	-14.2	-14.3	0.0	---	0.00	0.0	-14.2	724.2	0.023	0.000	19.7	16	1
10/26/19	8:37 p	-14.3	-14.3	-14.3	0.0	---	0.00	0.0	-14.3	724.2	0.023	0.000	19.7	16	1
10/26/19	8:38 p	-14.2	-14.2	-14.2	0.0	---	0.00	0.0	-14.2	724.2	0.023	0.000	19.7	16	1
10/26/19	8:39 p	-14.3	-14.2	-14.3	0.0	---	0.00	0.0	-14.3	724.2	0.023	0.000	19.7	16	1
10/26/19	8:40 p	-14.2	-14.2	-14.2	0.0	---	0.00	0.0	-14.2	724.2	0.023	0.000	19.7	15	1
10/26/19	8:41 p	-14.2	-14.2	-14.2	0.0	---	0.00	0.0	-14.2	724.2	0.023	0.000	19.8	16	1
10/26/19	8:42 p	-14.2	-14.2	-14.2	0.0	---	0.00	0.0	-14.2	724.2	0.023	0.000	19.8	16	1
10/26/19	8:43 p	-14.2	-14.2	-14.2	0.0	---	0.00	0.0	-14.2	724.3	0.023	0.000	19.8	16	1
10/26/19	8:44 p	-14.2	-14.2	-14.2	0.0	---	0.00	0.0	-14.2	724.2	0.023	0.000	19.8	16	1
10/26/19	8:45 p	-14.2	-14.2	-14.2	0.0	---	0.00	0.0	-14.2	724.2	0.023	0.000	19.8	16	1
10/26/19	8:46 p	-14.2	-14.2	-14.2	0.0	---	0.00	0.0	-14.2	724.2	0.023	0.000	19.8	16	1
10/26/19	8:47 p	-14.2	-14.2	-14.2	0.0	---	0.00	0.0	-14.2	724.2	0.023	0.000	19.8	16	1
10/26/19	8:48 p	-14.2	-14.2	-14.2	0.0	---	0.00	0.0	-14.2	724.3	0.023	0.000	19.8	15	1
10/26/19	8:49 p	-14.2	-14.2	-14.2	0.0	---	0.00	0.0	-14.2	724.3	0.023	0.000	19.8	15	1
10/26/19	8:50 p	-14.2	-14.2	-14.2	0.0	---	0.00	0.0	-14.2	724.3	0.023	0.000	19.8	16	1
10/26/19	8:51 p	-14.2	-14.2	-14.2	0.0	---	0.00	0.0	-14.2	724.2	0.023	0.000	19.8	16	1
10/26/19	8:52 p	-14.2	-14.2	-14.2	0.0	---	0.00	0.0	-14.2	724.3	0.023	0.000	19.8	16	1
10/26/19	8:53 p	-14.2	-14.2	-14.2	0.0	---	0.00	0.0	-14.2	724.3	0.023	0.000	19.8	16	1
10/26/19	8:54 p	-14.2	-14.1	-14.2	0.0	---	0.00	0.0	-14.2	724.3	0.023	0.000	19.8	15	1
10/26/19	8:55 p	-14.1	-14.1	-14.1	0.0	---	0.00	0.0	-14.1	724.3	0.023	0.000	19.8	16	1
10/26/19	8:56 p	-14.1	-14.1	-14.1	0.0	---	0.00	0.0	-14.1	724.3	0.023	0.000	19.8	16	1
10/26/19	8:57 p	-14.1	-14.1	-14.1	0.0	---	0.00	0.0	-14.1	724.3	0.022	0.000	19.8	16	1
10/26/19	8:58 p	-14.1	-14.1	-14.1	0.0	---	0.00	0.0	-14.1	724.3	0.022	0.000	19.8	16	1
10/26/19	8:59 p	-14.1	-14.1	-14.1	0.0	---	0.00	0.0	-14.1	724.3	0.022	0.000	19.8	15	1
10/26/19	9:00 p	-14.1	-14.1	-14.1	0.0	---	0.00	0.0	-14.1	724.2	0.022	0.000	19.8	15	1
10/26/19	9:01 p	-14.1	-14.1	-14.1	0.0	---	0.00	0.0	-14.1	724.3	0.022	0.000	19.8	16	1
10/26/19	9:02 p	-14.1	-14.1	-14.1	0.0	---	0.00	0.0	-14.1	724.3	0.022	0.000	19.7	16	1
10/26/19	9:03 p	-14.1	-14.1	-14.1	0.0	---	0.00	0.0	-14.1	724.3	0.022	0.000	19.7	16	1
10/26/19	9:04 p	-14.1	-14.1	-14.1	0.0	---	0.00	0.0	-14.1	724.4	0.022	0.000	19.7	16	1
10/26/19	9:05 p	-14.0	-14.0	-14.1	0.0	---	0.00	0.0	-14.0	724.3	0.022	0.000	19.7	16	1
10/26/19	9:06 p	-14.0	-14.0	-14.0	0.0	---	0.00	0.0	-14.0	724.4	0.022	0.000	19.7	16	1
10/26/19	9:07 p	-14.0	-14.0	-14.0	0.0	---	0.00	0.0	-14.0	724.3	0.022	0.000	19.7	16	1
10/26/19	9:08 p	-14.0	-14.0	-14.0	0.0	---	0.00	0.0	-14.0	724.4	0.022	0.000	19.7	16	1
10/26/19	9:09 p	-14.0	-14.0	-14.1	0.0	---	0.00	0.0	-14.0	724.3	0.022	0.000	19.7	16	1
10/26/19	9:10 p	-14.0	-14.0	-14.1	0.0	---	0.00	0.0	-14.0	724.3	0.022	0.000	19.7	16	1
10/26/19	9:11 p	-14.0	-14.0	-14.0	0.0	---	0.00	0.0	-14.0	724.4	0.022	0.000	19.7	16	1
10/26/19	9:12 p	-14.0	-13.9	-14.0	0.0	---	0.00	0.0	-14.0	724.4	0.022	0.000	19.7	16	1
10/26/19	9:13 p	-13.9	-13.9	-14.0	0.0	---	0.00	0.0	-13.9	724.3	0.022	0.000	19.7	16	1
10/26/19	9:14 p	-14.0	-13.9	-14.0	0.0	---	0.00	0.0	-14.0	724.3	0.022	0.000	19.8	16	1
10/26/19	9:15 p	-13.9	-13.9	-13.9	0.0	---	0.00	0.0	-13.9	724.3	0.022	0.000	19.8	16	1
10/26/19	9:16 p	-13.9	-13.9	-13.9	0.0	---	0.00	0.0	-13.9	724.4	0.022	0.000	19.8	16	1
10/26/19	9:17 p	-13.9	-13.9	-13.9	0.0	---	0.00	0.0	-13.9	724.3	0.022	0.000	19.8	16	1
10/26/19	9:18 p	-13.9	-13.9	-13.9	0.0	---	0.00	0.0	-13.9	724.4	0.022	0.000	19.8	15	1
10/26/19	9:19 p	-13.9	-13.9	-13.9	0.0	---	0.00	0.0	-13.9	724.4	0.022	0.000	19.8	15	1
10/26/19	9:20 p	-13.9	-13.9	-13.9	0.0	---	0.00	0.0	-13.9	724.4	0.022	0.000	19.8	15	1
10/26/19	9:21 p	-13.9	-13.8	-13.9	0.0	---	0.00	0.0	-13.9	724.4	0.022	0.000	19.8	15	1
10/26/19	9:22 p	-13.8	-13.8	-13.9	0.0	---	0.00	0.0	-13.8	724.4	0.022	0.000	19.8	16	1
10/26/19	9:23 p	-13.8	-13.8	-13.8	0.0	---	0.00	0.0	-13.8	724.4	0.022	0.000	19.8	16	1
10/26/19	9:24 p	-13.8	-13.8	-13.8	0.0	---	0.00	0.0	-13.8	724.4	0.022	0.000	19.8	16	1
10/26/19	9:25 p	-13.8	-13.8	-13.8	0.0	---	0.00	0.0	-13.8	724.4	0.022	0.000	19.8	15	1
10/26/19	9:26 p	-13.8	-13.8	-13.8	0.0	---	0.00	0.0	-13.8	724.3	0.022	0.000	19.8	16	1
10/26/19	9:27 p	-13.8	-13.8	-13.8	0.0	---	0.00	0.0	-13.8	724.4	0.022	0.000	19.8	16	1
10/26/19	9:28 p	-13.8	-13.8	-13.8	0.0	---	0.00	0.0	-13.8	724.4	0.022	0.000	19.8	16	1
10/26/19	9:29 p	-13.7	-13.7	-13.8	0.0	---	0.00	0.0	-13.7	724.4	0.022	0.000	19.8	16	1
10/26/19	9:30 p	-13.8	-13.7	-13.8	0.0	---	0.00	0.0	-13.8	724.4	0.022	0.000	19.8	16	1
10/26/19	9:31 p	-13.8	-13.7	-13.8	0.0	---	0.00	0.0	-13.8	724.4	0.022	0.000	19.8	16	1
10/26/19	9:32 p	-13.7	-13.7	-13.7	0.0	---	0.00	0.0	-13.7	724.4	0.022	0.000	19.8	16	1
10/26/19	9:33 p	-13.7	-13.7	-13.7	0.0	---	0.00	0.0	-13.7	724.4	0.022	0.000	19.7	16	1
10/26/19	9:34 p	-13.7	-13.7	-13.7	0.0	---	0.00	0.0	-13.7	724.5	0.022	0.000	19.7	16	1
10/26/19	9:35 p	-13.7	-13.7	-13.7	0.0	---	0.00	0.0	-13.7	724.4	0.022	0.000	19.8	15	1
10/26/19	9:36 p	-13.7	-13.7	-13.7	0.0	---	0.00	0.0	-13.7	724.4	0.022	0.000	19.8	15	1
10/26/19	9:37 p	-13.6	-13.6	-13.6	0.0	---	0.00	0.0	-13.6	724.4	0.022	0.000	19.8	15	1
10/26/19	9:38 p	-13.6	-13.6	-13.6	0.0	---	0.00	0.0	-13.6	724.4	0.022	0.000	19.8	16	1
10/26/19	9:39 p	-13.6	-13.6	-13.6	0.0	---	0.00	0.0	-13.6	724.4	0.022	0.000	19.8	16	1
10/26/19	9:40 p	-13.6	-13.6	-13.6	0.0	---	0.00	0.0	-13.6	724.4	0.022	0.000	19.8	15	1
10/26/19	9:41 p	-13.6	-13.6	-13.6	0.0	---	0.00	0.0	-13.6	724.4	0.022	0.000	19.8	15	1
10/26/19	9:42 p	-13.6	-13.6	-13.6	0.0	---	0.00	0.0	-13.6	724.4	0.022	0.000	19.8	15	1
10/26/19	9:43 p	-13.6	-13.6	-13.6	0.0	---	0.00	0.0	-13.6	724.5	0.022	0.000	19.8	15	1
10/26/19	9:44 p	-13.6	-13.6	-13.6	0.0	---	0.00	0.0	-13.6	724.5	0.022	0.000	19.8	15	1
10/26/19	9:45 p	-13.5	-13.5	-13.5	0.0	---	0.00	0.0	-13.5	724.4	0.022	0.000	19.8	15	1
10/26/19	9:46 p	-13.5	-13.5	-13.5	0.0	---	0.00	0.0	-13.5	724.4	0.022	0.000	19.8	15	1
10/26/19	9:47 p	-13.5	-13.5	-13.5	0.0	---	0.00	0.0	-13.5	724.5	0.022	0.000	19.8	15	1
10/26/19	9:48 p	-13.5	-13.5	-13.5	0.0	---	0.00	0.0	-13.5	724.4	0.022	0.000	19.8	15	1
10/26/19	9:49 p	-13.5	-13.5	-13.5	0.0	---	0.00	0.0	-13.5	724.5	0.022	0.000	19.8	15	1
10/26/19	9:50 p	-13.5	-13.5	-13.5	0.0	---	0.00	0.0	-13.5	724.5	0.022	0.000	19.8	15	1
10/26/19	9:51 p	-13.5	-13.5	-13.5	0.0	---	0.00	0.0	-13.5	724.4	0.022	0.000	19.8	15	1
10/26/19	9:52 p	-13.5	-13.5	-13.5	0.0	---	0.00	0.0	-13.5	724.4	0.022	0.000	19.8	15	1
10/26/19	9:53 p	-13.4	-13.4	-13.5	0.0	---	0.00	0.0	-13.4	724.4	0.022	0.000	19.9	15	1
10/26/19	9:54 p	-13.5	-13.4	-13.5	0.0	---	0.00	0.0	-13.5	724.4	0.022	0.000	19.8	15	1
10/26/19	9:55 p	-13.5	-13.5	-13.6	0.0	---	0.00	0.0	-13.5	724.4	0.022	0.000	19.8	15	1
10/26/19	9:56 p	-13.6	-13.6	-13.6	0.0	---	0.00	0.0	-13.6	724.4	0.022	0.000	19.8	15	1
10/26/19	9:57 p	-13.6	-13.6	-13.6	0.0	---	0.00	0.0	-13.6	724.4	0.022	0.000	19.8	15	1
10/26/19	9:58 p	-13.6	-13.6	-13.6	0.0	---	0.00	0.0	-13.6	724.4	0.022	0.000	19.8	15	1
10/26/19	9:59 p	-13.6	-13.6	-13.6	0.0	---	0.00	0.0	-13.6	724.4	0.022	0.000	19.8	15	1
10/26/19	10:00 p	-13.6	-13.6	-13.6	0.0	---	0.00	0.0	-13.6	724.5	0.022	0.000	19.8	15	1
10/26/19	10:01 p	-13.6	-13.6	-13.6	0.0	---	0.00	0.0	-13.6	724.5	0.022	0.000	19.8	15	1
10/26/19	10:02 p	-13.6	-13.6	-13.6	0.0	---	0.00	0.0	-13.6	724.4	0.022	0.000	19.8	16	1
10/26/19	10:03 p	-13.6	-13.6	-13.6	0.0	---	0.00	0.0	-13.6	724.4	0.022	0.000	19.7	16	1
10/26/19	10:04 p	-13.6	-13.5	-13.6	0.0	---	0.00	0.0	-13.6	724.4	0.022	0.000	19.8	16	1
10/26/19	10:05 p	-13.5	-13.5	-13.5	0.0	---	0.00	0.0	-13.5	724.4	0.022	0.000	19.8	16	1
10/26/19	10:06 p	-13.6	-13.5	-13.6	0.0	---	0.00	0.0	-13.6	724.5	0.022	0.000	19.8	16	1
10/26/19	10:07 p	-13.6	-13.6	-13.6	0.0	---	0.00	0.0	-13.6	724.5	0.022	0.000	19.8	16	1
10/26/19	10:08 p	-13.6	-13.6	-13.6	0.0	---	0.00	0.0	-13.6	724.4	0.022	0.000	19.8	16	1
10/26/19	10:09 p	-13.6	-13.6	-13.6	0.0	---	0.00	0.0	-13.6	724.4	0.022	0.000	19.8	16	1
10/26/19	10:10 p	-13.5	-13.5	-13.6	0.0	---	0.00	0.0	-13.5	724.4	0.022	0.000	19.8	16	1
10/26/19	10:11 p	-13.5	-13.5	-13.5	0.0	---	0.00	0.0	-13.5	724.5	0.022	0.000	19.8	16	1
10/26/19	10:12 p	-13.6	-13.6	-13.6	0.0	---	0.00	0.0	-13.6	724.4	0.022	0.000	19.8	16	1
10/26/19	10:13 p	-13.5	-13.5	-13.6	0.0	---	0.00	0.0	-13.5	724.4	0.022	0.000	19.8	16	1
10/26/19	10:14 p	-13.4	-13.4	-13.5	0.0	---	0.00	0.0	-13.4	724.4	0.022	0.000	19.8	16	1
10/26/19	10:15 p	-13.4	-13.4	-13.4	0.0	---	0.00	0.0	-13.4	724.4	0.022	0.000	19.8	15	1
10/26/19	10:16 p	-13.4	-13.4	-13.4	0.0	---	0.00	0.0	-13.4	724.4	0.022	0.000	19.8	17	1
10/26/19	10:17 p	-13.4	-13.3	-13.4	0.0	---	0.00	0.0	-13.4	724.4	0.022	0.000	19.8	16	1
10/26/19	10:18 p	-13.3	-13.3	-13.4	0.0	---	0.00	0.0	-13.3	724.3	0.022	0.000	19.8	16	1
10/26/19	10:19 p	-13.4	-13.4	-13.4	0.0	---	0.00	0.0	-13.4	724.4	0.022	0.000	19.8	16	1
10/26/19	10:20 p	-13.4	-13.4	-13.4	0.0	---	0.00	0.0	-13.4	724.4	0.022	0.000	19.8	16	1
10/26/19	10:21 p	-13.4	-13.4	-13.4	0.0	---	0.00	0.0	-13.4	724.5	0.022	0.000	19.9	16	1
10/26/19	10:22 p	-13.4	-13.3	-13.4	0.0	---	0.00	0.0	-13.4	724.4	0.022	0.000	19.9	16	1
10/26/19	10:23 p	-13.3	-13.3	-13.3	0.0	---	0.00	0.0	-13.3	724.5	0.022	0.000	19.9	15	1
10/26/19	10:24 p	-13.3	-13.3	-13.3	0.0	---	0.00	0.0	-13.3	724.4	0.022	0.000	19.9	15	1
10/26/19	10:25 p	-13.3	-13.3	-13.4	0.0	---	0.00	0.0	-13.3	724.4	0.022	0.000	19.9	16	1
10/26/19	10:26 p	-13.3	-13.2	-13.3	0.0	---	0.00	0.0	-13.3	724.4	0.022	0.000	19.9	15	1
10/26/19	10:27 p	-13.2	-13.2	-13.2	0.0	---	0.00	0.0	-13.2	724.4	0.022	0.000	19.9	15	1
10/26/19	10:28 p	-13.1	-12.9	-13.2	0.0	---	0.00	0.0	-13.1	724.5	0.022	0.000	19.9	16	1
10/26/19	10:29 p	-12.9	-12.8	-12.9	0.0	---	0.00	0.0	-12.9	724.4	0.022	0.000	19.8	16	1
10/26/19	10:30 p	-12.8	-12.7	-12.8	0.0	---	0.00	0.0	-12.8	724.5	0.022	0.000	19.8	16	1
10/26/19	10:31 p	-12.7	-12.7	-12.7	0.0	---	0.00	0.0	-12.7	724.5	0.022	0.000	19.8	16	1
10/26/19	10:32 p	-12.7	-12.7	-12.7	0.0	---	0.00	0.0	-12.7	724.4	0.022	0.000	19.8	16	1
10/26/19	10:33 p	-12.7	-12.6	-12.7	0.0	---	0.00	0.0	-12.7	724.4	0.022	0.000	19.8	17	1
10/26/19	10:34 p	-12.7	-12.6	-12.7	0.0	---	0.00	0.0	-12.7	724.4	0.022	0.000	19.8	17	1
10/26/19	10:35 p	-12.7	-12.7	-12.7	0.0	---	0.00	0.0	-12.7	724.4	0.022	0.000	19.8	17	1
10/26/19	10:36 p	-12.7	-12.7	-12.7	0.0	---	0.00	0.0	-12.7	724.5	0.022	0.000	19.8	17	1
10/26/19	10:37 p	-12.7	-12.7	-12.7	0.0	---	0.00	0.0	-12.7	724.5	0.022	0.000	19.9	17	1
10/26/19	10:38 p	-12.7	-12.6	-12.7	0.0	---	0.00	0.0	-12.7	724.4	0.022	0.000	19.9	17	1
10/26/19	10:39 p	-12.6	-12.6	-12.7	0.0	---	0.00	0.0	-12.6	724.5	0.021	0.000	19.9	16	1
10/26/19	10:40 p	-12.6	-12.5	-12.6	0.0	---	0.00	0.0	-12.6	724.4	0.021	0.000	19.9	16	1
10/26/19	10:41 p	-12.4	-12.4	-12.5	0.0	---	0.00	0.0	-12.4	724.4	0.021	0.000	19.9	16	1
10/26/19	10:42 p	-12.5	-12.4	-12.6	0.0	---	0.00	0.0	-12.5	724.5	0.021	0.000	19.9	16	1
10/26/19	10:43 p	-12.4	-12.4	-12.4	0.0	---	0.00	0.0	-12.4	724.4	0.021	0.000	19.9	16	1
10/26/19	10:44 p	-12.3	-12.2	-12.4	0.0	---	0.00	0.0	-12.3	724.5	0.021	0.000	19.9	16	1
10/26/19	10:45 p	-12.2	-12.2	-12.3	0.0	---	0.00	0.0	-12.2	724.4	0.021	0.000	19.9	16	1
10/26/19	10:46 p	-12.3	-12.3	-12.3	0.0	---	0.00	0.0	-12.3	724.5	0.021	0.000	19.9	16	1
10/26/19	10:47 p	-12.3	-12.2	-12.3	0.0	---	0.00	0.0	-12.3	724.5	0.021	0.000	19.9	16	1
10/26/19	10:48 p	-12.1	-11.9	-12.2	0.0	---	0.00	0.0	-12.1	724.4	0.021	0.000	20.0	16	1
10/26/19	10:49 p	-11.8	-11.6	-11.9	0.0	---	0.00	0.0	-11.8	724.4	0.021	0.000	20.0	16	1
10/26/19	10:50 p	-11.4	-11.3	-11.6	0.0	---	0.00	0.0	-11.4	724.4	0.021	0.000	20.0	16	1
10/26/19	10:51 p	-11.2	-11.1	-11.3	0.0	---	0.00	0.0	-11.2	724.5	0.020	0.000	20.0	16	1
10/26/19	10:52 p	-10.9	-10.7	-11.1	0.0	---	0.00	0.0	-10.9	724.4	0.020	0.000	20.1	16	1
10/26/19	10:53 p	-10.6	-10.5	-10.7	0.0	---	0.00	0.0	-10.6	724.4	0.020	0.000	20.1	16	1
10/26/19	10:54 p	-10.3	-10.2	-10.5	0.0	---	0.00	0.0	-10.3	724.4	0.020	0.000	20.1	16	1
10/26/19	10:55 p	-10.1	-10.0	-10.2	0.0	---	0.00	0.0	-10.1	724.5	0.020	0.000	20.1	16	1
10/26/19	10:56 p	-9.9	-9.8	-10.0	0.0	---	0.00	0.0	-9.9	724.4	0.020	0.000	20.1	16	1
10/26/19	10:57 p	-9.7	-9.6	-9.8	0.0	---	0.00	0.0	-9.7	724.4	0.019	0.000	20.1	16	1
10/26/19	10:58 p	-9.6	-9.4	-9.6	0.0	---	0.00	0.0	-9.6	724.4	0.019	0.000	20.0	16	1
10/26/19	10:59 p	-9.3	-9.3	-9.4	0.0	---	0.00	0.0	-9.3	724.4	0.019	0.000	20.0	16	1
10/26/19	11:00 p	-9.2	-9.2	-9.3	0.0	---	0.00	0.0	-9.2	724.4	0.019	0.000	20.0	16	1
10/26/19	11:01 p	-9.2	-9.2	-9.2	0.0	---	0.00	0.0	-9.2	724.4	0.019	0.000	19.9	16	1
10/26/19	11:02 p	-9.3	-9.2	-9.4	0.0	---	0.00	0.0	-9.3	724.4	0.019	0.000	19.9	16	1
10/26/19	11:03 p	-9.4	-9.4	-9.5	0.0	---	0.00	0.0	-9.4	724.4	0.019	0.000	19.9	16	1
10/26/19	11:04 p	-9.7	-9.5	-9.9	0.0	---	0.00	0.0	-9.7	724.5	0.019	0.000	20.0	16	1
10/26/19	11:05 p	-10.0	-9.9	-10.1	0.0	---	0.00	0.0	-10.0	724.4	0.020	0.000	20.0	16	1
10/26/19	11:06 p	-10.2	-10.1	-10.3	0.0	---	0.00	0.0	-10.2	724.4	0.020	0.000	20.1	16	1
10/26/19	11:07 p	-10.4	-10.3	-10.5	0.0	---	0.00	0.0	-10.4	724.4	0.020	0.000	20.1	16	1
10/26/19	11:08 p	-10.6	-10.5	-10.7	0.0	---	0.00	0.0	-10.6	724.4	0.020	0.000	20.1	16	1
10/26/19	11:09 p	-10.8	-10.8	-10.9	0.0	---	0.00	0.0	-10.8	724.5	0.020	0.000	20.1	16	1
10/26/19	11:10 p	-11.1	-11.0	-11.1	0.0	---	0.00	0.0	-11.1	724.4	0.020	0.000	20.1	16	1
10/26/19	11:11 p	-11.2	-11.2	-11.3	0.0	---	0.00	0.0	-11.2	724.5	0.021	0.000	20.1	16	1
10/26/19	11:12 p	-11.5	-11.4	-11.6	0.0	---	0.00	0.0	-11.5	724.5	0.021	0.000	20.1	16	1
10/26/19	11:13 p	-11.7	-11.7	-11.7	0.0	---	0.00	0.0	-11.7	724.4	0.021	0.000	20.1	16	1
10/26/19	11:14 p	-11.8	-11.8	-11.9	0.0	---	0.00	0.0	-11.8	724.3	0.021	0.000	20.1	16	1
10/26/19	11:15 p	-12.2	-12.1	-12.3	0.0	---	0.00	0.0	-12.2	724.4	0.021	0.000	20.1	16	1
10/26/19	11:16 p	-12.3	-12.3	-12.3	0.0	---	0.00	0.0	-12.3	724.4	0.021	0.000	20.1	16	1
10/26/19	11:17 p	-12.3	-12.3	-12.3	0.0	---	0.00	0.0	-12.3	724.4	0.021	0.000	20.1	16	1
10/26/19	11:18 p	-12.3	-12.3	-12.3	0.0	---	0.00	0.0	-12.3	724.3	0.021	0.000	20.2	16	1
10/26/19	11:19 p	-12.4	-12.4	-12.5	0.0	---	0.00	0.0	-12.4	724.4	0.021	0.000	20.2	16	1
10/26/19	11:20 p	-12.5	-12.5	-12.6	0.0	---	0.00	0.0	-12.5	724.4	0.021	0.000	20.2	16	1
10/26/19	11:21 p	-12.5	-12.5	-12.6	0.0	---	0.00	0.0	-12.5	724.4	0.021	0.000	20.2	16	1
10/26/19	11:22 p	-12.5	-12.5	-12.5	0.0	---	0.00	0.0	-12.5	724.4	0.021	0.000	20.2	16	1
10/26/19	11:23 p	-12.4	-12.4	-12.5	0.0	---	0.00	0.0	-12.4	724.4	0.021	0.000	20.2	16	1
10/26/19	11:24 p	-12.4	-12.4	-12.4	0.0	---	0.00	0.0	-12.4	724.4	0.021	0.000	20.2	16	1
10/26/19	11:25 p	-12.3	-12.3	-12.4	0.0	---	0.00	0.0	-12.3	724.4	0.021	0.000	20.2	16	1
10/26/19	11:26 p	-12.3	-12.3	-12.3	0.0	---	0.00	0.0	-12.3	724.4	0.021	0.000	20.2	16	1
10/26/19	11:27 p	-12.3	-12.3	-12.3	0.0	---	0.00	0.0	-12.3	724.3	0.021	0.000	20.2	16	1
10/26/19	11:28 p	-12.3	-12.3	-12.3	0.0	---	0.00	0.0	-12.3	724.4	0.021	0.000	20.2	16	1
10/26/19	11:29 p	-12.2	-12.2	-12.2	0.0	---	0.00	0.0	-12.2	724.3	0.021	0.000	20.2	16	1
10/26/19	11:30 p	-12.2	-12.2	-12.2	0.0	---	0.00	0.0	-12.2	724.3	0.021	0.000	20.2	16	1
10/26/19	11:31 p	-12.2	-12.1	-12.2	0.0	---	0.00	0.0	-12.2	724.4	0.021	0.000	20.2	16	1
10/26/19	11:32 p	-12.1	-12.1	-12.2	0.0	---	0.00	0.0	-12.1	724.3	0.021	0.000	20.2	16	1
10/26/19	11:33 p	-12.1	-12.1	-12.2	0.0	---	0.00	0.0	-12.1	724.3	0.021	0.000	20.2	16	1
10/26/19	11:34 p	-12.0	-12.0	-12.1	0.0	---	0.00	0.0	-12.0	724.4	0.021	0.000	20.2	16	1
10/26/19	11:35 p	-12.0	-12.0	-12.0	0.0	---	0.00	0.0	-12.0	724.3	0.021	0.000	20.1	16	1
10/26/19	11:36 p	-12.0	-11.9	-12.0	0.0	---	0.00	0.0	-12.0	724.4	0.021	0.000	20.1	16	1
10/26/19	11:37 p	-11.9	-11.9	-11.9	0.0	---	0.00	0.0	-11.9	724.3	0.021	0.000	20.1	16	1
10/26/19	11:38 p	-11.9	-11.8	-11.9	0.0	---	0.00	0.0	-11.9	724.3	0.021	0.000	20.2	16	1
10/26/19	11:39 p	-11.8	-11.8	-11.8	0.0	---	0.00	0.0	-11.8	724.3	0.021	0.000	20.2	16	1
10/26/19	11:40 p	-11.8	-11.7	-11.8	0.0	---	0.00	0.0	-11.8	724.3	0.021	0.000	20.2	16	1
10/26/19	11:41 p	-11.7	-11.7	-11.7	0.0	---	0.00	0.0	-11.7	724.3	0.021	0.000	20.2	16	1
10/26/19	11:42 p	-11.7	-11.7	-11.7	0.0	---	0.00	0.0	-11.7	724.3	0.021	0.000	20.2	16	1
10/26/19	11:43 p	-11.7	-11.7	-11.7	0.0	---	0.00	0.0	-11.7	724.3	0.021	0.000	20.2	16	1
10/26/19	11:44 p	-11.7	-11.7	-11.7	0.0	---	0.00	0.0	-11.7	724.3	0.021	0.000	20.2	16	1
10/26/19	11:45 p	-11.6	-11.6	-11.7	0.0	---	0.00	0.0	-11.6	724.3	0.021	0.000	20.2	16	1
10/26/19	11:46 p	-11.6	-11.5	-11.6	0.0	---	0.00	0.0	-11.6	724.3	0.021	0.000	20.2	16	1
10/26/19	11:47 p	-11.5	-11.5	-11.6	0.0	---	0.00	0.0	-11.5	724.3	0.021	0.000	20.3	16	1
10/26/19	11:48 p	-11.5	-11.4	-11.6	0.0	---	0.00	0.0	-11.5	724.3	0.021	0.000	20.3	16	1
10/26/19	11:49 p	-11.4	-11.4	-11.5	0.0	---	0.00	0.0	-11.4	724.3	0.021	0.000	20.3	16	1
10/26/19	11:50 p	-11.4	-11.4	-11.5	0.0	---	0.00	0.0	-11.4	724.3	0.021	0.000	20.3	16	1
10/26/19	11:51 p	-11.4	-11.4	-11.4	0.0	---	0.00	0.0	-11.4	724.2	0.021	0.000	20.3	16	1
10/26/19	11:52 p	-11.4	-11.4	-11.5	0.0	---	0.00	0.0	-11.4	724.3	0.021	0.000	20.3	16	1
10/26/19	11:53 p	-11.5	-11.5	-11.6	0.0	---	0.00	0.0	-11.5	724.4	0.021	0.000	20.3	16	1
10/26/19	11:54 p	-11.6	-11.5	-11.6	0.0	---	0.00	0.0	-11.6	724.3	0.021	0.000	20.3	16	1
10/26/19	11:55 p	-11.5	-11.5	-11.5	0.0	---	0.00	0.0	-11.5	724.3	0.021	0.000	20.3	16	1
10/26/19	11:56 p	-11.5	-11.4	-11.5	0.0	---	0.00	0.0	-11.5	724.2	0.021	0.000	20.3	16	1
10/26/19	11:57 p	-11.4	-11.4	-11.4	0.0	---	0.00	0.0	-11.4	724.3	0.021	0.000	20.4	16	1
10/26/19	11:58 p	-11.4	-11.4	-11.4	0.0	---	0.00	0.0	-11.4	724.2	0.021	0.000	20.3	16	1
10/26/19	11:59 p	-11.4	-11.3	-11.4	0.0	---	0.00	0.0	-11.4	724.2	0.021	0.000	20.3	16	1
10/27/19	12:00 a	-11.3	-11.3	-11.3	0.0	---	0.00	0.0	-11.3	724.2	0.021	0.000	20.3	16	1
10/27/19	12:01 a	-11.2	-11.2	-11.3	0.0	---	0.00	0.0	-11.2	724.2	0.021	0.000	20.3	16	1
10/27/19	12:02 a	-11.2	-11.1	-11.2	0.0	---	0.00	0.0	-11.2	724.2	0.020	0.000	20.3	16	1
10/27/19	12:03 a	-11.1	-11.0	-11.1	0.0	---	0.00	0.0	-11.1	724.3	0.020	0.000	20.3	16	1
10/27/19	12:04 a	-10.9	-10.9	-11.0	0.0	---	0.00	0.0	-10.9	724.2	0.020	0.000	20.3	16	1
10/27/19	12:05 a	-10.9	-10.9	-10.9	0.0	---	0.00	0.0	-10.9	724.2	0.020	0.000	20.3	16	1
10/27/19	12:06 a	-10.9	-10.8	-10.9	0.0	---	0.00	0.0	-10.9	724.2	0.020	0.000	20.3	16	1
10/27/19	12:07 a	-10.8	-10.8	-10.8	0.0	---	0.00	0.0	-10.8	724.2	0.020	0.000	20.3	16	1
10/27/19	12:08 a	-10.7	-10.7	-10.7	0.0	---	0.00	0.0	-10.7	724.3	0.020	0.000	20.2	16	1
10/27/19	12:09 a	-10.6	-10.6	-10.6	0.0	---	0.00	0.0	-10.6	724.3	0.020	0.000	20.2	16	1
10/27/19	12:10 a	-10.5	-10.4	-10.5	0.0	---	0.00	0.0	-10.5	724.2	0.020	0.000	20.3	16	1
10/27/19	12:11 a	-10.4	-10.4	-10.4	0.0	---	0.00	0.0	-10.4	724.3	0.020	0.000	20.3	16	1
10/27/19	12:12 a	-10.6	-10.6	-10.7	0.0	---	0.00	0.0	-10.6	724.2	0.020	0.000	20.3	16	1
10/27/19	12:13 a	-11.0	-10.9	-11.2	0.0	---	0.00	0.0	-11.0	724.2	0.020	0.000	20.3	16	1
10/27/19	12:14 a	-11.2	-11.2	-11.3	0.0	---	0.00	0.0	-11.2	724.3	0.021	0.000	20.3	16	1
10/27/19	12:15 a	-11.4	-11.3	-11.4	0.0	---	0.00	0.0	-11.4	724.2	0.021	0.000	20.3	16	1
10/27/19	12:16 a	-11.4	-11.4	-11.4	0.0	---	0.00	0.0	-11.4	724.3	0.021	0.000	20.3	16	1
10/27/19	12:17 a	-11.4	-11.4	-11.5	0.0	---	0.00	0.0	-11.4	724.2	0.021	0.000	20.3	16	1
10/27/19	12:18 a	-11.4	-11.4	-11.4	0.0	---	0.00	0.0	-11.4	724.3	0.021	0.000	20.3	16	1
10/27/19	12:19 a	-11.3	-11.3	-11.4	0.0	---	0.00	0.0	-11.3	724.2	0.021	0.000	20.3	16	1
10/27/19	12:20 a	-11.4	-11.4	-11.6	0.0	---	0.00	0.0	-11.4	724.2	0.021	0.000	20.3	16	1
10/27/19	12:21 a	-11.6	-11.6	-11.7	0.0	---	0.00	0.0	-11.6	724.3	0.021	0.000	20.3	16	1
10/27/19	12:22 a	-11.8	-11.7	-11.8	0.0	---	0.00	0.0	-11.8	724.2	0.021	0.000	20.4	16	1
10/27/19	12:23 a	-11.8	-11.7	-11.8	0.0	---	0.00	0.0	-11.8	724.2	0.021	0.000	20.3	16	1
10/27/19	12:24 a	-11.7	-11.7	-11.8	0.0	---	0.00	0.0	-11.7	724.2	0.021	0.000	20.3	16	1
10/27/19	12:25 a	-11.5	-11.4	-11.6	0.0	---	0.00	0.0	-11.5	724.2	0.021	0.000	20.3	16	1
10/27/19	12:26 a	-11.3	-11.3	-11.3	0.0	---	0.00	0.0	-11.3	724.3	0.021	0.000	20.3	16	1
10/27/19	12:27 a	-11.1	-11.1	-11.2	0.0	---	0.00	0.0	-11.1	724.2	0.020	0.000	20.3	16	1
10/27/19	12:28 a	-10.9	-10.9	-10.9	0.0	---	0.00	0.0	-10.9	724.2	0.020	0.000	20.3	16	1
10/27/19	12:29 a	-10.8	-10.8	-10.9	0.0	---	0.00	0.0	-10.8	724.3	0.020	0.000	20.3	16	1
10/27/19	12:30 a	-10.7	-10.7	-10.8	0.0	---	0.00	0.0	-10.7	724.2	0.020	0.000	20.3	16	1
10/27/19	12:31 a	-10.8	-10.8	-10.8	0.0	---	0.00	0.0	-10.8	724.2	0.020	0.000	20.2	16	1
10/27/19	12:32 a	-10.7	-10.7	-10.7	0.0	---	0.00	0.0	-10.7	724.3	0.020	0.000	20.2	16	1
10/27/19	12:33 a	-10.6	-10.6	-10.7	0.0	---	0.00	0.0	-10.6	724.2	0.020	0.000	20.2	16	1
10/27/19	12:34 a	-10.6	-10.6	-10.6	0.0	---	0.00	0.0	-10.6	724.2	0.020	0.000	20.2	16	1
10/27/19	12:35 a	-10.6	-10.6	-10.7	0.0	---	0.00	0.0	-10.6	724.2	0.020	0.000	20.2	16	1
10/27/19	12:36 a	-10.6	-10.6	-10.7	0.0	---	0.00	0.0	-10.6	724.3	0.020	0.000	20.2	16	1
10/27/19	12:37 a	-10.6	-10.6	-10.6	0.0	---	0.00	0.0	-10.6	724.2	0.020	0.000	20.2	16	1
10/27/19	12:38 a	-10.4	-10.4	-10.5	0.0	---	0.00	0.0	-10.4	724.2	0.020	0.000	20.2	16	1
10/27/19	12:39 a	-10.3	-10.2	-10.3	0.0	---	0.00	0.0	-10.3	724.2	0.020	0.000	20.2	16	1
10/27/19	12:40 a	-10.2	-10.1	-10.2	0.0	---	0.00	0.0	-10.2	724.2	0.020	0.000	20.2	16	1
10/27/19	12:41 a	-10.2	-10.2	-10.2	0.0	---	0.00	0.0	-10.2	724.2	0.020	0.000	20.2	16	1
10/27/19	12:42 a	-10.2	-10.2	-10.2	0.0	---	0.00	0.0	-10.2	724.2	0.020	0.000	20.2	16	1
10/27/19	12:43 a	-10.1	-9.9	-10.1	0.0	---	0.00	0.0	-10.1	724.2	0.020	0.000	20.2	16	1
10/27/19	12:44 a	-9.9	-9.9	-9.9	0.0	---	0.00	0.0	-9.9	724.2	0.020	0.000	20.2	16	1
10/27/19	12:45 a	-9.9	-9.8	-9.9	0.0	---	0.00	0.0	-9.9	724.3	0.020	0.000	20.2	16	1
10/27/19	12:46 a	-9.8	-9.8	-9.8	0.0	---	0.00	0.0	-9.8	724.2	0.020	0.000	20.3	16	1
10/27/19	12:47 a	-9.8	-9.8	-9.9	0.0	---	0.00	0.0	-9.8	724.2	0.020	0.000	20.3	16	1
10/27/19	12:48 a	-9.9	-9.9	-10.1	0.0	---	0.00	0.0	-9.9	724.3	0.020	0.000	20.3	16	1
10/27/19	12:49 a	-10.1	-10.1	-10.1	0.0	---	0.00	0.0	-10.1	724.3	0.020	0.000	20.3	16	1
10/27/19	12:50 a	-10.0	-10.0	-10.1	0.0	---	0.00	0.0	-10.0	724.2	0.020	0.000	20.3	16	1
10/27/19	12:51 a	-9.9	-9.9	-10.0	0.0	---	0.00	0.0	-9.9	724.2	0.020	0.000	20.3	19	1
10/27/19	12:52 a	-9.8	-9.8	-9.9	0.0	---	0.00	0.0	-9.8	724.2	0.020	0.000	20.3	19	1
10/27/19	12:53 a	-9.7	-9.7	-9.8	0.0	---	0.00	0.0	-9.7	724.2	0.019	0.000	20.3	19	1
10/27/19	12:54 a	-9.7	-9.6	-9.7	0.0	---	0.00	0.0	-9.7	724.2	0.019	0.000	20.3	19	1
10/27/19	12:55 a	-9.6	-9.5	-9.6	0.0	---	0.00	0.0	-9.6	724.2	0.019	0.000	20.4	19	1
10/27/19	12:56 a	-9.5	-9.4	-9.5	0.0	---	0.00	0.0	-9.5	724.2	0.019	0.000	20.4	19	1
10/27/19	12:57 a	-9.5	-9.4	-9.6	0.0	---	0.00	0.0	-9.5	724.2	0.019	0.000	20.4	19	1
10/27/19	12:58 a	-9.6	-9.6	-9.7	0.0	---	0.00	0.0	-9.6	724.2	0.019	0.000	20.4	19	1
10/27/19	12:59 a	-9.5	-9.5	-9.6	0.0	---	0.00	0.0	-9.5	724.2	0.019	0.000	20.3	18	1
10/27/19	1:00 a	-9.4	-9.3	-9.5	0.0	---	0.00	0.0	-9.4	724.2	0.019	0.000	20.3	19	1
10/27/19	1:01 a	-9.2	-9.2	-9.3	0.0	---	0.00	0.0	-9.2	724.2	0.019	0.000	20.3	19	1
10/27/19	1:02 a	-9.1	-9.1	-9.2	0.0	---	0.00	0.0	-9.1	724.2	0.019	0.000	20.3	19	1
10/27/19	1:03 a	-8.9	-8.9	-9.1	0.0	---	0.00	0.0	-8.9	724.2	0.019	0.000	20.3	19	1
10/27/19	1:04 a	-8.7	-8.6	-8.8	0.0	---	0.00	0.0	-8.7	724.2	0.019	0.000	20.3	19	1
10/27/19	1:05 a	-8.6	-8.4	-8.6	0.0	---	0.00	0.0	-8.6	724.2	0.019	0.000	20.3	18	1
10/27/19	1:06 a	-8.3	-8.1	-8.4	0.0	---	0.00	0.0	-8.3	724.2	0.018	0.000	20.3	19	1
10/27/19	1:07 a	-8.0	-7.9	-8.1	0.0	---	0.00	0.0	-8.0	724.2	0.018	0.000	20.3	19	1
10/27/19	1:08 a	-7.9	-7.8	-7.9	0.0	---	0.00	0.0	-7.9	724.2	0.018	0.000	20.3	19	1
10/27/19	1:09 a	-7.7	-7.6	-7.7	0.0	---	0.00	0.0	-7.7	724.2	0.018	0.000	20.3	19	1
10/27/19	1:10 a	-7.4	-7.4	-7.4	0.0	---	0.00	0.0	-7.4	724.2	0.018	0.000	20.3	18	1
10/27/19	1:11 a	-7.2	-7.1	-7.3	0.0	---	0.00	0.0	-7.2	724.2	0.018	0.000	20.3	19	1
10/27/19	1:12 a	-6.9	-6.8	-7.1	0.0	---	0.00	0.0	-6.9	724.3	0.018	0.000	20.3	19	1
10/27/19	1:13 a	-6.6	-6.5	-6.7	0.0	---	0.00	0.0	-6.6	724.2	0.017	0.000	20.3	19	1
10/27/19	1:14 a	-6.3	-6.2	-6.3	0.0	---	0.00	0.0	-6.3	724.1	0.017	0.000	20.3	19	1
10/27/19	1:15 a	-6.1	-6.0	-6.2	0.0	---	0.00	0.0	-6.1	724.2	0.017	0.000	20.3	19	1
10/27/19	1:16 a	-6.0	-6.0	-6.1	0.0	---	0.00	0.0	-6.0	724.2	0.017	0.000	20.3	19	1
10/27/19	1:17 a	-6.0	-6.0	-6.1	0.0	---	0.00	0.0	-6.0	724.2	0.017	0.000	20.3	19	1
10/27/19	1:18 a	-5.9	-5.9	-5.9	0.0	---	0.00	0.0	-5.9	724.2	0.017	0.000	20.3	18	1
10/27/19	1:19 a	-5.8	-5.8	-5.8	0.0	---	0.00	0.0	-5.8	724.2	0.017	0.000	20.4	19	1
10/27/19	1:20 a	-5.7	-5.7	-5.8	0.0	---	0.00	0.0	-5.7	724.2	0.017	0.000	20.4	19	1
10/27/19	1:21 a	-5.8	-5.7	-5.9	0.0	---	0.00	0.0	-5.8	724.1	0.017	0.000	20.4	19	1
10/27/19	1:22 a	-5.9	-5.9	-5.9	0.0	---	0.00	0.0	-5.9	724.2	0.017	0.000	20.4	19	1
10/27/19	1:23 a	-5.9	-5.9	-5.9	0.0	---	0.00	0.0	-5.9	724.2	0.017	0.000	20.4	18	1
10/27/19	1:24 a	-5.9	-5.9	-5.9	0.0	---	0.00	0.0	-5.9	724.1	0.017	0.000	20.4	18	1
10/27/19	1:25 a	-5.9	-5.9	-5.9	0.0	---	0.00	0.0	-5.9	724.2	0.017	0.000	20.4	19	1
10/27/19	1:26 a	-5.9	-5.9	-5.9	0.0	---	0.00	0.0	-5.9	724.2	0.017	0.000	20.4	19	1
10/27/19	1:27 a	-5.8	-5.8	-5.8	0.0	---	0.00	0.0	-5.8	724.2	0.017	0.000	20.4	19	1
10/27/19	1:28 a	-5.8	-5.8	-5.8	0.0	---	0.00	0.0	-5.8	724.2	0.017	0.000	20.4	19	1
10/27/19	1:29 a	-5.8	-5.7	-5.8	0.0	---	0.00	0.0	-5.8	724.2	0.017	0.000	20.4	19	1
10/27/19	1:30 a	-5.7	-5.6	-5.7	0.0	---	0.00	0.0	-5.7	724.2	0.017	0.000	20.4	19	1
10/27/19	1:31 a	-5.6	-5.6	-5.6	0.0	---	0.00	0.0	-5.6	724.2	0.017	0.000	20.4	19	1
10/27/19	1:32 a	-5.6	-5.6	-5.6	0.0	---	0.00	0.0	-5.6	724.2	0.017	0.000	20.4	19	1
10/27/19	1:33 a	-5.6	-5.6	-5.7	0.0	---	0.00	0.0	-5.6	724.2	0.017	0.000	20.4	19	1
10/27/19	1:34 a	-5.6	-5.5	-5.6	0.0	---	0.00	0.0	-5.6	724.1	0.017	0.000	20.4	19	1
10/27/19	1:35 a	-5.5	-5.4	-5.5	0.0	---	0.00	0.0	-5.5	724.2	0.017	0.000	20.4	19	1
10/27/19	1:36 a	-5.4	-5.4	-5.4	0.0	---	0.00	0.0	-5.4	724.1	0.016	0.000	20.4	18	1
10/27/19	1:37 a	-5.4	-5.4	-5.4	0.0	---	0.00	0.0	-5.4	724.1	0.016	0.000	20.4	18	1
10/27/19	1:38 a	-5.5	-5.4	-5.6	0.0	---	0.00	0.0	-5.5	724.2	0.017	0.000	20.4	16	1
10/27/19	1:39 a	-5.6	-5.6	-5.6	0.0	---	0.00	0.0	-5.6	724.1	0.017	0.000	20.4	16	1
10/27/19	1:40 a	-5.6	-5.6	-5.6	0.0	---	0.00	0.0	-5.6	724.2	0.017	0.000	20.4	17	1
10/27/19	1:41 a	-5.7	-5.6	-5.7	0.0	---	0.00	0.0	-5.7	724.2	0.017	0.000	20.4	17	1
10/27/19	1:42 a	-5.7	-5.7	-5.7	0.0	---	0.00	0.0	-5.7	724.2	0.017	0.000	20.4	16	1
10/27/19	1:43 a	-5.7	-5.6	-5.7	0.0	---	0.00	0.0	-5.7	724.2	0.017	0.000	20.4	16	1
10/27/19	1:44 a	-5.7	-5.6	-5.7	0.0	---	0.00	0.0	-5.7	724.2	0.017	0.000	20.4	17	1
10/27/19	1:45 a	-5.7	-5.7	-5.7	0.0	---	0.00	0.0	-5.7	724.2	0.017	0.000	20.4	17	1
10/27/19	1:46 a	-5.7	-5.7	-5.7	0.0	---	0.00	0.0	-5.7	724.2	0.017	0.000	20.4	16	1
10/27/19	1:47 a	-5.7	-5.6	-5.7	0.0	---	0.00	0.0	-5.7	724.2	0.017	0.000	20.4	17	1
10/27/19	1:48 a	-5.7	-5.6	-5.7	0.0	---	0.00	0.0	-5.7	724.2	0.017	0.000	20.4	16	1
10/27/19	1:49 a	-5.8	-5.8	-5.8	0.0	---	0.00	0.0	-5.8	724.3	0.017	0.000	20.4	16	1
10/27/19	1:50 a	-5.8	-5.7	-5.8	0.0	---	0.00	0.0	-5.8	724.3	0.017	0.000	20.4	17	1
10/27/19	1:51 a	-5.7	-5.7	-5.8	0.0	---	0.00	0.0	-5.7	724.3	0.017	0.000	20.4	17	1
10/27/19	1:52 a	-5.6	-5.6	-5.6	0.0	---	0.00	0.0	-5.6	724.2	0.017	0.000	20.5	17	1
10/27/19	1:53 a	-5.5	-5.4	-5.7	0.0	---	0.00	0.0	-5.5	724.2	0.017	0.000	20.5	16	1
10/27/19	1:54 a	-5.9	-5.9	-6.1	0.0	---	0.00	0.0	-5.9	724.1	0.017	0.000	20.5	17	1
10/27/19	1:55 a	-6.1	-6.1	-6.2	0.0	---	0.00	0.0	-6.1	724.2	0.017	0.000	20.5	17	1
10/27/19	1:56 a	-6.3	-6.2	-6.3	0.0	---	0.00	0.0	-6.3	724.2	0.017	0.000	20.5	16	1
10/27/19	1:57 a	-6.6	-6.4	-6.9	0.0	---	0.00	0.0	-6.6	724.2	0.017	0.000	20.6	17	1
10/27/19	1:58 a	-7.2	-6.9	-7.3	0.0	---	0.00	0.0	-7.2	724.1	0.018	0.000	20.6	17	1
10/27/19	1:59 a	-7.7	-7.5	-8.1	0.0	---	0.00	0.0	-7.7	724.2	0.018	0.000	20.6	17	1
10/27/19	2:00 a	-8.4	-8.4	-8.6	0.0	---	0.00	0.0	-8.4	724.1	0.019	0.000	20.6	17	1
10/27/19	2:01 a	-8.8	-8.7	-8.8	0.0	---	0.00	0.0	-8.8	724.2	0.019	0.000	20.6	16	1
10/27/19	2:02 a	-8.7	-8.6	-8.7	0.0	---	0.00	0.0	-8.7	724.2	0.019	0.000	20.6	17	1
10/27/19	2:03 a	-8.5	-8.4	-8.6	0.0	---	0.00	0.0	-8.5	724.2	0.019	0.000	20.6	16	1
10/27/19	2:04 a	-8.4	-8.4	-8.4	0.0	---	0.00	0.0	-8.4	724.2	0.019	0.000	20.6	17	1
10/27/19	2:05 a	-8.5	-8.4	-8.6	0.0	---	0.00	0.0	-8.5	724.2	0.019	0.000	20.6	16	1
10/27/19	2:06 a	-8.8	-8.5	-9.1	0.0	---	0.00	0.0	-8.8	724.2	0.019	0.000	20.6	16	1
10/27/19	2:07 a	-9.1	-9.1	-9.1	0.0	---	0.00	0.0	-9.1	724.2	0.019	0.000	20.6	16	1
10/27/19	2:08 a	-9.2	-9.1	-9.3	0.0	---	0.00	0.0	-9.2	724.2	0.019	0.000	20.6	16	1
10/27/19	2:09 a	-9.2	-9.2	-9.3	0.0	---	0.00	0.0	-9.2	724.2	0.019	0.000	20.5	17	1
10/27/19	2:10 a	-9.0	-8.8	-9.2	0.0	---	0.00	0.0	-9.0	724.2	0.019	0.000	20.5	17	1
10/27/19	2:11 a	-8.7	-8.5	-8.8	0.0	---	0.00	0.0	-8.7	724.2	0.019	0.000	20.5	16	1
10/27/19	2:12 a	-8.3	-8.1	-8.5	0.0	---	0.00	0.0	-8.3	724.1	0.019	0.000	20.5	17	1
10/27/19	2:13 a	-8.0	-7.9	-8.1	0.0	---	0.00	0.0	-8.0	724.2	0.018	0.000	20.5	17	1
10/27/19	2:14 a	-7.8	-7.7	-7.9	0.0	---	0.00	0.0	-7.8	724.1	0.018	0.000	20.4	16	1
10/27/19	2:15 a	-7.7	-7.5	-7.7	0.0	---	0.00	0.0	-7.7	724.1	0.018	0.000	20.4	16	1
10/27/19	2:16 a	-7.5	-7.4	-7.5	0.0	---	0.00	0.0	-7.5	724.1	0.018	0.000	20.4	16	1
10/27/19	2:17 a	-7.4	-7.4	-7.4	0.0	---	0.00	0.0	-7.4	724.2	0.018	0.000	20.4	17	1
10/27/19	2:18 a	-7.3	-7.3	-7.4	0.0	---	0.00	0.0	-7.3	724.1	0.018	0.000	20.4	17	1
10/27/19	2:19 a	-7.3	-7.2	-7.3	0.0	---	0.00	0.0	-7.3	724.1	0.018	0.000	20.4	17	1
10/27/19	2:20 a	-7.2	-7.1	-7.2	0.0	---	0.00	0.0	-7.2	724.1	0.018	0.000	20.4	17	1
10/27/19	2:21 a	-7.0	-7.0	-7.1	0.0	---	0.00	0.0	-7.0	724.0	0.018	0.000	20.4	16	1
10/27/19	2:22 a	-6.9	-6.9	-7.0	0.0	---	0.00	0.0	-6.9	724.1	0.018	0.000	20.4	16	1
10/27/19	2:23 a	-6.9	-6.8	-6.9	0.0	---	0.00	0.0	-6.9	724.1	0.018	0.000	20.4	17	1
10/27/19	2:24 a	-6.8	-6.8	-6.8	0.0	---	0.00	0.0	-6.8	724.0	0.017	0.000	20.4	16	1
10/27/19	2:25 a	-6.8	-6.8	-6.9	0.0	---	0.00	0.0	-6.8	724.0	0.017	0.000	20.4	17	1
10/27/19	2:26 a	-6.9	-6.9	-6.9	0.0	---	0.00	0.0	-6.9	724.1	0.018	0.000	20.5	16	1
10/27/19	2:27 a	-6.9	-6.9	-7.2	0.0	---	0.00	0.0	-6.9	724.0	0.018	0.000	20.5	17	1
10/27/19	2:28 a	-7.2	-7.2	-7.2	0.0	---	0.00	0.0	-7.2	724.1	0.018	0.000	20.5	16	1
10/27/19	2:29 a	-7.3	-7.2	-7.3	0.0	---	0.00	0.0	-7.3	724.1	0.018	0.000	20.5	16	1
10/27/19	2:30 a	-7.3	-7.3	-7.3	0.0	---	0.00	0.0	-7.3	724.1	0.018	0.000	20.6	16	1
10/27/19	2:31 a	-7.3	-7.3	-7.3	0.0	---	0.00	0.0	-7.3	724.1	0.018	0.000	20.6	16	1
10/27/19	2:32 a	-7.3	-7.3	-7.3	0.0	---	0.00	0.0	-7.3	724.1	0.018	0.000	20.6	16	1
10/27/19	2:33 a	-7.3	-7.3	-7.3	0.0	---	0.00	0.0	-7.3	724.2	0.018	0.000	20.6	16	1
10/27/19	2:34 a	-7.2	-7.2	-7.3	0.0	---	0.00	0.0	-7.2	724.1	0.018	0.000	20.6	17	1
10/27/19	2:35 a	-7.2	-7.1	-7.2	0.0	---	0.00	0.0	-7.2	724.3	0.018	0.000	20.6	17	1
10/27/19	2:36 a	-7.0	-6.9	-7.1	0.0	---	0.00	0.0	-7.0	724.1	0.018	0.000	20.6	17	1
10/27/19	2:37 a	-6.9	-6.9	-6.9	0.0	---	0.00	0.0	-6.9	724.0	0.018	0.000	20.6	17	1
10/27/19	2:38 a	-6.8	-6.8	-6.9	0.0	---	0.00	0.0	-6.8	724.1	0.017	0.000	20.6	17	1
10/27/19	2:39 a	-7.1	-6.9	-7.6	0.0	---	0.00	0.0	-7.1	724.1	0.018	0.000	20.6	16	1
10/27/19	2:40 a	-8.2	-8.1	-8.4	0.0	---	0.00	0.0	-8.2	724.0	0.018	0.000	20.6	16	1
10/27/19	2:41 a	-8.9	-8.8	-9.1	0.0	---	0.00	0.0	-8.9	724.1	0.019	0.000	20.6	16	1
10/27/19	2:42 a	-9.0	-8.9	-9.0	0.0	---	0.00	0.0	-9.0	724.1	0.019	0.000	20.6	16	1
10/27/19	2:43 a	-9.2	-9.1	-9.3	0.0	---	0.00	0.0	-9.2	724.2	0.019	0.000	20.6	16	1
10/27/19	2:44 a	-9.2	-9.1	-9.2	0.0	---	0.00	0.0	-9.2	724.1	0.019	0.000	20.6	16	1
10/27/19	2:45 a	-9.1	-9.1	-9.1	0.0	---	0.00	0.0	-9.1	724.2	0.019	0.000	20.6	16	1
10/27/19	2:46 a	-8.9	-8.9	-8.9	0.0	---	0.00	0.0	-8.9	724.1	0.019	0.000	20.6	16	1
10/27/19	2:47 a	-8.8	-8.7	-8.9	0.0	---	0.00	0.0	-8.8	724.2	0.019	0.000	20.5	17	1
10/27/19	2:48 a	-8.7	-8.6	-8.7	0.0	---	0.00	0.0	-8.7	724.1	0.019	0.000	20.5	16	1
10/27/19	2:49 a	-8.5	-8.4	-8.6	0.0	---	0.00	0.0	-8.5	724.2	0.019	0.000	20.5	16	1
10/27/19	2:50 a	-8.4	-8.3	-8.4	0.0	---	0.00	0.0	-8.4	724.2	0.019	0.000	20.5	17	1
10/27/19	2:51 a	-8.3	-8.3	-8.3	0.0	---	0.00	0.0	-8.3	724.2	0.019	0.000	20.5	16	1
10/27/19	2:52 a	-8.3	-8.2	-8.4	0.0	---	0.00	0.0	-8.3	724.2	0.018	0.000	20.5	16	1
10/27/19	2:53 a	-8.7	-8.6	-9.0	0.0	---	0.00	0.0	-8.7	724.1	0.019	0.000	20.4	16	1
10/27/19	2:54 a	-9.3	-9.2	-9.4	0.0	---	0.00	0.0	-9.3	724.2	0.019	0.000	20.4	16	1
10/27/19	2:55 a	-9.4	-9.4	-9.4	0.0	---	0.00	0.0	-9.4	724.1	0.019	0.000	20.4	16	1
10/27/19	2:56 a	-9.3	-9.3	-9.4	0.0	---	0.00	0.0	-9.3	724.1	0.019	0.000	20.4	17	1
10/27/19	2:57 a	-9.5	-9.4	-9.5	0.0	---	0.00	0.0	-9.5	724.1	0.019	0.000	20.4	16	1
10/27/19	2:58 a	-9.6	-9.6	-9.7	0.0	---	0.00	0.0	-9.6	724.1	0.019	0.000	20.4	16	1
10/27/19	2:59 a	-9.8	-9.7	-9.8	0.0	---	0.00	0.0	-9.8	724.1	0.020	0.000	20.4	18	1
10/27/19	3:00 a	-9.7	-9.7	-9.7	0.0	---	0.00	0.0	-9.7	724.1	0.019	0.000	20.4	18	1
10/27/19	3:01 a	-9.6	-9.6	-9.7	0.0	---	0.00	0.0	-9.6	724.1	0.019	0.000	20.4	19	1
10/27/19	3:02 a	-9.7	-9.7	-9.9	0.0	---	0.00	0.0	-9.7	724.1	0.019	0.000	20.4	20	1
10/27/19	3:03 a	-9.9	-9.9	-10.0	0.0	---	0.00	0.0	-9.9	724.1	0.020	0.000	20.5	20	1
10/27/19	3:04 a	-9.9	-9.9	-10.0	0.0	---	0.00	0.0	-9.9	724.1	0.020	0.000	20.5	19	1
10/27/19	3:05 a	-10.1	-10.1	-10.2	0.0	---	0.00	0.0	-10.1	724.1	0.020	0.000	20.5	20	1
10/27/19	3:06 a	-10.0	-9.9	-10.1	0.0	---	0.00	0.0	-10.0	724.1	0.020	0.000	20.5	19	1
10/27/19	3:07 a	-9.8	-9.7	-9.9	0.0	---	0.00	0.0	-9.8	724.1	0.020	0.000	20.6	20	1
10/27/19	3:08 a	-9.6	-9.3	-9.7	0.0	---	0.00	0.0	-9.6	724.0	0.019	0.000	20.6	19	1
10/27/19	3:09 a	-9.3	-9.2	-9.3	0.0	---	0.00	0.0	-9.3	724.1	0.019	0.000	20.6	19	1
10/27/19	3:10 a	-9.1	-9.1	-9.2	0.0	---	0.00	0.0	-9.1	724.1	0.019	0.000	20.6	19	1
10/27/19	3:11 a	-8.9	-8.7	-9.1	0.0	---	0.00	0.0	-8.9	724.0	0.019	0.000	20.6	19	1
10/27/19	3:12 a	-8.6	-8.4	-8.7	0.0	---	0.00	0.0	-8.6	724.1	0.019	0.000	20.6	19	1
10/27/19	3:13 a	-8.2	-8.1	-8.4	0.0	---	0.00	0.0	-8.2	724.1	0.018	0.000	20.6	19	1
10/27/19	3:14 a	-7.9	-7.7	-8.1	0.0	---	0.00	0.0	-7.9	724.0	0.018	0.000	20.6	20	1
10/27/19	3:15 a	-7.4	-7.2	-7.6	0.0	---	0.00	0.0	-7.4	724.1	0.018	0.000	20.7	19	1
10/27/19	3:16 a	-7.1	-7.0	-7.1	0.0	---	0.00	0.0	-7.1	724.1	0.018	0.000	20.7	19	1
10/27/19	3:17 a	-6.8	-6.7	-6.9	0.0	---	0.00	0.0	-6.8	724.1	0.017	0.000	20.7	19	1
10/27/19	3:18 a	-6.5	-6.4	-6.6	0.0	---	0.00	0.0	-6.5	724.1	0.017	0.000	20.7	19	1
10/27/19	3:19 a	-6.3	-6.3	-6.3	0.0	---	0.00	0.0	-6.3	724.1	0.017	0.000	20.7	19	1
10/27/19	3:20 a	-6.8	-6.3	-7.1	0.0	---	0.00	0.0	-6.8	724.1	0.017	0.000	20.7	19	1
10/27/19	3:21 a	-7.3	-7.1	-7.5	0.0	---	0.00	0.0	-7.3	724.1	0.018	0.000	20.7	19	1
10/27/19	3:22 a	-7.6	-7.5	-7.6	0.0	---	0.00	0.0	-7.6	724.1	0.018	0.000	20.6	19	1
10/27/19	3:23 a	-7.4	-7.4	-7.6	0.0	---	0.00	0.0	-7.4	724.1	0.018	0.000	20.6	19	1
10/27/19	3:24 a	-7.6	-7.6	-7.6	0.0	---	0.00	0.0	-7.6	724.1	0.018	0.000	20.6	19	1
10/27/19	3:25 a	-7.4	-7.3	-7.6	0.0	---	0.00	0.0	-7.4	724.1	0.018	0.000	20.6	19	1
10/27/19	3:26 a	-7.1	-7.0	-7.2	0.0	---	0.00	0.0	-7.1	724.1	0.018	0.000	20.6	19	1
10/27/19	3:27 a	-6.7	-6.6	-6.8	0.0	---	0.00	0.0	-6.7	724.1	0.017	0.000	20.6	19	1
10/27/19	3:28 a	-6.4	-6.3	-6.5	0.0	---	0.00	0.0	-6.4	724.1	0.017	0.000	20.6	19	1
10/27/19	3:29 a	-6.2	-6.1	-6.2	0.0	---	0.00	0.0	-6.2	724.1	0.017	0.000	20.6	19	1
10/27/19	3:30 a	-6.1	-6.1	-6.1	0.0	---	0.00	0.0	-6.1	724.1	0.017	0.000	20.6	19	1
10/27/19	3:31 a	-6.1	-6.1	-6.2	0.0	---	0.00	0.0	-6.1	724.1	0.017	0.000	20.6	20	1
10/27/19	3:32 a	-6.2	-6.2	-6.2	0.0	---	0.00	0.0	-6.2	724.0	0.017	0.000	20.6	19	1
10/27/19	3:33 a	-6.2	-6.1	-6.2	0.0	---	0.00	0.0	-6.2	724.0	0.017	0.000	20.6	19	1
10/27/19	3:34 a	-6.1	-6.1	-6.1	0.0	---	0.00	0.0	-6.1	724.0	0.017	0.000	20.6	19	1
10/27/19	3:35 a	-6.2	-6.1	-6.6	0.0	---	0.00	0.0	-6.2	724.0	0.017	0.000	20.6	19	1
10/27/19	3:36 a	-6.8	-6.6	-6.9	0.0	---	0.00	0.0	-6.8	724.0	0.017	0.000	20.6	19	1
10/27/19	3:37 a	-7.1	-7.1	-7.4	0.0	---	0.00	0.0	-7.1	723.9	0.018	0.000	20.5	19	1
10/27/19	3:38 a	-7.7	-7.4	-8.1	0.0	---	0.00	0.0	-7.7	724.0	0.018	0.000	20.5	19	1
10/27/19	3:39 a	-8.2	-8.1	-8.3	0.0	---	0.00	0.0	-8.2	724.0	0.018	0.000	20.5	19	1
10/27/19	3:40 a	-8.2	-8.2	-8.3	0.0	---	0.00	0.0	-8.2	724.0	0.018	0.000	20.5	19	1
10/27/19	3:41 a	-7.9	-7.8	-8.1	0.0	---	0.00	0.0	-7.9	724.0	0.018	0.000	20.6	19	1
10/27/19	3:42 a	-7.7	-7.6	-7.8	0.0	---	0.00	0.0	-7.7	724.0	0.018	0.000	20.6	19	1
10/27/19	3:43 a	-7.6	-7.5	-7.6	0.0	---	0.00	0.0	-7.6	724.0	0.018	0.000	20.6	19	1
10/27/19	3:44 a	-7.5	-7.5	-7.6	0.0	---	0.00	0.0	-7.5	724.1	0.018	0.000	20.6	19	1
10/27/19	3:45 a	-7.5	-7.4	-7.6	0.0	---	0.00	0.0	-7.5	724.0	0.018	0.000	20.6	19	1
10/27/19	3:46 a	-7.4	-7.3	-7.5	0.0	---	0.00	0.0	-7.4	724.0	0.018	0.000	20.7	19	1
10/27/19	3:47 a	-7.5	-7.5	-7.5	0.0	---	0.00	0.0	-7.5	724.0	0.018	0.000	20.7	19	1
10/27/19	3:48 a	-7.6	-7.5	-7.7	0.0	---	0.00	0.0	-7.6	724.0	0.018	0.000	20.7	19	1
10/27/19	3:49 a	-7.7	-7.6	-7.7	0.0	---	0.00	0.0	-7.7	724.0	0.018	0.000	20.7	19	1
10/27/19	3:50 a	-7.7	-7.6	-7.8	0.0	---	0.00	0.0	-7.7	724.0	0.018	0.000	20.7	19	1
10/27/19	3:51 a	-7.8	-7.8	-7.8	0.0	---	0.00	0.0	-7.8	724.0	0.018	0.000	20.7	19	1
10/27/19	3:52 a	-8.1	-7.8	-8.2	0.0	---	0.00	0.0	-8.1	724.0	0.018	0.000	20.7	19	1
10/27/19	3:53 a	-8.6	-8.6	-8.7	0.0	---	0.00	0.0	-8.6	724.0	0.019	0.000	20.7	19	1
10/27/19	3:54 a	-8.6	-8.6	-8.7	0.0	---	0.00	0.0	-8.6	724.0	0.019	0.000	20.7	19	1
10/27/19	3:55 a	-8.6	-8.5	-8.6	0.0	---	0.00	0.0	-8.6	724.0	0.019	0.000	20.7	20	1
10/27/19	3:56 a	-8.5	-8.4	-8.7	0.0	---	0.00	0.0	-8.5	724.0	0.019	0.000	20.7	19	1
10/27/19	3:57 a	-8.7	-8.7	-8.9	0.0	---	0.00	0.0	-8.7	724.0	0.019	0.000	20.7	19	1
10/27/19	3:58 a	-9.0	-8.9	-9.1	0.0	---	0.00	0.0	-9.0	724.0	0.019	0.000	20.7	19	1
10/27/19	3:59 a	-9.1	-9.0	-9.1	0.0	---	0.00	0.0	-9.1	724.0	0.019	0.000	20.7	19	1
10/27/19	4:00 a	-8.9	-8.7	-9.1	0.0	---	0.00	0.0	-8.9	723.9	0.019	0.000	20.7	19	1
10/27/19	4:01 a	-8.6	-8.6	-8.7	0.0	---	0.00	0.0	-8.6	724.0	0.019	0.000	20.7	20	1
10/27/19	4:02 a	-8.5	-8.4	-8.6	0.0	---	0.00	0.0	-8.5	724.0	0.019	0.000	20.7	19	1
10/27/19	4:03 a	-8.3	-8.2	-8.3	0.0	---	0.00	0.0	-8.3	724.0	0.018	0.000	20.7	20	1
10/27/19	4:04 a	-8.1	-8.0	-8.1	0.0	---	0.00	0.0	-8.1	724.0	0.018	0.000	20.6	20	1
10/27/19	4:05 a	-7.9	-7.9	-7.9	0.0	---	0.00	0.0	-7.9	724.0	0.018	0.000	20.6	20	1
10/27/19	4:06 a	-7.7	-7.7	-7.8	0.0	---	0.00	0.0	-7.7	724.0	0.018	0.000	20.6	19	1
10/27/19	4:07 a	-7.4	-7.3	-7.6	0.0	---	0.00	0.0	-7.4	724.0	0.018	0.000	20.6	20	1
10/27/19	4:08 a	-7.1	-7.1	-7.2	0.0	---	0.00	0.0	-7.1	724.0	0.018	0.000	20.6	20	1
10/27/19	4:09 a	-7.0	-6.9	-7.1	0.0	---	0.00	0.0	-7.0	724.1	0.018	0.000	20.6	20	1
10/27/19	4:10 a	-6.8	-6.7	-6.9	0.0	---	0.00	0.0	-6.8	724.0	0.017	0.000	20.6	20	1
10/27/19	4:11 a	-6.7	-6.6	-6.7	0.0	---	0.00	0.0	-6.7	724.0	0.017	0.000	20.6	20	1
10/27/19	4:12 a	-6.6	-6.6	-6.6	0.0	---	0.00	0.0	-6.6	724.1	0.017	0.000	20.6	20	1
10/27/19	4:13 a	-6.4	-6.4	-6.6	0.0	---	0.00	0.0	-6.4	724.0	0.017	0.000	20.6	20	1
10/27/19	4:14 a	-6.8	-6.6	-6.9	0.0	---	0.00	0.0	-6.8	724.1	0.017	0.000	20.6	20	1
10/27/19	4:15 a	-6.9	-6.9	-6.9	0.0	---	0.00	0.0	-6.9	724.0	0.018	0.000	20.6	20	1
10/27/19	4:16 a	-6.8	-6.6	-6.9	0.0	---	0.00	0.0	-6.8	724.0	0.017	0.000	20.6	20	1
10/27/19	4:17 a	-6.6	-6.4	-6.7	0.0	---	0.00	0.0	-6.6	724.0	0.017	0.000	20.6	20	1
10/27/19	4:18 a	-7.1	-6.7	-7.8	0.0	---	0.00	0.0	-7.1	724.1	0.018	0.000	20.6	20	1
10/27/19	4:19 a	-8.0	-7.8	-8.2	0.0	---	0.00	0.0	-8.0	724.1	0.018	0.000	20.6	20	1
10/27/19	4:20 a	-8.4	-8.2	-8.6	0.0	---	0.00	0.0	-8.4	724.1	0.019	0.000	20.6	20	1
10/27/19	4:21 a	-8.4	-8.3	-8.5	0.0	---	0.00	0.0	-8.4	724.0	0.019	0.000	20.6	20	1
10/27/19	4:22 a	-8.2	-8.0	-8.3	0.0	---	0.00	0.0	-8.2	724.0	0.018	0.000	20.6	20	1
10/27/19	4:23 a	-7.9	-7.8	-8.0	0.0	---	0.00	0.0	-7.9	724.0	0.018	0.000	20.6	20	1
10/27/19	4:24 a	-7.6	-7.5	-7.8	0.0	---	0.00	0.0	-7.6	724.0	0.018	0.000	20.7	20	1
10/27/19	4:25 a	-7.4	-7.4	-7.5	0.0	---	0.00	0.0	-7.4	724.0	0.018	0.000	20.7	20	1
10/27/19	4:26 a	-7.3	-7.1	-7.4	0.0	---	0.00	0.0	-7.3	724.0	0.018	0.000	20.7	20	1
10/27/19	4:27 a	-7.1	-7.1	-7.1	0.0	---	0.00	0.0	-7.1	724.0	0.018	0.000	20.7	20	1
10/27/19	4:28 a	-7.1	-7.1	-7.1	0.0	---	0.00	0.0	-7.1	723.9	0.018	0.000	20.7	20	1
10/27/19	4:29 a	-7.0	-6.9	-7.1	0.0	---	0.00	0.0	-7.0	724.0	0.018	0.000	20.7	20	1
10/27/19	4:30 a	-6.8	-6.7	-6.9	0.0	---	0.00	0.0	-6.8	723.9	0.017	0.000	20.7	20	1
10/27/19	4:31 a	-6.7	-6.6	-6.7	0.0	---	0.00	0.0	-6.7	723.9	0.017	0.000	20.7	20	1
10/27/19	4:32 a	-6.6	-6.6	-6.7	0.0	---	0.00	0.0	-6.6	724.0	0.017	0.000	20.7	20	1
10/27/19	4:33 a	-6.6	-6.6	-6.7	0.0	---	0.00	0.0	-6.6	724.0	0.017	0.000	20.7	19	1
10/27/19	4:34 a	-6.6	-6.6	-6.7	0.0	---	0.00	0.0	-6.6	724.0	0.017	0.000	20.7	19	1
10/27/19	4:35 a	-6.4	-6.3	-6.6	0.0	---	0.00	0.0	-6.4	724.0	0.017	0.000	20.8	20	1
10/27/19	4:36 a	-6.3	-6.3	-6.3	0.0	---	0.00	0.0	-6.3	724.0	0.017	0.000	20.8	20	1
10/27/19	4:37 a	-6.2	-6.2	-6.2	0.0	---	0.00	0.0	-6.2	724.0	0.017	0.000	20.8	20	1
10/27/19	4:38 a	-6.2	-6.2	-6.2	0.0	---	0.00	0.0	-6.2	724.0	0.017	0.000	20.8	19	1
10/27/19	4:39 a	-6.1	-6.1	-6.2	0.0	---	0.00	0.0	-6.1	724.0	0.017	0.000	20.8	19	1
10/27/19	4:40 a	-6.1	-6.1	-6.1	0.0	---	0.00	0.0	-6.1	724.0	0.017	0.000	20.8	20	1
10/27/19	4:41 a	-6.1	-5.9	-6.1	0.0	---	0.00	0.0	-6.1	724.0	0.017	0.000	20.8	20	1
10/27/19	4:42 a	-5.9	-5.9	-5.9	0.0	---	0.00	0.0	-5.9	724.0	0.017	0.000	20.8	20	1
10/27/19	4:43 a	-5.9	-5.9	-5.9	0.0	---	0.00	0.0	-5.9	724.0	0.017	0.000	20.8	20	1
10/27/19	4:44 a	-5.9	-5.9	-6.0	0.0	---	0.00	0.0	-5.9	724.0	0.017	0.000	20.8	20	1
10/27/19	4:45 a	-6.0	-6.0	-6.0	0.0	---	0.00	0.0	-6.0	724.1	0.017	0.000	20.8	20	1
10/27/19	4:46 a	-5.9	-5.9	-6.0	0.0	---	0.00	0.0	-5.9	724.0	0.017	0.000	20.8	20	1
10/27/19	4:47 a	-6.0	-6.0	-6.0	0.0	---	0.00	0.0	-6.0	724.0	0.017	0.000	20.8	20	1
10/27/19	4:48 a	-6.0	-6.0	-6.1	0.0	---	0.00	0.0	-6.0	724.1	0.017	0.000	20.8	20	1
10/27/19	4:49 a	-6.0	-5.9	-6.1	0.0	---	0.00	0.0	-6.0	724.0	0.017	0.000	20.7	20	1
10/27/19	4:50 a	-5.9	-5.9	-5.9	0.0	---	0.00	0.0	-5.9	724.1	0.017	0.000	20.8	20	1
10/27/19	4:51 a	-6.0	-6.0	-6.1	0.0	---	0.00	0.0	-6.0	724.0	0.017	0.000	20.8	20	1
10/27/19	4:52 a	-6.1	-6.1	-6.3	0.0	---	0.00	0.0	-6.1	724.0	0.017	0.000	20.7	20	1
10/27/19	4:53 a	-6.2	-6.2	-6.3	0.0	---	0.00	0.0	-6.2	724.0	0.017	0.000	20.7	20	1
10/27/19	4:54 a	-6.2	-6.2	-6.3	0.0	---	0.00	0.0	-6.2	724.0	0.017	0.000	20.7	20	1
10/27/19	4:55 a	-6.3	-6.2	-6.3	0.0	---	0.00	0.0	-6.3	724.0	0.017	0.000	20.7	20	1
10/27/19	4:56 a	-6.3	-6.2	-6.3	0.0	---	0.00	0.0	-6.3	723.9	0.017	0.000	20.7	20	1
10/27/19	4:57 a	-6.1	-6.1	-6.2	0.0	---	0.00	0.0	-6.1	724.0	0.017	0.000	20.7	20	1
10/27/19	4:58 a	-6.1	-6.0	-6.1	0.0	---	0.00	0.0	-6.1	724.0	0.017	0.000	20.7	20	1
10/27/19	4:59 a	-5.9	-5.8	-5.9	0.0	---	0.00	0.0	-5.9	724.0	0.017	0.000	20.7	19	1
10/27/19	5:00 a	-5.8	-5.8	-5.8	0.0	---	0.00	0.0	-5.8	724.0	0.017	0.000	20.6	19	1
10/27/19	5:01 a	-5.7	-5.6	-5.7	0.0	---	0.00	0.0	-5.7	724.0	0.017	0.000	20.6	19	1
10/27/19	5:02 a	-5.6	-5.5	-5.6	0.0	---	0.00	0.0	-5.6	724.0	0.017	0.000	20.6	19	1
10/27/19	5:03 a	-5.4	-5.4	-5.5	0.0	---	0.00	0.0	-5.4	724.1	0.017	0.000	20.6	19	1
10/27/19	5:04 a	-5.6	-5.5	-5.7	0.0	---	0.00	0.0	-5.6	724.0	0.017	0.000	20.6	20	1
10/27/19	5:05 a	-5.9	-5.8	-6.1	0.0	---	0.00	0.0	-5.9	724.0	0.017	0.000	20.6	19	1
10/27/19	5:06 a	-6.6	-6.1	-6.8	0.0	---	0.00	0.0	-6.6	724.0	0.017	0.000	20.6	20	1
10/27/19	5:07 a	-7.2	-7.0	-7.5	0.0	---	0.00	0.0	-7.2	724.0	0.018	0.000	20.6	19	1
10/27/19	5:08 a	-7.9	-7.8	-8.0	0.0	---	0.00	0.0	-7.9	724.1	0.018	0.000	20.7	20	1
10/27/19	5:09 a	-8.1	-8.1	-8.2	0.0	---	0.00	0.0	-8.1	724.1	0.018	0.000	20.7	20	1
10/27/19	5:10 a	-8.6	-8.2	-8.8	0.0	---	0.00	0.0	-8.6	724.0	0.019	0.000	20.7	19	1
10/27/19	5:11 a	-8.8	-8.8	-8.8	0.0	---	0.00	0.0	-8.8	724.0	0.019	0.000	20.7	20	1
10/27/19	5:12 a	-8.7	-8.5	-8.8	0.0	---	0.00	0.0	-8.7	724.0	0.019	0.000	20.7	19	1
10/27/19	5:13 a	-8.4	-8.3	-8.5	0.0	---	0.00	0.0	-8.4	724.0	0.019	0.000	20.7	20	1
10/27/19	5:14 a	-8.1	-7.9	-8.3	0.0	---	0.00	0.0	-8.1	724.1	0.018	0.000	20.8	20	1
10/27/19	5:15 a	-7.9	-7.8	-7.9	0.0	---	0.00	0.0	-7.9	724.0	0.018	0.000	20.8	20	1
10/27/19	5:16 a	-7.8	-7.6	-7.8	0.0	---	0.00	0.0	-7.8	724.0	0.018	0.000	20.8	20	1
10/27/19	5:17 a	-7.5	-7.4	-7.6	0.0	---	0.00	0.0	-7.5	724.0	0.018	0.000	20.8	20	1
10/27/19	5:18 a	-7.4	-7.4	-7.5	0.0	---	0.00	0.0	-7.4	724.1	0.018	0.000	20.8	20	1
10/27/19	5:19 a	-7.5	-7.5	-7.5	0.0	---	0.00	0.0	-7.5	724.0	0.018	0.000	20.8	20	1
10/27/19	5:20 a	-7.5	-7.5	-7.6	0.0	---	0.00	0.0	-7.5	724.0	0.018	0.000	20.8	20	1
10/27/19	5:21 a	-7.6	-7.6	-7.6	0.0	---	0.00	0.0	-7.6	724.1	0.018	0.000	20.8	20	1
10/27/19	5:22 a	-7.6	-7.5	-7.6	0.0	---	0.00	0.0	-7.6	724.0	0.018	0.000	20.8	20	1
10/27/19	5:23 a	-7.4	-7.3	-7.5	0.0	---	0.00	0.0	-7.4	724.0	0.018	0.000	20.8	20	1
10/27/19	5:24 a	-7.2	-7.0	-7.3	0.0	---	0.00	0.0	-7.2	724.0	0.018	0.000	20.8	20	1
10/27/19	5:25 a	-6.9	-6.8	-7.0	0.0	---	0.00	0.0	-6.9	724.0	0.018	0.000	20.8	20	1
10/27/19	5:26 a	-6.6	-6.3	-6.7	0.0	---	0.00	0.0	-6.6	724.0	0.017	0.000	20.8	20	1
10/27/19	5:27 a	-6.2	-6.1	-6.3	0.0	---	0.00	0.0	-6.2	724.0	0.017	0.000	20.8	20	1
10/27/19	5:28 a	-6.0	-5.8	-6.1	0.0	---	0.00	0.0	-6.0	724.0	0.017	0.000	20.8	20	1
10/27/19	5:29 a	-5.8	-5.8	-5.8	0.0	---	0.00	0.0	-5.8	724.0	0.017	0.000	20.8	20	1
10/27/19	5:30 a	-5.7	-5.7	-5.8	0.0	---	0.00	0.0	-5.7	724.0	0.017	0.000	20.8	20	1
10/27/19	5:31 a	-5.7	-5.7	-5.7	0.0	---	0.00	0.0	-5.7	724.0	0.017	0.000	20.8	20	1
10/27/19	5:32 a	-5.6	-5.5	-5.7	0.0	---	0.00	0.0	-5.6	724.0	0.017	0.000	20.8	20	1
10/27/19	5:33 a	-5.4	-5.4	-5.5	0.0	---	0.00	0.0	-5.4	724.0	0.017	0.000	20.8	20	1
10/27/19	5:34 a	-5.5	-5.4	-5.5	0.0	---	0.00	0.0	-5.5	723.9	0.017	0.000	20.8	20	1
10/27/19	5:35 a	-5.3	-5.3	-5.4	0.0	---	0.00	0.0	-5.3	723.9	0.016	0.000	20.8	20	1
10/27/19	5:36 a	-5.3	-5.3	-5.3	0.0	---	0.00	0.0	-5.3	724.0	0.016	0.000	20.8	20	1
10/27/19	5:37 a	-5.3	-5.2	-5.3	0.0	---	0.00	0.0	-5.3	723.8	0.016	0.000	20.8	20	1
10/27/19	5:38 a	-5.3	-5.3	-5.4	0.0	---	0.00	0.0	-5.3	724.0	0.016	0.000	20.7	20	1
10/27/19	5:39 a	-5.5	-5.4	-5.5	0.0	---	0.00	0.0	-5.5	723.9	0.017	0.000	20.8	20	1
10/27/19	5:40 a	-5.6	-5.5	-5.6	0.0	---	0.00	0.0	-5.6	723.9	0.017	0.000	20.8	20	1
10/27/19	5:41 a	-5.7	-5.6	-5.7	0.0	---	0.00	0.0	-5.7	723.9	0.017	0.000	20.7	19	1
10/27/19	5:42 a	-5.8	-5.7	-5.8	0.0	---	0.00	0.0	-5.8	724.0	0.017	0.000	20.7	19	1
10/27/19	5:43 a	-5.8	-5.7	-5.8	0.0	---	0.00	0.0	-5.8	724.0	0.017	0.000	20.7	18	1
10/27/19	5:44 a	-5.7	-5.6	-5.7	0.0	---	0.00	0.0	-5.7	724.0	0.017	0.000	20.7	19	1
10/27/19	5:45 a	-5.5	-5.4	-5.6	0.0	---	0.00	0.0	-5.5	724.0	0.017	0.000	20.7	20	1
10/27/19	5:46 a	-5.4	-5.3	-5.4	0.0	---	0.00	0.0	-5.4	723.9	0.016	0.000	20.7	20	1
10/27/19	5:47 a	-5.3	-5.2	-5.3	0.0	---	0.00	0.0	-5.3	723.9	0.016	0.000	20.7	19	1
10/27/19	5:48 a	-5.4	-5.3	-5.4	0.0	---	0.00	0.0	-5.4	723.9	0.016	0.000	20.7	19	1
10/27/19	5:49 a	-5.4	-5.4	-5.6	0.0	---	0.00	0.0	-5.4	723.9	0.017	0.000	20.7	20	1
10/27/19	5:50 a	-5.7	-5.6	-5.7	0.0	---	0.00	0.0	-5.7	723.9	0.017	0.000	20.7	19	1
10/27/19	5:51 a	-5.8	-5.7	-5.8	0.0	---	0.00	0.0	-5.8	723.9	0.017	0.000	20.7	19	1
10/27/19	5:52 a	-5.9	-5.8	-5.9	0.0	---	0.00	0.0	-5.9	723.9	0.017	0.000	20.7	20	1
10/27/19	5:53 a	-5.9	-5.8	-6.0	0.0	---	0.00	0.0	-5.9	723.9	0.017	0.000	20.7	20	1
10/27/19	5:54 a	-6.0	-6.0	-6.1	0.0	---	0.00	0.0	-6.0	723.9	0.017	0.000	20.7	20	1
10/27/19	5:55 a	-6.1	-6.1	-6.1	0.0	---	0.00	0.0	-6.1	723.9	0.017	0.000	20.7	19	1
10/27/19	5:56 a	-6.1	-6.1	-6.2	0.0	---	0.00	0.0	-6.1	723.9	0.017	0.000	20.7	19	1
10/27/19	5:57 a	-6.2	-6.2	-6.2	0.0	---	0.00	0.0	-6.2	723.9	0.017	0.000	20.8	20	1
10/27/19	5:58 a	-6.2	-6.2	-6.2	0.0	---	0.00	0.0	-6.2	723.9	0.017	0.000	20.8	20	1
10/27/19	5:59 a	-6.3	-6.3	-6.3	0.0	---	0.00	0.0	-6.3	724.0	0.017	0.000	20.8	20	1
10/27/19	6:00 a	-6.3	-6.3	-6.4	0.0	---	0.00	0.0	-6.3	724.0	0.017	0.000	20.8	20	1
10/27/19	6:01 a	-6.4	-6.3	-6.4	0.0	---	0.00	0.0	-6.4	723.9	0.017	0.000	20.8	20	1
10/27/19	6:02 a	-6.5	-6.5	-6.6	0.0	---	0.00	0.0	-6.5	723.9	0.017	0.000	20.8	20	1
10/27/19	6:03 a	-6.7	-6.7	-6.7	0.0	---	0.00	0.0	-6.7	724.0	0.017	0.000	20.8	19	1
10/27/19	6:04 a	-6.8	-6.7	-6.8	0.0	---	0.00	0.0	-6.8	723.9	0.017	0.000	20.8	20	1
10/27/19	6:05 a	-6.7	-6.6	-6.7	0.0	---	0.00	0.0	-6.7	723.8	0.017	0.000	20.8	20	1
10/27/19	6:06 a	-6.6	-6.6	-6.6	0.0	---	0.00	0.0	-6.6	723.9	0.017	0.000	20.8	19	1
10/27/19	6:07 a	-6.3	-6.2	-6.4	0.0	---	0.00	0.0	-6.3	723.8	0.017	0.000	20.8	20	1
10/27/19	6:08 a	-6.2	-6.2	-6.2	0.0	---	0.00	0.0	-6.2	723.9	0.017	0.000	20.9	20	1
10/27/19	6:09 a	-6.1	-6.1	-6.2	0.0	---	0.00	0.0	-6.1	723.9	0.017	0.000	20.8	20	1
10/27/19	6:10 a	-6.2	-6.2	-6.3	0.0	---	0.00	0.0	-6.2	723.8	0.017	0.000	20.8	19	1
10/27/19	6:11 a	-6.4	-6.3	-6.6	0.0	---	0.00	0.0	-6.4	723.8	0.017	0.000	20.8	20	1
10/27/19	6:12 a	-6.5	-6.4	-6.6	0.0	---	0.00	0.0	-6.5	723.8	0.017	0.000	20.8	20	1
10/27/19	6:13 a	-6.5	-6.4	-6.5	0.0	---	0.00	0.0	-6.5	723.9	0.017	0.000	20.8	19	1
10/27/19	6:14 a	-6.4	-6.4	-6.5	0.0	---	0.00	0.0	-6.4	723.8	0.017	0.000	20.8	19	1
10/27/19	6:15 a	-6.4	-6.4	-6.4	0.0	---	0.00	0.0	-6.4	723.9	0.017	0.000	20.8	20	1
10/27/19	6:16 a	-6.4	-6.4	-6.5	0.0	---	0.00	0.0	-6.4	723.9	0.017	0.000	20.8	20	1
10/27/19	6:17 a	-6.4	-6.4	-6.4	0.0	---	0.00	0.0	-6.4	723.8	0.017	0.000	20.7	20	1
10/27/19	6:18 a	-6.4	-6.4	-6.4	0.0	---	0.00	0.0	-6.4	723.8	0.017	0.000	20.7	19	1
10/27/19	6:19 a	-6.4	-6.4	-6.4	0.0	---	0.00	0.0	-6.4	723.8	0.017	0.000	20.7	19	1
10/27/19	6:20 a	-6.4	-6.3	-6.4	0.0	---	0.00	0.0	-6.4	724.0	0.017	0.000	20.7	20	1
10/27/19	6:21 a	-6.3	-6.3	-6.3	0.0	---	0.00	0.0	-6.3	723.9	0.017	0.000	20.7	20	1
10/27/19	6:22 a	-6.4	-6.3	-6.5	0.0	---	0.00	0.0	-6.4	723.9	0.017	0.000	20.7	20	1
10/27/19	6:23 a	-6.4	-6.4	-6.6	0.0	---	0.00	0.0	-6.4	723.9	0.017	0.000	20.7	20	1
10/27/19	6:24 a	-6.7	-6.6	-6.8	0.0	---	0.00	0.0	-6.7	723.9	0.017	0.000	20.7	20	1
10/27/19	6:25 a	-6.9	-6.8	-7.1	0.0	---	0.00	0.0	-6.9	724.0	0.018	0.000	20.7	20	1
10/27/19	6:26 a	-7.4	-7.1	-7.6	0.0	---	0.00	0.0	-7.4	724.0	0.018	0.000	20.7	20	1
10/27/19	6:27 a	-7.6	-7.6	-7.8	0.0	---	0.00	0.0	-7.6	724.0	0.018	0.000	20.7	19	1
10/27/19	6:28 a	-7.9	-7.8	-7.9	0.0	---	0.00	0.0	-7.9	723.9	0.018	0.000	20.6	20	1
10/27/19	6:29 a	-8.1	-7.8	-8.5	0.0	---	0.00	0.0	-8.1	724.0	0.018	0.000	20.6	19	1
10/27/19	6:30 a	-8.8	-8.5	-8.8	0.0	---	0.00	0.0	-8.8	724.0	0.019	0.000	20.6	20	1
10/27/19	6:31 a	-8.9	-8.8	-9.2	0.0	---	0.00	0.0	-8.9	723.9	0.019	0.000	20.6	19	1
10/27/19	6:32 a	-9.5	-9.2	-9.8	0.0	---	0.00	0.0	-9.5	723.9	0.019	0.000	20.6	20	1
10/27/19	6:33 a	-9.7	-9.6	-9.8	0.0	---	0.00	0.0	-9.7	723.9	0.019	0.000	20.6	19	1
10/27/19	6:34 a	-9.7	-9.6	-9.8	0.0	---	0.00	0.0	-9.7	723.9	0.019	0.000	20.6	19	1
10/27/19	6:35 a	-9.8	-9.8	-9.8	0.0	---	0.00	0.0	-9.8	723.9	0.020	0.000	20.6	20	1
10/27/19	6:36 a	-9.7	-9.7	-9.8	0.0	---	0.00	0.0	-9.7	723.9	0.019	0.000	20.6	20	1
10/27/19	6:37 a	-9.6	-9.4	-9.6	0.0	---	0.00	0.0	-9.6	724.0	0.019	0.000	20.6	20	1
10/27/19	6:38 a	-9.3	-9.2	-9.3	0.0	---	0.00	0.0	-9.3	723.9	0.019	0.000	20.6	20	1
10/27/19	6:39 a	-9.0	-8.8	-9.1	0.0	---	0.00	0.0	-9.0	723.9	0.019	0.000	20.6	20	1
10/27/19	6:40 a	-8.6	-8.5	-8.7	0.0	---	0.00	0.0	-8.6	723.9	0.019	0.000	20.6	19	1
10/27/19	6:41 a	-8.2	-8.1	-8.3	0.0	---	0.00	0.0	-8.2	723.9	0.018	0.000	20.6	19	1
10/27/19	6:42 a	-7.8	-7.8	-7.9	0.0	---	0.00	0.0	-7.8	723.9	0.018	0.000	20.6	20	1
10/27/19	6:43 a	-7.4	-7.2	-7.6	0.0	---	0.00	0.0	-7.4	723.9	0.018	0.000	20.6	20	1
10/27/19	6:44 a	-7.1	-7.0	-7.1	0.0	---	0.00	0.0	-7.1	724.0	0.018	0.000	20.7	20	1
10/27/19	6:45 a	-6.8	-6.6	-6.9	0.0	---	0.00	0.0	-6.8	723.9	0.017	0.000	20.7	20	1
10/27/19	6:46 a	-6.6	-6.6	-6.6	0.0	---	0.00	0.0	-6.6	724.0	0.017	0.000	20.7	20	1
10/27/19	6:47 a	-6.6	-6.6	-6.6	0.0	---	0.00	0.0	-6.6	723.8	0.017	0.000	20.7	19	1
10/27/19	6:48 a	-6.6	-6.6	-6.6	0.0	---	0.00	0.0	-6.6	723.9	0.017	0.000	20.7	20	1
10/27/19	6:49 a	-6.5	-6.4	-6.6	0.0	---	0.00	0.0	-6.5	723.9	0.017	0.000	20.7	20	1
10/27/19	6:50 a	-6.4	-6.3	-6.4	0.0	---	0.00	0.0	-6.4	723.9	0.017	0.000	20.7	20	1
10/27/19	6:51 a	-6.2	-6.2	-6.3	0.0	---	0.00	0.0	-6.2	723.8	0.017	0.000	20.7	20	1
10/27/19	6:52 a	-6.2	-6.2	-6.3	0.0	---	0.00	0.0	-6.2	723.8	0.017	0.000	20.7	19	1
10/27/19	6:53 a	-6.3	-6.3	-6.4	0.0	---	0.00	0.0	-6.3	723.8	0.017	0.000	20.7	20	1
10/27/19	6:54 a	-6.7	-6.4	-6.8	0.0	---	0.00	0.0	-6.7	723.8	0.017	0.000	20.7	19	1
10/27/19	6:55 a	-6.8	-6.8	-6.8	0.0	---	0.00	0.0	-6.8	723.9	0.017	0.000	20.7	19	1
10/27/19	6:56 a	-7.2	-7.1	-7.4	0.0	---	0.00	0.0	-7.2	723.8	0.018	0.000	20.7	19	1
10/27/19	6:57 a	-7.6	-7.4	-7.7	0.0	---	0.00	0.0	-7.6	723.8	0.018	0.000	20.7	19	1
10/27/19	6:58 a	-7.9	-7.7	-8.1	0.0	---	0.00	0.0	-7.9	723.9	0.018	0.000	20.7	19	1
10/27/19	6:59 a	-8.6	-8.5	-8.7	0.0	---	0.00	0.0	-8.6	723.9	0.019	0.000	20.7	20	1
10/27/19	7:00 a	-8.6	-8.6	-8.7	0.0	---	0.00	0.0	-8.6	723.8	0.019	0.000	20.7	20	1
10/27/19	7:01 a	-8.9	-8.8	-9.2	0.0	---	0.00	0.0	-8.9	723.8	0.019	0.000	20.7	20	1
10/27/19	7:02 a	-9.3	-9.2	-9.4	0.0	---	0.00	0.0	-9.3	723.8	0.019	0.000	20.7	19	1
10/27/19	7:03 a	-9.8	-9.6	-10.1	0.0	---	0.00	0.0	-9.8	723.8	0.020	0.000	20.7	20	1
10/27/19	7:04 a	-10.3	-10.1	-10.5	0.0	---	0.00	0.0	-10.3	723.9	0.020	0.000	20.6	20	1
10/27/19	7:05 a	-10.7	-10.7	-10.9	0.0	---	0.00	0.0	-10.7	723.8	0.020	0.000	20.6	19	1
10/27/19	7:06 a	-11.1	-11.0	-11.2	0.0	---	0.00	0.0	-11.1	723.8	0.020	0.000	20.6	19	1
10/27/19	7:07 a	-11.3	-11.3	-11.3	0.0	---	0.00	0.0	-11.3	723.8	0.021	0.000	20.6	20	1
10/27/19	7:08 a	-11.4	-11.4	-11.4	0.0	---	0.00	0.0	-11.4	723.8	0.021	0.000	20.6	19	1
10/27/19	7:09 a	-11.4	-11.4	-11.5	0.0	---	0.00	0.0	-11.4	723.8	0.021	0.000	20.6	19	1
10/27/19	7:10 a	-11.4	-11.4	-11.5	0.0	---	0.00	0.0	-11.4	723.9	0.021	0.000	20.6	19	1
10/27/19	7:11 a	-11.1	-10.9	-11.3	0.0	---	0.00	0.0	-11.1	723.8	0.020	0.000	20.6	19	1
10/27/19	7:12 a	-10.7	-10.5	-10.7	0.0	---	0.00	0.0	-10.7	723.9	0.020	0.000	20.6	19	1
10/27/19	7:13 a	-10.3	-10.3	-10.4	0.0	---	0.00	0.0	-10.3	723.9	0.020	0.000	20.6	19	1
10/27/19	7:14 a	-10.5	-10.4	-10.7	0.0	---	0.00	0.0	-10.5	723.8	0.020	0.000	20.6	20	1
10/27/19	7:15 a	-11.3	-11.1	-11.7	0.0	---	0.00	0.0	-11.3	723.9	0.021	0.000	20.6	19	1
10/27/19	7:16 a	-11.9	-11.8	-12.0	0.0	---	0.00	0.0	-11.9	723.9	0.021	0.000	20.6	19	1
10/27/19	7:17 a	-12.2	-12.1	-12.3	0.0	---	0.00	0.0	-12.2	723.9	0.021	0.000	20.6	19	1
10/27/19	7:18 a	-12.5	-12.5	-12.6	0.0	---	0.00	0.0	-12.5	723.9	0.021	0.000	20.6	19	1
10/27/19	7:19 a	-12.7	-12.6	-12.8	0.0	---	0.00	0.0	-12.7	723.8	0.022	0.000	20.6	19	1
10/27/19	7:20 a	-12.9	-12.9	-12.9	0.0	---	0.00	0.0	-12.9	723.9	0.022	0.000	20.6	19	1
10/27/19	7:21 a	-13.1	-13.0	-13.1	0.0	---	0.00	0.0	-13.1	723.9	0.022	0.000	20.6	19	1
10/27/19	7:22 a	-13.1	-13.1	-13.2	0.0	---	0.00	0.0	-13.1	723.9	0.022	0.000	20.6	19	1
10/27/19	7:23 a	-13.2	-13.2	-13.3	0.0	---	0.00	0.0	-13.2	723.8	0.022	0.000	20.6	19	1
10/27/19	7:24 a	-13.4	-13.4	-13.4	0.0	---	0.00	0.0	-13.4	723.9	0.022	0.000	20.6	19	1
10/27/19	7:25 a	-13.5	-13.5	-13.5	0.0	---	0.00	0.0	-13.5	723.9	0.022	0.000	20.6	19	1
10/27/19	7:26 a	-13.5	-13.5	-13.6	0.0	---	0.00	0.0	-13.5	724.0	0.022	0.000	20.6	19	1
10/27/19	7:27 a	-13.5	-13.5	-13.6	0.0	---	0.00	0.0	-13.5	723.9	0.022	0.000	20.6	19	1
10/27/19	7:28 a	-13.5	-13.5	-13.6	0.0	---	0.00	0.0	-13.5	723.9	0.022	0.000	20.6	18	1
10/27/19	7:29 a	-13.6	-13.6	-13.6	0.0	---	0.00	0.0	-13.6	724.0	0.022	0.000	20.7	19	1
10/27/19	7:30 a	-13.6	-13.6	-13.7	0.0	---	0.00	0.0	-13.6	723.9	0.022	0.000	20.7	19	1
10/27/19	7:31 a	-13.6	-13.6	-13.7	0.0	---	0.00	0.0	-13.6	723.9	0.022	0.000	20.7	19	1
10/27/19	7:32 a	-13.6	-13.6	-13.7	0.0	---	0.00	0.0	-13.6	723.9	0.022	0.000	20.7	19	1
10/27/19	7:33 a	-13.7	-13.7	-13.7	0.0	---	0.00	0.0	-13.7	723.9	0.022	0.000	20.7	19	1
10/27/19	7:34 a	-13.6	-13.6	-13.7	0.0	---	0.00	0.0	-13.6	723.9	0.022	0.000	20.8	19	1
10/27/19	7:35 a	-13.6	-13.5	-13.7	0.0	---	0.00	0.0	-13.6	723.8	0.022	0.000	20.8	19	1
10/27/19	7:36 a	-13.7	-13.7	-13.7	0.0	---	0.00	0.0	-13.7	723.9	0.022	0.000	20.8	19	1
10/27/19	7:37 a	-13.8	-13.7	-13.8	0.0	---	0.00	0.0	-13.8	723.9	0.022	0.000	20.8	19	1
10/27/19	7:38 a	-13.7	-13.7	-13.8	0.0	---	0.00	0.0	-13.7	723.9	0.022	0.000	20.8	19	1
10/27/19	7:39 a	-13.6	-13.6	-13.7	0.0	---	0.00	0.0	-13.6	723.9	0.022	0.000	20.8	19	1
10/27/19	7:40 a	-13.4	-13.4	-13.5	0.0	---	0.00	0.0	-13.4	723.9	0.022	0.000	20.8	20	1
10/27/19	7:41 a	-13.3	-13.3	-13.4	0.0	---	0.00	0.0	-13.3	723.9	0.022	0.000	20.8	19	1
10/27/19	7:42 a	-13.3	-13.3	-13.3	0.0	---	0.00	0.0	-13.3	723.9	0.022	0.000	20.8	19	1
10/27/19	7:43 a	-13.2	-13.1	-13.2	0.0	---	0.00	0.0	-13.2	723.8	0.022	0.000	20.7	19	1
10/27/19	7:44 a	-13.1	-13.1	-13.2	0.0	---	0.00	0.0	-13.1	723.9	0.022	0.000	20.7	19	1
10/27/19	7:45 a	-13.1	-13.1	-13.1	0.0	---	0.00	0.0	-13.1	723.9	0.022	0.000	20.7	20	1
10/27/19	7:46 a	-13.1	-13.1	-13.2	0.0	---	0.00	0.0	-13.1	723.9	0.022	0.000	20.7	20	1
10/27/19	7:47 a	-13.2	-13.2	-13.2	0.0	---	0.00	0.0	-13.2	723.9	0.022	0.000	20.7	19	1
10/27/19	7:48 a	-13.1	-13.1	-13.1	0.0	---	0.00	0.0	-13.1	724.0	0.022	0.000	20.7	20	1
10/27/19	7:49 a	-13.2	-13.1	-13.2	0.0	---	0.00	0.0	-13.2	724.0	0.022	0.000	20.7	20	1
10/27/19	7:50 a	-13.1	-13.1	-13.2	0.0	---	0.00	0.0	-13.1	724.0	0.022	0.000	20.7	20	1
10/27/19	7:51 a	-13.2	-13.2	-13.2	0.0	---	0.00	0.0	-13.2	723.9	0.022	0.000	20.7	19	1
10/27/19	7:52 a	-13.2	-13.1	-13.2	0.0	---	0.00	0.0	-13.2	724.0	0.022	0.000	20.7	20	1
10/27/19	7:53 a	-13.1	-13.0	-13.1	0.0	---	0.00	0.0	-13.1	724.0	0.022	0.000	20.7	19	1
10/27/19	7:54 a	-13.0	-12.9	-13.0	0.0	---	0.00	0.0	-13.0	723.9	0.022	0.000	20.7	19	1
10/27/19	7:55 a	-12.9	-12.9	-13.0	0.0	---	0.00	0.0	-12.9	724.0	0.022	0.000	20.6	20	1
10/27/19	7:56 a	-12.9	-12.9	-12.9	0.0	---	0.00	0.0	-12.9	724.0	0.022	0.000	20.6	20	1
10/27/19	7:57 a	-12.9	-12.8	-12.9	0.0	---	0.00	0.0	-12.9	724.0	0.022	0.000	20.6	19	1
10/27/19	7:58 a	-12.9	-12.9	-12.9	0.0	---	0.00	0.0	-12.9	724.0	0.022	0.000	20.6	20	1
10/27/19	7:59 a	-12.8	-12.8	-12.9	0.0	---	0.00	0.0	-12.8	724.0	0.022	0.000	20.6	19	1
10/27/19	8:00 a	-12.7	-12.7	-12.8	0.0	---	0.00	0.0	-12.7	724.0	0.022	0.000	20.6	20	1
10/27/19	8:01 a	-12.7	-12.7	-12.7	0.0	---	0.00	0.0	-12.7	724.0	0.022	0.000	20.6	20	1
10/27/19	8:02 a	-12.7	-12.7	-12.7	0.0	---	0.00	0.0	-12.7	724.0	0.022	0.000	20.6	19	1
10/27/19	8:03 a	-12.7	-12.7	-12.7	0.0	---	0.00	0.0	-12.7	724.1	0.022	0.000	20.6	19	1
10/27/19	8:04 a	-12.7	-12.7	-12.7	0.0	---	0.00	0.0	-12.7	724.1	0.022	0.000	20.6	19	1
10/27/19	8:05 a	-12.7	-12.5	-12.7	0.0	---	0.00	0.0	-12.7	724.1	0.022	0.000	20.6	19	1
10/27/19	8:06 a	-12.4	-12.4	-12.4	0.0	---	0.00	0.0	-12.4	724.1	0.021	0.000	20.6	19	1
10/27/19	8:07 a	-12.3	-12.2	-12.4	0.0	---	0.00	0.0	-12.3	724.1	0.021	0.000	20.6	19	1
10/27/19	8:08 a	-12.2	-12.1	-12.2	0.0	---	0.00	0.0	-12.2	724.1	0.021	0.000	20.7	19	1
10/27/19	8:09 a	-12.2	-12.1	-12.3	0.0	---	0.00	0.0	-12.2	724.1	0.021	0.000	20.7	19	1
10/27/19	8:10 a	-12.2	-12.2	-12.3	0.0	---	0.00	0.0	-12.2	724.1	0.021	0.000	20.7	20	1
10/27/19	8:11 a	-12.4	-12.3	-12.4	0.0	---	0.00	0.0	-12.4	724.1	0.021	0.000	20.7	19	1
10/27/19	8:12 a	-12.4	-12.4	-12.5	0.0	---	0.00	0.0	-12.4	724.1	0.021	0.000	20.7	19	1
10/27/19	8:13 a	-12.6	-12.5	-12.6	0.0	---	0.00	0.0	-12.6	724.1	0.021	0.000	20.7	19	1
10/27/19	8:14 a	-12.6	-12.6	-12.6	0.0	---	0.00	0.0	-12.6	724.1	0.021	0.000	20.7	19	1
10/27/19	8:15 a	-12.6	-12.6	-12.6	0.0	---	0.00	0.0	-12.6	724.1	0.021	0.000	20.7	19	1
10/27/19	8:16 a	-12.6	-12.6	-12.6	0.0	---	0.00	0.0	-12.6	724.2	0.021	0.000	20.7	19	1
10/27/19	8:17 a	-12.6	-12.5	-12.6	0.0	---	0.00	0.0	-12.6	724.2	0.021	0.000	20.7	19	1
10/27/19	8:18 a	-12.5	-12.5	-12.6	0.0	---	0.00	0.0	-12.5	724.1	0.021	0.000	20.7	20	1
10/27/19	8:19 a	-12.5	-12.5	-12.6	0.0	---	0.00	0.0	-12.5	724.2	0.021	0.000	20.7	20	1
10/27/19	8:20 a	-12.6	-12.6	-12.7	0.0	---	0.00	0.0	-12.6	724.2	0.021	0.000	20.7	19	1
10/27/19	8:21 a	-12.8	-12.8	-12.8	0.0	---	0.00	0.0	-12.8	724.2	0.022	0.000	20.7	20	1
10/27/19	8:22 a	-12.8	-12.8	-12.8	0.0	---	0.00	0.0	-12.8	724.2	0.022	0.000	20.7	20	1
10/27/19	8:23 a	-12.8	-12.8	-12.9	0.0	---	0.00	0.0	-12.8	724.2	0.022	0.000	20.7	19	1
10/27/19	8:24 a	-12.9	-12.9	-13.0	0.0	---	0.00	0.0	-12.9	724.2	0.022	0.000	20.7	19	1
10/27/19	8:25 a	-13.1	-13.1	-13.1	0.0	---	0.00	0.0	-13.1	724.1	0.022	0.000	20.7	20	1
10/27/19	8:26 a	-13.1	-13.1	-13.1	0.0	---	0.00	0.0	-13.1	724.2	0.022	0.000	20.7	19	1
10/27/19	8:27 a	-13.0	-12.9	-13.1	0.0	---	0.00	0.0	-13.0	724.2	0.022	0.000	20.7	19	1
10/27/19	8:28 a	-13.0	-13.0	-13.0	0.0	---	0.00	0.0	-13.0	724.2	0.022	0.000	20.7	19	1
10/27/19	8:29 a	-13.1	-13.0	-13.1	0.0	---	0.00	0.0	-13.1	724.2	0.022	0.000	20.6	19	1
10/27/19	8:30 a	-13.1	-13.0	-13.1	0.0	---	0.00	0.0	-13.1	724.2	0.022	0.000	20.6	20	1
10/27/19	8:31 a	-13.0	-13.0	-13.1	0.0	---	0.00	0.0	-13.0	724.3	0.022	0.000	20.6	20	1
10/27/19	8:32 a	-13.1	-13.1	-13.1	0.0	---	0.00	0.0	-13.1	724.2	0.022	0.000	20.6	19	1
10/27/19	8:33 a	-13.1	-13.0	-13.1	0.0	---	0.00	0.0	-13.1	724.2	0.022	0.000	20.6	19	1
10/27/19	8:34 a	-13.1	-13.0	-13.1	0.0	---	0.00	0.0	-13.1	724.2	0.022	0.000	20.6	20	1
10/27/19	8:35 a	-13.1	-13.1	-13.1	0.0	---	0.00	0.0	-13.1	724.2	0.022	0.000	20.6	19	1
10/27/19	8:36 a	-13.1	-13.1	-13.2	0.0	---	0.00	0.0	-13.1	724.2	0.022	0.000	20.6	19	1
10/27/19	8:37 a	-13.2	-13.1	-13.2	0.0	---	0.00	0.0	-13.2	724.2	0.022	0.000	20.6	19	1
10/27/19	8:38 a	-13.2	-13.2	-13.2	0.0	---	0.00	0.0	-13.2	724.3	0.022	0.000	20.6	19	1
10/27/19	8:39 a	-13.1	-13.1	-13.1	0.0	---	0.00	0.0	-13.1	724.3	0.022	0.000	20.6	19	1
10/27/19	8:40 a	-13.1	-13.1	-13.1	0.0	---	0.00	0.0	-13.1	724.3	0.022	0.000	20.6	19	1
10/27/19	8:41 a	-13.1	-13.1	-13.2	0.0	---	0.00	0.0	-13.1	724.3	0.022	0.000	20.5	19	1
10/27/19	8:42 a	-13.2	-13.2	-13.3	0.0	---	0.00	0.0	-13.2	724.3	0.022	0.000	20.5	19	1
10/27/19	8:43 a	-13.2	-13.2	-13.3	0.0	---	0.00	0.0	-13.2	724.3	0.022	0.000	20.5	19	1
10/27/19	8:44 a	-13.2	-13.2	-13.2	0.0	---	0.00	0.0	-13.2	724.2	0.022	0.000	20.5	19	1
10/27/19	8:45 a	-13.2	-13.2	-13.2	0.0	---	0.00	0.0	-13.2	724.3	0.022	0.000	20.5	19	1
10/27/19	8:46 a	-13.2	-13.2	-13.2	0.0	---	0.00	0.0	-13.2	724.3	0.022	0.000	20.6	19	1
10/27/19	8:47 a	-13.2	-13.1	-13.2	0.0	---	0.00	0.0	-13.2	724.2	0.022	0.000	20.6	20	1
10/27/19	8:48 a	-13.2	-13.2	-13.3	0.0	---	0.00	0.0	-13.2	724.3	0.022	0.000	20.6	19	1
10/27/19	8:49 a	-13.3	-13.3	-13.3	0.0	---	0.00	0.0	-13.3	724.3	0.022	0.000	20.6	19	1
10/27/19	8:50 a	-13.3	-13.3	-13.3	0.0	---	0.00	0.0	-13.3	724.4	0.022	0.000	20.6	19	1
10/27/19	8:51 a	-13.3	-13.3	-13.3	0.0	---	0.00	0.0	-13.3	724.3	0.022	0.000	20.6	19	1
10/27/19	8:52 a	-13.3	-13.3	-13.3	0.0	---	0.00	0.0	-13.3	724.3	0.022	0.000	20.6	19	1
10/27/19	8:53 a	-13.3	-13.3	-13.3	0.0	---	0.00	0.0	-13.3	724.3	0.022	0.000	20.6	19	1
10/27/19	8:54 a	-13.3	-13.3	-13.3	0.0	---	0.00	0.0	-13.3	724.3	0.022	0.000	20.7	19	1
10/27/19	8:55 a	-13.3	-13.3	-13.3	0.0	---	0.00	0.0	-13.3	724.4	0.022	0.000	20.7	19	1
10/27/19	8:56 a	-13.3	-13.3	-13.3	0.0	---	0.00	0.0	-13.3	724.3	0.022	0.000	20.7	19	1
10/27/19	8:57 a	-13.3	-13.3	-13.3	0.0	---	0.00	0.0	-13.3	724.4	0.022	0.000	20.7	19	1
10/27/19	8:58 a	-13.3	-13.3	-13.3	0.0	---	0.00	0.0	-13.3	724.3	0.022	0.000	20.7	19	1
10/27/19	8:59 a	-13.3	-13.3	-13.3	0.0	---	0.00	0.0	-13.3	724.3	0.022	0.000	20.7	19	1
10/27/19	9:00 a	-13.3	-13.3	-13.3	0.0	---	0.00	0.0	-13.3	724.3	0.022	0.000	20.7	19	1
10/27/19	9:01 a	-13.3	-13.3	-13.3	0.0	---	0.00	0.0	-13.3	724.4	0.022	0.000	20.7	19	1
10/27/19	9:02 a	-13.3	-13.3	-13.3	0.0	---	0.00	0.0	-13.3	724.4	0.022	0.000	20.7	19	1
10/27/19	9:03 a	-13.3	-13.3	-13.3	0.0	---	0.00	0.0	-13.3	724.4	0.022	0.000	20.7	19	1
10/27/19	9:04 a	-13.3	-13.3	-13.3	0.0	---	0.00	0.0	-13.3	724.4	0.022	0.000	20.6	19	1
10/27/19	9:05 a	-13.3	-13.3	-13.3	0.0	---	0.00	0.0	-13.3	724.4	0.022	0.000	20.6	19	1
10/27/19	9:06 a	-13.3	-13.3	-13.4	0.0	---	0.00	0.0	-13.3	724.4	0.022	0.000	20.6	19	1
10/27/19	9:07 a	-13.4	-13.3	-13.4	0.0	---	0.00	0.0	-13.4	724.4	0.022	0.000	20.5	19	1
10/27/19	9:08 a	-13.4	-13.4	-13.4	0.0	---	0.00	0.0	-13.4	724.4	0.022	0.000	20.5	19	1
10/27/19	9:09 a	-13.4	-13.4	-13.4	0.0	---	0.00	0.0	-13.4	724.4	0.022	0.000	20.4	19	1
10/27/19	9:10 a	-13.4	-13.4	-13.4	0.0	---	0.00	0.0	-13.4	724.4	0.022	0.000	20.4	19	1
10/27/19	9:11 a	-13.4	-13.4	-13.4	0.0	---	0.00	0.0	-13.4	724.4	0.022	0.000	20.4	19	1
10/27/19	9:12 a	-13.4	-13.4	-13.4	0.0	---	0.00	0.0	-13.4	724.4	0.022	0.000	20.4	19	1
10/27/19	9:13 a	-13.5	-13.4	-13.5	0.0	---	0.00	0.0	-13.5	724.4	0.022	0.000	20.3	19	1
10/27/19	9:14 a	-13.5	-13.5	-13.5	0.0	---	0.00	0.0	-13.5	724.5	0.022	0.000	20.3	19	1
10/27/19	9:15 a	-13.5	-13.5	-13.5	0.0	---	0.00	0.0	-13.5	724.4	0.022	0.000	20.3	19	1
10/27/19	9:16 a	-13.5	-13.5	-13.5	0.0	---	0.00	0.0	-13.5	724.4	0.022	0.000	20.3	19	1
10/27/19	9:17 a	-13.5	-13.5	-13.5	0.0	---	0.00	0.0	-13.5	724.4	0.022	0.000	20.3	19	1
10/27/19	9:18 a	-13.6	-13.6	-13.6	0.0	---	0.00	0.0	-13.6	724.4	0.022	0.000	20.3	19	1
10/27/19	9:19 a	-13.5	-13.5	-13.6	0.0	---	0.00	0.0	-13.5	724.4	0.022	0.000	20.3	19	1
10/27/19	9:20 a	-13.5	-13.5	-13.5	0.0	---	0.00	0.0	-13.5	724.4	0.022	0.000	20.3	19	1
10/27/19	9:21 a	-13.5	-13.5	-13.5	0.0	---	0.00	0.0	-13.5	724.4	0.022	0.000	20.3	19	1
10/27/19	9:22 a	-13.5	-13.5	-13.5	0.0	---	0.00	0.0	-13.5	724.5	0.022	0.000	20.3	19	1
10/27/19	9:23 a	-13.5	-13.5	-13.6	0.0	---	0.00	0.0	-13.5	724.5	0.022	0.000	20.3	19	1
10/27/19	9:24 a	-13.6	-13.6	-13.6	0.0	---	0.00	0.0	-13.6	724.5	0.022	0.000	20.4	19	1
10/27/19	9:25 a	-13.6	-13.6	-13.6	0.0	---	0.00	0.0	-13.6	724.4	0.022	0.000	20.4	19	1
10/27/19	9:26 a	-13.6	-13.6	-13.6	0.0	---	0.00	0.0	-13.6	724.4	0.022	0.000	20.4	19	1
10/27/19	9:27 a	-13.6	-13.6	-13.6	0.0	---	0.00	0.0	-13.6	724.4	0.022	0.000	20.4	19	1
10/27/19	9:28 a	-13.6	-13.6	-13.6	0.0	---	0.00	0.0	-13.6	724.4	0.022	0.000	20.4	19	1
10/27/19	9:29 a	-13.7	-13.7	-13.7	0.0	---	0.00	0.0	-13.7	724.4	0.022	0.000	20.4	19	1
10/27/19	9:30 a	-13.7	-13.7	-13.7	0.0	---	0.00	0.0	-13.7	724.4	0.022	0.000	20.4	19	1
10/27/19	9:31 a	-13.7	-13.7	-13.7	0.0	---	0.00	0.0	-13.7	724.5	0.022	0.000	20.4	19	1
10/27/19	9:32 a	-13.7	-13.7	-13.7	0.0	---	0.00	0.0	-13.7	724.4	0.022	0.000	20.4	19	1
10/27/19	9:33 a	-13.6	-13.6	-13.7	0.0	---	0.00	0.0	-13.6	724.5	0.022	0.000	20.4	19	1
10/27/19	9:34 a	-13.6	-13.6	-13.6	0.0	---	0.00	0.0	-13.6	724.5	0.022	0.000	20.4	19	1
10/27/19	9:35 a	-13.6	-13.6	-13.6	0.0	---	0.00	0.0	-13.6	724.5	0.022	0.000	20.4	19	1
10/27/19	9:36 a	-13.6	-13.6	-13.6	0.0	---	0.00	0.0	-13.6	724.4	0.022	0.000	20.4	19	1
10/27/19	9:37 a	-13.6	-13.6	-13.6	0.0	---	0.00	0.0	-13.6	724.4	0.022	0.000	20.4	19	1
10/27/19	9:38 a	-13.6	-13.6	-13.6	0.0	---	0.00	0.0	-13.6	724.5	0.022	0.000	20.4	19	1
10/27/19	9:39 a	-13.6	-13.6	-13.6	0.0	---	0.00	0.0	-13.6	724.4	0.022	0.000	20.4	19	1
10/27/19	9:40 a	-13.6	-13.6	-13.6	0.0	---	0.00	0.0	-13.6	724.5	0.022	0.000	20.4	19	1
10/27/19	9:41 a	-13.6	-13.6	-13.6	0.0	---	0.00	0.0	-13.6	724.5	0.022	0.000	20.4	19	1
10/27/19	9:42 a	-13.6	-13.6	-13.6	0.0	---	0.00	0.0	-13.6	724.5	0.022	0.000	20.3	19	1
10/27/19	9:43 a	-13.6	-13.6	-13.6	0.0	---	0.00	0.0	-13.6	724.5	0.022	0.000	20.3	19	1
10/27/19	9:44 a	-13.6	-13.6	-13.6	0.0	---	0.00	0.0	-13.6	724.5	0.022	0.000	20.3	19	1
10/27/19	9:45 a	-13.6	-13.6	-13.6	0.0	---	0.00	0.0	-13.6	724.6	0.022	0.000	20.3	19	1
10/27/19	9:46 a	-13.6	-13.6	-13.6	0.0	---	0.00	0.0	-13.6	724.5	0.022	0.000	20.3	19	1
10/27/19	9:47 a	-13.6	-13.6	-13.6	0.0	---	0.00	0.0	-13.6	724.6	0.022	0.000	20.2	19	1
10/27/19	9:48 a	-13.6	-13.6	-13.6	0.0	---	0.00	0.0	-13.6	724.5	0.022	0.000	20.2	19	1
10/27/19	9:49 a	-13.6	-13.6	-13.6	0.0	---	0.00	0.0	-13.6	724.5	0.022	0.000	20.2	19	1
10/27/19	9:50 a	-13.6	-13.6	-13.6	0.0	---	0.00	0.0	-13.6	724.5	0.022	0.000	20.2	19	1
10/27/19	9:51 a	-13.6	-13.6	-13.6	0.0	---	0.00	0.0	-13.6	724.6	0.022	0.000	20.2	20	1
10/27/19	9:52 a	-13.6	-13.6	-13.6	0.0	---	0.00	0.0	-13.6	724.6	0.022	0.000	20.2	19	1
10/27/19	9:53 a	-13.6	-13.6	-13.6	0.0	---	0.00	0.0	-13.6	724.6	0.022	0.000	20.2	19	1
10/27/19	9:54 a	-13.6	-13.6	-13.6	0.0	---	0.00	0.0	-13.6	724.6	0.022	0.000	20.2	20	1
10/27/19	9:55 a	-13.6	-13.6	-13.6	0.0	---	0.00	0.0	-13.6	724.6	0.022	0.000	20.2	18	1
10/27/19	9:56 a	-13.6	-13.6	-13.6	0.0	---	0.00	0.0	-13.6	724.6	0.022	0.000	20.2	19	1
10/27/19	9:57 a	-13.6	-13.6	-13.6	0.0	---	0.00	0.0	-13.6	724.6	0.022	0.000	20.2	20	1
10/27/19	9:58 a	-13.6	-13.6	-13.6	0.0	---	0.00	0.0	-13.6	724.6	0.022	0.000	20.2	19	1
10/27/19	9:59 a	-13.6	-13.6	-13.6	0.0	---	0.00	0.0	-13.6	724.5	0.022	0.000	20.2	19	1
10/27/19	10:00 a	-13.6	-13.6	-13.6	0.0	---	0.00	0.0	-13.6	724.6	0.022	0.000	20.2	19	1
10/27/19	10:01 a	-13.6	-13.6	-13.7	0.0	---	0.00	0.0	-13.6	724.6	0.022	0.000	20.2	19	1
10/27/19	10:02 a	-13.7	-13.6	-13.7	0.0	---	0.00	0.0	-13.7	724.6	0.022	0.000	20.2	20	1
10/27/19	10:03 a	-13.7	-13.7	-13.7	0.0	---	0.00	0.0	-13.7	724.6	0.022	0.000	20.2	20	1
10/27/19	10:04 a	-13.7	-13.6	-13.7	0.0	---	0.00	0.0	-13.7	724.6	0.022	0.000	20.2	20	1
10/27/19	10:05 a	-13.7	-13.6	-13.7	0.0	---	0.00	0.0	-13.7	724.6	0.022	0.000	20.3	20	1
10/27/19	10:06 a	-13.6	-13.6	-13.7	0.0	---	0.00	0.0	-13.6	724.6	0.022	0.000	20.3	19	1
10/27/19	10:07 a	-13.7	-13.7	-13.7	0.0	---	0.00	0.0	-13.7	724.6	0.022	0.000	20.3	19	1
10/27/19	10:08 a	-13.7	-13.7	-13.7	0.0	---	0.00	0.0	-13.7	724.6	0.022	0.000	20.3	19	1
10/27/19	10:09 a	-13.7	-13.7	-13.7	0.0	---	0.00	0.0	-13.7	724.6	0.022	0.000	20.3	19	1
10/27/19	10:10 a	-13.7	-13.7	-13.7	0.0	---	0.00	0.0	-13.7	724.6	0.022	0.000	20.3	19	1
10/27/19	10:11 a	-13.7	-13.7	-13.7	0.0	---	0.00	0.0	-13.7	724.6	0.022	0.000	20.3	19	1
10/27/19	10:12 a	-13.7	-13.7	-13.7	0.0	---	0.00	0.0	-13.7	724.6	0.022	0.000	20.3	19	1
10/27/19	10:13 a	-13.7	-13.7	-13.7	0.0	---	0.00	0.0	-13.7	724.6	0.022	0.000	20.3	19	1
10/27/19	10:14 a	-13.7	-13.7	-13.7	0.0	---	0.00	0.0	-13.7	724.6	0.022	0.000	20.3	20	1
10/27/19	10:15 a	-13.7	-13.7	-13.7	0.0	---	0.00	0.0	-13.7	724.6	0.022	0.000	20.3	20	1
10/27/19	10:16 a	-13.7	-13.7	-13.8	0.0	---	0.00	0.0	-13.7	724.6	0.022	0.000	20.3	19	1
10/27/19	10:17 a	-13.8	-13.8	-13.8	0.0	---	0.00	0.0	-13.8	724.5	0.022	0.000	20.2	19	1
10/27/19	10:18 a	-13.8	-13.8	-13.8	0.0	---	0.00	0.0	-13.8	724.5	0.022	0.000	20.2	19	1
10/27/19	10:19 a	-13.8	-13.8	-13.8	0.0	---	0.00	0.0	-13.8	724.6	0.022	0.000	20.2	19	1
10/27/19	10:20 a	-13.8	-13.8	-13.8	0.0	---	0.00	0.0	-13.8	724.7	0.022	0.000	20.2	19	1
10/27/19	10:21 a	-13.8	-13.8	-13.8	0.0	---	0.00	0.0	-13.8	724.5	0.022	0.000	20.2	19	1
10/27/19	10:22 a	-13.8	-13.8	-13.9	0.0	---	0.00	0.0	-13.8	724.6	0.022	0.000	20.2	19	1
10/27/19	10:23 a	-13.9	-13.9	-13.9	0.0	---	0.00	0.0	-13.9	724.6	0.022	0.000	20.2	19	1
10/27/19	10:24 a	-13.9	-13.8	-13.9	0.0	---	0.00	0.0	-13.9	724.6	0.022	0.000	20.1	19	1
10/27/19	10:25 a	-13.8	-13.8	-13.8	0.0	---	0.00	0.0	-13.8	724.7	0.022	0.000	20.1	19	1
10/27/19	10:26 a	-13.8	-13.8	-13.9	0.0	---	0.00	0.0	-13.8	724.6	0.022	0.000	20.1	19	1
10/27/19	10:27 a	-13.9	-13.9	-13.9	0.0	---	0.00	0.0	-13.9	724.6	0.022	0.000	20.1	19	1
10/27/19	10:28 a	-13.9	-13.9	-14.0	0.0	---	0.00	0.0	-13.9	724.6	0.022	0.000	20.1	19	1
10/27/19	10:29 a	-14.0	-14.0	-14.1	0.0	---	0.00	0.0	-14.0	724.7	0.022	0.000	20.2	19	1
10/27/19	10:30 a	-14.1	-14.1	-14.2	0.0	---	0.00	0.0	-14.1	724.7	0.023	0.000	20.2	20	1
10/27/19	10:31 a	-14.2	-14.2	-14.2	0.0	---	0.00	0.0	-14.2	724.6	0.023	0.000	20.2	19	1
10/27/19	10:32 a	-14.2	-14.2	-14.3	0.0	---	0.00	0.0	-14.2	724.6	0.023	0.000	20.2	20	1
10/27/19	10:33 a	-14.3	-14.3	-14.3	0.0	---	0.00	0.0	-14.3	724.6	0.023	0.000	20.2	19	1
10/27/19	10:34 a	-14.3	-14.2	-14.3	0.0	---	0.00	0.0	-14.3	724.7	0.023	0.000	20.2	20	1
10/27/19	10:35 a	-14.3	-14.3	-14.3	0.0	---	0.00	0.0	-14.3	724.7	0.023	0.000	20.2	20	1
10/27/19	10:36 a	-14.3	-14.3	-14.3	0.0	---	0.00	0.0	-14.3	724.7	0.023	0.000	20.2	20	1
10/27/19	10:37 a	-14.3	-14.3	-14.3	0.0	---	0.00	0.0	-14.3	724.7	0.023	0.000	20.2	20	1
10/27/19	10:38 a	-14.3	-14.3	-14.3	0.0	---	0.00	0.0	-14.3	724.7	0.023	0.000	20.2	19	1
10/27/19	10:39 a	-14.3	-14.3	-14.3	0.0	---	0.00	0.0	-14.3	724.7	0.023	0.000	20.2	19	1
10/27/19	10:40 a	-14.3	-14.3	-14.3	0.0	---	0.00	0.0	-14.3	724.7	0.023	0.000	20.2	19	1
10/27/19	10:41 a	-14.3	-14.3	-14.3	0.0	---	0.00	0.0	-14.3	724.7	0.023	0.000	20.2	20	1
10/27/19	10:42 a	-14.3	-14.3	-14.3	0.0	---	0.00	0.0	-14.3	724.7	0.023	0.000	20.2	19	1
10/27/19	10:43 a	-14.3	-14.3	-14.4	0.0	---	0.00	0.0	-14.3	724.7	0.023	0.000	20.2	20	1
10/27/19	10:44 a	-14.4	-14.4	-14.4	0.0	---	0.00	0.0	-14.4	724.7	0.023	0.000	20.2	19	1
10/27/19	10:45 a	-14.4	-14.4	-14.4	0.0	---	0.00	0.0	-14.4	724.7	0.023	0.000	20.2	19	1
10/27/19	10:46 a	-14.4	-14.4	-14.4	0.0	---	0.00	0.0	-14.4	724.6	0.023	0.000	20.2	19	1
10/27/19	10:47 a	-14.5	-14.4	-14.5	0.0	---	0.00	0.0	-14.5	724.7	0.023	0.000	20.2	19	1
10/27/19	10:48 a	-14.4	-14.4	-14.5	0.0	---	0.00	0.0	-14.4	724.6	0.023	0.000	20.2	19	1
10/27/19	10:49 a	-14.4	-14.4	-14.4	0.0	---	0.00	0.0	-14.4	724.6	0.023	0.000	20.1	19	1
10/27/19	10:50 a	-14.4	-14.4	-14.4	0.0	---	0.00	0.0	-14.4	724.7	0.023	0.000	20.1	19	1
10/27/19	10:51 a	-14.4	-14.4	-14.4	0.0	---	0.00	0.0	-14.4	724.7	0.023	0.000	20.1	19	1
10/27/19	10:52 a	-14.4	-14.3	-14.4	0.0	---	0.00	0.0	-14.4	724.8	0.023	0.000	20.1	19	1
10/27/19	10:53 a	-14.3	-14.3	-14.3	0.0	---	0.00	0.0	-14.3	724.7	0.023	0.000	20.1	19	1
10/27/19	10:54 a	-14.3	-14.3	-14.3	0.0	---	0.00	0.0	-14.3	724.7	0.023	0.000	20.1	19	1
10/27/19	10:55 a	-14.3	-14.3	-14.3	0.0	---	0.00	0.0	-14.3	724.7	0.023	0.000	20.1	19	1
10/27/19	10:56 a	-14.3	-14.3	-14.3	0.0	---	0.00	0.0	-14.3	724.7	0.023	0.000	20.1	19	1
10/27/19	10:57 a	-14.3	-14.3	-14.3	0.0	---	0.00	0.0	-14.3	724.7	0.023	0.000	20.1	19	1
10/27/19	10:58 a	-14.3	-14.3	-14.3	0.0	---	0.00	0.0	-14.3	724.6	0.023	0.000	20.1	19	1
10/27/19	10:59 a	-14.3	-14.3	-14.3	0.0	---	0.00	0.0	-14.3	724.7	0.023	0.000	20.1	19	1
10/27/19	11:00 a	-14.3	-14.3	-14.3	0.0	---	0.00	0.0	-14.3	724.7	0.023	0.000	20.2	20	1
10/27/19	11:01 a	-14.3	-14.3	-14.3	0.0	---	0.00	0.0	-14.3	724.7	0.023	0.000	20.2	20	1
10/27/19	11:02 a	-14.3	-14.3	-14.3	0.0	---	0.00	0.0	-14.3	724.7	0.023	0.000	20.2	20	1
10/27/19	11:03 a	-14.4	-14.3	-14.4	0.0	---	0.00	0.0	-14.4	724.8	0.023	0.000	20.2	20	1
10/27/19	11:04 a	-14.4	-14.3	-14.4	0.0	---	0.00	0.0	-14.4	724.7	0.023	0.000	20.2	19	1
10/27/19	11:05 a	-14.4	-14.4	-14.4	0.0	---	0.00	0.0	-14.4	724.7	0.023	0.000	20.2	20	1
10/27/19	11:06 a	-14.4	-14.4	-14.4	0.0	---	0.00	0.0	-14.4	724.7	0.023	0.000	20.2	20	1
10/27/19	11:07 a	-14.4	-14.3	-14.4	0.0	---	0.00	0.0	-14.4	724.7	0.023	0.000	20.2	20	1
10/27/19	11:08 a	-14.4	-14.3	-14.4	0.0	---	0.00	0.0	-14.4	724.7	0.023	0.000	20.2	20	1
10/27/19	11:09 a	-14.4	-14.4	-14.4	0.0	---	0.00	0.0	-14.4	724.7	0.023	0.000	20.2	20	1
10/27/19	11:10 a	-14.4	-14.4	-14.4	0.0	---	0.00	0.0	-14.4	724.7	0.023	0.000	20.3	19	1
10/27/19	11:11 a	-14.4	-14.4	-14.4	0.0	---	0.00	0.0	-14.4	724.7	0.023	0.000	20.3	19	1
10/27/19	11:12 a	-14.4	-14.4	-14.4	0.0	---	0.00	0.0	-14.4	724.8	0.023	0.000	20.3	20	1
10/27/19	11:13 a	-14.4	-14.4	-14.4	0.0	---	0.00	0.0	-14.4	724.7	0.023	0.000	20.3	19	1
10/27/19	11:14 a	-14.4	-14.4	-14.4	0.0	---	0.00	0.0	-14.4	724.7	0.023	0.000	20.2	20	1
10/27/19	11:15 a	-14.4	-14.4	-14.4	0.0	---	0.00	0.0	-14.4	724.8	0.023	0.000	20.2	19	1
10/27/19	11:16 a	-14.4	-14.4	-14.4	0.0	---	0.00	0.0	-14.4	724.8	0.023	0.000	20.2	20	1
10/27/19	11:17 a	-14.4	-14.4	-14.4	0.0	---	0.00	0.0	-14.4	724.7	0.023	0.000	20.2	20	1
10/27/19	11:18 a	-14.4	-14.4	-14.4	0.0	---	0.00	0.0	-14.4	724.7	0.023	0.000	20.2	20	1
10/27/19	11:19 a	-14.4	-14.4	-14.4	0.0	---	0.00	0.0	-14.4	724.7	0.023	0.000	20.2	20	1
10/27/19	11:20 a	-14.4	-14.4	-14.4	0.0	---	0.00	0.0	-14.4	724.8	0.023	0.000	20.1	20	1
10/27/19	11:21 a	-14.4	-14.4	-14.4	0.0	---	0.00	0.0	-14.4	724.8	0.023	0.000	20.1	20	1
10/27/19	11:22 a	-14.4	-14.4	-14.4	0.0	---	0.00	0.0	-14.4	724.8	0.023	0.000	20.1	20	1
10/27/19	11:23 a	-14.4	-14.3	-14.4	0.0	---	0.00	0.0	-14.4	724.7	0.023	0.000	20.1	20	1
10/27/19	11:24 a	-14.3	-14.3	-14.3	0.0	---	0.00	0.0	-14.3	724.8	0.023	0.000	20.2	20	1
10/27/19	11:25 a	-14.3	-14.3	-14.3	0.0	---	0.00	0.0	-14.3	724.8	0.023	0.000	20.2	20	1
10/27/19	11:26 a	-14.4	-14.4	-14.4	0.0	---	0.00	0.0	-14.4	724.8	0.023	0.000	20.2	20	1
10/27/19	11:27 a	-14.4	-14.4	-14.4	0.0	---	0.00	0.0	-14.4	724.8	0.023	0.000	20.2	20	1
10/27/19	11:28 a	-14.4	-14.4	-14.4	0.0	---	0.00	0.0	-14.4	724.8	0.023	0.000	20.2	20	1
10/27/19	11:29 a	-14.4	-14.4	-14.4	0.0	---	0.00	0.0	-14.4	724.8	0.023	0.000	20.2	20	1
10/27/19	11:30 a	-14.4	-14.4	-14.5	0.0	---	0.00	0.0	-14.4	724.8	0.023	0.000	20.3	20	1
10/27/19	11:31 a	-14.5	-14.5	-14.5	0.0	---	0.00	0.0	-14.5	724.7	0.023	0.000	20.3	20	1
10/27/19	11:32 a	-14.5	-14.5	-14.5	0.0	---	0.00	0.0	-14.5	724.8	0.023	0.000	20.3	20	1
10/27/19	11:33 a	-14.5	-14.5	-14.5	0.0	---	0.00	0.0	-14.5	724.8	0.023	0.000	20.3	20	1
10/27/19	11:34 a	-14.5	-14.5	-14.6	0.0	---	0.00	0.0	-14.5	724.9	0.023	0.000	20.3	20	1
10/27/19	11:35 a	-14.5	-14.5	-14.5	0.0	---	0.00	0.0	-14.5	724.8	0.023	0.000	20.3	20	1
10/27/19	11:36 a	-14.6	-14.6	-14.6	0.0	---	0.00	0.0	-14.6	724.8	0.023	0.000	20.3	20	1
10/27/19	11:37 a	-14.6	-14.6	-14.6	0.0	---	0.00	0.0	-14.6	724.8	0.023	0.000	20.3	20	1
10/27/19	11:38 a	-14.6	-14.6	-14.6	0.0	---	0.00	0.0	-14.6	724.8	0.023	0.000	20.3	20	1
10/27/19	11:39 a	-14.6	-14.6	-14.6	0.0	---	0.00	0.0	-14.6	724.8	0.023	0.000	20.3	20	1
10/27/19	11:40 a	-14.6	-14.6	-14.6	0.0	---	0.00	0.0	-14.6	724.8	0.023	0.000	20.4	20	1
10/27/19	11:41 a	-14.7	-14.7	-14.7	0.0	---	0.00	0.0	-14.7	724.8	0.023	0.000	20.3	20	1
10/27/19	11:42 a	-14.7	-14.7	-14.8	0.0	---	0.00	0.0	-14.7	724.7	0.023	0.000	20.3	20	1
10/27/19	11:43 a	-14.8	-14.8	-14.8	0.0	---	0.00	0.0	-14.8	724.7	0.023	0.000	20.3	19	1
10/27/19	11:44 a	-14.8	-14.8	-14.8	0.0	---	0.00	0.0	-14.8	724.8	0.023	0.000	20.3	20	1
10/27/19	11:45 a	-14.9	-14.9	-14.9	0.0	---	0.00	0.0	-14.9	724.7	0.023	0.000	20.3	19	1
10/27/19	11:46 a	-15.0	-14.9	-15.0	0.0	---	0.00	0.0	-15.0	724.7	0.023	0.000	20.3	19	1
10/27/19	11:47 a	-15.1	-15.0	-15.1	0.0	---	0.00	0.0	-15.1	724.7	0.023	0.000	20.3	20	1
10/27/19	11:48 a	-15.2	-15.1	-15.2	0.0	---	0.00	0.0	-15.2	724.8	0.023	0.000	20.3	20	1
10/27/19	11:49 a	-15.3	-15.3	-15.3	0.0	---	0.00	0.0	-15.3	724.8	0.023	0.000	20.3	19	1
10/27/19	11:50 a	-15.4	-15.3	-15.4	0.0	---	0.00	0.0	-15.4	724.8	0.023	0.000	20.2	19	1
10/27/19	11:51 a	-15.4	-15.4	-15.5	0.0	---	0.00	0.0	-15.4	724.7	0.023	0.000	20.2	20	1
10/27/19	11:52 a	-15.5	-15.5	-15.6	0.0	---	0.00	0.0	-15.5	724.7	0.023	0.000	20.2	20	1
10/27/19	11:53 a	-15.6	-15.6	-15.6	0.0	---	0.00	0.0	-15.6	724.7	0.024	0.000	20.2	20	1
10/27/19	11:54 a	-15.6	-15.6	-15.7	0.0	---	0.00	0.0	-15.6	724.8	0.024	0.000	20.2	20	1
10/27/19	11:55 a	-15.7	-15.7	-15.7	0.0	---	0.00	0.0	-15.7	724.7	0.024	0.000	20.3	20	1
10/27/19	11:56 a	-15.7	-15.7	-15.7	0.0	---	0.00	0.0	-15.7	724.8	0.024	0.000	20.3	19	1
10/27/19	11:57 a	-15.8	-15.7	-15.8	0.0	---	0.00	0.0	-15.8	724.8	0.024	0.000	20.3	20	1
10/27/19	11:58 a	-15.8	-15.8	-15.8	0.0	---	0.00	0.0	-15.8	724.7	0.024	0.000	20.3	20	1
10/27/19	11:59 a	-15.8	-15.8	-15.8	0.0	---	0.00	0.0	-15.8	724.8	0.024	0.000	20.3	20	1
10/27/19	12:00 p	-15.8	-15.8	-15.8	0.0	---	0.00	0.0	-15.8	724.7	0.024	0.000	20.3	19	1
10/27/19	12:01 p	-15.8	-15.8	-15.9	0.0	---	0.00	0.0	-15.8	724.7	0.024	0.000	20.3	20	1
10/27/19	12:02 p	-15.9	-15.9	-15.9	0.0	---	0.00	0.0	-15.9	724.8	0.024	0.000	20.3	20	1
10/27/19	12:03 p	-15.9	-15.9	-15.9	0.0	---	0.00	0.0	-15.9	724.8	0.024	0.000	20.4	20	1
10/27/19	12:04 p	-15.9	-15.9	-15.9	0.0	---	0.00	0.0	-15.9	724.7	0.024	0.000	20.4	19	1
10/27/19	12:05 p	-15.9	-15.9	-15.9	0.0	---	0.00	0.0	-15.9	724.8	0.024	0.000	20.4	19	1
10/27/19	12:06 p	-15.9	-15.9	-15.9	0.0	---	0.00	0.0	-15.9	724.7	0.024	0.000	20.4	19	1
10/27/19	12:07 p	-16.0	-16.0	-16.0	0.0	---	0.00	0.0	-16.0	724.8	0.024	0.000	20.4	18	1
10/27/19	12:08 p	-16.0	-16.0	-16.0	0.0	---	0.00	0.0	-16.0	724.8	0.024	0.000	20.4	19	1
10/27/19	12:09 p	-16.0	-16.0	-16.1	0.0	---	0.00	0.0	-16.0	724.8	0.024	0.000	20.4	19	1
10/27/19	12:10 p	-16.0	-16.0	-16.1	0.0	---	0.00	0.0	-16.0	724.8	0.024	0.000	20.4	19	1
10/27/19	12:11 p	-16.0	-16.0	-16.0	0.0	---	0.00	0.0	-16.0	724.8	0.024	0.000	20.4	19	1
10/27/19	12:12 p	-16.0	-16.0	-16.1	0.0	---	0.00	0.0	-16.0	724.8	0.024	0.000	20.4	18	1
10/27/19	12:13 p	-16.1	-16.0	-16.1	0.0	---	0.00	0.0	-16.1	724.8	0.024	0.000	20.4	19	1
10/27/19	12:14 p	-16.1	-16.0	-16.1	0.0	---	0.00	0.0	-16.1	724.8	0.024	0.000	20.4	19	1
10/27/19	12:15 p	-16.1	-16.1	-16.1	0.0	---	0.00	0.0	-16.1	724.8	0.024	0.000	20.4	18	1
10/27/19	12:16 p	-16.1	-16.1	-16.1	0.0	---	0.00	0.0	-16.1	724.8	0.024	0.000	20.4	19	1
10/27/19	12:17 p	-16.1	-16.1	-16.1	0.0	---	0.00	0.0	-16.1	724.8	0.024	0.000	20.4	19	1
10/27/19	12:18 p	-16.1	-16.1	-16.1	0.0	---	0.00	0.0	-16.1	724.8	0.024	0.000	20.4	18	1
10/27/19	12:19 p	-16.0	-16.0	-16.1	0.0	---	0.00	0.0	-16.0	724.8	0.024	0.000	20.4	19	1
10/27/19	12:20 p	-16.0	-16.0	-16.0	0.0	---	0.00	0.0	-16.0	724.9	0.024	0.000	20.4	19	1
10/27/19	12:21 p	-16.0	-16.0	-16.1	0.0	---	0.00	0.0	-16.0	724.8	0.024	0.000	20.4	18	1
10/27/19	12:22 p	-16.1	-16.0	-16.1	0.0	---	0.00	0.0	-16.1	724.8	0.024	0.000	20.3	19	1
10/27/19	12:23 p	-16.0	-16.0	-16.0	0.0	---	0.00	0.0	-16.0	724.8	0.024	0.000	20.3	19	1
10/27/19	12:24 p	-16.0	-16.0	-16.0	0.0	---	0.00	0.0	-16.0	724.8	0.024	0.000	20.3	19	1
10/27/19	12:25 p	-16.0	-16.0	-16.0	0.0	---	0.00	0.0	-16.0	724.9	0.024	0.000	20.3	19	1
10/27/19	12:26 p	-16.0	-16.0	-16.0	0.0	---	0.00	0.0	-16.0	724.8	0.024	0.000	20.3	18	1
10/27/19	12:27 p	-16.0	-15.9	-16.0	0.0	---	0.00	0.0	-16.0	724.9	0.024	0.000	20.3	19	1
10/27/19	12:28 p	-16.0	-16.0	-16.0	0.0	---	0.00	0.0	-16.0	724.8	0.024	0.000	20.3	18	1
10/27/19	12:29 p	-15.9	-15.9	-15.9	0.0	---	0.00	0.0	-15.9	724.8	0.024	0.000	20.3	19	1
10/27/19	12:30 p	-15.9	-15.9	-15.9	0.0	---	0.00	0.0	-15.9	724.9	0.024	0.000	20.3	19	1
10/27/19	12:31 p	-15.9	-15.9	-15.9	0.0	---	0.00	0.0	-15.9	724.9	0.024	0.000	20.3	19	1
10/27/19	12:32 p	-15.9	-15.9	-15.9	0.0	---	0.00	0.0	-15.9	724.9	0.024	0.000	20.3	19	1
10/27/19	12:33 p	-15.8	-15.8	-15.9	0.0	---	0.00	0.0	-15.8	724.8	0.024	0.000	20.3	18	1
10/27/19	12:34 p	-15.8	-15.8	-15.8	0.0	---	0.00	0.0	-15.8	724.8	0.024	0.000	20.3	19	1
10/27/19	12:35 p	-15.8	-15.8	-15.8	0.0	---	0.00	0.0	-15.8	724.8	0.024	0.000	20.4	19	1
10/27/19	12:36 p	-15.8	-15.8	-15.8	0.0	---	0.00	0.0	-15.8	724.9	0.024	0.000	20.4	19	1
10/27/19	12:37 p	-15.7	-15.7	-15.7	0.0	---	0.00	0.0	-15.7	724.8	0.024	0.000	20.4	20	1
10/27/19	12:38 p	-15.7	-15.7	-15.7	0.0	---	0.00	0.0	-15.7	724.8	0.024	0.000	20.4	18	1
10/27/19	12:39 p	-15.7	-15.7	-15.7	0.0	---	0.00	0.0	-15.7	724.8	0.024	0.000	20.4	19	1
10/27/19	12:40 p	-15.7	-15.7	-15.7	0.0	---	0.00	0.0	-15.7	724.9	0.024	0.000	20.4	18	1
10/27/19	12:41 p	-15.6	-15.6	-15.6	0.0	---	0.00	0.0	-15.6	724.9	0.024	0.000	20.4	19	1
10/27/19	12:42 p	-15.6	-15.6	-15.6	0.0	---	0.00	0.0	-15.6	724.9	0.024	0.000	20.4	19	1
10/27/19	12:43 p	-15.6	-15.6	-15.6	0.0	---	0.00	0.0	-15.6	724.9	0.024	0.000	20.4	19	1
10/27/19	12:44 p	-15.5	-15.5	-15.6	0.0	---	0.00	0.0	-15.5	724.8	0.023	0.000	20.5	19	1
10/27/19	12:45 p	-15.5	-15.5	-15.5	0.0	---	0.00	0.0	-15.5	724.8	0.023	0.000	20.5	18	1
10/27/19	12:46 p	-15.5	-15.5	-15.5	0.0	---	0.00	0.0	-15.5	724.8	0.023	0.000	20.5	18	1
10/27/19	12:47 p	-15.5	-15.5	-15.5	0.0	---	0.00	0.0	-15.5	724.9	0.023	0.000	20.5	19	1
10/27/19	12:48 p	-15.4	-15.4	-15.4	0.0	---	0.00	0.0	-15.4	724.9	0.023	0.000	20.5	19	1
10/27/19	12:49 p	-15.4	-15.4	-15.4	0.0	---	0.00	0.0	-15.4	724.9	0.023	0.000	20.6	19	1
10/27/19	12:50 p	-15.4	-15.4	-15.4	0.0	---	0.00	0.0	-15.4	724.8	0.023	0.000	20.6	19	1
10/27/19	12:51 p	-15.4	-15.4	-15.4	0.0	---	0.00	0.0	-15.4	724.9	0.023	0.000	20.6	18	1
10/27/19	12:52 p	-15.4	-15.4	-15.4	0.0	---	0.00	0.0	-15.4	724.9	0.023	0.000	20.6	19	1
10/27/19	12:53 p	-15.4	-15.4	-15.4	0.0	---	0.00	0.0	-15.4	724.9	0.023	0.000	20.6	19	1
10/27/19	12:54 p	-15.4	-15.4	-15.4	0.0	---	0.00	0.0	-15.4	724.8	0.023	0.000	20.6	19	1
10/27/19	12:55 p	-15.4	-15.3	-15.4	0.0	---	0.00	0.0	-15.4	724.9	0.023	0.000	20.6	18	1
10/27/19	12:56 p	-15.3	-15.3	-15.4	0.0	---	0.00	0.0	-15.3	724.9	0.023	0.000	20.5	19	1
10/27/19	12:57 p	-15.3	-15.3	-15.3	0.0	---	0.00	0.0	-15.3	724.9	0.023	0.000	20.5	19	1
10/27/19	12:58 p	-15.3	-15.3	-15.3	0.0	---	0.00	0.0	-15.3	724.9	0.023	0.000	20.5	18	1
10/27/19	12:59 p	-15.3	-15.3	-15.3	0.0	---	0.00	0.0	-15.3	724.9	0.023	0.000	20.5	18	1
10/27/19	1:00 p	-15.3	-15.3	-15.3	0.0	---	0.00	0.0	-15.3	724.9	0.023	0.000	20.5	19	1
10/27/19	1:01 p	-15.3	-15.3	-15.3	0.0	---	0.00	0.0	-15.3	724.9	0.023	0.000	20.4	18	1
10/27/19	1:02 p	-15.3	-15.3	-15.3	0.0	---	0.00	0.0	-15.3	724.9	0.023	0.000	20.4	19	1
10/27/19	1:03 p	-15.3	-15.3	-15.3	0.0	---	0.00	0.0	-15.3	725.0	0.023	0.000	20.4	19	1
10/27/19	1:04 p	-15.3	-15.3	-15.3	0.0	---	0.00	0.0	-15.3	725.0	0.023	0.000	20.4	19	1
10/27/19	1:05 p	-15.3	-15.3	-15.3	0.0	---	0.00	0.0	-15.3	724.9	0.023	0.000	20.4	18	1
10/27/19	1:06 p	-15.3	-15.3	-15.3	0.0	---	0.00	0.0	-15.3	724.9	0.023	0.000	20.4	20	1
10/27/19	1:07 p	-15.3	-15.3	-15.3	0.0	---	0.00	0.0	-15.3	725.0	0.023	0.000	20.4	19	1
10/27/19	1:08 p	-15.3	-15.3	-15.3	0.0	---	0.00	0.0	-15.3	725.0	0.023	0.000	20.4	19	1
10/27/19	1:09 p	-15.3	-15.3	-15.3	0.0	---	0.00	0.0	-15.3	725.0	0.023	0.000	20.4	19	1
10/27/19	1:10 p	-15.3	-15.3	-15.3	0.0	---	0.00	0.0	-15.3	725.0	0.023	0.000	20.4	19	1
10/27/19	1:11 p	-15.3	-15.3	-15.3	0.0	---	0.00	0.0	-15.3	724.9	0.023	0.000	20.4	18	1
10/27/19	1:12 p	-15.3	-15.3	-15.3	0.0	---	0.00	0.0	-15.3	725.0	0.023	0.000	20.5	18	1
10/27/19	1:13 p	-15.3	-15.3	-15.3	0.0	---	0.00	0.0	-15.3	725.0	0.023	0.000	20.5	19	1
10/27/19	1:14 p	-15.3	-15.3	-15.3	0.0	---	0.00	0.0	-15.3	724.9	0.023	0.000	20.5	19	1
10/27/19	1:15 p	-15.3	-15.2	-15.3	0.0	---	0.00	0.0	-15.3	725.0	0.023	0.000	20.5	19	1
10/27/19	1:16 p	-15.2	-15.1	-15.2	0.0	---	0.00	0.0	-15.2	725.0	0.023	0.000	20.6	19	1
10/27/19	1:17 p	-14.9	-14.9	-15.0	0.0	---	0.00	0.0	-14.9	725.1	0.023	0.000	20.6	19	1
10/27/19	1:18 p	-14.8	-14.8	-14.8	0.0	---	0.00	0.0	-14.8	725.0	0.023	0.000	20.6	19	1
10/27/19	1:19 p	-14.8	-14.8	-14.8	0.0	---	0.00	0.0	-14.8	725.0	0.023	0.000	20.6	19	1
10/27/19	1:20 p	-14.8	-14.8	-14.8	0.0	---	0.00	0.0	-14.8	725.0	0.023	0.000	20.6	19	1
10/27/19	1:21 p	-14.8	-14.8	-14.8	0.0	---	0.00	0.0	-14.8	725.0	0.023	0.000	20.6	19	1
10/27/19	1:22 p	-14.8	-14.8	-14.8	0.0	---	0.00	0.0	-14.8	725.0	0.023	0.000	20.6	19	1
10/27/19	1:23 p	-14.8	-14.8	-14.8	0.0	---	0.00	0.0	-14.8	725.0	0.023	0.000	20.6	19	1
10/27/19	1:24 p	-14.8	-14.8	-14.8	0.0	---	0.00	0.0	-14.8	725.0	0.023	0.000	20.6	19	1
10/27/19	1:25 p	-14.8	-14.8	-14.8	0.0	---	0.00	0.0	-14.8	724.9	0.023	0.000	20.6	19	1
10/27/19	1:26 p	-14.8	-14.8	-14.8	0.0	---	0.00	0.0	-14.8	725.0	0.023	0.000	20.6	19	1
10/27/19	1:27 p	-14.8	-14.7	-14.8	0.0	---	0.00	0.0	-14.8	725.0	0.023	0.000	20.6	19	1
10/27/19	1:28 p	-14.8	-14.8	-14.8	0.0	---	0.00	0.0	-14.8	725.0	0.023	0.000	20.5	19	1
10/27/19	1:29 p	-14.8	-14.8	-14.8	0.0	---	0.00	0.0	-14.8	725.0	0.023	0.000	20.5	20	1
10/27/19	1:30 p	-14.8	-14.8	-14.8	0.0	---	0.00	0.0	-14.8	725.0	0.023	0.000	20.5	20	1
10/27/19	1:31 p	-14.8	-14.8	-14.8	0.0	---	0.00	0.0	-14.8	725.0	0.023	0.000	20.5	20	1
10/27/19	1:32 p	-14.8	-14.8	-14.8	0.0	---	0.00	0.0	-14.8	725.0	0.023	0.000	20.5	19	1
10/27/19	1:33 p	-14.8	-14.8	-14.9	0.0	---	0.00	0.0	-14.8	725.0	0.023	0.000	20.4	19	1
10/27/19	1:34 p	-14.8	-14.8	-14.8	0.0	---	0.00	0.0	-14.8	725.1	0.023	0.000	20.4	19	1
10/27/19	1:35 p	-14.8	-14.8	-14.8	0.0	---	0.00	0.0	-14.8	725.1	0.023	0.000	20.4	20	1
10/27/19	1:36 p	-14.9	-14.8	-14.9	0.0	---	0.00	0.0	-14.9	725.1	0.023	0.000	20.4	19	1
10/27/19	1:37 p	-14.9	-14.8	-14.9	0.0	---	0.00	0.0	-14.9	725.0	0.023	0.000	20.4	20	1
10/27/19	1:38 p	-14.9	-14.9	-14.9	0.0	---	0.00	0.0	-14.9	725.0	0.023	0.000	20.4	19	1
10/27/19	1:39 p	-14.9	-14.9	-14.9	0.0	---	0.00	0.0	-14.9	725.1	0.023	0.000	20.4	19	1
10/27/19	1:40 p	-14.9	-14.9	-14.9	0.0	---	0.00	0.0	-14.9	725.0	0.023	0.000	20.4	19	1
10/27/19	1:41 p	-14.9	-14.9	-14.9	0.0	---	0.00	0.0	-14.9	725.1	0.023	0.000	20.4	19	1
10/27/19	1:42 p	-14.9	-14.9	-14.9	0.0	---	0.00	0.0	-14.9	725.1	0.023	0.000	20.4	20	1
10/27/19	1:43 p	-14.9	-14.9	-14.9	0.0	---	0.00	0.0	-14.9	725.1	0.023	0.000	20.4	19	1
10/27/19	1:44 p	-15.0	-14.9	-15.0	0.0	---	0.00	0.0	-15.0	725.0	0.023	0.000	20.4	20	1
10/27/19	1:45 p	-15.1	-15.1	-15.1	0.0	---	0.00	0.0	-15.1	725.1	0.023	0.000	20.4	20	1
10/27/19	1:46 p	-15.2	-15.2	-15.2	0.0	---	0.00	0.0	-15.2	725.1	0.023	0.000	20.4	19	1
10/27/19	1:47 p	-15.3	-15.2	-15.3	0.0	---	0.00	0.0	-15.3	725.0	0.023	0.000	20.5	19	1
10/27/19	1:48 p	-15.4	-15.3	-15.4	0.0	---	0.00	0.0	-15.4	725.1	0.023	0.000	20.5	19	1
10/27/19	1:49 p	-15.4	-15.4	-15.4	0.0	---	0.00	0.0	-15.4	725.1	0.023	0.000	20.5	18	1
10/27/19	1:50 p	-15.5	-15.4	-15.5	0.0	---	0.00	0.0	-15.5	725.1	0.023	0.000	20.5	19	1
10/27/19	1:51 p	-15.6	-15.5	-15.6	0.0	---	0.00	0.0	-15.6	725.1	0.024	0.000	20.5	19	1
10/27/19	1:52 p	-15.6	-15.6	-15.6	0.0	---	0.00	0.0	-15.6	725.1	0.024	0.000	20.6	19	1
10/27/19	1:53 p	-15.6	-15.6	-15.6	0.0	---	0.00	0.0	-15.6	725.1	0.024	0.000	20.6	20	1
10/27/19	1:54 p	-15.7	-15.7	-15.7	0.0	---	0.00	0.0	-15.7	725.0	0.024	0.000	20.6	19	1
10/27/19	1:55 p	-15.7	-15.7	-15.8	0.0	---	0.00	0.0	-15.7	725.1	0.024	0.000	20.6	19	1
10/27/19	1:56 p	-15.8	-15.8	-15.8	0.0	---	0.00	0.0	-15.8	725.0	0.024	0.000	20.6	20	1
10/27/19	1:57 p	-15.8	-15.8	-15.8	0.0	---	0.00	0.0	-15.8	725.1	0.024	0.000	20.6	19	1
10/27/19	1:58 p	-15.8	-15.8	-15.9	0.0	---	0.00	0.0	-15.8	725.1	0.024	0.000	20.6	19	1
10/27/19	1:59 p	-15.9	-15.8	-15.9	0.0	---	0.00	0.0	-15.9	725.1	0.024	0.000	20.5	19	1
10/27/19	2:00 p	-15.9	-15.9	-15.9	0.0	---	0.00	0.0	-15.9	725.1	0.024	0.000	20.5	19	1
10/27/19	2:01 p	-15.9	-15.9	-15.9	0.0	---	0.00	0.0	-15.9	725.0	0.024	0.000	20.5	19	1
10/27/19	2:02 p	-15.9	-15.9	-16.0	0.0	---	0.00	0.0	-15.9	725.1	0.024	0.000	20.4	19	1
10/27/19	2:03 p	-16.0	-16.0	-16.1	0.0	---	0.00	0.0	-16.0	725.1	0.024	0.000	20.4	19	1
10/27/19	2:04 p	-16.1	-16.1	-16.1	0.0	---	0.00	0.0	-16.1	725.0	0.024	0.000	20.4	19	1
10/27/19	2:05 p	-16.1	-16.1	-16.1	0.0	---	0.00	0.0	-16.1	725.1	0.024	0.000	20.4	19	1
10/27/19	2:06 p	-16.2	-16.2	-16.2	0.0	---	0.00	0.0	-16.2	725.0	0.024	0.000	20.4	19	1
10/27/19	2:07 p	-16.2	-16.2	-16.2	0.0	---	0.00	0.0	-16.2	725.0	0.024	0.000	20.4	19	1
10/27/19	2:08 p	-16.2	-16.2	-16.2	0.0	---	0.00	0.0	-16.2	725.0	0.024	0.000	20.3	19	1
10/27/19	2:09 p	-16.2	-16.2	-16.2	0.0	---	0.00	0.0	-16.2	725.1	0.024	0.000	20.3	20	1
10/27/19	2:10 p	-16.2	-16.2	-16.2	0.0	---	0.00	0.0	-16.2	725.1	0.024	0.000	20.3	19	1
10/27/19	2:11 p	-16.2	-16.2	-16.2	0.0	---	0.00	0.0	-16.2	725.0	0.024	0.000	20.3	20	1
10/27/19	2:12 p	-16.2	-16.2	-16.2	0.0	---	0.00	0.0	-16.2	725.0	0.024	0.000	20.4	19	1
10/27/19	2:13 p	-16.3	-16.2	-16.3	0.0	---	0.00	0.0	-16.3	725.0	0.024	0.000	20.4	19	1
10/27/19	2:14 p	-16.3	-16.3	-16.3	0.0	---	0.00	0.0	-16.3	725.1	0.024	0.000	20.4	19	1
10/27/19	2:15 p	-16.3	-16.3	-16.3	0.0	---	0.00	0.0	-16.3	725.0	0.024	0.000	20.4	19	1
10/27/19	2:16 p	-16.3	-16.3	-16.4	0.0	---	0.00	0.0	-16.3	725.0	0.024	0.000	20.4	20	1
10/27/19	2:17 p	-16.4	-16.4	-16.4	0.0	---	0.00	0.0	-16.4	725.0	0.024	0.000	20.4	19	1
10/27/19	2:18 p	-16.5	-16.5	-16.6	0.0	---	0.00	0.0	-16.5	725.0	0.024	0.000	20.4	19	1
10/27/19	2:19 p	-16.6	-16.6	-16.7	0.0	---	0.00	0.0	-16.6	725.0	0.024	0.000	20.4	19	1
10/27/19	2:20 p	-16.9	-16.7	-17.1	0.0	---	0.00	0.0	-16.9	725.0	0.024	0.000	20.4	19	1
10/27/19	2:21 p	-17.2	-17.1	-17.2	0.0	---	0.00	0.0	-17.2	725.0	0.025	0.000	20.4	19	1
10/27/19	2:22 p	-17.4	-17.2	-17.6	0.0	---	0.00	0.0	-17.4	725.1	0.025	0.000	20.4	19	1
10/27/19	2:23 p	-17.6	-17.6	-17.7	0.0	---	0.00	0.0	-17.6	725.0	0.025	0.000	20.4	19	1
10/27/19	2:24 p	-17.8	-17.7	-17.9	0.0	---	0.00	0.0	-17.8	725.0	0.025	0.000	20.4	20	1
10/27/19	2:25 p	-18.0	-17.9	-18.1	0.0	---	0.00	0.0	-17.9	725.0	0.025	0.000	20.5	20	1
10/27/19	2:26 p	-18.1	-18.1	-18.2	0.0	---	0.00	0.0	-18.1	725.0	0.025	0.000	20.5	20	1
10/27/19	2:27 p	-18.2	-18.2	-18.2	0.0	---	0.00	0.0	-18.2	725.0	0.025	0.000	20.5	19	1
10/27/19	2:28 p	-18.3	-18.2	-18.4	0.0	---	0.00	0.0	-18.2	725.0	0.025	0.000	20.5	20	1
10/27/19	2:29 p	-18.4	-18.4	-18.4	0.0	---	0.00	0.0	-18.3	725.0	0.026	0.000	20.5	19	1
10/27/19	2:30 p	-18.4	-18.4	-18.5	0.0	---	0.00	0.0	-18.4	725.0	0.026	0.000	20.5	19	1
10/27/19	2:31 p	-18.5	-18.4	-18.5	0.0	---	0.00	0.0	-18.4	725.0	0.026	0.000	20.5	19	1
10/27/19	2:32 p	-18.5	-18.5	-18.6	0.0	---	0.00	0.0	-18.4	724.9	0.026	0.000	20.5	19	1
10/27/19	2:33 p	-18.6	-18.5	-18.6	0.0	---	0.00	0.0	-18.5	724.9	0.026	0.000	20.5	19	1
10/27/19	2:34 p	-18.5	-18.5	-18.5	0.0	---	0.00	0.0	-18.4	724.9	0.026	0.000	20.4	19	1
10/27/19	2:35 p	-18.5	-18.5	-18.6	0.0	---	0.00	0.0	-18.4	724.9	0.026	0.000	20.4	20	1
10/27/19	2:36 p	-18.4	-18.3	-18.5	0.0	---	0.00	0.0	-18.3	724.9	0.026	0.000	20.4	19	1
10/27/19	2:37 p	-18.3	-18.2	-18.3	0.0	---	0.00	0.0	-18.2	724.8	0.025	0.000	20.4	19	1
10/27/19	2:38 p	-18.2	-18.1	-18.2	0.0	---	0.00	0.0	-18.1	724.9	0.025	0.000	20.3	19	1
10/27/19	2:39 p	-18.1	-18.1	-18.1	0.0	---	0.00	0.0	-18.0	724.9	0.025	0.000	20.3	19	1
10/27/19	2:40 p	-18.1	-18.1	-18.1	0.0	---	0.00	0.0	-18.1	724.9	0.025	0.000	20.3	19	1
10/27/19	2:41 p	-18.1	-18.1	-18.1	0.0	---	0.00	0.0	-18.0	725.0	0.025	0.000	20.2	19	1
10/27/19	2:42 p	-18.2	-18.1	-18.2	0.0	---	0.00	0.0	-18.1	724.8	0.025	0.000	20.2	19	1
10/27/19	2:43 p	-18.1	-18.1	-18.2	0.0	---	0.00	0.0	-18.1	724.9	0.025	0.000	20.2	19	1
10/27/19	2:44 p	-18.1	-18.0	-18.1	0.0	---	0.00	0.0	-18.0	724.8	0.025	0.000	20.2	19	1
10/27/19	2:45 p	-18.0	-18.0	-18.1	0.0	---	0.00	0.0	-17.9	724.8	0.025	0.000	20.2	19	1
10/27/19	2:46 p	-17.9	-17.9	-17.9	0.0	---	0.00	0.0	-17.9	724.9	0.025	0.000	20.2	20	1
10/27/19	2:47 p	-17.8	-17.8	-17.9	0.0	---	0.00	0.0	-17.8	724.8	0.025	0.000	20.2	19	1
10/27/19	2:48 p	-17.8	-17.7	-17.8	0.0	---	0.00	0.0	-17.8	724.7	0.025	0.000	20.2	19	1
10/27/19	2:49 p	-17.7	-17.7	-17.7	0.0	---	0.00	0.0	-17.7	724.9	0.025	0.000	20.2	19	1
10/27/19	2:50 p	-17.6	-17.6	-17.7	0.0	---	0.00	0.0	-17.6	724.8	0.025	0.000	20.3	19	1
10/27/19	2:51 p	-17.6	-17.6	-17.6	0.0	---	0.00	0.0	-17.6	724.8	0.025	0.000	20.3	19	1
10/27/19	2:52 p	-17.6	-17.6	-17.6	0.0	---	0.00	0.0	-17.6	724.8	0.025	0.000	20.3	19	1
10/27/19	2:53 p	-17.6	-17.5	-17.6	0.0	---	0.00	0.0	-17.6	724.8	0.025	0.000	20.3	20	1
10/27/19	2:54 p	-17.5	-17.5	-17.5	0.0	---	0.00	0.0	-17.5	724.8	0.025	0.000	20.3	20	1
10/27/19	2:55 p	-17.5	-17.5	-17.5	0.0	---	0.00	0.0	-17.5	724.9	0.025	0.000	20.3	19	1
10/27/19	2:56 p	-17.4	-17.4	-17.4	0.0	---	0.00	0.0	-17.4	724.8	0.025	0.000	20.3	19	1
10/27/19	2:57 p	-17.4	-17.4	-17.4	0.0	---	0.00	0.0	-17.4	724.7	0.025	0.000	20.3	20	1
10/27/19	2:58 p	-17.5	-17.5	-17.5	0.0	---	0.00	0.0	-17.5	724.7	0.025	0.000	20.3	20	1
10/27/19	2:59 p	-17.6	-17.5	-17.7	0.0	---	0.00	0.0	-17.6	724.7	0.025	0.000	20.3	19	1
10/27/19	3:00 p	-17.8	-17.8	-17.9	0.0	---	0.00	0.0	-17.8	724.7	0.025	0.000	20.3	19	1
10/27/19	3:01 p	-17.9	-17.9	-18.0	0.0	---	0.00	0.0	-17.9	724.7	0.025	0.000	20.3	19	1
10/27/19	3:02 p	-18.1	-18.0	-18.1	0.0	---	0.00	0.0	-18.0	724.7	0.025	0.000	20.3	20	1
10/27/19	3:03 p	-18.2	-18.2	-18.3	0.0	---	0.00	0.0	-18.2	724.6	0.025	0.000	20.3	20	1
10/27/19	3:04 p	-18.3	-18.3	-18.3	0.0	---	0.00	0.0	-18.2	724.5	0.025	0.000	20.3	20	1
10/27/19	3:05 p	-18.3	-18.3	-18.4	0.0	---	0.00	0.0	-18.3	724.5	0.025	0.000	20.3	19	1
10/27/19	3:06 p	-18.4	-18.4	-18.4	0.0	---	0.00	0.0	-18.3	724.6	0.026	0.000	20.3	19	1
10/27/19	3:07 p	-18.5	-18.4	-18.6	0.0	---	0.00	0.0	-18.4	724.5	0.026	0.000	20.3	19	1
10/27/19	3:08 p	-18.7	-18.6	-18.8	0.0	---	0.00	0.0	-18.6	724.6	0.026	0.000	20.3	19	1
10/27/19	3:09 p	-19.0	-18.9	-19.1	0.0	---	0.00	0.0	-18.9	724.5	0.026	0.000	20.3	19	1
10/27/19	3:10 p	-19.2	-19.2	-19.2	0.0	---	0.00	0.0	-19.1	724.4	0.026	0.000	20.2	18	1
10/27/19	3:11 p	-19.3	-19.3	-19.3	0.0	---	0.00	0.0	-19.2	724.5	0.026	0.000	20.2	18	1
10/27/19	3:12 p	-19.3	-19.3	-19.4	0.0	---	0.00	0.0	-19.3	724.4	0.026	0.000	20.2	18	1
10/27/19	3:13 p	-19.4	-19.3	-19.4	0.0	---	0.00	0.0	-19.3	724.4	0.026	0.000	20.2	19	1
10/27/19	3:14 p	-19.4	-19.3	-19.4	0.0	---	0.00	0.0	-19.3	724.4	0.026	0.000	20.2	19	1
10/27/19	3:15 p	-19.3	-19.3	-19.3	0.0	---	0.00	0.0	-19.3	724.4	0.026	0.000	20.1	19	1
10/27/19	3:16 p	-19.3	-19.3	-19.3	0.0	---	0.00	0.0	-19.2	724.4	0.026	0.000	20.1	19	1
10/27/19	3:17 p	-19.2	-19.2	-19.3	0.0	---	0.00	0.0	-19.2	724.4	0.026	0.000	20.1	19	1
10/27/19	3:18 p	-19.3	-19.3	-19.3	0.0	---	0.00	0.0	-19.2	724.4	0.026	0.000	20.1	19	1
10/27/19	3:19 p	-19.4	-19.4	-19.4	0.0	---	0.00	0.0	-19.4	724.4	0.026	0.000	20.2	19	1
10/27/19	3:20 p	-19.4	-19.4	-19.5	0.0	---	0.00	0.0	-19.4	724.2	0.026	0.000	20.2	19	1
10/27/19	3:21 p	-19.5	-19.4	-19.5	0.0	---	0.00	0.0	-19.4	724.3	0.026	0.000	20.2	19	1
10/27/19	3:22 p	-19.5	-19.5	-19.5	0.0	---	0.00	0.0	-19.4	724.2	0.026	0.000	20.1	19	1
10/27/19	3:23 p	-19.6	-19.5	-19.6	0.0	---	0.00	0.0	-19.5	724.2	0.026	0.000	20.1	19	1
10/27/19	3:24 p	-19.5	-19.4	-19.6	0.0	---	0.00	0.0	-19.4	724.2	0.026	0.000	20.1	19	1
10/27/19	3:25 p	-19.4	-19.4	-19.4	0.0	---	0.00	0.0	-19.4	724.2	0.026	0.000	20.2	19	1
10/27/19	3:26 p	-19.4	-19.4	-19.5	0.0	---	0.00	0.0	-19.4	724.3	0.026	0.000	20.2	19	1
10/27/19	3:27 p	-19.6	-19.5	-19.6	0.0	---	0.00	0.0	-19.5	724.2	0.026	0.000	20.2	19	1
10/27/19	3:28 p	-19.6	-19.6	-19.6	0.0	---	0.00	0.0	-19.6	724.1	0.026	0.000	20.2	19	1
10/27/19	3:29 p	-19.6	-19.6	-19.6	0.0	---	0.00	0.0	-19.6	724.2	0.026	0.000	20.2	19	1
10/27/19	3:30 p	-19.7	-19.6	-19.7	0.0	---	0.00	0.0	-19.6	724.2	0.026	0.000	20.2	19	1
10/27/19	3:31 p	-19.7	-19.6	-19.7	0.0	---	0.00	0.0	-19.6	724.1	0.026	0.000	20.2	19	1
10/27/19	3:32 p	-19.7	-19.7	-19.7	0.0	---	0.00	0.0	-19.6	724.2	0.026	0.000	20.2	19	1
10/27/19	3:33 p	-19.7	-19.7	-19.7	0.0	---	0.00	0.0	-19.7	724.1	0.026	0.000	20.2	19	1
10/27/19	3:34 p	-19.7	-19.7	-19.7	0.0	---	0.00	0.0	-19.6	724.2	0.026	0.000	20.2	19	1
10/27/19	3:35 p	-19.8	-19.7	-19.8	0.0	---	0.00	0.0	-19.7	724.2	0.026	0.000	20.2	19	1
10/27/19	3:36 p	-19.8	-19.8	-19.8	0.0	---	0.00	0.0	-19.8	724.1	0.027	0.000	20.2	19	1
10/27/19	3:37 p	-19.9	-19.8	-19.9	0.0	---	0.00	0.0	-19.8	724.1	0.027	0.000	20.2	19	1
10/27/19	3:38 p	-20.0	-19.9	-20.0	0.0	---	0.00	0.0	-19.9	724.1	0.027	0.000	20.2	19	1
10/27/19	3:39 p	-19.9	-19.8	-19.9	0.0	---	0.00	0.0	-19.8	724.1	0.027	0.000	20.2	19	1
10/27/19	3:40 p	-19.8	-19.8	-19.8	0.0	---	0.00	0.0	-19.7	724.1	0.026	0.000	20.1	19	1
10/27/19	3:41 p	-19.8	-19.8	-19.8	0.0	---	0.00	0.0	-19.7	724.2	0.026	0.000	20.1	19	1
10/27/19	3:42 p	-19.9	-19.8	-19.9	0.0	---	0.00	0.0	-19.8	724.2	0.027	0.000	20.1	19	1
10/27/19	3:43 p	-20.0	-19.9	-20.0	0.0	---	0.00	0.0	-19.9	724.2	0.027	0.000	20.1	18	1
10/27/19	3:44 p	-20.0	-19.9	-20.0	0.0	---	0.00	0.0	-19.9	724.2	0.027	0.000	20.1	19	1
10/27/19	3:45 p	-19.9	-19.9	-19.9	0.0	---	0.00	0.0	-19.9	724.2	0.027	0.000	20.0	19	1
10/27/19	3:46 p	-19.9	-19.9	-20.0	0.0	---	0.00	0.0	-19.9	724.2	0.027	0.000	19.9	19	1
10/27/19	3:47 p	-20.0	-20.0	-20.0	0.0	---	0.00	0.0	-19.9	724.2	0.027	0.000	19.9	19	1
10/27/19	3:48 p	-20.1	-20.0	-20.1	0.0	---	0.00	0.0	-20.0	724.1	0.027	0.000	19.9	19	1
10/27/19	3:49 p	-20.1	-20.1	-20.1	0.0	---	0.00	0.0	-20.0	724.1	0.027	0.000	19.9	18	1
10/27/19	3:50 p	-20.1	-20.1	-20.1	0.0	---	0.00	0.0	-20.1	724.1	0.027	0.000	19.9	19	1
10/27/19	3:51 p	-20.1	-20.1	-20.2	0.0	---	0.00	0.0	-20.1	724.1	0.027	0.000	19.9	19	1
10/27/19	3:52 p	-20.2	-20.2	-20.2	0.0	---	0.00	0.0	-20.2	724.2	0.027	0.000	19.9	19	1
10/27/19	3:53 p	-20.2	-20.2	-20.2	0.0	---	0.00	0.0	-20.2	724.2	0.027	0.000	19.9	19	1
10/27/19	3:54 p	-20.2	-20.1	-20.2	0.0	---	0.00	0.0	-20.2	724.1	0.027	0.000	19.9	19	1
10/27/19	3:55 p	-20.1	-20.1	-20.1	0.0	---	0.00	0.0	-20.1	724.2	0.027	0.000	19.9	19	1
10/27/19	3:56 p	-20.1	-20.1	-20.2	0.0	---	0.00	0.0	-20.1	724.1	0.027	0.000	19.9	18	1
10/27/19	3:57 p	-20.2	-20.1	-20.2	0.0	---	0.00	0.0	-20.1	724.1	0.027	0.000	19.9	18	1
10/27/19	3:58 p	-20.2	-20.2	-20.2	0.0	---	0.00	0.0	-20.2	724.2	0.027	0.000	19.9	19	1
10/27/19	3:59 p	-20.3	-20.2	-20.3	0.0	---	0.00	0.0	-20.2	724.2	0.027	0.000	19.9	19	1
10/27/19	4:00 p	-20.4	-20.3	-20.4	0.0	---	0.00	0.0	-20.4	724.1	0.027	0.000	19.9	18	1
10/27/19	4:01 p	-20.6	-20.5	-20.6	0.0	---	0.00	0.0	-20.5	724.2	0.027	0.000	19.9	18	1
10/27/19	4:02 p	-20.6	-20.6	-20.7	0.0	---	0.00	0.0	-20.6	724.2	0.027	0.000	19.9	19	1
10/27/19	4:03 p	-20.7	-20.7	-20.7	0.0	---	0.00	0.0	-20.6	724.2	0.027	0.000	19.9	19	1
10/27/19	4:04 p	-20.7	-20.7	-20.7	0.0	---	0.00	0.0	-20.6	724.2	0.027	0.000	19.9	19	1
10/27/19	4:05 p	-20.7	-20.7	-20.7	0.0	---	0.00	0.0	-20.6	724.3	0.027	0.000	19.9	19	1
10/27/19	4:06 p	-20.7	-20.6	-20.7	0.0	---	0.00	0.0	-20.6	724.3	0.027	0.000	19.9	19	1
10/27/19	4:07 p	-20.6	-20.5	-20.6	0.0	---	0.00	0.0	-20.5	724.4	0.027	0.000	19.9	19	1
10/27/19	4:08 p	-20.5	-20.4	-20.5	0.0	---	0.00	0.0	-20.4	724.4	0.027	0.000	19.9	19	1
10/27/19	4:09 p	-20.4	-20.4	-20.4	0.0	---	0.00	0.0	-20.4	724.4	0.027	0.000	19.9	19	1
10/27/19	4:10 p	-20.4	-20.3	-20.4	0.0	---	0.00	0.0	-20.3	724.5	0.027	0.000	19.9	18	1
10/27/19	4:11 p	-20.3	-20.3	-20.3	0.0	---	0.00	0.0	-20.3	724.5	0.027	0.000	19.9	19	1
10/27/19	4:12 p	-20.2	-20.2	-20.3	0.0	---	0.00	0.0	-20.2	724.5	0.027	0.000	19.9	19	1
10/27/19	4:13 p	-20.2	-20.2	-20.2	0.0	---	0.00	0.0	-20.2	724.5	0.027	0.000	19.9	18	1
10/27/19	4:14 p	-20.2	-20.2	-20.2	0.0	---	0.00	0.0	-20.1	724.5	0.027	0.000	19.9	18	1
10/27/19	4:15 p	-20.2	-20.2	-20.2	0.0	---	0.00	0.0	-20.1	724.6	0.027	0.000	19.9	18	1
10/27/19	4:16 p	-20.2	-20.1	-20.2	0.0	---	0.00	0.0	-20.1	724.6	0.027	0.000	19.9	18	1
10/27/19	4:17 p	-20.1	-20.1	-20.1	0.0	---	0.00	0.0	-20.0	724.5	0.027	0.000	19.9	18	1
10/27/19	4:18 p	-20.0	-19.9	-20.0	0.0	---	0.00	0.0	-19.9	724.6	0.027	0.000	19.8	18	1
10/27/19	4:19 p	-19.8	-19.8	-19.9	0.0	---	0.00	0.0	-19.8	724.7	0.027	0.000	19.8	19	1
10/27/19	4:20 p	-19.8	-19.8	-19.8	0.0	---	0.00	0.0	-19.7	724.6	0.026	0.000	19.8	19	1
10/27/19	4:21 p	-19.8	-19.7	-19.8	0.0	---	0.00	0.0	-19.7	724.6	0.026	0.000	19.8	18	1
10/27/19	4:22 p	-19.7	-19.7	-19.7	0.0	---	0.00	0.0	-19.7	724.7	0.026	0.000	19.7	19	1
10/27/19	4:23 p	-19.7	-19.6	-19.7	0.0	---	0.00	0.0	-19.6	724.6	0.026	0.000	19.7	19	1
10/27/19	4:24 p	-19.6	-19.6	-19.6	0.0	---	0.00	0.0	-19.6	724.7	0.026	0.000	19.7	19	1
10/27/19	4:25 p	-19.6	-19.6	-19.6	0.0	---	0.00	0.0	-19.5	724.8	0.026	0.000	19.8	18	1
10/27/19	4:26 p	-19.6	-19.6	-19.6	0.0	---	0.00	0.0	-19.5	724.8	0.026	0.000	19.8	19	1
10/27/19	4:27 p	-19.5	-19.5	-19.6	0.0	---	0.00	0.0	-19.4	724.7	0.026	0.000	19.8	19	1
10/27/19	4:28 p	-19.5	-19.4	-19.6	0.0	---	0.00	0.0	-19.4	724.7	0.026	0.000	19.8	18	1
10/27/19	4:29 p	-19.4	-19.4	-19.4	0.0	---	0.00	0.0	-19.4	724.8	0.026	0.000	19.7	18	1
10/27/19	4:30 p	-19.4	-19.4	-19.4	0.0	---	0.00	0.0	-19.4	724.8	0.026	0.000	19.7	19	1
10/27/19	4:31 p	-19.4	-19.4	-19.4	0.0	---	0.00	0.0	-19.4	724.8	0.026	0.000	19.8	19	1
10/27/19	4:32 p	-19.4	-19.4	-19.4	0.0	---	0.00	0.0	-19.4	724.9	0.026	0.000	19.8	18	1
10/27/19	4:33 p	-19.4	-19.4	-19.4	0.0	---	0.00	0.0	-19.3	724.8	0.026	0.000	19.8	19	1
10/27/19	4:34 p	-19.4	-19.4	-19.4	0.0	---	0.00	0.0	-19.3	724.9	0.026	0.000	19.8	19	1
10/27/19	4:35 p	-19.3	-19.3	-19.3	0.0	---	0.00	0.0	-19.3	724.8	0.026	0.000	19.8	19	1
10/27/19	4:36 p	-19.3	-19.3	-19.3	0.0	---	0.00	0.0	-19.3	724.8	0.026	0.000	19.8	19	1
10/27/19	4:37 p	-19.2	-19.2	-19.3	0.0	---	0.00	0.0	-19.2	724.9	0.026	0.000	19.8	18	1
10/27/19	4:38 p	-19.2	-19.2	-19.2	0.0	---	0.00	0.0	-19.1	724.9	0.026	0.000	19.8	18	1
10/27/19	4:39 p	-19.2	-19.1	-19.2	0.0	---	0.00	0.0	-19.1	724.9	0.026	0.000	19.8	18	1
10/27/19	4:40 p	-19.1	-19.1	-19.1	0.0	---	0.00	0.0	-19.1	725.0	0.026	0.000	19.8	18	1
10/27/19	4:41 p	-19.2	-19.1	-19.2	0.0	---	0.00	0.0	-19.1	725.0	0.026	0.000	19.8	18	1
10/27/19	4:42 p	-19.1	-19.1	-19.1	0.0	---	0.00	0.0	-19.1	725.0	0.026	0.000	19.8	18	1
10/27/19	4:43 p	-19.1	-19.1	-19.1	0.0	---	0.00	0.0	-19.0	725.0	0.026	0.000	19.8	19	1
10/27/19	4:44 p	-19.1	-19.0	-19.1	0.0	---	0.00	0.0	-19.0	725.0	0.026	0.000	19.8	19	1
10/27/19	4:45 p	-19.0	-19.0	-19.0	0.0	---	0.00	0.0	-18.9	725.0	0.026	0.000	19.8	18	1
10/27/19	4:46 p	-19.0	-18.9	-19.0	0.0	---	0.00	0.0	-18.9	725.0	0.026	0.000	19.8	18	1
10/27/19	4:47 p	-18.9	-18.8	-18.9	0.0	---	0.00	0.0	-18.8	725.0	0.026	0.000	19.8	19	1
10/27/19	4:48 p	-18.8	-18.8	-18.8	0.0	---	0.00	0.0	-18.8	725.1	0.026	0.000	19.8	18	1
10/27/19	4:49 p	-18.8	-18.8	-18.8	0.0	---	0.00	0.0	-18.7	725.2	0.026	0.000	19.8	19	1
10/27/19	4:50 p	-18.7	-18.7	-18.7	0.0	---	0.00	0.0	-18.7	725.2	0.026	0.000	19.8	18	1
10/27/19	4:51 p	-18.7	-18.7	-18.7	0.0	---	0.00	0.0	-18.7	725.1	0.026	0.000	19.8	19	1
10/27/19	4:52 p	-18.7	-18.7	-18.7	0.0	---	0.00	0.0	-18.7	725.1	0.026	0.000	19.7	18	1
10/27/19	4:53 p	-18.7	-18.7	-18.7	0.0	---	0.00	0.0	-18.7	725.2	0.026	0.000	19.7	19	1
10/27/19	4:54 p	-18.7	-18.7	-18.7	0.0	---	0.00	0.0	-18.6	725.1	0.026	0.000	19.7	18	1
10/27/19	4:55 p	-18.6	-18.6	-18.7	0.0	---	0.00	0.0	-18.6	725.2	0.026	0.000	19.7	18	1
10/27/19	4:56 p	-18.6	-18.6	-18.7	0.0	---	0.00	0.0	-18.6	725.2	0.026	0.000	19.7	18	1
10/27/19	4:57 p	-18.6	-18.6	-18.7	0.0	---	0.00	0.0	-18.6	725.1	0.026	0.000	19.7	18	1
10/27/19	4:58 p	-18.6	-18.6	-18.6	0.0	---	0.00	0.0	-18.5	725.2	0.026	0.000	19.7	18	1
10/27/19	4:59 p	-18.5	-18.5	-18.6	0.0	---	0.00	0.0	-18.4	725.2	0.026	0.000	19.7	18	1
10/27/19	5:00 p	-18.4	-18.4	-18.5	0.0	---	0.00	0.0	-18.4	725.2	0.026	0.000	19.7	18	1
10/27/19	5:01 p	-18.4	-18.4	-18.4	0.0	---	0.00	0.0	-18.4	725.2	0.026	0.000	19.7	18	1
10/27/19	5:02 p	-18.4	-18.3	-18.4	0.0	---	0.00	0.0	-18.3	725.2	0.026	0.000	19.7	18	1
10/27/19	5:03 p	-18.3	-18.3	-18.3	0.0	---	0.00	0.0	-18.3	725.2	0.025	0.000	19.7	18	1
10/27/19	5:04 p	-18.3	-18.3	-18.4	0.0	---	0.00	0.0	-18.3	725.3	0.025	0.000	19.7	18	1
10/27/19	5:05 p	-18.4	-18.3	-18.4	0.0	---	0.00	0.0	-18.3	725.3	0.026	0.000	19.7	18	1
10/27/19	5:06 p	-18.3	-18.3	-18.3	0.0	---	0.00	0.0	-18.3	725.3	0.025	0.000	19.7	18	1
10/27/19	5:07 p	-18.3	-18.3	-18.3	0.0	---	0.00	0.0	-18.2	725.5	0.025	0.000	19.7	18	1
10/27/19	5:08 p	-18.3	-18.3	-18.3	0.0	---	0.00	0.0	-18.2	725.3	0.025	0.000	19.7	19	1
10/27/19	5:09 p	-18.3	-18.3	-18.3	0.0	---	0.00	0.0	-18.2	725.3	0.025	0.000	19.7	18	1
10/27/19	5:10 p	-18.2	-18.2	-18.3	0.0	---	0.00	0.0	-18.2	725.4	0.025	0.000	19.7	18	1
10/27/19	5:11 p	-18.1	-18.1	-18.2	0.0	---	0.00	0.0	-18.1	725.4	0.025	0.000	19.7	18	1
10/27/19	5:12 p	-18.1	-18.1	-18.1	0.0	---	0.00	0.0	-18.1	725.5	0.025	0.000	19.7	18	1
10/27/19	5:13 p	-18.1	-18.1	-18.1	0.0	---	0.00	0.0	-18.1	725.5	0.025	0.000	19.7	18	1
10/27/19	5:14 p	-18.1	-18.1	-18.2	0.0	---	0.00	0.0	-18.1	725.4	0.025	0.000	19.7	18	1
10/27/19	5:15 p	-18.2	-18.2	-18.2	0.0	---	0.00	0.0	-18.1	725.5	0.025	0.000	19.7	18	1
10/27/19	5:16 p	-18.2	-18.2	-18.2	0.0	---	0.00	0.0	-18.1	725.5	0.025	0.000	19.7	18	1
10/27/19	5:17 p	-18.2	-18.1	-18.2	0.0	---	0.00	0.0	-18.1	725.5	0.025	0.000	19.7	18	1
10/27/19	5:18 p	-18.2	-18.1	-18.2	0.0	---	0.00	0.0	-18.1	725.5	0.025	0.000	19.7	18	1
10/27/19	5:19 p	-18.2	-18.2	-18.2	0.0	---	0.00	0.0	-18.1	725.5	0.025	0.000	19.7	18	1
10/27/19	5:20 p	-18.1	-18.1	-18.2	0.0	---	0.00	0.0	-18.1	725.5	0.025	0.000	19.7	19	1
10/27/19	5:21 p	-18.1	-18.1	-18.1	0.0	---	0.00	0.0	-18.1	725.5	0.025	0.000	19.7	18	1
10/27/19	5:22 p	-18.1	-18.1	-18.1	0.0	---	0.00	0.0	-18.1	725.5	0.025	0.000	19.7	18	1
10/27/19	5:23 p	-18.1	-18.1	-18.1	0.0	---	0.00	0.0	-18.1	725.5	0.025	0.000	19.7	18	1
10/27/19	5:24 p	-18.1	-18.1	-18.1	0.0	---	0.00	0.0	-18.1	725.5	0.025	0.000	19.6	18	1
10/27/19	5:25 p	-18.1	-18.0	-18.1	0.0	---	0.00	0.0	-18.0	725.5	0.025	0.000	19.6	19	1
10/27/19	5:26 p	-18.0	-18.0	-18.0	0.0	---	0.00	0.0	-17.9	725.5	0.025	0.000	19.6	18	1
10/27/19	5:27 p	-18.0	-17.9	-18.0	0.0	---	0.00	0.0	-17.9	725.5	0.025	0.000	19.6	19	1
10/27/19	5:28 p	-17.9	-17.9	-17.9	0.0	---	0.00	0.0	-17.9	725.5	0.025	0.000	19.6	18	1
10/27/19	5:29 p	-17.9	-17.9	-17.9	0.0	---	0.00	0.0	-17.9	725.5	0.025	0.000	19.6	18	1
10/27/19	5:30 p	-17.9	-17.9	-17.9	0.0	---	0.00	0.0	-17.9	725.5	0.025	0.000	19.6	18	1
10/27/19	5:31 p	-17.9	-17.9	-17.9	0.0	---	0.00	0.0	-17.8	725.5	0.025	0.000	19.7	18	1
10/27/19	5:32 p	-17.9	-17.9	-17.9	0.0	---	0.00	0.0	-17.8	725.6	0.025	0.000	19.7	19	1
10/27/19	5:33 p	-17.9	-17.9	-17.9	0.0	---	0.00	0.0	-17.8	725.5	0.025	0.000	19.7	19	1
10/27/19	5:34 p	-17.9	-17.9	-17.9	0.0	---	0.00	0.0	-17.8	725.5	0.025	0.000	19.7	19	1
10/27/19	5:35 p	-17.9	-17.9	-17.9	0.0	---	0.00	0.0	-17.8	725.5	0.025	0.000	19.7	19	1
10/27/19	5:36 p	-17.9	-17.8	-17.9	0.0	---	0.00	0.0	-17.8	725.5	0.025	0.000	19.7	18	1
10/27/19	5:37 p	-17.8	-17.8	-17.8	0.0	---	0.00	0.0	-17.8	725.6	0.025	0.000	19.7	19	1
10/27/19	5:38 p	-17.8	-17.8	-17.8	0.0	---	0.00	0.0	-17.8	725.5	0.025	0.000	19.7	19	1
10/27/19	5:39 p	-17.8	-17.8	-17.8	0.0	---	0.00	0.0	-17.8	725.5	0.025	0.000	19.7	19	1
10/27/19	5:40 p	-17.8	-17.8	-17.8	0.0	---	0.00	0.0	-17.8	725.5	0.025	0.000	19.7	19	1
10/27/19	5:41 p	-17.7	-17.7	-17.8	0.0	---	0.00	0.0	-17.7	725.5	0.025	0.000	19.7	19	1
10/27/19	5:42 p	-17.8	-17.8	-17.8	0.0	---	0.00	0.0	-17.8	725.5	0.025	0.000	19.7	19	1
10/27/19	5:43 p	-17.8	-17.8	-17.8	0.0	---	0.00	0.0	-17.8	725.6	0.025	0.000	19.7	19	1
10/27/19	5:44 p	-17.8	-17.8	-17.8	0.0	---	0.00	0.0	-17.8	725.6	0.025	0.000	19.7	19	1
10/27/19	5:45 p	-17.8	-17.8	-17.8	0.0	---	0.00	0.0	-17.8	725.4	0.025	0.000	19.7	19	1
10/27/19	5:46 p	-17.8	-17.8	-17.8	0.0	---	0.00	0.0	-17.8	725.6	0.025	0.000	19.8	18	1
10/27/19	5:47 p	-17.8	-17.8	-17.8	0.0	---	0.00	0.0	-17.8	725.5	0.025	0.000	19.8	19	1
10/27/19	5:48 p	-17.8	-17.8	-17.8	0.0	---	0.00	0.0	-17.8	725.5	0.025	0.000	19.8	18	1
10/27/19	5:49 p	-17.8	-17.8	-17.9	0.0	---	0.00	0.0	-17.8	725.5	0.025	0.000	19.8	18	1
10/27/19	5:50 p	-17.9	-17.9	-17.9	0.0	---	0.00	0.0	-17.8	725.5	0.025	0.000	19.8	18	1
10/27/19	5:51 p	-17.9	-17.9	-17.9	0.0	---	0.00	0.0	-17.9	725.5	0.025	0.000	19.8	18	1
10/27/19	5:52 p	-17.9	-17.9	-17.9	0.0	---	0.00	0.0	-17.9	725.5	0.025	0.000	19.8	18	1
10/27/19	5:53 p	-17.9	-17.9	-17.9	0.0	---	0.00	0.0	-17.9	725.6	0.025	0.000	19.8	19	1
10/27/19	5:54 p	-17.9	-17.9	-17.9	0.0	---	0.00	0.0	-17.9	725.5	0.025	0.000	19.8	19	1
10/27/19	5:55 p	-17.9	-17.9	-18.0	0.0	---	0.00	0.0	-17.9	725.5	0.025	0.000	19.8	18	1
10/27/19	5:56 p	-17.9	-17.9	-18.0	0.0	---	0.00	0.0	-17.9	725.5	0.025	0.000	19.8	18	1
10/27/19	5:57 p	-17.9	-17.9	-17.9	0.0	---	0.00	0.0	-17.9	725.4	0.025	0.000	19.8	19	1
10/27/19	5:58 p	-17.9	-17.9	-17.9	0.0	---	0.00	0.0	-17.8	725.6	0.025	0.000	19.8	18	1
10/27/19	5:59 p	-17.9	-17.9	-17.9	0.0	---	0.00	0.0	-17.8	725.6	0.025	0.000	19.7	18	1
10/27/19	6:00 p	-17.9	-17.9	-17.9	0.0	---	0.00	0.0	-17.8	725.6	0.025	0.000	19.7	19	1
10/27/19	6:01 p	-17.9	-17.9	-17.9	0.0	---	0.00	0.0	-17.9	725.5	0.025	0.000	19.7	18	1
10/27/19	6:02 p	-17.9	-17.9	-17.9	0.0	---	0.00	0.0	-17.9	725.6	0.025	0.000	19.7	18	1
10/27/19	6:03 p	-17.9	-17.9	-17.9	0.0	---	0.00	0.0	-17.9	725.5	0.025	0.000	19.6	19	1
10/27/19	6:04 p	-17.9	-17.8	-17.9	0.0	---	0.00	0.0	-17.8	725.6	0.025	0.000	19.6	19	1
10/27/19	6:05 p	-17.8	-17.8	-17.8	0.0	---	0.00	0.0	-17.8	725.6	0.025	0.000	19.6	19	1
10/27/19	6:06 p	-17.8	-17.8	-17.8	0.0	---	0.00	0.0	-17.8	725.6	0.025	0.000	19.6	19	1
10/27/19	6:07 p	-17.8	-17.8	-17.8	0.0	---	0.00	0.0	-17.8	725.5	0.025	0.000	19.6	19	1
10/27/19	6:08 p	-17.8	-17.8	-17.8	0.0	---	0.00	0.0	-17.8	725.6	0.025	0.000	19.6	18	1
10/27/19	6:09 p	-17.8	-17.8	-17.8	0.0	---	0.00	0.0	-17.8	725.5	0.025	0.000	19.6	18	1
10/27/19	6:10 p	-17.8	-17.8	-17.8	0.0	---	0.00	0.0	-17.8	725.5	0.025	0.000	19.7	19	1
10/27/19	6:11 p	-17.8	-17.8	-17.8	0.0	---	0.00	0.0	-17.8	725.5	0.025	0.000	19.7	18	1
10/27/19	6:12 p	-17.8	-17.8	-17.8	0.0	---	0.00	0.0	-17.8	725.6	0.025	0.000	19.7	18	1
10/27/19	6:13 p	-17.8	-17.8	-17.8	0.0	---	0.00	0.0	-17.8	725.4	0.025	0.000	19.7	19	1
10/27/19	6:14 p	-17.8	-17.8	-17.9	0.0	---	0.00	0.0	-17.8	725.5	0.025	0.000	19.7	18	1
10/27/19	6:15 p	-17.8	-17.8	-17.9	0.0	---	0.00	0.0	-17.8	725.6	0.025	0.000	19.7	19	1
10/27/19	6:16 p	-17.9	-17.8	-17.9	0.0	---	0.00	0.0	-17.8	725.6	0.025	0.000	19.7	19	1
10/27/19	6:17 p	-17.9	-17.9	-17.9	0.0	---	0.00	0.0	-17.9	725.6	0.025	0.000	19.7	19	1
10/27/19	6:18 p	-17.9	-17.9	-17.9	0.0	---	0.00	0.0	-17.9	725.6	0.025	0.000	19.7	19	1
10/27/19	6:19 p	-17.9	-17.9	-17.9	0.0	---	0.00	0.0	-17.9	725.6	0.025	0.000	19.8	18	1
10/27/19	6:20 p	-17.9	-17.9	-18.0	0.0	---	0.00	0.0	-17.9	725.6	0.025	0.000	19.8	18	1
10/27/19	6:21 p	-17.9	-17.9	-17.9	0.0	---	0.00	0.0	-17.9	725.6	0.025	0.000	19.8	18	1
10/27/19	6:22 p	-17.9	-17.9	-18.0	0.0	---	0.00	0.0	-17.9	725.6	0.025	0.000	19.8	18	1
10/27/19	6:23 p	-18.0	-17.9	-18.0	0.0	---	0.00	0.0	-17.9	725.6	0.025	0.000	19.8	18	1
10/27/19	6:24 p	-18.0	-17.9	-18.0	0.0	---	0.00	0.0	-17.9	725.7	0.025	0.000	19.8	18	1
10/27/19	6:25 p	-17.9	-17.9	-17.9	0.0	---	0.00	0.0	-17.9	725.6	0.025	0.000	19.8	18	1
10/27/19	6:26 p	-17.9	-17.9	-17.9	0.0	---	0.00	0.0	-17.9	725.6	0.025	0.000	19.8	18	1
10/27/19	6:27 p	-18.0	-17.9	-18.0	0.0	---	0.00	0.0	-17.9	725.6	0.025	0.000	19.8	18	1
10/27/19	6:28 p	-17.9	-17.9	-17.9	0.0	---	0.00	0.0	-17.9	725.6	0.025	0.000	19.9	18	1
10/27/19	6:29 p	-17.9	-17.9	-17.9	0.0	---	0.00	0.0	-17.8	725.6	0.025	0.000	19.9	18	1
10/27/19	6:30 p	-17.9	-17.9	-17.9	0.0	---	0.00	0.0	-17.8	725.7	0.025	0.000	19.9	18	1
10/27/19	6:31 p	-17.9	-17.9	-17.9	0.0	---	0.00	0.0	-17.9	725.7	0.025	0.000	19.9	18	1
10/27/19	6:32 p	-17.9	-17.9	-18.0	0.0	---	0.00	0.0	-17.9	725.7	0.025	0.000	19.9	18	1
10/27/19	6:33 p	-18.0	-18.0	-18.0	0.0	---	0.00	0.0	-17.9	725.7	0.025	0.000	19.9	18	1
10/27/19	6:34 p	-18.1	-18.0	-18.1	0.0	---	0.00	0.0	-18.0	725.7	0.025	0.000	19.9	18	1
10/27/19	6:35 p	-18.1	-18.1	-18.1	0.0	---	0.00	0.0	-18.1	725.7	0.025	0.000	19.9	18	1
10/27/19	6:36 p	-18.1	-18.1	-18.2	0.0	---	0.00	0.0	-18.1	725.7	0.025	0.000	19.9	18	1
10/27/19	6:37 p	-18.1	-18.1	-18.2	0.0	---	0.00	0.0	-18.1	725.7	0.025	0.000	19.9	18	1
10/27/19	6:38 p	-18.2	-18.2	-18.2	0.0	---	0.00	0.0	-18.1	725.8	0.025	0.000	19.9	18	1
10/27/19	6:39 p	-18.2	-18.2	-18.2	0.0	---	0.00	0.0	-18.2	725.8	0.025	0.000	19.9	18	1
10/27/19	6:40 p	-18.2	-18.2	-18.3	0.0	---	0.00	0.0	-18.2	725.8	0.025	0.000	19.9	18	1
10/27/19	6:41 p	-18.3	-18.3	-18.3	0.0	---	0.00	0.0	-18.2	725.7	0.025	0.000	19.9	18	1
10/27/19	6:42 p	-18.3	-18.3	-18.3	0.0	---	0.00	0.0	-18.2	725.8	0.025	0.000	19.9	18	1
10/27/19	6:43 p	-18.3	-18.3	-18.3	0.0	---	0.00	0.0	-18.2	725.7	0.025	0.000	19.8	18	1
10/27/19	6:44 p	-18.3	-18.3	-18.3	0.0	---	0.00	0.0	-18.2	725.7	0.025	0.000	19.8	18	1
10/27/19	6:45 p	-18.3	-18.3	-18.3	0.0	---	0.00	0.0	-18.3	725.8	0.025	0.000	19.8	18	1
10/27/19	6:46 p	-18.3	-18.3	-18.3	0.0	---	0.00	0.0	-18.3	725.8	0.025	0.000	19.8	18	1
10/27/19	6:47 p	-18.3	-18.3	-18.3	0.0	---	0.00	0.0	-18.3	725.8	0.025	0.000	19.8	18	1
10/27/19	6:48 p	-18.3	-18.3	-18.3	0.0	---	0.00	0.0	-18.3	725.8	0.025	0.000	19.8	18	1
10/27/19	6:49 p	-18.3	-18.3	-18.3	0.0	---	0.00	0.0	-18.2	725.8	0.025	0.000	19.8	18	1
10/27/19	6:50 p	-18.2	-18.2	-18.3	0.0	---	0.00	0.0	-18.2	725.8	0.025	0.000	19.8	18	1
10/27/19	6:51 p	-18.2	-18.2	-18.3	0.0	---	0.00	0.0	-18.2	725.8	0.025	0.000	19.8	18	1
10/27/19	6:52 p	-18.2	-18.2	-18.2	0.0	---	0.00	0.0	-18.2	725.7	0.025	0.000	19.8	18	1
10/27/19	6:53 p	-18.2	-18.2	-18.2	0.0	---	0.00	0.0	-18.2	725.8	0.025	0.000	19.8	18	1
10/27/19	6:54 p	-18.2	-18.2	-18.2	0.0	---	0.00	0.0	-18.2	725.8	0.025	0.000	19.8	18	1
10/27/19	6:55 p	-18.2	-18.2	-18.2	0.0	---	0.00	0.0	-18.2	725.7	0.025	0.000	19.8	18	1
10/27/19	6:56 p	-18.2	-18.2	-18.2	0.0	---	0.00	0.0	-18.1	725.8	0.025	0.000	19.8	18	1
10/27/19	6:57 p	-18.1	-18.1	-18.2	0.0	---	0.00	0.0	-18.1	725.8	0.025	0.000	19.9	18	1
10/27/19	6:58 p	-18.2	-18.1	-18.2	0.0	---	0.00	0.0	-18.1	725.8	0.025	0.000	19.9	18	1
10/27/19	6:59 p	-18.1	-18.1	-18.1	0.0	---	0.00	0.0	-18.1	725.7	0.025	0.000	19.9	18	1
10/27/19	7:00 p	-18.1	-18.1	-18.1	0.0	---	0.00	0.0	-18.1	725.8	0.025	0.000	19.9	18	1
10/27/19	7:01 p	-18.1	-18.1	-18.1	0.0	---	0.00	0.0	-18.1	725.8	0.025	0.000	19.9	18	1
10/27/19	7:02 p	-18.1	-18.1	-18.1	0.0	---	0.00	0.0	-18.0	725.8	0.025	0.000	19.9	18	1
10/27/19	7:03 p	-18.1	-18.1	-18.1	0.0	---	0.00	0.0	-18.0	725.8	0.025	0.000	19.9	18	1
10/27/19	7:04 p	-18.1	-18.1	-18.1	0.0	---	0.00	0.0	-18.0	725.8	0.025	0.000	19.9	17	1
10/27/19	7:05 p	-18.1	-18.0	-18.1	0.0	---	0.00	0.0	-18.0	725.8	0.025	0.000	19.9	18	1
10/27/19	7:06 p	-18.1	-18.1	-18.1	0.0	---	0.00	0.0	-18.0	725.8	0.025	0.000	19.9	18	1
10/27/19	7:07 p	-18.1	-18.0	-18.1	0.0	---	0.00	0.0	-18.0	725.9	0.025	0.000	19.9	18	1
10/27/19	7:08 p	-18.0	-18.0	-18.1	0.0	---	0.00	0.0	-17.9	725.8	0.025	0.000	19.9	18	1
10/27/19	7:09 p	-18.0	-18.0	-18.1	0.0	---	0.00	0.0	-17.9	725.8	0.025	0.000	19.9	18	1
10/27/19	7:10 p	-18.1	-18.0	-18.1	0.0	---	0.00	0.0	-18.0	725.8	0.025	0.000	19.9	18	1
10/27/19	7:11 p	-18.0	-18.0	-18.1	0.0	---	0.00	0.0	-17.9	725.9	0.025	0.000	19.9	18	1
10/27/19	7:12 p	-18.0	-18.0	-18.1	0.0	---	0.00	0.0	-17.9	725.8	0.025	0.000	19.9	18	1
10/27/19	7:13 p	-18.1	-18.0	-18.1	0.0	---	0.00	0.0	-18.0	725.8	0.025	0.000	19.9	18	1
10/27/19	7:14 p	-18.0	-18.0	-18.0	0.0	---	0.00	0.0	-17.9	725.8	0.025	0.000	19.9	18	1
10/27/19	7:15 p	-17.9	-17.9	-18.0	0.0	---	0.00	0.0	-17.9	725.9	0.025	0.000	19.9	18	1
10/27/19	7:16 p	-17.9	-17.9	-17.9	0.0	---	0.00	0.0	-17.9	725.9	0.025	0.000	19.9	18	1
10/27/19	7:17 p	-17.9	-17.9	-17.9	0.0	---	0.00	0.0	-17.9	725.9	0.025	0.000	19.9	18	1
10/27/19	7:18 p	-18.0	-17.9	-18.0	0.0	---	0.00	0.0	-17.9	725.9	0.025	0.000	19.9	18	1
10/27/19	7:19 p	-17.9	-17.9	-18.0	0.0	---	0.00	0.0	-17.9	725.8	0.025	0.000	19.9	18	1
10/27/19	7:20 p	-17.9	-17.9	-17.9	0.0	---	0.00	0.0	-17.9	725.8	0.025	0.000	19.9	18	1
10/27/19	7:21 p	-17.9	-17.9	-17.9	0.0	---	0.00	0.0	-17.8	725.9	0.025	0.000	19.9	18	1
10/27/19	7:22 p	-17.8	-17.8	-17.9	0.0	---	0.00	0.0	-17.8	725.8	0.025	0.000	19.8	18	1
10/27/19	7:23 p	-17.8	-17.8	-17.8	0.0	---	0.00	0.0	-17.8	725.9	0.025	0.000	19.8	18	1
10/27/19	7:24 p	-17.8	-17.8	-17.8	0.0	---	0.00	0.0	-17.8	725.9	0.025	0.000	19.8	18	1
10/27/19	7:25 p	-17.8	-17.8	-17.8	0.0	---	0.00	0.0	-17.8	725.9	0.025	0.000	19.8	18	1
10/27/19	7:26 p	-17.8	-17.7	-17.8	0.0	---	0.00	0.0	-17.8	725.9	0.025	0.000	19.8	18	1
10/27/19	7:27 p	-17.7	-17.7	-17.7	0.0	---	0.00	0.0	-17.7	726.0	0.025	0.000	19.8	18	1
10/27/19	7:28 p	-17.7	-17.7	-17.7	0.0	---	0.00	0.0	-17.7	726.0	0.025	0.000	19.8	18	1
10/27/19	7:29 p	-17.7	-17.7	-17.7	0.0	---	0.00	0.0	-17.7	725.9	0.025	0.000	19.8	18	1
10/27/19	7:30 p	-17.7	-17.7	-17.7	0.0	---	0.00	0.0	-17.7	725.9	0.025	0.000	19.8	18	1
10/27/19	7:31 p	-17.7	-17.7	-17.7	0.0	---	0.00	0.0	-17.7	725.9	0.025	0.000	19.8	18	1
10/27/19	7:32 p	-17.8	-17.7	-17.8	0.0	---	0.00	0.0	-17.8	725.9	0.025	0.000	19.8	18	1
10/27/19	7:33 p	-17.8	-17.8	-17.8	0.0	---	0.00	0.0	-17.8	725.9	0.025	0.000	19.8	18	1
10/27/19	7:34 p	-17.8	-17.8	-17.8	0.0	---	0.00	0.0	-17.8	726.0	0.025	0.000	19.8	18	1
10/27/19	7:35 p	-17.8	-17.8	-17.8	0.0	---	0.00	0.0	-17.8	726.0	0.025	0.000	19.9	18	1
10/27/19	7:36 p	-17.8	-17.8	-17.8	0.0	---	0.00	0.0	-17.8	725.9	0.025	0.000	19.9	18	1
10/27/19	7:37 p	-17.8	-17.8	-17.8	0.0	---	0.00	0.0	-17.8	726.0	0.025	0.000	19.9	18	1
10/27/19	7:38 p	-17.9	-17.8	-17.9	0.0	---	0.00	0.0	-17.8	726.0	0.025	0.000	19.9	18	1
10/27/19	7:39 p	-17.9	-17.8	-17.9	0.0	---	0.00	0.0	-17.8	725.9	0.025	0.000	19.9	18	1
10/27/19	7:40 p	-17.8	-17.8	-17.8	0.0	---	0.00	0.0	-17.8	726.0	0.025	0.000	19.9	18	1
10/27/19	7:41 p	-17.8	-17.8	-17.9	0.0	---	0.00	0.0	-17.8	725.9	0.025	0.000	19.9	18	1
10/27/19	7:42 p	-17.9	-17.9	-17.9	0.0	---	0.00	0.0	-17.8	726.0	0.025	0.000	19.9	18	1
10/27/19	7:43 p	-17.9	-17.9	-17.9	0.0	---	0.00	0.0	-17.8	726.0	0.025	0.000	19.9	18	1
10/27/19	7:44 p	-17.9	-17.9	-17.9	0.0	---	0.00	0.0	-17.9	726.0	0.025	0.000	19.9	18	1
10/27/19	7:45 p	-17.9	-17.9	-17.9	0.0	---	0.00	0.0	-17.8	726.0	0.025	0.000	19.9	18	1
10/27/19	7:46 p	-17.8	-17.8	-17.9	0.0	---	0.00	0.0	-17.8	725.9	0.025	0.000	19.9	18	1
10/27/19	7:47 p	-17.8	-17.7	-17.8	0.0	---	0.00	0.0	-17.8	726.0	0.025	0.000	19.9	18	1
10/27/19	7:48 p	-17.7	-17.7	-17.7	0.0	---	0.00	0.0	-17.7	725.9	0.025	0.000	19.9	18	1
10/27/19	7:49 p	-17.7	-17.6	-17.7	0.0	---	0.00	0.0	-17.7	726.0	0.025	0.000	19.9	18	1
10/27/19	7:50 p	-17.6	-17.6	-17.6	0.0	---	0.00	0.0	-17.6	726.0	0.025	0.000	19.9	18	1
10/27/19	7:51 p	-17.5	-17.5	-17.6	0.0	---	0.00	0.0	-17.5	726.0	0.025	0.000	19.9	18	1
10/27/19	7:52 p	-17.4	-17.4	-17.5	0.0	---	0.00	0.0	-17.4	726.0	0.025	0.000	19.9	18	1
10/27/19	7:53 p	-17.4	-17.4	-17.4	0.0	---	0.00	0.0	-17.4	726.0	0.025	0.000	19.9	18	1
10/27/19	7:54 p	-17.3	-17.3	-17.3	0.0	---	0.00	0.0	-17.3	726.1	0.025	0.000	19.9	18	1
10/27/19	7:55 p	-17.3	-17.3	-17.3	0.0	---	0.00	0.0	-17.3	726.1	0.025	0.000	19.9	18	1
10/27/19	7:56 p	-17.2	-17.2	-17.2	0.0	---	0.00	0.0	-17.2	726.1	0.025	0.000	19.9	18	1
10/27/19	7:57 p	-17.2	-17.2	-17.2	0.0	---	0.00	0.0	-17.2	726.0	0.025	0.000	19.9	18	1
10/27/19	7:58 p	-17.2	-17.2	-17.2	0.0	---	0.00	0.0	-17.2	726.1	0.025	0.000	19.9	18	1
10/27/19	7:59 p	-17.1	-17.1	-17.1	0.0	---	0.00	0.0	-17.1	726.1	0.025	0.000	19.9	18	1
10/27/19	8:00 p	-17.1	-17.1	-17.1	0.0	---	0.00	0.0	-17.1	726.1	0.025	0.000	19.9	18	1
10/27/19	8:01 p	-17.0	-16.9	-17.1	0.0	---	0.00	0.0	-17.0	726.1	0.025	0.000	19.8	18	1
10/27/19	8:02 p	-16.9	-16.9	-16.9	0.0	---	0.00	0.0	-16.9	726.1	0.024	0.000	19.8	18	1
10/27/19	8:03 p	-16.9	-16.9	-16.9	0.0	---	0.00	0.0	-16.9	726.1	0.024	0.000	19.8	18	1
10/27/19	8:04 p	-16.9	-16.9	-16.9	0.0	---	0.00	0.0	-16.9	726.1	0.024	0.000	19.8	18	1
10/27/19	8:05 p	-16.8	-16.8	-16.8	0.0	---	0.00	0.0	-16.8	726.1	0.024	0.000	19.8	18	1
10/27/19	8:06 p	-16.8	-16.8	-16.8	0.0	---	0.00	0.0	-16.8	726.1	0.024	0.000	19.8	18	1
10/27/19	8:07 p	-16.8	-16.7	-16.8	0.0	---	0.00	0.0	-16.8	726.1	0.024	0.000	19.8	18	1
10/27/19	8:08 p	-16.7	-16.7	-16.7	0.0	---	0.00	0.0	-16.7	726.2	0.024	0.000	19.8	18	1
10/27/19	8:09 p	-16.7	-16.7	-16.7	0.0	---	0.00	0.0	-16.7	726.1	0.024	0.000	19.8	18	1
10/27/19	8:10 p	-16.7	-16.7	-16.7	0.0	---	0.00	0.0	-16.7	726.1	0.024	0.000	19.8	18	1
10/27/19	8:11 p	-16.6	-16.6	-16.7	0.0	---	0.00	0.0	-16.6	726.1	0.024	0.000	19.8	18	1
10/27/19	8:12 p	-16.6	-16.6	-16.6	0.0	---	0.00	0.0	-16.6	726.2	0.024	0.000	19.8	18	1
10/27/19	8:13 p	-16.6	-16.6	-16.6	0.0	---	0.00	0.0	-16.6	726.2	0.024	0.000	19.8	18	1
10/27/19	8:14 p	-16.6	-16.6	-16.6	0.0	---	0.00	0.0	-16.6	726.2	0.024	0.000	19.8	18	1
10/27/19	8:15 p	-16.6	-16.6	-16.6	0.0	---	0.00	0.0	-16.6	726.3	0.024	0.000	19.8	18	1
10/27/19	8:16 p	-16.6	-16.6	-16.7	0.0	---	0.00	0.0	-16.6	726.2	0.024	0.000	19.9	18	1
10/27/19	8:17 p	-16.6	-16.6	-16.7	0.0	---	0.00	0.0	-16.6	726.2	0.024	0.000	19.9	18	1
10/27/19	8:18 p	-16.7	-16.7	-16.7	0.0	---	0.00	0.0	-16.7	726.3	0.024	0.000	19.9	18	1
10/27/19	8:19 p	-16.7	-16.7	-16.7	0.0	---	0.00	0.0	-16.7	726.3	0.024	0.000	19.9	18	1
10/27/19	8:20 p	-16.8	-16.7	-16.8	0.0	---	0.00	0.0	-16.8	726.3	0.024	0.000	19.9	18	1
10/27/19	8:21 p	-16.8	-16.8	-16.8	0.0	---	0.00	0.0	-16.8	726.3	0.024	0.000	19.9	18	1
10/27/19	8:22 p	-16.9	-16.8	-16.9	0.0	---	0.00	0.0	-16.9	726.4	0.024	0.000	19.9	18	1
10/27/19	8:23 p	-16.9	-16.9	-16.9	0.0	---	0.00	0.0	-16.9	726.4	0.024	0.000	19.9	18	1
10/27/19	8:24 p	-16.9	-16.9	-16.9	0.0	---	0.00	0.0	-16.9	726.4	0.024	0.000	19.9	18	1
10/27/19	8:25 p	-16.9	-16.9	-16.9	0.0	---	0.00	0.0	-16.9	726.4	0.024	0.000	19.9	18	1
10/27/19	8:26 p	-17.0	-17.0	-17.0	0.0	---	0.00	0.0	-17.0	726.4	0.025	0.000	19.9	18	1
10/27/19	8:27 p	-17.0	-17.0	-17.1	0.0	---	0.00	0.0	-17.0	726.4	0.025	0.000	19.9	18	1
10/27/19	8:28 p	-17.1	-17.1	-17.1	0.0	---	0.00	0.0	-17.1	726.4	0.025	0.000	19.9	18	1
10/27/19	8:29 p	-17.1	-17.1	-17.1	0.0	---	0.00	0.0	-17.1	726.4	0.025	0.000	19.9	18	1
10/27/19	8:30 p	-17.1	-17.1	-17.2	0.0	---	0.00	0.0	-17.1	726.4	0.025	0.000	19.9	18	1
10/27/19	8:31 p	-17.2	-17.1	-17.2	0.0	---	0.00	0.0	-17.2	726.4	0.025	0.000	19.9	18	1
10/27/19	8:32 p	-17.2	-17.2	-17.2	0.0	---	0.00	0.0	-17.2	726.5	0.025	0.000	19.9	18	1
10/27/19	8:33 p	-17.2	-17.2	-17.2	0.0	---	0.00	0.0	-17.2	726.4	0.025	0.000	19.9	18	1
10/27/19	8:34 p	-17.2	-17.2	-17.2	0.0	---	0.00	0.0	-17.2	726.4	0.025	0.000	19.9	18	1
10/27/19	8:35 p	-17.2	-17.1	-17.2	0.0	---	0.00	0.0	-17.2	726.5	0.025	0.000	19.9	18	1
10/27/19	8:36 p	-17.1	-17.1	-17.1	0.0	---	0.00	0.0	-17.1	726.5	0.025	0.000	19.9	18	1
10/27/19	8:37 p	-17.1	-17.1	-17.1	0.0	---	0.00	0.0	-17.1	726.4	0.025	0.000	19.9	18	1
10/27/19	8:38 p	-17.1	-17.1	-17.1	0.0	---	0.00	0.0	-17.1	726.5	0.025	0.000	19.9	18	1
10/27/19	8:39 p	-17.1	-17.1	-17.2	0.0	---	0.00	0.0	-17.1	726.5	0.025	0.000	19.9	18	1
10/27/19	8:40 p	-17.2	-17.2	-17.2	0.0	---	0.00	0.0	-17.2	726.5	0.025	0.000	19.9	18	1
10/27/19	8:41 p	-17.2	-17.2	-17.2	0.0	---	0.00	0.0	-17.2	726.4	0.025	0.000	19.9	18	1
10/27/19	8:42 p	-17.2	-17.2	-17.2	0.0	---	0.00	0.0	-17.2	726.5	0.025	0.000	19.9	18	1
10/27/19	8:43 p	-17.2	-17.2	-17.2	0.0	---	0.00	0.0	-17.2	726.5	0.025	0.000	19.8	18	1
10/27/19	8:44 p	-17.2	-17.2	-17.2	0.0	---	0.00	0.0	-17.2	726.5	0.025	0.000	19.8	18	1
10/27/19	8:45 p	-17.2	-17.1	-17.2	0.0	---	0.00	0.0	-17.2	726.6	0.025	0.000	19.8	18	1
10/27/19	8:46 p	-17.2	-17.1	-17.2	0.0	---	0.00	0.0	-17.2	726.6	0.025	0.000	19.8	18	1
10/27/19	8:47 p	-17.2	-17.2	-17.2	0.0	---	0.00	0.0	-17.2	726.5	0.025	0.000	19.8	18	1
10/27/19	8:48 p	-17.2	-17.2	-17.2	0.0	---	0.00	0.0	-17.2	726.5	0.025	0.000	19.8	18	1
10/27/19	8:49 p	-17.2	-17.2	-17.2	0.0	---	0.00	0.0	-17.2	726.6	0.025	0.000	19.8	18	1
10/27/19	8:50 p	-17.2	-17.2	-17.2	0.0	---	0.00	0.0	-17.2	726.6	0.025	0.000	19.8	18	1
10/27/19	8:51 p	-17.2	-17.2	-17.2	0.0	---	0.00	0.0	-17.2	726.6	0.025	0.000	19.8	18	1
10/27/19	8:52 p	-17.2	-17.2	-17.2	0.0	---	0.00	0.0	-17.2	726.6	0.025	0.000	19.8	18	1
10/27/19	8:53 p	-17.2	-17.1	-17.2	0.0	---	0.00	0.0	-17.2	726.6	0.025	0.000	19.8	18	1
10/27/19	8:54 p	-17.2	-17.1	-17.2	0.0	---	0.00	0.0	-17.2	726.6	0.025	0.000	19.8	18	1
10/27/19	8:55 p	-17.1	-17.1	-17.1	0.0	---	0.00	0.0	-17.1	726.6	0.025	0.000	19.8	18	1
10/27/19	8:56 p	-17.1	-17.1	-17.1	0.0	---	0.00	0.0	-17.1	726.6	0.025	0.000	19.8	18	1
10/27/19	8:57 p	-17.0	-16.9	-17.1	0.0	---	0.00	0.0	-17.0	726.6	0.025	0.000	19.9	18	1
10/27/19	8:58 p	-16.9	-16.8	-16.9	0.0	---	0.00	0.0	-16.9	726.7	0.024	0.000	19.9	18	1
10/27/19	8:59 p	-16.7	-16.7	-16.8	0.0	---	0.00	0.0	-16.7	726.7	0.024	0.000	19.9	18	1
10/27/19	9:00 p	-16.7	-16.7	-16.7	0.0	---	0.00	0.0	-16.7	726.7	0.024	0.000	19.9	18	1
10/27/19	9:01 p	-16.7	-16.6	-16.7	0.0	---	0.00	0.0	-16.7	726.7	0.024	0.000	19.9	18	1
10/27/19	9:02 p	-16.6	-16.6	-16.6	0.0	---	0.00	0.0	-16.6	726.6	0.024	0.000	19.9	18	1
10/27/19	9:03 p	-16.5	-16.4	-16.5	0.0	---	0.00	0.0	-16.5	726.7	0.024	0.000	19.9	18	1
10/27/19	9:04 p	-16.4	-16.4	-16.4	0.0	---	0.00	0.0	-16.4	726.7	0.024	0.000	19.9	18	1
10/27/19	9:05 p	-16.4	-16.4	-16.4	0.0	---	0.00	0.0	-16.4	726.7	0.024	0.000	19.9	18	1
10/27/19	9:06 p	-16.3	-16.3	-16.3	0.0	---	0.00	0.0	-16.3	726.7	0.024	0.000	19.9	18	1
10/27/19	9:07 p	-16.3	-16.3	-16.4	0.0	---	0.00	0.0	-16.3	726.7	0.024	0.000	19.9	18	1
10/27/19	9:08 p	-16.3	-16.3	-16.4	0.0	---	0.00	0.0	-16.3	726.7	0.024	0.000	19.9	18	1
10/27/19	9:09 p	-16.4	-16.4	-16.4	0.0	---	0.00	0.0	-16.4	726.7	0.024	0.000	19.9	18	1
10/27/19	9:10 p	-16.4	-16.4	-16.4	0.0	---	0.00	0.0	-16.4	726.8	0.024	0.000	19.9	18	1
10/27/19	9:11 p	-16.4	-16.4	-16.4	0.0	---	0.00	0.0	-16.4	726.8	0.024	0.000	19.9	18	1
10/27/19	9:12 p	-16.4	-16.4	-16.4	0.0	---	0.00	0.0	-16.4	726.9	0.024	0.000	19.9	18	1
10/27/19	9:13 p	-16.4	-16.4	-16.4	0.0	---	0.00	0.0	-16.4	726.8	0.024	0.000	19.9	18	1
10/27/19	9:14 p	-16.5	-16.4	-16.5	0.0	---	0.00	0.0	-16.5	726.9	0.024	0.000	19.9	18	1
10/27/19	9:15 p	-16.5	-16.5	-16.6	0.0	---	0.00	0.0	-16.5	726.9	0.024	0.000	19.9	18	1
10/27/19	9:16 p	-16.6	-16.6	-16.6	0.0	---	0.00	0.0	-16.6	726.9	0.024	0.000	19.9	18	1
10/27/19	9:17 p	-16.6	-16.6	-16.6	0.0	---	0.00	0.0	-16.6	726.9	0.024	0.000	19.9	18	1
10/27/19	9:18 p	-16.6	-16.6	-16.6	0.0	---	0.00	0.0	-16.6	726.9	0.024	0.000	19.9	18	1
10/27/19	9:19 p	-16.6	-16.6	-16.6	0.0	---	0.00	0.0	-16.6	726.9	0.024	0.000	19.9	18	1
10/27/19	9:20 p	-16.6	-16.6	-16.7	0.0	---	0.00	0.0	-16.6	726.9	0.024	0.000	19.9	18	1
10/27/19	9:21 p	-16.7	-16.7	-16.7	0.0	---	0.00	0.0	-16.7	726.9	0.024	0.000	19.9	18	1
10/27/19	9:22 p	-16.7	-16.7	-16.8	0.0	---	0.00	0.0	-16.7	726.9	0.024	0.000	19.9	18	1
10/27/19	9:23 p	-16.8	-16.8	-16.8	0.0	---	0.00	0.0	-16.8	726.9	0.024	0.000	19.9	18	1
10/27/19	9:24 p	-16.9	-16.8	-16.9	0.0	---	0.00	0.0	-16.9	727.0	0.024	0.000	19.8	18	1
10/27/19	9:25 p	-16.9	-16.9	-16.9	0.0	---	0.00	0.0	-16.9	726.9	0.024	0.000	19.8	18	1
10/27/19	9:26 p	-16.9	-16.9	-16.9	0.0	---	0.00	0.0	-16.9	726.9	0.024	0.000	19.8	18	1
10/27/19	9:27 p	-16.9	-16.9	-16.9	0.0	---	0.00	0.0	-16.9	727.0	0.024	0.000	19.8	18	1
10/27/19	9:28 p	-16.9	-16.8	-16.9	0.0	---	0.00	0.0	-16.9	727.0	0.024	0.000	19.8	18	1
10/27/19	9:29 p	-16.8	-16.8	-16.9	0.0	---	0.00	0.0	-16.8	727.0	0.024	0.000	19.8	18	1
10/27/19	9:30 p	-16.7	-16.7	-16.8	0.0	---	0.00	0.0	-16.7	727.0	0.024	0.000	19.8	18	1
10/27/19	9:31 p	-16.7	-16.6	-16.7	0.0	---	0.00	0.0	-16.7	727.0	0.024	0.000	19.9	18	1
10/27/19	9:32 p	-16.6	-16.6	-16.6	0.0	---	0.00	0.0	-16.6	727.0	0.024	0.000	19.9	18	1
10/27/19	9:33 p	-16.4	-16.4	-16.5	0.0	---	0.00	0.0	-16.4	727.0	0.024	0.000	19.9	18	1
10/27/19	9:34 p	-16.4	-16.4	-16.4	0.0	---	0.00	0.0	-16.4	727.0	0.024	0.000	19.9	18	1
10/27/19	9:35 p	-16.4	-16.4	-16.4	0.0	---	0.00	0.0	-16.4	727.0	0.024	0.000	19.9	18	1
10/27/19	9:36 p	-16.4	-16.4	-16.4	0.0	---	0.00	0.0	-16.4	727.0	0.024	0.000	19.9	18	1
10/27/19	9:37 p	-16.4	-16.4	-16.4	0.0	---	0.00	0.0	-16.4	727.0	0.024	0.000	19.9	18	1
10/27/19	9:38 p	-16.4	-16.3	-16.4	0.0	---	0.00	0.0	-16.4	727.0	0.024	0.000	19.9	18	1
10/27/19	9:39 p	-16.3	-16.3	-16.3	0.0	---	0.00	0.0	-16.3	727.1	0.024	0.000	19.9	18	1
10/27/19	9:40 p	-16.2	-16.1	-16.3	0.0	---	0.00	0.0	-16.2	727.1	0.024	0.000	19.9	18	1
10/27/19	9:41 p	-16.1	-16.1	-16.1	0.0	---	0.00	0.0	-16.1	727.0	0.024	0.000	19.9	18	1
10/27/19	9:42 p	-16.1	-16.1	-16.1	0.0	---	0.00	0.0	-16.1	727.0	0.024	0.000	19.9	18	1
10/27/19	9:43 p	-16.1	-16.1	-16.2	0.0	---	0.00	0.0	-16.1	727.0	0.024	0.000	19.9	18	1
10/27/19	9:44 p	-16.2	-16.1	-16.2	0.0	---	0.00	0.0	-16.2	727.0	0.024	0.000	19.9	18	1
10/27/19	9:45 p	-16.1	-16.1	-16.2	0.0	---	0.00	0.0	-16.1	727.0	0.024	0.000	19.9	18	1
10/27/19	9:46 p	-16.0	-16.0	-16.1	0.0	---	0.00	0.0	-16.0	727.1	0.024	0.000	19.9	18	1
10/27/19	9:47 p	-15.9	-15.9	-16.0	0.0	---	0.00	0.0	-15.9	727.1	0.024	0.000	19.9	18	1
10/27/19	9:48 p	-15.9	-15.8	-15.9	0.0	---	0.00	0.0	-15.9	727.1	0.024	0.000	19.9	18	1
10/27/19	9:49 p	-15.8	-15.7	-15.8	0.0	---	0.00	0.0	-15.8	727.1	0.024	0.000	19.9	18	1
10/27/19	9:50 p	-15.7	-15.7	-15.7	0.0	---	0.00	0.0	-15.7	727.2	0.024	0.000	20.0	18	1
10/27/19	9:51 p	-15.7	-15.6	-15.7	0.0	---	0.00	0.0	-15.7	727.1	0.024	0.000	20.0	18	1
10/27/19	9:52 p	-15.6	-15.6	-15.6	0.0	---	0.00	0.0	-15.6	727.1	0.024	0.000	20.0	18	1
10/27/19	9:53 p	-15.6	-15.6	-15.6	0.0	---	0.00	0.0	-15.6	727.1	0.024	0.000	20.0	18	1
10/27/19	9:54 p	-15.6	-15.6	-15.6	0.0	---	0.00	0.0	-15.6	727.2	0.024	0.000	20.0	18	1
10/27/19	9:55 p	-15.6	-15.6	-15.6	0.0	---	0.00	0.0	-15.6	727.1	0.024	0.000	20.0	18	1
10/27/19	9:56 p	-15.6	-15.6	-15.7	0.0	---	0.00	0.0	-15.6	727.2	0.024	0.000	20.0	18	1
10/27/19	9:57 p	-15.6	-15.6	-15.6	0.0	---	0.00	0.0	-15.6	727.2	0.024	0.000	20.0	18	1
10/27/19	9:58 p	-15.5	-15.4	-15.5	0.0	---	0.00	0.0	-15.5	727.2	0.023	0.000	19.9	18	1
10/27/19	9:59 p	-15.4	-15.3	-15.4	0.0	---	0.00	0.0	-15.4	727.2	0.023	0.000	19.9	18	1
10/27/19	10:00 p	-15.3	-15.3	-15.3	0.0	---	0.00	0.0	-15.3	727.2	0.023	0.000	19.9	18	1
10/27/19	10:01 p	-15.2	-15.2	-15.2	0.0	---	0.00	0.0	-15.2	727.1	0.023	0.000	19.9	18	1
10/27/19	10:02 p	-15.2	-15.1	-15.2	0.0	---	0.00	0.0	-15.2	727.2	0.023	0.000	19.9	18	1
10/27/19	10:03 p	-15.1	-15.1	-15.1	0.0	---	0.00	0.0	-15.1	727.2	0.023	0.000	19.9	18	1
10/27/19	10:04 p	-15.1	-15.1	-15.1	0.0	---	0.00	0.0	-15.1	727.2	0.023	0.000	19.8	18	1
10/27/19	10:05 p	-15.1	-15.1	-15.1	0.0	---	0.00	0.0	-15.1	727.3	0.023	0.000	19.8	18	1
10/27/19	10:06 p	-15.1	-15.1	-15.1	0.0	---	0.00	0.0	-15.1	727.3	0.023	0.000	19.8	18	1
10/27/19	10:08 p	-15.0	-15.0	-15.0	0.0	---	0.00	0.0	-15.0	727.3	0.023	0.000	19.8	18	1
10/27/19	10:09 p	-15.0	-15.0	-15.0	0.0	---	0.00	0.0	-15.0	727.3	0.023	0.000	19.9	18	1
10/27/19	10:10 p	-14.9	-14.9	-15.0	0.0	---	0.00	0.0	-14.9	727.3	0.023	0.000	19.9	18	1
10/27/19	10:11 p	-14.9	-14.8	-14.9	0.0	---	0.00	0.0	-14.9	727.4	0.023	0.000	19.9	18	1
10/27/19	10:12 p	-14.8	-14.8	-14.8	0.0	---	0.00	0.0	-14.8	727.3	0.023	0.000	19.9	18	1
10/27/19	10:13 p	-14.7	-14.7	-14.8	0.0	---	0.00	0.0	-14.7	727.4	0.023	0.000	19.9	18	1
10/27/19	10:14 p	-14.6	-14.5	-14.7	0.0	---	0.00	0.0	-14.6	727.3	0.023	0.000	19.9	18	1
10/27/19	10:15 p	-14.4	-14.4	-14.5	0.0	---	0.00	0.0	-14.4	727.3	0.023	0.000	19.9	18	1
10/27/19	10:16 p	-14.4	-14.4	-14.4	0.0	---	0.00	0.0	-14.4	727.3	0.023	0.000	19.9	18	1
10/27/19	10:17 p	-14.3	-14.2	-14.3	0.0	---	0.00	0.0	-14.3	727.4	0.023	0.000	19.9	18	1
10/27/19	10:18 p	-14.2	-14.1	-14.2	0.0	---	0.00	0.0	-14.2	727.3	0.023	0.000	19.9	18	1
10/27/19	10:19 p	-14.1	-14.0	-14.1	0.0	---	0.00	0.0	-14.1	727.3	0.022	0.000	19.9	18	1
10/27/19	10:20 p	-14.0	-13.9	-14.0	0.0	---	0.00	0.0	-14.0	727.3	0.022	0.000	19.9	18	1
10/27/19	10:21 p	-13.9	-13.9	-13.9	0.0	---	0.00	0.0	-13.9	727.2	0.022	0.000	19.9	18	1
10/27/19	10:22 p	-13.9	-13.9	-13.9	0.0	---	0.00	0.0	-13.9	727.2	0.022	0.000	19.9	18	1
10/27/19	10:23 p	-13.8	-13.8	-13.9	0.0	---	0.00	0.0	-13.8	727.3	0.022	0.000	19.9	18	1
10/27/19	10:24 p	-13.8	-13.7	-13.8	0.0	---	0.00	0.0	-13.8	727.3	0.022	0.000	19.9	18	1
10/27/19	10:25 p	-13.7	-13.6	-13.7	0.0	---	0.00	0.0	-13.7	727.3	0.022	0.000	20.0	18	1
10/27/19	10:26 p	-13.6	-13.6	-13.6	0.0	---	0.00	0.0	-13.6	727.3	0.022	0.000	20.0	18	1
10/27/19	10:27 p	-13.4	-13.4	-13.5	0.0	---	0.00	0.0	-13.4	727.3	0.022	0.000	20.0	18	1
10/27/19	10:28 p	-13.3	-13.3	-13.3	0.0	---	0.00	0.0	-13.3	727.4	0.022	0.000	20.0	18	1
10/27/19	10:29 p	-13.1	-13.0	-13.2	0.0	---	0.00	0.0	-13.1	727.3	0.022	0.000	20.0	18	1
10/27/19	10:30 p	-12.9	-12.9	-12.9	0.0	---	0.00	0.0	-12.9	727.4	0.022	0.000	20.0	18	1
10/27/19	10:31 p	-12.7	-12.6	-12.8	0.0	---	0.00	0.0	-12.7	727.3	0.022	0.000	20.1	18	1
10/27/19	10:32 p	-12.5	-12.5	-12.5	0.0	---	0.00	0.0	-12.5	727.4	0.021	0.000	20.1	18	1
10/27/19	10:33 p	-12.3	-12.3	-12.3	0.0	---	0.00	0.0	-12.3	727.3	0.021	0.000	20.1	18	1
10/27/19	10:34 p	-12.3	-12.3	-12.3	0.0	---	0.00	0.0	-12.3	727.3	0.021	0.000	20.1	18	1
10/27/19	10:35 p	-12.2	-12.1	-12.2	0.0	---	0.00	0.0	-12.2	727.3	0.021	0.000	20.1	18	1
10/27/19	10:36 p	-12.1	-12.1	-12.2	0.0	---	0.00	0.0	-12.1	727.3	0.021	0.000	20.1	18	1
10/27/19	10:37 p	-12.1	-12.0	-12.1	0.0	---	0.00	0.0	-12.1	727.3	0.021	0.000	20.1	18	1
10/27/19	10:38 p	-12.0	-12.0	-12.0	0.0	---	0.00	0.0	-12.0	727.4	0.021	0.000	20.1	18	1
10/27/19	10:39 p	-11.9	-11.9	-11.9	0.0	---	0.00	0.0	-11.9	727.3	0.021	0.000	20.1	18	1
10/27/19	10:40 p	-11.9	-11.9	-11.9	0.0	---	0.00	0.0	-11.9	727.4	0.021	0.000	20.1	18	1
10/27/19	10:41 p	-11.9	-11.9	-11.9	0.0	---	0.00	0.0	-11.9	727.4	0.021	0.000	20.1	18	1
10/27/19	10:42 p	-11.8	-11.8	-11.9	0.0	---	0.00	0.0	-11.8	727.4	0.021	0.000	20.1	18	1
10/27/19	10:43 p	-11.8	-11.8	-11.8	0.0	---	0.00	0.0	-11.8	727.4	0.021	0.000	20.1	18	1
10/27/19	10:44 p	-11.8	-11.8	-11.8	0.0	---	0.00	0.0	-11.8	727.4	0.021	0.000	20.1	18	1
10/27/19	10:45 p	-11.8	-11.7	-11.8	0.0	---	0.00	0.0	-11.8	727.4	0.021	0.000	20.1	18	1
10/27/19	10:46 p	-11.7	-11.7	-11.7	0.0	---	0.00	0.0	-11.7	727.4	0.021	0.000	20.1	18	1
10/27/19	10:47 p	-11.6	-11.6	-11.7	0.0	---	0.00	0.0	-11.6	727.4	0.021	0.000	20.1	18	1
10/27/19	10:48 p	-11.5	-11.4	-11.6	0.0	---	0.00	0.0	-11.5	727.5	0.021	0.000	20.1	18	1
10/27/19	10:49 p	-11.3	-11.3	-11.4	0.0	---	0.00	0.0	-11.3	727.5	0.021	0.000	20.1	18	1
10/27/19	10:50 p	-11.3	-11.2	-11.3	0.0	---	0.00	0.0	-11.3	727.5	0.021	0.000	20.1	18	1
10/27/19	10:51 p	-11.2	-11.2	-11.2	0.0	---	0.00	0.0	-11.2	727.5	0.021	0.000	20.1	18	1
10/27/19	10:52 p	-11.1	-10.9	-11.1	0.0	---	0.00	0.0	-11.1	727.5	0.020	0.000	20.1	18	1
10/27/19	10:53 p	-10.9	-10.9	-10.9	0.0	---	0.00	0.0	-10.9	727.5	0.020	0.000	20.1	18	1
10/27/19	10:54 p	-10.9	-10.9	-11.0	0.0	---	0.00	0.0	-10.9	727.4	0.020	0.000	20.1	18	1
10/27/19	10:55 p	-10.9	-10.9	-10.9	0.0	---	0.00	0.0	-10.9	727.5	0.020	0.000	20.1	18	1
10/27/19	10:56 p	-10.9	-10.8	-10.9	0.0	---	0.00	0.0	-10.9	727.6	0.020	0.000	20.1	18	1
10/27/19	10:57 p	-10.8	-10.8	-10.8	0.0	---	0.00	0.0	-10.8	727.5	0.020	0.000	20.1	18	1
10/27/19	10:58 p	-10.8	-10.8	-10.8	0.0	---	0.00	0.0	-10.8	727.5	0.020	0.000	20.0	18	1
10/27/19	10:59 p	-10.8	-10.8	-10.9	0.0	---	0.00	0.0	-10.8	727.5	0.020	0.000	19.9	18	1
10/27/19	11:00 p	-10.8	-10.8	-10.8	0.0	---	0.00	0.0	-10.8	727.6	0.020	0.000	19.9	18	1
10/27/19	11:01 p	-10.8	-10.8	-10.9	0.0	---	0.00	0.0	-10.8	727.6	0.020	0.000	19.9	19	1
10/27/19	11:02 p	-10.9	-10.9	-11.0	0.0	---	0.00	0.0	-10.9	727.5	0.020	0.000	19.9	18	1
10/27/19	11:03 p	-11.0	-11.0	-11.0	0.0	---	0.00	0.0	-11.0	727.5	0.020	0.000	19.9	18	1
10/27/19	11:04 p	-10.9	-10.9	-11.0	0.0	---	0.00	0.0	-10.9	727.6	0.020	0.000	19.9	18	1
10/27/19	11:05 p	-10.9	-10.9	-10.9	0.0	---	0.00	0.0	-10.9	727.6	0.020	0.000	19.9	18	1
10/27/19	11:06 p	-11.0	-10.9	-11.0	0.0	---	0.00	0.0	-11.0	727.5	0.020	0.000	19.9	18	1
10/27/19	11:07 p	-11.1	-11.0	-11.1	0.0	---	0.00	0.0	-11.1	727.5	0.020	0.000	19.9	18	1
10/27/19	11:08 p	-11.1	-11.1	-11.1	0.0	---	0.00	0.0	-11.1	727.5	0.020	0.000	20.0	18	1
10/27/19	11:09 p	-11.1	-11.1	-11.2	0.0	---	0.00	0.0	-11.1	727.6	0.020	0.000	20.0	18	1
10/27/19	11:10 p	-11.2	-11.1	-11.2	0.0	---	0.00	0.0	-11.2	727.6	0.020	0.000	20.0	18	1
10/27/19	11:11 p	-11.3	-11.2	-11.4	0.0	---	0.00	0.0	-11.3	727.6	0.021	0.000	20.0	18	1
10/27/19	11:12 p	-11.4	-11.3	-11.4	0.0	---	0.00	0.0	-11.4	727.6	0.021	0.000	20.0	18	1
10/27/19	11:13 p	-11.3	-11.3	-11.4	0.0	---	0.00	0.0	-11.3	727.5	0.021	0.000	20.0	18	1
10/27/19	11:14 p	-11.4	-11.4	-11.5	0.0	---	0.00	0.0	-11.4	727.6	0.021	0.000	20.0	18	1
10/27/19	11:15 p	-11.5	-11.4	-11.6	0.0	---	0.00	0.0	-11.5	727.6	0.021	0.000	20.0	18	1
10/27/19	11:16 p	-11.4	-11.4	-11.6	0.0	---	0.00	0.0	-11.4	727.6	0.021	0.000	20.1	18	1
10/27/19	11:17 p	-11.4	-11.4	-11.4	0.0	---	0.00	0.0	-11.4	727.6	0.021	0.000	20.1	18	1
10/27/19	11:18 p	-11.4	-11.4	-11.4	0.0	---	0.00	0.0	-11.4	727.6	0.021	0.000	20.1	18	1
10/27/19	11:19 p	-11.6	-11.5	-11.6	0.0	---	0.00	0.0	-11.6	727.6	0.021	0.000	20.1	18	1
10/27/19	11:20 p	-11.5	-11.4	-11.6	0.0	---	0.00	0.0	-11.5	727.6	0.021	0.000	20.1	18	1
10/27/19	11:21 p	-11.4	-11.3	-11.4	0.0	---	0.00	0.0	-11.4	727.6	0.021	0.000	20.1	18	1
10/27/19	11:22 p	-11.2	-11.2	-11.2	0.0	---	0.00	0.0	-11.2	727.6	0.021	0.000	20.1	18	1
10/27/19	11:23 p	-11.3	-11.3	-11.3	0.0	---	0.00	0.0	-11.3	727.6	0.021	0.000	20.1	18	1
10/27/19	11:24 p	-11.2	-11.2	-11.2	0.0	---	0.00	0.0	-11.2	727.6	0.020	0.000	20.1	18	1
10/27/19	11:25 p	-11.2	-11.2	-11.2	0.0	---	0.00	0.0	-11.2	727.6	0.020	0.000	20.1	18	1
10/27/19	11:26 p	-11.2	-11.2	-11.3	0.0	---	0.00	0.0	-11.2	727.6	0.021	0.000	20.1	18	1
10/27/19	11:27 p	-11.2	-11.0	-11.2	0.0	---	0.00	0.0	-11.2	727.7	0.020	0.000	20.1	18	1
10/27/19	11:28 p	-10.9	-10.9	-11.0	0.0	---	0.00	0.0	-10.9	727.7	0.020	0.000	20.1	18	1
10/27/19	11:29 p	-10.9	-10.9	-10.9	0.0	---	0.00	0.0	-10.9	727.6	0.020	0.000	20.1	18	1
10/27/19	11:30 p	-10.8	-10.8	-10.9	0.0	---	0.00	0.0	-10.8	727.6	0.020	0.000	20.1	18	1
10/27/19	11:31 p	-10.7	-10.6	-10.8	0.0	---	0.00	0.0	-10.7	727.7	0.020	0.000	20.1	18	1
10/27/19	11:32 p	-10.6	-10.6	-10.6	0.0	---	0.00	0.0	-10.6	727.7	0.020	0.000	20.1	18	1
10/27/19	11:33 p	-10.6	-10.6	-10.6	0.0	---	0.00	0.0	-10.6	727.7	0.020	0.000	20.1	18	1
10/27/19	11:34 p	-10.6	-10.6	-10.7	0.0	---	0.00	0.0	-10.6	727.7	0.020	0.000	20.1	18	1
10/27/19	11:35 p	-10.7	-10.7	-10.7	0.0	---	0.00	0.0	-10.7	727.7	0.020	0.000	20.0	18	1
10/27/19	11:36 p	-10.6	-10.5	-10.7	0.0	---	0.00	0.0	-10.6	727.7	0.020	0.000	20.0	18	1
10/27/19	11:37 p	-10.5	-10.4	-10.5	0.0	---	0.00	0.0	-10.5	727.6	0.020	0.000	20.0	18	1
10/27/19	11:38 p	-10.4	-10.3	-10.5	0.0	---	0.00	0.0	-10.4	727.7	0.020	0.000	20.0	18	1
10/27/19	11:39 p	-10.2	-10.1	-10.3	0.0	---	0.00	0.0	-10.2	727.7	0.020	0.000	20.0	18	1
10/27/19	11:40 p	-10.1	-9.9	-10.1	0.0	---	0.00	0.0	-10.1	727.7	0.020	0.000	20.0	18	1
10/27/19	11:41 p	-9.9	-9.8	-9.9	0.0	---	0.00	0.0	-9.9	727.7	0.020	0.000	20.0	18	1
10/27/19	11:42 p	-9.9	-9.8	-9.9	0.0	---	0.00	0.0	-9.9	727.7	0.020	0.000	20.0	18	1
10/27/19	11:43 p	-9.9	-9.9	-9.9	0.0	---	0.00	0.0	-9.9	727.7	0.020	0.000	20.1	18	1
10/27/19	11:44 p	-9.9	-9.8	-9.9	0.0	---	0.00	0.0	-9.9	727.7	0.020	0.000	20.1	18	1
10/27/19	11:45 p	-9.8	-9.8	-9.8	0.0	---	0.00	0.0	-9.8	727.7	0.020	0.000	20.1	18	1
10/27/19	11:46 p	-9.9	-9.8	-10.0	0.0	---	0.00	0.0	-9.9	727.8	0.020	0.000	20.1	18	1
10/27/19	11:47 p	-10.0	-10.0	-10.1	0.0	---	0.00	0.0	-10.0	727.7	0.020	0.000	20.1	18	1
10/27/19	11:48 p	-10.2	-10.1	-10.2	0.0	---	0.00	0.0	-10.2	727.7	0.020	0.000	20.1	18	1
10/27/19	11:49 p	-10.2	-10.2	-10.2	0.0	---	0.00	0.0	-10.2	727.8	0.020	0.000	20.1	18	1
10/27/19	11:50 p	-10.3	-10.2	-10.4	0.0	---	0.00	0.0	-10.3	727.8	0.020	0.000	20.1	18	1
10/27/19	11:51 p	-10.4	-10.4	-10.4	0.0	---	0.00	0.0	-10.4	727.7	0.020	0.000	20.1	18	1
10/27/19	11:52 p	-10.4	-10.3	-10.4	0.0	---	0.00	0.0	-10.4	727.7	0.020	0.000	20.1	18	1
10/27/19	11:53 p	-10.1	-10.1	-10.2	0.0	---	0.00	0.0	-10.1	727.7	0.020	0.000	20.1	18	1
10/27/19	11:54 p	-10.2	-10.1	-10.4	0.0	---	0.00	0.0	-10.2	727.8	0.020	0.000	20.1	18	1
10/27/19	11:55 p	-10.6	-10.4	-10.9	0.0	---	0.00	0.0	-10.6	727.8	0.020	0.000	20.1	18	1
10/27/19	11:56 p	-11.2	-10.9	-11.6	0.0	---	0.00	0.0	-11.2	727.8	0.021	0.000	20.1	18	1
10/27/19	11:57 p	-11.8	-11.6	-12.0	0.0	---	0.00	0.0	-11.8	727.9	0.021	0.000	20.2	18	1
10/27/19	11:58 p	-12.1	-12.0	-12.1	0.0	---	0.00	0.0	-12.1	727.8	0.021	0.000	20.2	18	1
10/27/19	11:59 p	-12.1	-12.1	-12.1	0.0	---	0.00	0.0	-12.1	727.7	0.021	0.000	20.2	18	1
10/28/19	12:00 a	-12.1	-12.0	-12.1	0.0	---	0.00	0.0	-12.1	727.8	0.021	0.000	20.2	18	1